# Wetter Temperatur Luftdruck Luftfeuchtigkeit Sichtweite Windgeschwindigkeit Windrichtung Zeit
1 Rain 5 1027 75 10000 2.1 40 22:25 24.01.2020
2 Clouds 4 1027 75 10000 1 0 21:43 24.01.2020
3 Clouds 4 1027 75 10000 1 0 21:43 24.01.2020
4 Clouds 4 1027 75 10000 1 0 21:21 24.01.2020
5 Clouds 5 1027 75 10000 1 0 21:21 24.01.2020
6 Clouds 5 1027 75 10000 1.5 70 20:57 24.01.2020
7 Clouds 5 1027 70 10000 1 30 20:39 24.01.2020
8 Clouds 5 1027 70 10000 1 30 20:20 24.01.2020
9 Clouds 5 1026 75 10000 1 0 19:57 24.01.2020
10 Clouds 5 1026 75 10000 1 0 19:57 24.01.2020
11 Clouds 5 1026 75 10000 1 0 19:38 24.01.2020
12 Clouds 5 1026 75 10000 1 0 19:38 24.01.2020
13 Clouds 5 1026 75 10000 0.5 0 19:20 24.01.2020
14 Clouds 6 1026 70 7000 2.1 150 18:43 24.01.2020
15 Clouds 6 1026 70 7000 2.1 150 18:23 24.01.2020
16 Mist 6 1026 65 5000 2.6 140 17:46 24.01.2020
17 Mist 7 1026 65 5000 2.6 140 17:23 24.01.2020
18 Mist 7 1026 61 5000 1.5 130 16:59 24.01.2020
19 Clouds 7 1026 61 6000 1 0 16:39 24.01.2020
20 Clouds 7 1026 61 6000 1 0 16:20 24.01.2020
21 Mist 8 1026 65 5000 2.1 140 15:43 24.01.2020
22 Mist 8 1026 65 5000 2.1 140 15:22 24.01.2020
23 Mist 8 1026 65 5000 2.1 140 15:22 24.01.2020
24 Mist 8 1026 61 5000 1.5 160 14:56 24.01.2020
25 Mist 8 1026 61 5000 0.5 0 14:38 24.01.2020
26 Mist 8 1026 61 5000 0.5 0 14:19 24.01.2020
27 Mist 8 1027 45 5000 0.5 0 13:42 24.01.2020
28 Mist 8 1027 44 5000 0.5 0 13:22 24.01.2020
29 Mist 7 1027 44 5000 0.5 0 12:44 24.01.2020
30 Mist 7 1027 44 5000 0.5 0 12:44 24.01.2020
31 Mist 6 1028 44 5000 1 0 12:22 24.01.2020
32 Mist 6 1028 44 5000 1.5 250 11:45 24.01.2020
33 Mist 5 1028 61 5000 1 0 11:19 24.01.2020
34 Mist 5 1028 61 5000 1 0 11:19 24.01.2020
35 Mist 4 1028 61 4000 0.5 0 10:58 24.01.2020
36 Clouds 4 1027 74 10000 1 0 10:40 24.01.2020
37 Clouds 3 1027 61 6000 0.5 0 10:19 24.01.2020
38 Clouds 3 1027 61 6000 0.5 0 10:19 24.01.2020
39 Mist 2 1028 86 4000 0.5 0 09:42 24.01.2020
40 Mist 2 1028 61 2000 1 0 09:23 24.01.2020
41 Mist 1 1027 61 3000 0.5 0 08:41 24.01.2020
42 Mist 1 1027 64 3000 0.5 0 08:21 24.01.2020
43 Clear 1 1027 64 8000 0.5 0 08:00 24.01.2020
44 Fog 0 1027 64 8000 1 170 07:41 24.01.2020
45 Clear 0 1026 92 7000 2.1 30 06:55 24.01.2020
46 Mist 0 1027 100 5000 1 350 06:35 24.01.2020
47 Mist 0 1027 100 5000 1 350 06:35 24.01.2020
48 Fog 0 1027 64 6000 0.5 0 05:59 24.01.2020
49 Clear 0 1027 67 10000 1 250 05:18 24.01.2020
50 Clear 0 1029 92 10000 0.5 180 02:54 24.01.2020
51 Clear 0 1029 67 10000 0.5 210 02:28 24.01.2020
52 Clear 0 1029 92 10000 0.5 0 01:56 24.01.2020
53 Clear 0 1029 64 10000 0.5 0 01:35 24.01.2020
54 Clear 0 1030 68 10000 0.5 0 00:33 24.01.2020
55 Clear 1 1030 86 10000 0.5 0 23:58 23.01.2020
56 Clear 1 1030 86 10000 1 360 23:40 23.01.2020
57 Clear 1 1030 92 7000 2.1 20 23:20 23.01.2020
58 Clear 1 1030 86 10000 0.5 0 22:39 23.01.2020
59 Clear 1 1030 86 10000 0.5 0 22:20 23.01.2020
60 Clear 1 1030 64 10000 0.5 300 21:58 23.01.2020
61 Clear 1 1030 80 10000 0.5 0 21:39 23.01.2020
62 Clear 2 1030 80 10000 0.5 0 21:21 23.01.2020
63 Clear 2 1030 64 10000 1 190 20:59 23.01.2020
64 Clear 2 1030 64 10000 0.5 0 20:39 23.01.2020
65 Clouds 2 1030 62 10000 0.5 0 20:20 23.01.2020
66 Clouds 2 1030 62 10000 0.5 0 19:56 23.01.2020
67 Clouds 3 1030 62 10000 1 0 19:38 23.01.2020
68 Clouds 3 1030 62 10000 1 0 19:19 23.01.2020
69 Clouds 3 1030 62 10000 1 0 18:55 23.01.2020
70 Clouds 4 1030 62 10000 2.1 70 18:37 23.01.2020
71 Clouds 5 1030 62 10000 2.1 70 18:18 23.01.2020
72 Clouds 6 1030 62 10000 1.5 70 17:43 23.01.2020
73 Clouds 7 1030 49 10000 2.1 90 17:20 23.01.2020
74 Clouds 8 1030 49 10000 0.5 0 16:57 23.01.2020
75 Clouds 8 1030 49 10000 1 0 16:37 23.01.2020
76 Clouds 8 1030 49 10000 1 0 16:18 23.01.2020
77 Clouds 9 1030 49 10000 2.1 160 15:56 23.01.2020
78 Clouds 8 1030 49 10000 1.5 160 15:37 23.01.2020
79 Clouds 9 1030 49 10000 1.5 160 15:18 23.01.2020
80 Clouds 9 1031 49 10000 1.5 100 14:55 23.01.2020
81 Clouds 9 1031 49 10000 1.5 100 14:55 23.01.2020
82 Clouds 9 1031 49 10000 2.6 100 14:37 23.01.2020
83 Clouds 9 1031 46 10000 2.6 100 14:19 23.01.2020
84 Clear 9 1032 46 10000 1.5 0 13:43 23.01.2020
85 Clear 8 1032 46 10000 1.5 0 13:20 23.01.2020
86 Clear 8 1032 46 10000 1.5 130 12:47 23.01.2020
87 Clear 8 1033 46 10000 1.5 120 12:26 23.01.2020
88 Clear 7 1033 46 10000 2.1 110 11:59 23.01.2020
89 Clear 7 1033 46 10000 2.1 110 11:59 23.01.2020
90 Clear 7 1033 45 10000 1.5 100 11:39 23.01.2020
91 Clear 6 1033 59 10000 1.5 100 11:20 23.01.2020
92 Clear 6 1032 60 10000 1.5 120 10:55 23.01.2020
93 Clear 5 1032 59 10000 1.5 90 10:36 23.01.2020
94 Clear 4 1032 60 10000 1.5 90 10:18 23.01.2020
95 Clear 3 1032 80 10000 2.6 50 09:39 23.01.2020
96 Clear 2 1032 80 10000 2.6 50 09:20 23.01.2020
97 Clear 1 1032 86 10000 2.6 40 08:43 23.01.2020
98 Clear 0 1031 86 10000 2.1 40 08:24 23.01.2020
99 Clear 0 1031 63 10000 2.1 40 07:49 23.01.2020
100 Clear 0 1031 63 10000 1.5 50 07:27 23.01.2020
101 Clear 1 1030 86 10000 2.1 60 06:54 23.01.2020
102 Clear 1 1030 86 10000 1.5 70 06:24 23.01.2020
103 Clear 1 1030 86 10000 2.1 80 05:58 23.01.2020
104 Clear 1 1030 92 10000 1 0 04:24 23.01.2020
105 Clear 1 1030 92 10000 0.5 0 02:45 23.01.2020
106 Clear 1 1030 49 10000 1 20 01:44 23.01.2020
107 Clear 2 1030 50 10000 0.5 170 00:28 23.01.2020
108 Clear 2 1030 86 10000 0.5 0 23:54 22.01.2020
109 Clear 2 1030 86 10000 1 50 23:36 22.01.2020
110 Clear 2 1030 86 10000 1 50 23:18 22.01.2020
111 Clear 2 1030 80 10000 0.5 0 22:41 22.01.2020
112 Clear 2 1030 49 10000 0.5 180 22:23 22.01.2020
113 Clear 3 1030 86 10000 1 220 21:42 22.01.2020
114 Clear 3 1030 80 10000 0.5 0 21:22 22.01.2020
115 Clear 3 1030 74 10000 0.5 290 20:59 22.01.2020
116 Clear 3 1030 69 10000 1 280 20:41 22.01.2020
117 Clear 3 1030 69 10000 1 280 20:23 22.01.2020
118 Clear 3 1030 69 10000 1.5 280 19:57 22.01.2020
119 Clear 4 1030 69 10000 1.5 270 19:39 22.01.2020
120 Clear 4 1030 69 10000 1.5 270 19:19 22.01.2020
121 Clear 5 1030 60 10000 2.1 250 18:57 22.01.2020
122 Clear 5 1030 60 10000 2.1 250 18:38 22.01.2020
123 Clear 5 1030 60 10000 2.1 250 18:20 22.01.2020
124 Clear 6 1030 52 10000 2.1 240 17:55 22.01.2020
125 Clear 6 1030 49 10000 2.1 250 17:37 22.01.2020
126 Clear 7 1030 49 10000 2.1 250 17:18 22.01.2020
127 Clear 8 1031 49 10000 2.6 260 16:43 22.01.2020
128 Clear 9 1031 45 10000 2.6 270 16:23 22.01.2020
129 Clear 9 1032 45 10000 3.1 260 15:58 22.01.2020
130 Clear 9 1032 49 10000 3.1 260 15:40 22.01.2020
131 Clear 9 1032 49 10000 3.1 260 15:22 22.01.2020
132 Clear 9 1032 52 10000 3.6 260 14:56 22.01.2020
133 Clear 9 1033 45 10000 3.6 260 14:36 22.01.2020
134 Clouds 9 1033 40 10000 3.6 260 14:18 22.01.2020
135 Clouds 8 1033 40 10000 3.1 260 13:54 22.01.2020
136 Clouds 8 1034 40 10000 2.1 250 13:36 22.01.2020
137 Clouds 8 1034 40 10000 2.1 250 13:18 22.01.2020
138 Clouds 8 1034 40 10000 2.1 250 13:18 22.01.2020
139 Clouds 7 1034 60 10000 3.1 250 12:54 22.01.2020
140 Clouds 7 1035 60 10000 2.6 250 12:36 22.01.2020
141 Clouds 7 1035 60 10000 2.6 250 12:18 22.01.2020
142 Clouds 6 1035 60 10000 2.1 230 11:54 22.01.2020
143 Clouds 6 1035 56 10000 1.5 260 11:36 22.01.2020
144 Clouds 5 1035 56 10000 1.5 260 11:18 22.01.2020
145 Clouds 3 1036 69 9000 1 0 10:41 22.01.2020
146 Clouds 3 1036 69 9000 1 0 10:19 22.01.2020
147 Clouds 1 1036 80 9000 1.5 260 09:43 22.01.2020
148 Clouds 0 1036 49 9000 1 0 09:24 22.01.2020
149 Clouds 0 1036 92 9000 1.65 259 08:57 22.01.2020
150 Clouds 0 1036 92 10000 0.5 0 08:39 22.01.2020
151 Clouds -1 1036 92 10000 0.5 0 08:20 22.01.2020
152 Clouds -1 1036 92 10000 0.5 220 07:46 22.01.2020
153 Clouds -1 1036 92 10000 1.5 20 07:28 22.01.2020
154 Clouds -1 1036 92 10000 1 0 06:38 22.01.2020
155 Clouds -1 1036 92 10000 1 0 06:20 22.01.2020
156 Clouds -1 1037 86 10000 1 200 05:21 22.01.2020
157 Clouds -1 1038 53 10000 1 260 03:30 22.01.2020
158 Clouds -1 1038 53 10000 1 270 02:50 22.01.2020
159 Clouds 0 1038 86 10000 2.1 260 01:42 22.01.2020
160 Clouds 0 1039 86 10000 1.5 240 00:44 22.01.2020
161 Clouds 1 1039 86 10000 0.5 0 00:25 22.01.2020
162 Clouds 1 1039 53 10000 0.5 210 23:38 21.01.2020
163 Clouds 1 1039 52 10000 1 190 23:20 21.01.2020
164 Clouds 1 1039 52 10000 0.5 0 22:55 21.01.2020
165 Clouds 1 1039 52 10000 0.5 0 22:36 21.01.2020
166 Clouds 1 1039 52 10000 0.5 0 22:36 21.01.2020
167 Clouds 1 1039 52 10000 0.5 0 22:18 21.01.2020
168 Clouds 1 1039 52 10000 0.5 230 21:55 21.01.2020
169 Clouds 1 1039 52 10000 0.5 250 21:36 21.01.2020
170 Clouds 1 1039 52 10000 0.5 0 21:18 21.01.2020
171 Clouds 2 1039 52 10000 0.5 280 20:39 21.01.2020
172 Clouds 2 1039 51 10000 0.5 280 20:20 21.01.2020
173 Clouds 2 1039 74 10000 1 260 19:59 21.01.2020
174 Clouds 2 1039 74 10000 1 260 19:40 21.01.2020
175 Clouds 2 1039 53 10000 1 0 19:21 21.01.2020
176 Clouds 3 1039 53 10000 1.5 250 18:57 21.01.2020
177 Clouds 3 1039 53 10000 1 0 18:39 21.01.2020
178 Clouds 3 1039 53 10000 1 0 18:21 21.01.2020
179 Clouds 4 1039 53 10000 1.5 240 17:57 21.01.2020
180 Clouds 4 1039 53 10000 1.5 240 17:38 21.01.2020
181 Clouds 4 1039 44 10000 1.5 240 17:18 21.01.2020
182 Clouds 5 1040 60 10000 2.6 220 16:38 21.01.2020
183 Clouds 6 1040 60 10000 2.6 220 16:19 21.01.2020
184 Clouds 6 1040 44 10000 2.1 240 15:59 21.01.2020
185 Clouds 6 1040 60 10000 1.5 240 15:38 21.01.2020
186 Clouds 6 1040 60 10000 1.5 240 15:19 21.01.2020
187 Clouds 7 1041 44 10000 2.1 200 14:40 21.01.2020
188 Clouds 7 1041 41 10000 2.1 210 14:21 21.01.2020
189 Clouds 6 1042 60 10000 2.1 200 13:44 21.01.2020
190 Clouds 6 1042 60 10000 2.1 200 13:21 21.01.2020
191 Clouds 6 1042 41 10000 2.1 190 12:59 21.01.2020
192 Clouds 6 1043 41 10000 1.5 240 12:41 21.01.2020
193 Clouds 6 1043 41 10000 1.5 240 12:23 21.01.2020
194 Clouds 5 1043 56 10000 0.5 0 11:56 21.01.2020
195 Clouds 5 1043 60 10000 0.5 0 11:37 21.01.2020
196 Clear 4 1043 60 10000 0.5 0 11:18 21.01.2020
197 Clear 3 1043 80 10000 1.5 10 10:42 21.01.2020
198 Clear 3 1043 80 10000 1.5 10 10:22 21.01.2020
199 Clear 3 1043 80 10000 1.5 10 10:22 21.01.2020
200 Clear 2 1043 80 10000 1 30 09:55 21.01.2020
201 Clear 1 1043 44 10000 1 350 09:37 21.01.2020
202 Clear 0 1043 44 10000 1 0 09:18 21.01.2020
203 Clouds 0 1043 45 10000 1 350 08:41 21.01.2020
204 Clouds -1 1043 56 10000 1 350 08:21 21.01.2020
205 Clouds -1 1043 86 10000 1.5 360 07:43 21.01.2020
206 Clouds -1 1043 80 10000 1.5 20 07:23 21.01.2020
207 Clouds -1 1043 86 10000 0.5 0 06:56 21.01.2020
208 Clouds -1 1043 80 10000 1.5 20 06:37 21.01.2020
209 Clouds -1 1043 86 10000 1 360 05:53 21.01.2020
210 Clouds 0 1044 58 10000 1 330 04:41 21.01.2020
211 Clouds 0 1044 58 10000 1 350 03:40 21.01.2020
212 Clouds 0 1045 62 10000 0.5 0 02:26 21.01.2020
213 Clouds 0 1045 61 10000 0.5 0 01:28 21.01.2020
214 Clouds 1 1045 80 10000 1 360 00:40 21.01.2020
215 Clouds 1 1045 80 10000 1.5 360 23:59 20.01.2020
216 Clouds 1 1045 86 10000 0.5 0 23:41 20.01.2020
217 Clear 1 1045 86 10000 0.5 0 23:19 20.01.2020
218 Clear 1 1044 80 10000 1 360 22:58 20.01.2020
219 Clear 1 1044 80 10000 1.5 10 22:38 20.01.2020
220 Clear 1 1044 80 10000 1.5 10 22:20 20.01.2020
221 Clear 1 1044 80 10000 1.5 10 22:20 20.01.2020
222 Clear 1 1044 69 10000 1 360 21:58 20.01.2020
223 Clear 1 1044 69 10000 1 360 21:37 20.01.2020
224 Clear 1 1044 69 10000 1 350 21:19 20.01.2020
225 Clear 2 1044 74 10000 1 0 20:56 20.01.2020
226 Clear 2 1043 74 10000 1 340 20:38 20.01.2020
227 Clouds 2 1043 60 10000 0.5 0 20:18 20.01.2020
228 Clouds 3 1043 60 10000 0.5 0 19:56 20.01.2020
229 Clouds 3 1042 56 10000 1.5 180 19:38 20.01.2020
230 Clouds 3 1042 56 10000 1.5 180 19:18 20.01.2020
231 Clouds 5 1042 56 10000 1.5 180 18:44 20.01.2020
232 Clouds 5 1042 52 10000 2.1 170 18:22 20.01.2020
233 Clouds 6 1041 45 10000 2.6 150 17:42 20.01.2020
234 Clouds 6 1041 45 10000 2.6 150 17:20 20.01.2020
235 Clouds 7 1041 39 10000 2.6 140 16:59 20.01.2020
236 Clouds 8 1041 36 10000 1.5 100 16:39 20.01.2020
237 Clouds 8 1041 36 10000 1.5 100 16:19 20.01.2020
238 Clouds 8 1041 36 10000 1.5 100 16:19 20.01.2020
239 Clouds 8 1041 36 10000 1.5 100 16:19 20.01.2020
240 Clouds 8 1041 36 10000 1.5 100 16:19 20.01.2020
241 Clouds 8 1041 36 10000 1.5 100 16:19 20.01.2020
242 Clouds 8 1041 36 10000 2.1 90 15:56 20.01.2020
243 Clouds 8 1041 36 10000 2.1 90 15:38 20.01.2020
244 Clouds 9 1041 39 10000 1.5 160 15:20 20.01.2020
245 Clouds 9 1041 42 10000 1.5 160 14:41 20.01.2020
246 Clouds 9 1041 42 10000 2.6 120 14:22 20.01.2020
247 Clouds 9 1042 42 10000 2.1 70 13:58 20.01.2020
248 Clouds 9 1042 42 10000 2.1 70 13:40 20.01.2020
249 Clouds 8 1042 39 10000 2.1 80 13:21 20.01.2020
250 Clouds 8 1042 33 10000 2.6 60 12:46 20.01.2020
251 Clouds 8 1042 33 10000 2.6 60 12:28 20.01.2020
252 Clouds 7 1042 39 10000 2.6 30 11:57 20.01.2020
253 Clouds 7 1042 39 10000 2.6 30 11:38 20.01.2020
254 Clouds 7 1042 42 10000 2.6 30 11:19 20.01.2020
255 Clouds 5 1041 60 10000 2.6 20 10:48 20.01.2020
256 Clouds 5 1041 60 10000 2.6 20 10:22 20.01.2020
257 Clouds 4 1041 69 10000 1.5 10 09:54 20.01.2020
258 Clouds 3 1040 69 10000 2.6 30 09:36 20.01.2020
259 Clouds 3 1040 69 10000 2.6 30 09:18 20.01.2020
260 Clouds 2 1040 33 10000 2.1 360 08:42 20.01.2020
261 Clouds 2 1040 36 10000 2.1 360 08:24 20.01.2020
262 Clouds 2 1039 86 10000 0.5 0 07:43 20.01.2020
263 Clouds 2 1039 86 10000 0.5 0 07:23 20.01.2020
264 Clouds 2 1038 86 10000 0.5 190 06:45 20.01.2020
265 Clouds 2 1038 74 10000 0.5 0 06:25 20.01.2020
266 Clouds 2 1038 86 10000 1 0 05:41 20.01.2020
267 Clouds 3 1037 74 10000 0.5 0 05:21 20.01.2020
268 Clouds 3 1037 86 10000 1.5 10 04:41 20.01.2020
269 Clouds 3 1036 69 10000 2.1 360 02:55 20.01.2020
270 Clouds 3 1036 69 10000 2.1 360 02:55 20.01.2020
271 Clouds 3 1036 36 10000 1.5 350 01:42 20.01.2020
272 Clouds 3 1036 80 10000 1.5 360 01:23 20.01.2020
273 Clouds 2 1035 37 10000 1.5 360 00:43 20.01.2020
274 Clouds 2 1035 37 10000 1.5 360 00:22 20.01.2020
275 Clouds 2 1034 86 10000 2.1 360 23:39 19.01.2020
276 Clouds 2 1034 86 10000 2.1 360 23:19 19.01.2020
277 Clouds 2 1034 93 10000 3.1 10 22:56 19.01.2020
278 Clouds 3 1034 86 10000 3.1 360 22:38 19.01.2020
279 Clouds 3 1034 86 10000 3.1 360 22:19 19.01.2020
280 Clouds 2 1034 86 10000 3.1 360 21:56 19.01.2020
281 Clouds 3 1033 86 10000 3.1 360 21:38 19.01.2020
282 Clouds 3 1033 86 10000 3.1 360 21:19 19.01.2020
283 Clouds 3 1033 86 10000 2.6 360 20:57 19.01.2020
284 Clouds 3 1032 86 10000 2.6 350 20:38 19.01.2020
285 Clouds 3 1032 86 10000 2.6 350 20:20 19.01.2020
286 Clouds 3 1032 93 10000 1.5 360 19:56 19.01.2020
287 Clouds 3 1031 86 10000 2.6 350 19:37 19.01.2020
288 Clouds 3 1031 86 10000 2.6 350 19:19 19.01.2020
289 Clouds 4 1031 86 10000 1.5 350 18:55 19.01.2020
290 Clouds 4 1031 93 10000 1 0 18:37 19.01.2020
291 Clouds 4 1031 93 10000 1 0 18:19 19.01.2020
292 Clouds 5 1030 86 10000 0.5 0 17:57 19.01.2020
293 Clouds 5 1030 81 10000 1.5 180 17:39 19.01.2020
294 Clouds 5 1030 81 10000 1.5 180 17:20 19.01.2020
295 Clouds 6 1030 75 10000 2.1 180 16:57 19.01.2020
296 Clouds 6 1029 81 10000 2.6 200 16:38 19.01.2020
297 Clouds 7 1029 81 10000 2.6 200 16:19 19.01.2020
298 Clouds 7 1029 75 10000 3.1 180 15:57 19.01.2020
299 Clouds 7 1029 70 10000 2.6 170 15:37 19.01.2020
300 Clouds 7 1029 70 10000 2.6 170 15:19 19.01.2020
301 Clouds 8 1029 65 10000 3.1 190 14:57 19.01.2020
302 Clouds 8 1028 70 10000 1.5 190 14:37 19.01.2020
303 Clouds 8 1028 70 10000 1.5 190 14:18 19.01.2020
304 Clouds 7 1029 75 10000 2.6 180 13:54 19.01.2020
305 Clouds 7 1028 70 10000 2.1 210 13:36 19.01.2020
306 Rain 7 1028 70 10000 2.1 210 13:18 19.01.2020
307 Rain 8 1029 75 10000 1.5 240 12:42 19.01.2020
308 Rain 7 1029 81 7000 1.5 250 12:23 19.01.2020
309 Rain 7 1028 93 6000 1 0 11:57 19.01.2020
310 Mist 6 1028 100 3500 1 0 11:39 19.01.2020
311 Mist 4 1028 100 3500 1 0 11:19 19.01.2020
312 Mist 4 1028 100 2000 1 0 10:54 19.01.2020
313 Fog 3 1027 100 500 1 0 10:36 19.01.2020
314 Fog 2 1027 60 500 1.5 260 10:18 19.01.2020
315 Fog 2 1027 60 500 1.5 260 09:41 19.01.2020
316 Mist 1 1027 100 5000 1 0 09:23 19.01.2020
317 Fog 1 1026 100 6000 1 0 08:56 19.01.2020
318 Fog 1 1026 100 6000 1 0 08:38 19.01.2020
319 Fog 0 1026 100 6000 1 240 08:19 19.01.2020
320 Clouds 0 1025 100 9000 0.5 0 07:30 19.01.2020
321 Fog 0 1025 100 7000 0.5 0 06:56 19.01.2020
322 Clouds 1 1025 100 6000 1 0 06:23 19.01.2020
323 Rain 1 1025 100 1000 1.5 340 04:19 19.01.2020
324 Fog 1 1025 100 100 1 0 02:35 19.01.2020
325 Fog 2 1025 100 100 1 0 01:45 19.01.2020
326 Fog 2 1024 100 100 1 0 01:22 19.01.2020
327 Fog 2 1024 93 100 2.1 360 00:45 19.01.2020
328 Fog 2 1024 93 100 2.1 360 00:26 19.01.2020
329 Fog 2 1024 93 100 2.1 360 23:55 18.01.2020
330 Fog 2 1024 100 100 2.1 360 23:36 18.01.2020
331 Fog 2 1024 100 100 2.1 360 23:18 18.01.2020
332 Fog 2 1024 100 100 1.5 20 22:43 18.01.2020
333 Fog 3 1024 100 100 1 0 22:24 18.01.2020
334 Fog 3 1023 100 200 1 0 21:58 18.01.2020
335 Fog 3 1023 100 200 1 0 21:39 18.01.2020
336 Fog 3 1024 100 1200 0.5 0 21:21 18.01.2020
337 Fog 3 1023 100 5000 1.5 40 20:59 18.01.2020
338 Fog 4 1023 100 7000 0.5 0 20:41 18.01.2020
339 Fog 4 1023 100 7000 0.5 0 20:19 18.01.2020
340 Clear 4 1023 100 10000 1 180 19:43 18.01.2020
341 Clear 5 1023 100 10000 1 200 19:24 18.01.2020
342 Clear 5 1023 93 10000 1 160 18:54 18.01.2020
343 Clear 5 1023 93 10000 1.5 190 18:36 18.01.2020
344 Clear 6 1023 93 10000 1.5 190 18:18 18.01.2020
345 Clouds 7 1023 87 8000 0.5 0 17:41 18.01.2020
346 Clouds 7 1023 87 8000 0.5 0 17:21 18.01.2020
347 Clouds 8 1022 81 8000 1 180 16:57 18.01.2020
348 Clouds 8 1022 81 8000 1.5 220 16:38 18.01.2020
349 Clouds 8 1022 81 8000 1.5 220 16:19 18.01.2020
350 Clouds 8 1022 81 8000 1.5 220 16:19 18.01.2020
351 Clouds 9 1022 76 9000 2.6 230 15:47 18.01.2020
352 Clouds 9 1022 76 9000 2.1 240 15:47 18.01.2020
353 Clouds 9 1022 76 9000 2.6 230 15:26 18.01.2020
354 Clouds 9 1022 76 10000 2.1 230 14:59 18.01.2020
355 Clouds 9 1022 81 7000 2.1 220 14:40 18.01.2020
356 Clouds 9 1022 81 7000 2.1 220 14:19 18.01.2020
357 Mist 8 1023 87 5000 2.1 230 13:57 18.01.2020
358 Mist 8 1023 87 5000 2.1 250 13:36 18.01.2020
359 Mist 8 1023 87 5000 2.1 250 13:18 18.01.2020
360 Mist 8 1023 87 5000 2.1 250 13:18 18.01.2020
361 Mist 8 1024 93 4000 1.5 250 12:41 18.01.2020
362 Mist 7 1024 93 4000 1.5 250 12:21 18.01.2020
363 Mist 7 1024 93 4000 2.1 250 11:56 18.01.2020
364 Mist 7 1024 93 4000 2.1 250 11:38 18.01.2020
365 Mist 6 1024 93 4000 0.5 0 11:19 18.01.2020
366 Mist 6 1024 100 4000 1.7 285 10:42 18.01.2020
367 Drizzle 5 1024 93 2000 0.5 0 10:20 18.01.2020
368 Drizzle 5 1024 93 2000 0.5 0 10:20 18.01.2020
369 Drizzle 5 1024 93 2000 0.5 0 09:50 18.01.2020
370 Drizzle 4 1024 93 2000 1 0 09:32 18.01.2020
371 Drizzle 4 1024 93 4000 1 210 08:59 18.01.2020
372 Drizzle 4 1024 93 4000 1 210 08:41 18.01.2020
373 Drizzle 4 1023 93 5000 0.5 0 08:19 18.01.2020
374 Rain 4 1023 93 5000 1.5 300 07:52 18.01.2020
375 Fog 4 1022 100 2000 0.5 0 07:32 18.01.2020
376 Rain 4 1022 93 3000 3.6 120 06:48 18.01.2020
377 Drizzle 4 1022 100 2000 0.5 0 06:18 18.01.2020
378 Drizzle 5 1022 100 3000 1 0 05:30 18.01.2020
379 Rain 5 1023 100 2000 2.6 310 03:39 18.01.2020
380 Rain 5 1022 93 3000 2.1 350 01:59 18.01.2020
381 Rain 5 1022 93 4000 2.6 10 01:35 18.01.2020
382 Rain 5 1022 100 7000 3.1 360 00:38 18.01.2020
383 Rain 5 1022 100 7000 3.1 360 00:19 18.01.2020
384 Rain 6 1022 93 7000 1 0 23:44 17.01.2020
385 Rain 6 1022 93 6000 1 0 23:20 17.01.2020
386 Rain 6 1022 93 8000 1.5 240 22:46 17.01.2020
387 Drizzle 6 1022 87 8000 2.1 220 22:22 17.01.2020
388 Drizzle 6 1022 87 8000 2.1 220 22:22 17.01.2020
389 Drizzle 6 1023 93 8000 2.6 200 21:59 17.01.2020
390 Drizzle 6 1022 81 10000 0.5 0 21:41 17.01.2020
391 Drizzle 6 1022 81 10000 0.5 0 21:22 17.01.2020
392 Drizzle 6 1023 81 10000 1.5 220 20:58 17.01.2020
393 Clouds 6 1023 75 10000 1.5 190 20:38 17.01.2020
394 Clouds 6 1023 75 10000 1.5 190 20:20 17.01.2020
395 Clouds 5 1023 81 10000 1 0 19:55 17.01.2020
396 Clouds 5 1023 81 10000 1 0 19:55 17.01.2020
397 Clouds 5 1023 75 10000 1 0 19:37 17.01.2020
398 Clouds 5 1023 75 10000 1 0 19:37 17.01.2020
399 Clouds 5 1023 75 10000 1 0 19:18 17.01.2020
400 Clouds 6 1023 70 10000 1 0 18:47 17.01.2020
401 Clouds 6 1023 70 10000 1 0 18:28 17.01.2020
402 Clouds 7 1023 65 10000 1 250 17:56 17.01.2020
403 Clouds 7 1023 57 10000 1.5 240 17:38 17.01.2020
404 Clouds 8 1023 57 10000 1.5 240 17:20 17.01.2020
405 Clouds 9 1023 53 10000 1.5 280 16:43 17.01.2020
406 Clouds 10 1023 53 10000 1.5 280 16:20 17.01.2020
407 Clouds 10 1023 57 10000 2.1 270 15:49 17.01.2020
408 Clouds 10 1024 61 10000 2.6 260 15:28 17.01.2020
409 Clouds 10 1024 57 10000 3.1 260 14:57 17.01.2020
410 Clouds 10 1024 57 10000 3.1 260 14:38 17.01.2020
411 Clouds 9 1024 57 10000 2.1 260 14:20 17.01.2020
412 Clouds 9 1024 57 10000 2.6 240 13:41 17.01.2020
413 Clouds 9 1025 61 9000 1.5 230 13:22 17.01.2020
414 Clouds 9 1025 61 9000 1.5 230 13:22 17.01.2020
415 Clouds 9 1026 65 8000 0.5 0 12:46 17.01.2020
416 Clouds 9 1026 65 8000 0.5 0 12:23 17.01.2020
417 Clouds 9 1026 65 8000 0.5 0 12:23 17.01.2020
418 Clouds 8 1027 75 8000 1 0 11:41 17.01.2020
419 Clear 6 1027 75 8000 1 0 11:20 17.01.2020
420 Clear 6 1027 80 6000 1.5 250 10:55 17.01.2020
421 Clear 5 1027 93 6000 1.5 250 10:36 17.01.2020
422 Clear 4 1027 93 6000 1.5 250 10:18 17.01.2020
423 Clear 2 1027 66 6000 1.5 260 09:42 17.01.2020
424 Mist 2 1027 66 3000 1 0 09:21 17.01.2020
425 Mist 1 1026 66 2000 1 0 08:55 17.01.2020
426 Mist 1 1027 92 3000 1 0 08:37 17.01.2020
427 Mist 0 1027 92 3000 1 0 08:18 17.01.2020
428 Fog 0 1027 100 3000 1.5 250 07:43 17.01.2020
429 Fog 0 1027 100 3000 1.5 250 07:43 17.01.2020
430 Fog 0 1026 72 1200 0.5 0 07:24 17.01.2020
431 Fog 0 1026 72 1200 1 270 06:47 17.01.2020
432 Fog 0 1027 72 1200 1.5 240 06:29 17.01.2020
433 Fog 1 1028 77 1200 1.61 269 04:26 17.01.2020
434 Clear 1 1028 100 10000 0.5 0 02:55 17.01.2020
435 Clear 1 1029 100 10000 1 0 02:30 17.01.2020
436 Clouds 2 1027 85 0 1.57 256 01:32 17.01.2020
437 Clouds 2 1027 85 0 1.57 256 00:59 17.01.2020
438 Clouds 2 1025 75 0 1.79 271 00:59 17.01.2020
439 Clouds 2 1029 82 10000 1 10 00:35 17.01.2020
440 Clouds 2 1030 93 7000 1.5 270 23:56 16.01.2020
441 Clouds 2 1030 93 7000 1.5 270 23:38 16.01.2020
442 Clear 2 1030 93 7000 1.5 270 23:19 16.01.2020
443 Clear 2 1030 93 6000 0.5 0 22:40 16.01.2020
444 Clear 2 1030 93 6000 1.5 280 22:21 16.01.2020
445 Clear 3 1030 93 6000 1 0 21:57 16.01.2020
446 Clear 3 1030 93 6000 0.5 0 21:37 16.01.2020
447 Clear 3 1030 93 6000 0.5 0 21:19 16.01.2020
448 Mist 3 1030 86 4000 0.5 0 20:56 16.01.2020
449 Mist 3 1030 86 4000 0.5 0 20:37 16.01.2020
450 Mist 3 1030 86 4000 0.5 0 20:18 16.01.2020
451 Mist 4 1030 86 4000 1 0 19:54 16.01.2020
452 Mist 4 1030 86 4000 1 0 19:54 16.01.2020
453 Mist 4 1030 80 4000 1.5 250 19:36 16.01.2020
454 Mist 4 1030 80 4000 1.5 250 19:18 16.01.2020
455 Mist 5 1030 80 4000 1.5 240 18:54 16.01.2020
456 Mist 5 1030 70 4000 1.5 240 18:36 16.01.2020
457 Mist 6 1030 70 4000 1.5 250 18:18 16.01.2020
458 Mist 6 1030 70 4000 1.5 250 17:41 16.01.2020
459 Mist 7 1030 65 5000 1.5 250 17:21 16.01.2020
460 Mist 8 1030 61 5000 1.5 240 16:56 16.01.2020
461 Clouds 8 1030 66 6000 2.1 260 16:37 16.01.2020
462 Clouds 9 1030 66 6000 2.1 260 16:19 16.01.2020
463 Clouds 9 1030 66 6000 1.5 240 15:44 16.01.2020
464 Clouds 9 1031 70 6000 1 0 15:21 16.01.2020
465 Mist 9 1031 66 5000 1 0 14:55 16.01.2020
466 Mist 9 1031 75 5000 1 0 14:37 16.01.2020
467 Mist 9 1031 75 5000 1 0 14:18 16.01.2020
468 Mist 9 1031 70 5000 1.5 180 13:43 16.01.2020
469 Mist 9 1032 75 5000 0.5 0 13:24 16.01.2020
470 Mist 8 1032 81 4000 1.5 150 12:46 16.01.2020
471 Mist 8 1032 81 4000 1.5 160 12:28 16.01.2020
472 Mist 8 1033 87 4000 2.1 150 11:56 16.01.2020
473 Mist 7 1033 87 4000 2.6 150 11:37 16.01.2020
474 Mist 6 1033 87 4000 2.6 150 11:19 16.01.2020
475 Mist 5 1032 86 4000 1.5 70 10:39 16.01.2020
476 Mist 4 1032 86 4000 1.5 70 10:21 16.01.2020
477 Mist 3 1032 86 4000 0.5 0 09:57 16.01.2020
478 Mist 3 1032 86 4000 0.5 0 09:38 16.01.2020
479 Mist 2 1031 93 2500 0.5 0 09:19 16.01.2020
480 Mist 2 1031 100 2500 0.14 30 08:51 16.01.2020
481 Fog 1 1031 100 2500 0.5 250 08:30 16.01.2020
482 Fog 1 1030 100 5000 1 270 07:58 16.01.2020
483 Fog 1 1030 100 5000 1 270 07:38 16.01.2020
484 Fog 1 1030 100 2000 1 0 07:19 16.01.2020
485 Mist 1 1030 100 5000 1.2 276 06:42 16.01.2020
486 Mist 2 1030 100 5000 1.2 276 05:58 16.01.2020
487 Mist 1 1030 100 5000 1.2 276 05:40 16.01.2020
488 Mist 2 1029 93 5000 1 240 04:37 16.01.2020
489 Mist 2 1029 93 5000 1 240 04:37 16.01.2020
490 Mist 2 1029 93 5000 1 250 03:28 16.01.2020
491 Mist 3 1029 87 5000 0.5 240 02:42 16.01.2020
492 Mist 3 1030 87 5000 1.5 270 00:53 16.01.2020
493 Mist 4 1030 87 5000 1.5 270 00:24 16.01.2020
494 Mist 3 1029 87 5000 2.1 260 23:48 15.01.2020
495 Mist 4 1029 87 5000 2.1 250 23:23 15.01.2020
496 Mist 4 1029 93 5000 2.1 260 22:57 15.01.2020
497 Mist 4 1029 93 5000 2.1 260 22:57 15.01.2020
498 Mist 4 1029 93 4000 1.5 250 22:39 15.01.2020
499 Mist 4 1029 93 4000 1.5 250 22:19 15.01.2020
500 Mist 4 1029 87 4000 1 0 21:57 15.01.2020
501 Mist 4 1029 93 4000 0.5 0 21:37 15.01.2020
502 Mist 4 1029 93 4000 0.5 0 21:19 15.01.2020
503 Mist 4 1029 100 4000 1.5 210 20:57 15.01.2020
504 Mist 4 1029 100 4000 1 200 20:39 15.01.2020
505 Mist 4 1029 100 4000 1 200 20:39 15.01.2020
506 Mist 4 1029 100 4000 1 200 20:20 15.01.2020
507 Mist 4 1029 87 4000 0.5 0 19:55 15.01.2020
508 Mist 4 1029 93 4000 1 0 19:37 15.01.2020
509 Mist 4 1029 93 4000 1 0 19:37 15.01.2020
510 Mist 4 1029 93 4000 1 0 19:18 15.01.2020
511 Mist 4 1029 93 4000 1 0 18:56 15.01.2020
512 Mist 4 1029 93 4000 1 0 18:56 15.01.2020
513 Mist 4 1028 93 3000 1 180 18:38 15.01.2020
514 Mist 4 1028 93 3000 1 180 18:38 15.01.2020
515 Mist 4 1028 93 3000 1 180 18:19 15.01.2020
516 Mist 5 1029 93 2000 1 230 17:56 15.01.2020
517 Mist 5 1028 93 2000 1 0 17:37 15.01.2020
518 Mist 5 1028 93 2000 1 0 17:18 15.01.2020
519 Mist 6 1028 87 2000 1 0 16:40 15.01.2020
520 Mist 6 1028 93 1500 1.5 230 16:22 15.01.2020
521 Rain 6 1028 93 2000 2.1 250 15:57 15.01.2020
522 Rain 6 1028 93 2000 2.1 250 15:39 15.01.2020
523 Rain 6 1028 93 2000 2.1 240 15:18 15.01.2020
524 Rain 6 1028 93 2000 1.5 240 14:43 15.01.2020
525 Rain 6 1028 87 2000 2.6 230 14:20 15.01.2020
526 Rain 6 1029 93 2000 1.5 250 13:46 15.01.2020
527 Rain 6 1029 93 2000 1 0 13:26 15.01.2020
528 Rain 6 1029 93 2000 2.1 250 12:59 15.01.2020
529 Mist 6 1030 93 2000 1 0 12:39 15.01.2020
530 Mist 5 1030 93 2000 1.5 240 12:19 15.01.2020
531 Mist 5 1030 93 2000 1.5 240 12:19 15.01.2020
532 Mist 5 1030 93 2000 1.5 240 11:57 15.01.2020
533 Drizzle 5 1030 87 2000 1 0 11:37 15.01.2020
534 Drizzle 5 1030 93 2000 0.5 0 11:19 15.01.2020
535 Drizzle 4 1030 93 2000 0.5 0 10:43 15.01.2020
536 Drizzle 4 1030 93 2000 0.5 0 10:25 15.01.2020
537 Drizzle 4 1029 93 2000 1 190 09:44 15.01.2020
538 Drizzle 4 1029 93 2000 1 190 09:23 15.01.2020
539 Mist 4 1029 86 2000 0.5 0 08:56 15.01.2020
540 Drizzle 4 1029 100 3500 1 200 08:38 15.01.2020
541 Drizzle 4 1029 100 3500 1 200 08:19 15.01.2020
542 Rain 4 1029 93 3500 1 0 07:51 15.01.2020
543 Rain 4 1028 93 5000 1 0 07:31 15.01.2020
544 Clouds 3 1028 100 7000 2.1 30 06:45 15.01.2020
545 Clouds 3 1028 100 6000 1 0 06:19 15.01.2020
546 Clouds 3 1028 93 8000 0.5 0 04:36 15.01.2020
547 Clouds 3 1028 86 8000 0.5 0 02:32 15.01.2020
548 Clouds 3 1028 86 8000 1 0 01:27 15.01.2020
549 Clouds 3 1028 86 8000 1.5 190 00:45 15.01.2020
550 Clouds 3 1028 86 8000 1.5 190 00:26 15.01.2020
551 Clouds 3 1028 86 8000 1 0 23:55 14.01.2020
552 Clouds 3 1028 86 8000 1 0 23:36 14.01.2020
553 Clouds 3 1028 86 8000 1 0 23:18 14.01.2020
554 Clouds 3 1028 86 7000 1.5 210 22:41 14.01.2020
555 Clouds 3 1028 86 7000 1.5 210 22:19 14.01.2020
556 Clouds 3 1028 86 7000 0.5 0 21:58 14.01.2020
557 Clouds 3 1027 86 7000 1.5 270 21:39 14.01.2020
558 Clouds 3 1027 86 7000 1.5 270 21:20 14.01.2020
559 Clouds 3 1027 86 7000 1.5 260 20:57 14.01.2020
560 Clouds 3 1027 86 10000 1 10 20:39 14.01.2020
561 Clouds 3 1027 86 7000 2.1 250 20:19 14.01.2020
562 Clouds 3 1027 86 7000 2.1 250 19:55 14.01.2020
563 Clouds 3 1027 86 6000 1.5 240 19:37 14.01.2020
564 Clouds 3 1027 86 6000 1.5 240 19:18 14.01.2020
565 Clouds 4 1027 86 6000 2.1 250 18:41 14.01.2020
566 Mist 4 1026 86 3500 1.5 240 18:20 14.01.2020
567 Mist 4 1026 86 3500 1.5 240 17:58 14.01.2020
568 Mist 4 1026 80 5000 1.5 250 17:37 14.01.2020
569 Mist 5 1026 80 5000 1.5 250 17:18 14.01.2020
570 Mist 5 1026 80 5000 1.5 230 16:44 14.01.2020
571 Mist 5 1026 80 5000 1.5 230 16:23 14.01.2020
572 Mist 5 1026 80 5000 2.6 220 15:58 14.01.2020
573 Mist 6 1026 80 5000 2.1 210 15:40 14.01.2020
574 Mist 6 1026 80 5000 2.1 210 15:19 14.01.2020
575 Mist 6 1026 75 4000 1 0 14:45 14.01.2020
576 Mist 6 1026 75 4000 1 0 14:21 14.01.2020
577 Mist 5 1026 80 4000 1.5 260 13:57 14.01.2020
578 Mist 5 1026 80 4000 1 0 13:39 14.01.2020
579 Mist 5 1026 80 4000 1 0 13:19 14.01.2020
580 Mist 6 1026 86 4000 1.5 240 12:42 14.01.2020
581 Mist 5 1027 86 4000 2.1 250 12:22 14.01.2020
582 Mist 5 1027 86 4000 1.5 210 11:56 14.01.2020
583 Mist 4 1026 86 4000 1 0 11:36 14.01.2020
584 Mist 4 1026 86 4000 1 0 11:18 14.01.2020
585 Mist 3 1026 86 4000 1.5 260 10:40 14.01.2020
586 Mist 2 1026 86 4000 1.5 260 10:20 14.01.2020
587 Mist 2 1026 86 5000 1.5 190 09:58 14.01.2020
588 Mist 1 1025 93 5000 1 0 09:40 14.01.2020
589 Mist 1 1025 93 5000 1 0 09:21 14.01.2020
590 Mist 1 1025 93 5000 1 0 08:48 14.01.2020
591 Fog 1 1025 100 6000 1 200 08:26 14.01.2020
592 Fog 0 1025 74 8000 1 260 07:56 14.01.2020
593 Clouds 0 1025 74 8000 1 0 07:34 14.01.2020
594 Clouds 0 1025 74 8000 1 0 07:34 14.01.2020
595 Clouds 0 1025 74 10000 1.5 210 06:57 14.01.2020
596 Clouds 0 1025 74 10000 0.5 0 06:34 14.01.2020
597 Clouds 0 1025 78 10000 0.5 330 05:28 14.01.2020
598 Clouds 0 1025 78 10000 0.5 230 03:52 14.01.2020
599 Clouds 0 1025 78 10000 0.5 230 03:52 14.01.2020
600 Clouds 0 1025 78 10000 1 250 02:50 14.01.2020
601 Fog 0 1025 80 9000 0.5 0 01:56 14.01.2020
602 Fog 0 1025 84 8000 1 0 00:52 14.01.2020
603 Fog 0 1025 92 8000 0.78 2 00:33 14.01.2020
604 Fog 0 1025 100 7000 0.5 0 23:55 13.01.2020
605 Fog 0 1025 92 4000 0.5 270 23:37 13.01.2020
606 Fog 0 1025 92 4000 0.5 270 23:18 13.01.2020
607 Fog 0 1025 100 4000 1 200 22:42 13.01.2020
608 Fog 0 1025 92 4000 1.5 10 22:21 13.01.2020
609 Fog 0 1025 100 4000 0.5 290 21:57 13.01.2020
610 Fog 0 1025 100 4000 0.5 290 21:38 13.01.2020
611 Fog 0 1025 100 3500 0.5 0 21:38 13.01.2020
612 Fog 0 1025 100 4000 0.5 290 21:38 13.01.2020
613 Fog 0 1025 100 3500 0.5 0 21:19 13.01.2020
614 Fog 0 1025 83 3500 0.5 0 20:58 13.01.2020
615 Fog 0 1025 83 3500 0.5 0 20:40 13.01.2020
616 Fog 1 1025 78 4000 0.5 0 20:22 13.01.2020
617 Mist 1 1025 78 5000 1.5 250 19:58 13.01.2020
618 Mist 1 1025 78 5000 1.5 250 19:39 13.01.2020
619 Clouds 2 1025 100 6000 1.5 270 19:20 13.01.2020
620 Clouds 2 1025 93 6000 1 0 18:56 13.01.2020
621 Clouds 2 1025 86 6000 1 260 18:37 13.01.2020
622 Clouds 3 1025 86 6000 1 260 18:18 13.01.2020
623 Clouds 3 1025 86 6000 1 260 18:18 13.01.2020
624 Clouds 4 1025 75 10000 0.5 0 17:40 13.01.2020
625 Clouds 5 1025 75 10000 0.5 0 17:22 13.01.2020
626 Clouds 5 1025 75 10000 0.5 0 17:22 13.01.2020
627 Clouds 5 1025 66 10000 1 0 16:56 13.01.2020
628 Clouds 5 1024 66 10000 1 0 16:38 13.01.2020
629 Clouds 5 1024 57 10000 1 0 16:19 13.01.2020
630 Clouds 7 1023 64 0 0.81 149 15:44 13.01.2020
631 Clouds 7 1023 65 0 0.81 149 15:23 13.01.2020
632 Clouds 7 1023 65 0 0.81 149 14:58 13.01.2020
633 Clouds 7 1023 64 0 0.81 149 14:38 13.01.2020
634 Clouds 6 1026 56 10000 1 210 14:19 13.01.2020
635 Clouds 6 1026 56 10000 1 210 13:41 13.01.2020
636 Clouds 6 1026 56 10000 1 210 13:23 13.01.2020
637 Clouds 6 1025 64 0 0.94 102 12:59 13.01.2020
638 Clouds 6 1028 64 7000 1 0 12:40 13.01.2020
639 Clouds 6 1028 64 7000 1 0 12:22 13.01.2020
640 Clouds 6 1028 64 7000 1 0 11:57 13.01.2020
641 Clouds 5 1028 80 7000 0.5 0 11:37 13.01.2020
642 Clouds 5 1028 80 7000 0.5 0 11:18 13.01.2020
643 Clouds 3 1028 93 7000 0.5 0 10:55 13.01.2020
644 Clouds 2 1028 100 6000 1 350 10:36 13.01.2020
645 Clouds 2 1028 100 6000 1 350 10:18 13.01.2020
646 Clouds 2 1028 100 6000 1 350 10:18 13.01.2020
647 Mist 1 1028 79 5000 0.5 0 09:42 13.01.2020
648 Fog 0 1027 92 3000 0.5 0 09:23 13.01.2020
649 Fog -1 1027 92 2000 0.63 107 08:44 13.01.2020
650 Fog -1 1027 100 1000 0.5 0 08:22 13.01.2020
651 Fog -1 1027 100 1500 0.5 0 07:59 13.01.2020
652 Snow -1 1027 100 50 0.5 0 07:40 13.01.2020
653 Snow -1 1027 100 50 0.5 0 07:18 13.01.2020
654 Fog -1 1026 92 50 0.5 20 06:36 13.01.2020
655 Fog -1 1026 100 50 0.5 0 05:36 13.01.2020
656 Fog 0 1026 100 50 0.78 118 04:25 13.01.2020
657 Fog 0 1026 100 50 0.5 0 03:31 13.01.2020
658 Snow 0 1027 92 150 0.5 0 02:47 13.01.2020
659 Fog 0 1026 100 50 1 270 02:29 13.01.2020
660 Mist 0 1027 100 2300 1.5 340 01:32 13.01.2020
661 Mist 1 1027 100 1100 1.5 340 00:42 13.01.2020
662 Fog 1 1027 83 550 0.5 360 00:24 13.01.2020
663 Snow 1 1027 83 1200 1.5 10 23:56 12.01.2020
664 Fog 1 1027 83 8000 0.5 0 23:37 12.01.2020
665 Fog 1 1027 79 8000 0.5 0 23:19 12.01.2020
666 Fog 2 1027 79 9000 0.5 0 22:42 12.01.2020
667 Fog 2 1027 79 9000 1 10 22:24 12.01.2020
668 Fog 2 1027 93 9000 1 0 21:57 12.01.2020
669 Fog 2 1027 93 9000 1 0 21:38 12.01.2020
670 Fog 3 1027 93 10000 0.5 0 21:20 12.01.2020
671 Clouds 3 1027 93 10000 0.5 0 20:57 12.01.2020
672 Clouds 3 1027 93 10000 0.5 0 20:38 12.01.2020
673 Clear 3 1027 93 10000 0.5 0 20:20 12.01.2020
674 Clear 3 1027 93 10000 0.5 0 19:56 12.01.2020
675 Clear 4 1027 86 10000 0.5 0 19:38 12.01.2020
676 Clear 4 1027 86 10000 0.5 0 19:18 12.01.2020
677 Clear 4 1027 86 10000 0.5 0 18:57 12.01.2020
678 Clear 4 1027 86 10000 0.5 0 18:39 12.01.2020
679 Clear 5 1026 81 10000 1 0 18:21 12.01.2020
680 Clear 6 1026 75 10000 1 190 17:54 12.01.2020
681 Clear 6 1026 75 10000 1 0 17:36 12.01.2020
682 Clear 7 1026 75 10000 1 0 17:18 12.01.2020
683 Clear 8 1026 70 10000 1 170 16:54 12.01.2020
684 Clear 8 1026 66 10000 1.5 180 16:36 12.01.2020
685 Clear 8 1026 66 10000 1.5 180 16:18 12.01.2020
686 Clear 9 1027 66 10000 1.5 180 15:40 12.01.2020
687 Clear 9 1027 66 10000 1.5 180 15:21 12.01.2020
688 Clear 9 1027 66 10000 2.1 200 14:44 12.01.2020
689 Clear 9 1027 66 10000 2.1 200 14:25 12.01.2020
690 Clear 9 1028 70 10000 1.5 180 13:58 12.01.2020
691 Clear 9 1028 65 10000 1.5 200 13:40 12.01.2020
692 Clear 9 1028 65 10000 1.5 200 13:22 12.01.2020
693 Clear 9 1029 65 10000 0.5 0 12:58 12.01.2020
694 Clear 8 1030 70 10000 0.5 0 12:38 12.01.2020
695 Clear 8 1030 70 10000 0.5 0 12:19 12.01.2020
696 Clear 7 1030 75 10000 1.5 290 11:42 12.01.2020
697 Clear 6 1030 70 10000 1 200 11:22 12.01.2020
698 Clear 6 1030 75 10000 0.5 0 10:58 12.01.2020
699 Clear 5 1030 75 10000 0.5 0 10:40 12.01.2020
700 Clear 3 1030 93 10000 0.26 213 10:20 12.01.2020
701 Clear 2 1030 65 10000 0.5 0 09:44 12.01.2020
702 Clear 2 1030 65 10000 0.5 0 09:24 12.01.2020
703 Clear 1 1030 100 10000 0.5 0 08:48 12.01.2020
704 Clear 0 1030 100 10000 0.5 0 08:25 12.01.2020
705 Clear 0 1030 92 10000 0.5 330 07:58 12.01.2020
706 Clear 0 1030 92 10000 1 350 07:38 12.01.2020
707 Clear 0 1030 92 10000 1 350 07:19 12.01.2020
708 Clear 0 1030 100 10000 1 350 06:40 12.01.2020
709 Clear 1 1030 100 10000 1 10 05:58 12.01.2020
710 Fog 1 1030 100 7000 0.5 350 05:18 12.01.2020
711 Fog 1 1030 100 400 0.5 0 03:44 12.01.2020
712 Fog 1 1030 100 600 0.5 0 02:52 12.01.2020
713 Fog 1 1029 100 400 0.5 0 02:27 12.01.2020
714 Fog 2 1029 100 100 1 0 01:35 12.01.2020
715 Mist 2 1029 100 3000 0.5 0 00:49 12.01.2020
716 Fog 3 1029 57 6000 0.5 50 00:22 12.01.2020
717 Fog 3 1029 57 6000 0.5 50 00:22 12.01.2020
718 Fog 3 1029 100 8000 0.5 0 23:59 11.01.2020
719 Fog 3 1029 100 8000 0.5 0 23:41 11.01.2020
720 Fog 3 1029 100 9000 1 20 23:18 11.01.2020
721 Fog 3 1029 100 10000 0.5 0 22:56 11.01.2020
722 Clear 3 1029 100 10000 0.5 0 22:38 11.01.2020
723 Clear 3 1029 100 10000 0.5 0 22:19 11.01.2020
724 Clear 3 1029 100 10000 0.55 359 21:44 11.01.2020
725 Clear 4 1029 93 10000 0.5 180 21:20 11.01.2020
726 Clear 4 1029 93 10000 0.5 0 20:59 11.01.2020
727 Clear 4 1029 93 10000 1 160 20:39 11.01.2020
728 Clear 4 1029 93 10000 1 160 20:19 11.01.2020
729 Clear 4 1029 93 10000 0.5 0 19:57 11.01.2020
730 Clear 4 1029 93 10000 0.5 0 19:38 11.01.2020
731 Clear 4 1028 93 10000 0.5 0 19:38 11.01.2020
732 Clear 5 1028 93 10000 0.5 0 19:20 11.01.2020
733 Clear 5 1028 86 10000 1.5 270 18:55 11.01.2020
734 Clear 6 1028 81 10000 1.5 270 18:36 11.01.2020
735 Clear 6 1028 70 10000 1 240 18:18 11.01.2020
736 Clear 6 1028 81 10000 1.5 270 18:18 11.01.2020
737 Clear 6 1028 81 10000 1.5 270 18:18 11.01.2020
738 Clear 6 1028 81 10000 1.5 270 18:18 11.01.2020
739 Clear 7 1028 70 10000 1 240 17:56 11.01.2020
740 Clear 7 1028 70 10000 1 240 17:56 11.01.2020
741 Clear 7 1028 66 10000 1.5 240 17:37 11.01.2020
742 Clear 8 1028 66 10000 1.5 240 17:18 11.01.2020
743 Clear 10 1028 57 10000 1 0 16:43 11.01.2020
744 Clear 10 1028 57 10000 1.5 270 16:23 11.01.2020
745 Clear 10 1028 57 10000 1.5 240 15:43 11.01.2020
746 Clear 11 1028 62 7000 1.5 250 15:24 11.01.2020
747 Clear 11 1028 62 7000 2.1 260 14:59 11.01.2020
748 Clear 11 1028 62 7000 2.1 260 14:41 11.01.2020
749 Clear 11 1028 61 7000 1.5 220 14:22 11.01.2020
750 Clear 11 1028 66 7000 1.5 230 13:56 11.01.2020
751 Clear 10 1029 70 7000 2.1 260 13:37 11.01.2020
752 Clear 10 1029 70 7000 2.1 260 13:19 11.01.2020
753 Clear 10 1029 70 6000 2.1 270 12:44 11.01.2020
754 Clear 9 1029 70 6000 2.1 270 12:26 11.01.2020
755 Clear 8 1030 70 6000 1 0 11:55 11.01.2020
756 Mist 8 1030 87 5000 0.5 0 11:37 11.01.2020
757 Mist 7 1030 87 5000 0.5 0 11:18 11.01.2020
758 Mist 7 1030 87 5000 0.5 0 11:18 11.01.2020
759 Mist 7 1030 87 5000 0.5 0 11:18 11.01.2020
760 Mist 4 1029 100 4000 0.5 0 10:43 11.01.2020
761 Mist 4 1029 100 4000 0.5 0 10:24 11.01.2020
762 Clear 2 1028 100 10000 1 0 09:40 11.01.2020
763 Clear 2 1028 100 10000 1 0 09:21 11.01.2020
764 Fog 1 1029 100 300 1 0 08:43 11.01.2020
765 Fog 1 1029 100 300 1 0 08:43 11.01.2020
766 Fog 0 1028 100 200 1 200 08:23 11.01.2020
767 Fog 0 1028 100 150 0.84 329 07:45 11.01.2020
768 Fog 0 1028 100 150 1 0 07:26 11.01.2020
769 Fog 0 1028 100 150 1 0 07:26 11.01.2020
770 Fog 0 1028 100 100 1 280 06:56 11.01.2020
771 Fog 0 1028 100 400 0.5 0 06:22 11.01.2020
772 Fog 1 1027 65 1500 1.5 130 04:48 11.01.2020
773 Fog 1 1027 100 100 1 280 04:30 11.01.2020
774 Fog 1 1027 100 250 0.5 0 03:49 11.01.2020
775 Fog 1 1027 100 300 0.5 0 02:41 11.01.2020
776 Fog 2 1027 76 500 0.5 360 01:44 11.01.2020
777 Fog 2 1027 75 500 0.5 360 01:20 11.01.2020
778 Fog 2 1027 75 800 0.5 350 00:46 11.01.2020
779 Fog 2 1027 100 1500 1.5 10 00:20 11.01.2020
780 Fog 3 1026 75 6000 1 0 23:41 10.01.2020
781 Fog 2 1027 100 2500 1 0 23:22 10.01.2020
782 Fog 3 1026 93 5000 0.5 230 22:59 10.01.2020
783 Clouds 3 1026 93 6000 0.5 280 22:40 10.01.2020
784 Clouds 3 1026 93 6000 0.5 280 22:21 10.01.2020
785 Clouds 3 1026 100 6000 0.5 0 21:57 10.01.2020
786 Clouds 3 1026 100 6000 0.5 0 21:38 10.01.2020
787 Clouds 3 1026 93 6000 1 0 21:19 10.01.2020
788 Clouds 3 1025 93 6000 0.5 0 20:43 10.01.2020
789 Clouds 4 1025 93 6000 0.5 0 20:25 10.01.2020
790 Clouds 4 1025 86 6000 0.5 280 19:59 10.01.2020
791 Clouds 4 1025 87 6000 1 0 19:38 10.01.2020
792 Clouds 5 1025 87 6000 1 0 19:20 10.01.2020
793 Mist 5 1024 87 5000 1 0 18:44 10.01.2020
794 Mist 6 1024 87 5000 1 0 18:20 10.01.2020
795 Mist 6 1024 87 5000 1 230 17:58 10.01.2020
796 Mist 6 1024 81 5000 1 0 17:39 10.01.2020
797 Mist 7 1024 81 5000 1 0 17:20 10.01.2020
798 Mist 8 1024 75 5000 2.6 220 16:58 10.01.2020
799 Mist 8 1024 75 5000 2.1 230 16:39 10.01.2020
800 Mist 8 1024 75 5000 2.1 230 16:20 10.01.2020
801 Mist 9 1024 75 3500 1.5 230 15:56 10.01.2020
802 Mist 9 1024 81 4000 1.5 260 15:37 10.01.2020
803 Mist 9 1024 81 4000 1.5 260 15:18 10.01.2020
804 Mist 9 1024 81 4000 2.6 230 14:55 10.01.2020
805 Mist 9 1024 81 5000 2.1 220 14:37 10.01.2020
806 Mist 9 1024 81 5000 2.1 220 14:18 10.01.2020
807 Mist 8 1024 75 5000 1.5 250 13:44 10.01.2020
808 Mist 8 1024 75 5000 1.5 250 13:44 10.01.2020
809 Mist 8 1024 81 5000 2.1 260 13:26 10.01.2020
810 Mist 8 1025 87 4000 3.1 250 12:59 10.01.2020
811 Mist 8 1025 87 5000 2.6 250 12:39 10.01.2020
812 Mist 8 1025 87 5000 2.6 250 12:19 10.01.2020
813 Mist 7 1025 87 5000 2.1 260 11:56 10.01.2020
814 Mist 7 1025 81 4000 2.1 240 11:38 10.01.2020
815 Mist 7 1025 87 5000 2.1 260 11:38 10.01.2020
816 Mist 7 1025 87 5000 2.1 260 11:38 10.01.2020
817 Mist 6 1025 86 4000 1.5 230 11:18 10.01.2020
818 Mist 6 1025 86 4000 1.5 230 10:58 10.01.2020
819 Mist 6 1025 93 4000 1.5 200 10:36 10.01.2020
820 Mist 5 1025 93 4000 1.5 200 10:18 10.01.2020
821 Mist 5 1024 93 3000 1.5 260 09:43 10.01.2020
822 Mist 5 1024 93 3000 1.5 260 09:24 10.01.2020
823 Mist 5 1024 93 4000 1 190 08:43 10.01.2020
824 Clouds 4 1024 93 10000 1 0 08:24 10.01.2020
825 Mist 4 1024 93 3500 0.5 200 07:47 10.01.2020
826 Mist 4 1024 93 3500 0.5 200 07:28 10.01.2020
827 Mist 4 1023 93 3500 1 0 06:55 10.01.2020
828 Mist 4 1024 93 3500 0.5 0 06:27 10.01.2020
829 Mist 4 1024 93 3500 0.5 270 05:52 10.01.2020
830 Mist 4 1024 93 3500 1 210 03:47 10.01.2020
831 Mist 4 1024 93 3500 1 210 03:28 10.01.2020
832 Mist 4 1024 93 3500 0.5 0 02:51 10.01.2020
833 Mist 3 1024 100 3500 0.5 0 01:49 10.01.2020
834 Mist 3 1024 93 3500 1 190 01:28 10.01.2020
835 Mist 3 1025 100 3500 1 0 00:44 10.01.2020
836 Mist 3 1025 100 3500 1 0 00:19 10.01.2020
837 Mist 3 1025 69 5000 0.5 0 23:39 09.01.2020
838 Mist 3 1025 69 5000 0.5 0 23:39 09.01.2020
839 Mist 3 1025 69 5000 0.5 0 23:39 09.01.2020
840 Mist 3 1025 67 5000 0.5 0 23:20 09.01.2020
841 Mist 3 1025 93 5000 1 0 22:58 09.01.2020
842 Mist 3 1025 93 5000 1 0 22:58 09.01.2020
843 Mist 3 1025 93 5000 1 0 22:39 09.01.2020
844 Mist 3 1025 93 5000 1 0 22:39 09.01.2020
845 Clouds 3 1025 67 7000 0.5 0 22:19 09.01.2020
846 Clouds 2 1025 67 7000 0.5 0 22:19 09.01.2020
847 Clouds 2 1025 67 7000 0.5 0 21:57 09.01.2020
848 Clear 2 1025 67 7000 0.5 0 21:38 09.01.2020
849 Clear 2 1025 67 7000 0.5 0 21:19 09.01.2020
850 Clear 2 1025 67 7000 1 0 20:58 09.01.2020
851 Clear 2 1025 67 7000 1 0 20:39 09.01.2020
852 Clear 2 1025 67 7000 1 0 20:39 09.01.2020
853 Clear 2 1025 100 7000 0.5 0 20:20 09.01.2020
854 Clear 2 1025 100 7000 0.5 0 19:57 09.01.2020
855 Clear 2 1025 100 7000 1 250 19:38 09.01.2020
856 Clear 3 1025 100 7000 1.5 250 19:19 09.01.2020
857 Mist 3 1025 93 4000 1.5 270 18:55 09.01.2020
858 Mist 4 1025 93 4000 1.5 270 18:36 09.01.2020
859 Mist 4 1025 93 4000 1.5 270 18:18 09.01.2020
860 Mist 5 1025 93 2500 1 0 17:41 09.01.2020
861 Mist 6 1025 86 3000 1.5 200 17:18 09.01.2020
862 Clear 6 1025 93 6000 2.6 200 16:49 09.01.2020
863 Clear 7 1025 93 6000 2.6 200 16:25 09.01.2020
864 Mist 7 1025 81 5000 1.5 200 15:59 09.01.2020
865 Mist 7 1025 81 5000 1.5 200 15:40 09.01.2020
866 Mist 7 1025 75 5000 1.5 210 15:19 09.01.2020
867 Mist 7 1026 81 3500 1.5 210 14:43 09.01.2020
868 Mist 7 1026 80 3500 1.5 230 14:22 09.01.2020
869 Mist 7 1026 80 3500 1.5 230 13:57 09.01.2020
870 Mist 7 1026 86 3500 1.5 250 13:39 09.01.2020
871 Mist 7 1027 100 3000 1.5 240 13:20 09.01.2020
872 Clouds 9 1027 61 10000 1 0 12:59 09.01.2020
873 Clouds 9 1027 61 10000 1 0 12:39 09.01.2020
874 Clouds 8 1027 87 10000 1 0 12:19 09.01.2020
875 Clouds 8 1027 87 10000 1 0 11:56 09.01.2020
876 Clouds 7 1028 100 10000 1 0 11:37 09.01.2020
877 Fog 3 1029 55 800 1 0 11:19 09.01.2020
878 Fog 2 1029 100 200 1.5 260 10:43 09.01.2020
879 Fog 2 1029 100 100 2.1 250 10:22 09.01.2020
880 Fog 1 1029 100 100 1.5 220 09:56 09.01.2020
881 Fog 1 1029 100 100 1.5 220 09:38 09.01.2020
882 Rain 0 1029 92 100 1.5 190 09:18 09.01.2020
883 Fog 0 1029 100 100 1 0 08:54 09.01.2020
884 Fog 0 1029 100 100 1 0 08:36 09.01.2020
885 Fog -1 1029 92 200 1 0 08:18 09.01.2020
886 Fog -1 1029 92 300 0.5 0 07:41 09.01.2020
887 Fog -1 1029 100 300 1 0 07:23 09.01.2020
888 Fog -1 1029 100 300 0.5 0 06:38 09.01.2020
889 Fog -1 1029 100 200 1 270 06:18 09.01.2020
890 Fog -1 1029 100 200 1.5 270 05:43 09.01.2020
891 Fog -1 1029 100 200 0.5 0 04:42 09.01.2020
892 Fog -1 1030 50 200 1 0 03:28 09.01.2020
893 Fog 0 1030 50 200 0.5 0 02:47 09.01.2020
894 Fog 0 1030 49 200 1 0 01:56 09.01.2020
895 Fog -1 1030 49 200 1 0 01:34 09.01.2020
896 Fog 0 1030 49 200 1.5 260 00:40 09.01.2020
897 Fog 0 1030 100 200 2.1 240 00:19 09.01.2020
898 Fog 0 1031 49 200 1.5 220 23:41 08.01.2020
899 Fog 0 1031 44 100 1.5 200 23:23 08.01.2020
900 Fog 0 1031 44 100 1.5 220 22:56 08.01.2020
901 Fog 1 1031 44 100 1.5 220 22:38 08.01.2020
902 Fog 1 1031 44 100 1.5 240 22:19 08.01.2020
903 Fog 1 1031 44 100 1 0 21:55 08.01.2020
904 Fog 1 1031 44 100 1 0 21:37 08.01.2020
905 Drizzle 1 1031 44 100 2.1 260 21:18 08.01.2020
906 Fog 1 1031 44 100 2.1 270 20:55 08.01.2020
907 Fog 1 1031 44 100 2.1 270 20:37 08.01.2020
908 Fog 1 1031 45 100 1.5 270 20:18 08.01.2020
909 Fog 2 1031 45 200 2.1 260 19:39 08.01.2020
910 Fog 2 1031 45 150 1.5 210 19:20 08.01.2020
911 Fog 2 1031 100 200 1.5 200 18:58 08.01.2020
912 Fog 2 1031 100 200 1.5 200 18:39 08.01.2020
913 Fog 2 1031 100 200 1.5 210 18:19 08.01.2020
914 Fog 2 1031 100 200 1.5 210 17:57 08.01.2020
915 Fog 3 1031 100 600 1.5 230 17:38 08.01.2020
916 Fog 4 1031 93 1200 2.1 200 17:19 08.01.2020
917 Fog 4 1031 93 1200 2.1 200 17:19 08.01.2020
918 Fog 5 1031 93 1200 2.1 200 16:56 08.01.2020
919 Mist 5 1031 93 2000 2.1 250 16:38 08.01.2020
920 Mist 5 1031 100 2500 1.5 240 16:18 08.01.2020
921 Mist 7 1031 100 2500 1.5 190 15:44 08.01.2020
922 Mist 7 1031 93 2500 1.5 210 15:21 08.01.2020
923 Mist 7 1031 93 2500 1.5 210 14:58 08.01.2020
924 Mist 7 1031 93 2500 1.5 250 14:40 08.01.2020
925 Mist 7 1031 93 2500 1.5 250 14:40 08.01.2020
926 Mist 6 1031 93 2500 1.5 250 14:40 08.01.2020
927 Mist 5 1031 100 2500 1 0 14:21 08.01.2020
928 Mist 5 1031 93 1500 1 0 13:41 08.01.2020
929 Mist 5 1031 100 1500 1.5 170 13:22 08.01.2020
930 Mist 5 1031 100 1500 1.5 170 12:55 08.01.2020
931 Mist 7 1032 93 1500 1 0 12:36 08.01.2020
932 Mist 7 1032 100 1500 0.5 0 12:18 08.01.2020
933 Fog 5 1032 42 700 1.5 260 11:47 08.01.2020
934 Fog 2 1032 63 400 1 0 11:19 08.01.2020
935 Fog 2 1032 63 400 1 0 11:19 08.01.2020
936 Fog 1 1032 63 0 1.5 250 10:58 08.01.2020
937 Fog 1 1032 63 0 1.5 250 10:40 08.01.2020
938 Fog 1 1032 63 0 1.5 250 10:40 08.01.2020
939 Fog 0 1032 63 300 1.5 260 10:20 08.01.2020
940 Fog 0 1032 63 400 1.5 250 09:43 08.01.2020
941 Fog 0 1032 63 400 2.1 260 09:20 08.01.2020
942 Fog -1 1032 63 300 2.1 270 08:58 08.01.2020
943 Fog -1 1032 63 300 2.1 270 08:38 08.01.2020
944 Fog -1 1032 68 300 2.1 250 08:20 08.01.2020
945 Fog -1 1032 68 300 2.1 270 07:50 08.01.2020
946 Fog -1 1032 68 300 2.1 270 07:32 08.01.2020
947 Fog -1 1031 68 400 2.6 250 06:50 08.01.2020
948 Fog -1 1031 68 400 2.6 250 06:32 08.01.2020
949 Fog -1 1031 68 300 2.1 260 05:54 08.01.2020
950 Fog -1 1031 61 250 2.6 260 04:59 08.01.2020
951 Fog -1 1031 61 150 3.1 270 04:27 08.01.2020
952 Fog 0 1031 61 200 2.6 240 02:45 08.01.2020
953 Fog 0 1031 100 200 2.1 240 02:23 08.01.2020
954 Fog 0 1031 100 800 1 0 01:50 08.01.2020
955 Fog 0 1031 63 100 0.5 0 01:25 08.01.2020
956 Fog 0 1031 63 100 1 0 00:40 08.01.2020
957 Fog 0 1031 63 100 1 0 00:20 08.01.2020
958 Fog 0 1031 63 100 2.1 60 23:44 07.01.2020
959 Fog 0 1030 66 200 2.1 80 23:20 07.01.2020
960 Fog 0 1030 66 200 1 0 22:40 07.01.2020
961 Fog 0 1030 100 300 2.1 90 22:20 07.01.2020
962 Fog 1 1029 100 300 2.1 100 21:57 07.01.2020
963 Fog 1 1029 100 300 2.1 100 21:38 07.01.2020
964 Fog 1 1029 100 300 2.6 90 21:20 07.01.2020
965 Fog 1 1029 100 300 2.1 120 20:56 07.01.2020
966 Fog 1 1029 100 300 2.1 120 20:37 07.01.2020
967 Fog 1 1028 100 200 1 0 20:19 07.01.2020
968 Fog 1 1028 100 200 1.5 90 19:38 07.01.2020
969 Fog 1 1028 100 200 1 0 19:20 07.01.2020
970 Fog 1 1027 100 0 1 130 18:58 07.01.2020
971 Fog 1 1027 100 0 1 130 18:40 07.01.2020
972 Fog 1 1027 100 200 1 0 18:19 07.01.2020
973 Fog 1 1027 100 0 2.1 290 17:59 07.01.2020
974 Fog 1 1027 100 0 2.1 290 17:39 07.01.2020
975 Fog 2 1026 100 200 1.5 210 17:21 07.01.2020
976 Fog 3 1026 100 200 2.1 250 16:56 07.01.2020
977 Fog 3 1026 100 200 2.1 250 16:37 07.01.2020
978 Fog 3 1026 100 200 1.5 220 16:19 07.01.2020
979 Fog 4 1026 93 300 1.5 230 15:57 07.01.2020
980 Fog 4 1026 93 300 1.5 230 15:38 07.01.2020
981 Fog 5 1026 93 300 2.1 190 15:19 07.01.2020
982 Fog 5 1026 100 250 1.5 260 14:42 07.01.2020
983 Fog 4 1026 100 400 2.1 250 14:24 07.01.2020
984 Fog 4 1026 100 400 2.1 250 13:57 07.01.2020
985 Fog 4 1027 100 400 2.1 230 13:38 07.01.2020
986 Fog 4 1027 100 400 1.5 240 13:18 07.01.2020
987 Clouds 5 1026 86 8000 1.5 220 12:41 07.01.2020
988 Clouds 5 1026 93 8000 1 0 12:19 07.01.2020
989 Fog 4 1027 57 300 0.5 0 11:45 07.01.2020
990 Fog 3 1028 68 300 1.5 200 11:23 07.01.2020
991 Fog 2 1028 68 300 1.5 200 10:59 07.01.2020
992 Fog 1 1027 68 300 1 0 10:40 07.01.2020
993 Fog 1 1027 68 300 1 0 10:22 07.01.2020
994 Fog 1 1027 68 300 1 0 09:56 07.01.2020
995 Fog 0 1027 68 300 1 0 09:37 07.01.2020
996 Fog 0 1027 68 300 2.1 250 09:19 07.01.2020
997 Fog -1 1027 68 300 1.5 230 08:41 07.01.2020
998 Fog -1 1027 76 300 2.6 270 08:21 07.01.2020
999 Fog -1 1027 100 300 2.1 240 07:51 07.01.2020
1000 Fog -1 1027 100 250 1.5 230 07:26 07.01.2020
1001 Fog -1 1027 100 50 1.5 250 06:52 07.01.2020
1002 Fog -1 1027 100 50 1.5 250 06:32 07.01.2020
1003 Fog 0 1027 100 50 2.1 240 05:46 07.01.2020
1004 Fog -1 1028 76 50 1.5 240 04:31 07.01.2020
1005 Fog 0 1028 100 50 2.6 270 03:25 07.01.2020
1006 Fog 0 1029 74 50 1.5 250 02:21 07.01.2020
1007 Fog 0 1029 74 50 2.1 260 01:51 07.01.2020
1008 Fog 0 1029 73 50 2.6 260 01:21 07.01.2020
1009 Fog 0 1029 100 500 2.1 250 00:22 07.01.2020
1010 Fog 0 1029 100 500 2.1 250 23:58 06.01.2020
1011 Fog 0 1029 100 1100 0.5 250 23:39 06.01.2020
1012 Fog 0 1029 100 1500 1 260 23:21 06.01.2020
1013 Fog 0 1030 100 1200 1 260 22:56 06.01.2020
1014 Fog 0 1030 100 1200 1 260 22:37 06.01.2020
1015 Fog 0 1030 100 3000 1 260 22:19 06.01.2020
1016 Fog 0 1030 70 6000 0.5 210 21:55 06.01.2020
1017 Fog 1 1030 70 6000 0.5 210 21:36 06.01.2020
1018 Fog 1 1030 70 6000 0.5 210 21:36 06.01.2020
1019 Fog 0 1030 70 6000 1 260 21:18 06.01.2020
1020 Fog 1 1030 70 6000 1.5 260 20:54 06.01.2020
1021 Fog 1 1030 70 6000 1.5 260 20:54 06.01.2020
1022 Fog 1 1030 70 6000 1.5 260 20:36 06.01.2020
1023 Fog 1 1030 66 6000 1 270 20:18 06.01.2020
1024 Fog 1 1030 66 6000 1 270 20:18 06.01.2020
1025 Fog 1 1030 66 8000 0.5 230 19:54 06.01.2020
1026 Fog 1 1030 66 8000 0.5 230 19:36 06.01.2020
1027 Fog 2 1030 93 8000 1 260 19:18 06.01.2020
1028 Fog 2 1030 100 10000 1 210 18:41 06.01.2020
1029 Fog 3 1030 93 9000 0.5 270 18:19 06.01.2020
1030 Mist 3 1030 93 3500 1 250 17:39 06.01.2020
1031 Mist 4 1030 93 3000 1 260 17:19 06.01.2020
1032 Mist 5 1030 86 3500 1 0 16:55 06.01.2020
1033 Mist 5 1030 86 3500 1 0 16:37 06.01.2020
1034 Mist 6 1030 93 3500 1.5 280 16:18 06.01.2020
1035 Mist 6 1030 93 3500 1.5 280 16:18 06.01.2020
1036 Mist 6 1030 86 3500 1 0 15:42 06.01.2020
1037 Mist 6 1030 93 1500 1.5 220 15:20 06.01.2020
1038 Mist 6 1031 93 1000 2.1 220 14:59 06.01.2020
1039 Mist 6 1031 93 1000 2.1 220 14:41 06.01.2020
1040 Mist 7 1031 93 1000 2.1 220 14:41 06.01.2020
1041 Fog 6 1031 93 600 2.1 220 14:21 06.01.2020
1042 Fog 6 1031 93 600 2.1 220 13:58 06.01.2020
1043 Fog 6 1032 93 600 2.1 230 13:38 06.01.2020
1044 Mist 6 1032 93 1000 1.5 200 13:19 06.01.2020
1045 Mist 7 1032 86 2000 1.5 220 12:43 06.01.2020
1046 Clouds 7 1032 75 10000 1 0 12:21 06.01.2020
1047 Clouds 7 1032 75 10000 1 0 11:58 06.01.2020
1048 Clouds 7 1032 75 10000 1 0 11:39 06.01.2020
1049 Mist 4 1033 100 1200 1.5 230 11:21 06.01.2020
1050 Mist 4 1033 72 1000 1.5 240 10:57 06.01.2020
1051 Mist 3 1033 72 1000 1.5 240 10:39 06.01.2020
1052 Mist 2 1033 72 3000 1.5 260 10:20 06.01.2020
1053 Clouds 2 1033 72 6000 2.1 270 09:38 06.01.2020
1054 Fog 1 1033 100 10000 1 190 09:19 06.01.2020
1055 Fog 0 1033 72 8000 0.5 0 08:43 06.01.2020
1056 Fog 0 1032 100 6000 1 210 08:25 06.01.2020
1057 Fog 0 1032 72 10000 1 260 07:53 06.01.2020
1058 Clouds 1 1032 72 10000 1 0 07:28 06.01.2020
1059 Clouds 1 1032 72 10000 0.5 0 06:45 06.01.2020
1060 Clouds 1 1031 100 10000 3.6 10 06:19 06.01.2020
1061 Clouds 1 1032 72 10000 1.5 10 05:42 06.01.2020
1062 Clear 1 1032 70 10000 1.5 360 04:33 06.01.2020
1063 Clear 1 1032 70 10000 1.5 360 03:59 06.01.2020
1064 Clear 1 1032 100 10000 1.5 360 02:46 06.01.2020
1065 Clear 2 1032 100 10000 2.1 40 02:22 06.01.2020
1066 Clear 2 1032 93 10000 1 0 01:43 06.01.2020
1067 Clear 2 1032 93 10000 1 70 01:21 06.01.2020
1068 Clear 3 1033 86 10000 2.1 70 00:41 06.01.2020
1069 Clear 3 1032 93 10000 1.5 60 00:19 06.01.2020
1070 Clear 3 1032 93 10000 0.5 0 23:41 05.01.2020
1071 Clear 4 1032 86 10000 2.1 100 23:22 05.01.2020
1072 Clear 4 1031 86 10000 2.1 100 22:55 05.01.2020
1073 Clear 4 1031 86 10000 2.1 100 22:37 05.01.2020
1074 Clear 4 1031 80 10000 1.5 70 22:18 05.01.2020
1075 Clear 4 1031 75 10000 2.1 80 21:41 05.01.2020
1076 Clear 4 1031 64 10000 1 0 21:21 05.01.2020
1077 Clear 4 1031 75 10000 2.1 90 20:59 05.01.2020
1078 Clear 4 1031 75 10000 2.1 90 20:39 05.01.2020
1079 Clear 4 1030 53 10000 0.5 0 20:20 05.01.2020
1080 Clear 4 1030 53 10000 0.5 0 19:59 05.01.2020
1081 Clear 5 1030 53 10000 1 0 19:40 05.01.2020
1082 Clear 5 1029 75 10000 1 0 19:21 05.01.2020
1083 Clear 5 1029 75 10000 0.5 0 18:56 05.01.2020
1084 Clear 6 1029 75 10000 0.5 0 18:38 05.01.2020
1085 Clear 6 1029 70 10000 1 0 18:19 05.01.2020
1086 Clear 6 1029 70 10000 1 0 18:19 05.01.2020
1087 Clear 7 1029 53 10000 0.5 0 17:58 05.01.2020
1088 Clear 8 1029 53 10000 0.5 0 17:39 05.01.2020
1089 Clear 9 1028 46 10000 0.5 220 17:20 05.01.2020
1090 Clear 10 1028 46 10000 0.5 220 16:57 05.01.2020
1091 Clear 10 1028 52 10000 1.5 220 16:39 05.01.2020
1092 Clear 11 1028 46 10000 2.1 220 16:19 05.01.2020
1093 Clear 11 1028 46 10000 2.1 200 15:40 05.01.2020
1094 Clear 12 1028 52 10000 2.6 210 15:20 05.01.2020
1095 Clear 12 1027 40 10000 1.5 190 14:56 05.01.2020
1096 Clear 11 1027 40 10000 1.5 190 14:38 05.01.2020
1097 Clear 11 1028 34 10000 1.5 180 14:20 05.01.2020
1098 Clear 11 1028 34 10000 1 0 13:56 05.01.2020
1099 Clear 11 1028 34 10000 1 0 13:38 05.01.2020
1100 Clear 11 1028 33 10000 0.5 0 13:19 05.01.2020
1101 Clear 12 1028 33 10000 0.5 0 12:56 05.01.2020
1102 Clear 12 1028 33 10000 0.5 0 12:37 05.01.2020
1103 Clear 11 1029 50 10000 0.5 0 12:19 05.01.2020
1104 Clear 11 1028 57 10000 0.5 0 11:44 05.01.2020
1105 Clear 11 1028 57 10000 0.5 0 11:44 05.01.2020
1106 Clear 8 1029 57 10000 1.38 348 11:20 05.01.2020
1107 Clear 8 1029 57 10000 1.38 348 11:20 05.01.2020
1108 Clear 7 1028 70 10000 0.5 0 10:59 05.01.2020
1109 Clear 7 1028 70 10000 0.5 0 10:40 05.01.2020
1110 Clear 6 1028 86 10000 0.5 0 10:19 05.01.2020
1111 Clear 4 1027 39 10000 1 0 09:42 05.01.2020
1112 Clear 3 1027 39 10000 0.5 0 09:22 05.01.2020
1113 Fog 2 1027 92 8000 0.5 0 08:51 05.01.2020
1114 Fog 2 1027 92 8000 0.5 0 08:32 05.01.2020
1115 Fog 2 1026 47 8000 0.5 0 07:59 05.01.2020
1116 Clear 2 1026 100 10000 0.5 0 07:39 05.01.2020
1117 Clear 2 1025 92 10000 1 0 07:20 05.01.2020
1118 Clear 2 1025 47 10000 0.5 0 06:40 05.01.2020
1119 Clear 2 1025 47 10000 2.1 350 05:34 05.01.2020
1120 Clear 2 1025 47 10000 2.1 350 05:34 05.01.2020
1121 Clear 2 1025 51 10000 1.5 350 04:49 05.01.2020
1122 Clear 3 1025 51 10000 1 0 04:18 05.01.2020
1123 Clear 3 1025 51 10000 1 0 04:18 05.01.2020
1124 Clear 3 1024 51 10000 0.5 0 02:50 05.01.2020
1125 Clear 3 1024 51 10000 0.5 0 02:32 05.01.2020
1126 Clear 3 1023 52 10000 1 0 01:49 05.01.2020
1127 Clear 4 1022 52 10000 1 0 01:19 05.01.2020
1128 Clear 4 1022 86 10000 0.5 0 00:55 05.01.2020
1129 Clear 4 1022 86 10000 0.5 0 00:36 05.01.2020
1130 Clear 4 1022 52 10000 1.5 190 00:18 05.01.2020
1131 Clear 5 1022 80 10000 1.5 150 23:40 04.01.2020
1132 Clear 5 1022 70 10000 2.1 260 23:20 04.01.2020
1133 Clear 5 1021 61 10000 2.6 290 22:40 04.01.2020
1134 Clear 6 1022 61 10000 2.6 300 22:22 04.01.2020
1135 Clear 5 1022 70 10000 4.6 280 21:58 04.01.2020
1136 Clear 5 1022 70 10000 4.6 280 21:40 04.01.2020
1137 Clear 6 1022 65 10000 4.6 280 21:20 04.01.2020
1138 Clear 5 1022 65 10000 4.6 280 20:59 04.01.2020
1139 Clear 6 1022 65 10000 4.6 290 20:40 04.01.2020
1140 Clear 6 1022 61 10000 4.6 280 20:21 04.01.2020
1141 Clear 6 1022 70 10000 1 0 19:56 04.01.2020
1142 Clear 6 1022 70 10000 1 0 19:38 04.01.2020
1143 Clear 6 1022 75 10000 2.6 180 19:19 04.01.2020
1144 Clear 6 1022 75 10000 2.1 210 18:54 04.01.2020
1145 Clear 7 1022 75 10000 2.1 210 18:36 04.01.2020
1146 Clear 7 1022 80 10000 2.1 250 18:18 04.01.2020
1147 Clear 7 1022 80 10000 2.1 250 18:18 04.01.2020
1148 Clear 8 1022 75 10000 1 260 17:41 04.01.2020
1149 Clear 9 1022 70 10000 1.5 270 17:23 04.01.2020
1150 Clear 9 1022 66 10000 2.1 250 16:57 04.01.2020
1151 Clear 10 1022 66 10000 2.1 250 16:39 04.01.2020
1152 Clear 10 1022 66 10000 2.1 250 16:39 04.01.2020
1153 Clear 9 1022 66 10000 2.1 250 16:39 04.01.2020
1154 Clear 10 1022 61 10000 2.1 240 16:21 04.01.2020
1155 Clear 10 1023 61 10000 2.6 240 15:43 04.01.2020
1156 Clear 11 1023 57 10000 2.1 230 15:20 04.01.2020
1157 Clear 11 1023 57 10000 2.1 230 14:59 04.01.2020
1158 Clear 11 1023 57 10000 1.5 240 14:41 04.01.2020
1159 Clouds 10 1024 61 10000 2.1 240 14:20 04.01.2020
1160 Clouds 10 1024 61 10000 1.5 250 13:58 04.01.2020
1161 Clear 10 1024 61 10000 1.5 250 13:37 04.01.2020
1162 Clear 10 1024 61 10000 1.5 250 13:19 04.01.2020
1163 Clear 10 1025 70 10000 2.1 250 12:56 04.01.2020
1164 Clear 9 1025 70 10000 2.1 250 12:38 04.01.2020
1165 Clear 9 1024 75 10000 1 0 12:18 04.01.2020
1166 Clear 8 1024 75 10000 1 0 11:55 04.01.2020
1167 Clear 8 1026 70 10000 0.5 0 11:36 04.01.2020
1168 Clear 6 1026 80 10000 0.5 0 11:18 04.01.2020
1169 Clear 5 1026 86 10000 1 0 10:40 04.01.2020
1170 Clear 5 1025 62 10000 1 0 10:21 04.01.2020
1171 Clear 3 1025 62 10000 1 0 09:44 04.01.2020
1172 Clear 2 1025 62 10000 0.5 0 09:25 04.01.2020
1173 Clear 2 1025 62 10000 1.5 0 08:49 04.01.2020
1174 Clear 1 1025 62 10000 1.5 0 08:29 04.01.2020
1175 Clear 0 1024 63 10000 0.5 0 07:56 04.01.2020
1176 Clear 0 1024 63 10000 0.5 0 07:55 04.01.2020
1177 Clear 0 1024 63 10000 0.5 0 07:37 04.01.2020
1178 Clear 0 1024 63 10000 0.5 0 06:43 04.01.2020
1179 Clear 1 1024 63 10000 2.1 280 05:57 04.01.2020
1180 Clear 1 1024 92 10000 1 0 04:50 04.01.2020
1181 Clear 1 1024 92 10000 1 0 04:29 04.01.2020
1182 Clear 1 1024 61 10000 1.5 0 03:28 04.01.2020
1183 Clear 2 1024 93 8000 2.1 260 02:46 04.01.2020
1184 Clouds 1 1024 100 8000 2.1 250 02:18 04.01.2020
1185 Clouds 2 1024 58 8000 1.5 240 01:37 04.01.2020
1186 Fog 2 1025 60 5000 1.5 200 01:19 04.01.2020
1187 Fog 2 1025 60 8000 1 0 00:29 04.01.2020
1188 Fog 2 1025 60 8000 1 0 23:57 03.01.2020
1189 Fog 2 1025 100 10000 0.5 0 23:29 03.01.2020
1190 Clouds 3 1025 93 10000 0.5 0 22:57 03.01.2020
1191 Clouds 3 1025 93 10000 1 0 22:57 03.01.2020
1192 Clouds 3 1025 93 10000 1 0 22:39 03.01.2020
1193 Clouds 3 1025 100 10000 1 0 22:18 03.01.2020
1194 Clouds 3 1025 56 10000 3.1 10 21:56 03.01.2020
1195 Clouds 3 1025 56 10000 3.1 10 21:37 03.01.2020
1196 Clouds 3 1025 93 10000 0.5 0 21:18 03.01.2020
1197 Clouds 3 1025 86 10000 1.5 280 20:54 03.01.2020
1198 Clouds 3 1025 86 10000 1.5 280 20:36 03.01.2020
1199 Clouds 4 1025 93 10000 1 0 20:18 03.01.2020
1200 Clouds 4 1025 93 10000 1.5 260 19:41 03.01.2020
1201 Clouds 4 1025 86 10000 1 0 19:23 03.01.2020
1202 Clouds 4 1025 86 10000 1.5 280 18:47 03.01.2020
1203 Clouds 5 1025 86 10000 1.5 280 18:27 03.01.2020
1204 Clouds 5 1026 86 10000 1 250 17:58 03.01.2020
1205 Clouds 5 1026 86 10000 1 250 17:40 03.01.2020
1206 Clouds 5 1026 81 9000 1 200 17:21 03.01.2020
1207 Clouds 5 1026 81 9000 1 200 17:21 03.01.2020
1208 Clouds 6 1026 75 9000 0.5 0 16:44 03.01.2020
1209 Clouds 6 1026 75 9000 2.1 250 16:25 03.01.2020
1210 Clouds 7 1026 75 10000 0.5 0 15:59 03.01.2020
1211 Clouds 7 1026 75 10000 0.5 0 15:41 03.01.2020
1212 Clouds 7 1026 75 10000 1.5 270 15:19 03.01.2020
1213 Clouds 7 1026 70 8000 1 0 14:39 03.01.2020
1214 Clouds 7 1026 70 9000 0.5 0 14:20 03.01.2020
1215 Clouds 7 1027 75 10000 1 0 13:57 03.01.2020
1216 Clouds 7 1027 75 10000 1 0 13:38 03.01.2020
1217 Clouds 7 1027 70 10000 1.04 263 13:20 03.01.2020
1218 Clouds 7 1028 75 10000 1 0 12:40 03.01.2020
1219 Clouds 6 1028 75 10000 0.5 0 12:21 03.01.2020
1220 Clouds 6 1028 80 10000 0.5 0 11:49 03.01.2020
1221 Clouds 6 1028 80 10000 0.5 0 11:30 03.01.2020
1222 Clouds 4 1029 80 10000 1 0 10:48 03.01.2020
1223 Clouds 4 1029 80 10000 1 0 10:28 03.01.2020
1224 Clouds 3 1029 86 10000 0.5 0 09:59 03.01.2020
1225 Clouds 3 1029 93 10000 1 0 09:41 03.01.2020
1226 Clouds 3 1029 56 10000 1 240 09:23 03.01.2020
1227 Clouds 2 1029 56 10000 0.5 0 08:57 03.01.2020
1228 Clouds 2 1029 56 10000 0.5 0 08:39 03.01.2020
1229 Clouds 2 1029 63 10000 0.5 0 08:20 03.01.2020
1230 Clouds 2 1028 61 10000 0.5 0 07:42 03.01.2020
1231 Fog 2 1028 61 8000 1 230 07:19 03.01.2020
1232 Fog 1 1028 61 8000 2.1 280 06:54 03.01.2020
1233 Fog 1 1028 61 8000 2.1 280 06:35 03.01.2020
1234 Fog 1 1028 61 8000 1 250 05:48 03.01.2020
1235 Fog 2 1029 67 5000 0.5 0 04:31 03.01.2020
1236 Mist 1 1029 67 5000 0.5 250 03:18 03.01.2020
1237 Fog 1 1029 67 4000 1 0 02:45 03.01.2020
1238 Fog 1 1030 100 2500 0.5 0 01:45 03.01.2020
1239 Fog 1 1030 73 5000 1.5 280 00:56 03.01.2020
1240 Fog 1 1030 73 5000 1.5 280 00:32 03.01.2020
1241 Fog 2 1031 93 6000 0.5 0 23:58 02.01.2020
1242 Fog 2 1031 73 6000 1 270 23:39 02.01.2020
1243 Clear 2 1031 71 6000 1 280 23:19 02.01.2020
1244 Clear 2 1031 100 6000 1 270 22:57 02.01.2020
1245 Clear 2 1031 100 6000 1 270 22:39 02.01.2020
1246 Clear 2 1031 100 6000 1 230 22:18 02.01.2020
1247 Clear 2 1031 71 6000 1.5 280 21:42 02.01.2020
1248 Clear 2 1031 100 10000 1 270 21:23 02.01.2020
1249 Clear 2 1031 100 10000 1 270 21:00 02.01.2020
1250 Clear 2 1031 100 10000 1 270 20:59 02.01.2020
1251 Clear 2 1031 100 10000 1 270 20:59 02.01.2020
1252 Clear 2 1031 100 10000 1 270 20:59 02.01.2020
1253 Clear 2 1031 100 10000 1 270 20:39 02.01.2020
1254 Clear 2 1031 67 10000 1 230 20:21 02.01.2020
1255 Clear 2 1031 67 10000 1 230 20:21 02.01.2020
1256 Clear 3 1031 93 10000 0.5 0 19:56 02.01.2020
1257 Clear 3 1031 93 10000 0.5 0 19:38 02.01.2020
1258 Clear 3 1031 93 10000 1 0 19:19 02.01.2020
1259 Clear 3 1031 93 10000 1 0 18:58 02.01.2020
1260 Clear 4 1031 80 10000 1 270 18:58 02.01.2020
1261 Clear 4 1031 80 10000 1 270 18:39 02.01.2020
1262 Clear 4 1031 86 10000 1 0 18:21 02.01.2020
1263 Clear 5 1031 80 10000 1.5 250 17:56 02.01.2020
1264 Clear 5 1031 80 10000 1.5 250 17:37 02.01.2020
1265 Clear 6 1031 80 8000 1 0 17:19 02.01.2020
1266 Clear 7 1031 70 10000 1.5 230 16:56 02.01.2020
1267 Clear 7 1031 70 10000 1.5 230 16:38 02.01.2020
1268 Clear 8 1031 65 10000 2.1 240 16:20 02.01.2020
1269 Clear 8 1031 65 10000 2.1 230 15:45 02.01.2020
1270 Clear 8 1031 65 10000 2.1 240 15:24 02.01.2020
1271 Clear 8 1031 70 10000 2.6 230 14:58 02.01.2020
1272 Clear 8 1031 70 10000 2.6 230 14:38 02.01.2020
1273 Clear 8 1032 70 10000 2.1 250 14:20 02.01.2020
1274 Clear 8 1032 75 10000 2.1 240 13:58 02.01.2020
1275 Clear 8 1032 75 10000 2.1 240 13:40 02.01.2020
1276 Clear 8 1033 75 10000 1.5 230 13:19 02.01.2020
1277 Clear 8 1033 53 8000 2.1 250 12:42 02.01.2020
1278 Clear 7 1033 70 10000 1 0 12:21 02.01.2020
1279 Clear 7 1033 75 10000 1.5 330 11:42 02.01.2020
1280 Clear 5 1034 80 6000 1.5 240 11:22 02.01.2020
1281 Clear 4 1034 86 6000 2.1 240 10:46 02.01.2020
1282 Clear 3 1034 86 6000 2.1 240 10:28 02.01.2020
1283 Mist 2 1034 92 5000 2.1 250 09:58 02.01.2020
1284 Mist 1 1034 92 5000 2.1 250 09:35 02.01.2020
1285 Mist 0 1034 92 3500 2.6 250 08:59 02.01.2020
1286 Mist 0 1034 92 5000 2.1 240 08:39 02.01.2020
1287 Clear 0 1034 92 7000 1.5 200 08:19 02.01.2020
1288 Clear 0 1033 92 10000 1 190 07:47 02.01.2020
1289 Clear 0 1033 92 10000 0.5 0 07:26 02.01.2020
1290 Clear 0 1033 100 10000 0.5 0 06:41 02.01.2020
1291 Clear 0 1033 92 10000 0.5 280 05:40 02.01.2020
1292 Clear 0 1033 92 10000 0.5 270 04:34 02.01.2020
1293 Clear 0 1034 92 10000 0.5 290 03:29 02.01.2020
1294 Clouds 1 1034 92 10000 0.5 350 02:21 02.01.2020
1295 Clouds 1 1033 76 10000 0.5 300 01:49 02.01.2020
1296 Clouds 1 1033 76 10000 1 360 01:23 02.01.2020
1297 Clouds 1 1033 76 10000 1.5 10 00:38 02.01.2020
1298 Clouds 1 1033 76 10000 1.5 10 00:38 02.01.2020
1299 Clouds 1 1033 86 10000 0.5 340 00:19 02.01.2020
1300 Clouds 2 1033 76 10000 1.5 340 23:41 01.01.2020
1301 Clouds 2 1033 86 10000 1.5 360 23:21 01.01.2020
1302 Clouds 2 1033 86 10000 1.5 10 22:38 01.01.2020
1303 Clouds 2 1033 74 10000 1 0 22:20 01.01.2020
1304 Clouds 2 1033 86 10000 1 0 21:57 01.01.2020
1305 Clouds 2 1033 86 10000 1 0 21:38 01.01.2020
1306 Clouds 2 1033 74 10000 1 0 21:20 01.01.2020
1307 Clouds 3 1032 74 10000 0.5 0 20:56 01.01.2020
1308 Clouds 3 1032 73 10000 0.5 0 20:38 01.01.2020
1309 Clear 3 1032 71 10000 1 10 20:19 01.01.2020
1310 Clear 3 1032 71 10000 1 10 20:19 01.01.2020
1311 Clear 3 1032 71 10000 0.5 0 19:55 01.01.2020
1312 Clear 3 1032 71 10000 0.5 0 19:55 01.01.2020
1313 Clear 3 1032 71 10000 0.5 0 19:55 01.01.2020
1314 Clear 3 1032 71 10000 0.5 0 19:55 01.01.2020
1315 Clear 4 1032 71 10000 0.5 0 19:37 01.01.2020
1316 Clear 4 1031 80 10000 0.5 0 19:19 01.01.2020
1317 Clear 4 1031 65 10000 1.5 110 18:55 01.01.2020
1318 Clear 5 1031 65 10000 1.5 110 18:36 01.01.2020
1319 Clear 5 1030 69 10000 1.5 30 18:18 01.01.2020
1320 Clear 6 1031 61 10000 1.5 70 17:56 01.01.2020
1321 Clear 6 1031 61 10000 1.5 70 17:38 01.01.2020
1322 Clear 7 1030 61 10000 1.5 100 17:18 01.01.2020
1323 Clear 8 1030 61 10000 1.5 80 16:41 01.01.2020
1324 Clear 9 1030 61 10000 2.6 80 16:22 01.01.2020
1325 Clear 9 1030 61 10000 2.6 80 15:58 01.01.2020
1326 Clear 9 1030 57 10000 2.6 90 15:40 01.01.2020
1327 Clear 10 1030 61 10000 2.1 80 15:21 01.01.2020
1328 Clear 10 1030 66 7000 2.1 70 14:58 01.01.2020
1329 Clear 10 1030 66 7000 2.1 70 14:40 01.01.2020
1330 Clear 10 1030 70 6000 1.5 80 14:21 01.01.2020
1331 Clear 10 1030 70 6000 1.5 80 14:21 01.01.2020
1332 Mist 10 1031 70 3500 1.5 80 13:56 01.01.2020
1333 Mist 10 1031 70 3500 1.5 80 13:37 01.01.2020
1334 Mist 10 1031 70 3500 1.5 80 13:37 01.01.2020
1335 Mist 9 1031 70 3000 1 0 13:18 01.01.2020
1336 Mist 10 1031 75 2500 1 0 12:55 01.01.2020
1337 Mist 9 1031 75 2500 1 0 12:37 01.01.2020
1338 Clear 9 1031 61 10000 1 0 12:18 01.01.2020
1339 Clear 9 1031 70 10000 1 0 11:43 01.01.2020
1340 Mist 7 1032 93 1600 0.5 0 11:22 01.01.2020
1341 Fog 6 1032 93 1200 0.5 0 10:58 01.01.2020
1342 Fog 5 1032 93 1200 0.5 0 10:39 01.01.2020
1343 Fog 4 1032 63 1200 1.5 40 10:20 01.01.2020
1344 Fog 3 1031 63 1200 1.5 50 09:55 01.01.2020
1345 Fog 2 1031 63 1200 1.5 50 09:36 01.01.2020
1346 Fog 2 1031 63 1200 1.5 50 09:36 01.01.2020
1347 Fog 2 1031 100 1200 0.5 0 09:18 01.01.2020
1348 Fog 1 1030 100 500 1 260 08:54 01.01.2020
1349 Fog 1 1030 100 500 1 260 08:36 01.01.2020
1350 Fog 0 1030 100 1600 1 0 08:18 01.01.2020
1351 Fog 0 1030 100 1600 0.5 0 07:43 01.01.2020
1352 Fog 0 1030 100 1200 0.5 0 07:24 01.01.2020
1353 Fog 0 1030 100 400 0.5 190 06:44 01.01.2020
1354 Fog 0 1029 92 800 0.5 0 06:19 01.01.2020
1355 Fog 1 1029 100 900 1 290 04:36 01.01.2020
1356 Fog 1 1030 92 800 0.5 170 03:41 01.01.2020
1357 Fog 1 1030 92 800 0.5 0 03:22 01.01.2020
1358 Fog 1 1030 100 400 0.5 0 02:54 01.01.2020
1359 Fog 1 1030 100 400 0.5 0 02:30 01.01.2020
1360 Fog 1 1030 61 2000 0.5 0 01:45 01.01.2020
1361 Fog 1 1030 100 2000 0.5 0 01:23 01.01.2020
1362 Fog 2 1030 100 3000 1 0 00:54 01.01.2020
1363 Fog 2 1030 100 3000 1 0 00:36 01.01.2020
1364 Fog 1 1030 100 3500 0.5 0 00:18 01.01.2020
1365 Fog 2 1030 60 4000 0.5 0 23:38 31.12.2019
1366 Fog 2 1030 100 9000 0.5 0 23:19 31.12.2019
1367 Fog 2 1030 100 9000 0.5 0 22:56 31.12.2019
1368 Clouds 3 1030 100 9000 0.5 0 22:37 31.12.2019
1369 Clouds 3 1030 57 8000 1 0 22:18 31.12.2019
1370 Clouds 3 1029 100 10000 1 220 21:43 31.12.2019
1371 Clouds 3 1029 100 10000 1 220 21:25 31.12.2019
1372 Clouds 3 1029 86 10000 1 290 20:57 31.12.2019
1373 Clouds 3 1029 86 10000 1 290 20:39 31.12.2019
1374 Clouds 3 1029 86 10000 1 210 20:21 31.12.2019
1375 Clouds 4 1029 93 10000 1.5 260 19:58 31.12.2019
1376 Clouds 4 1029 93 10000 1.5 260 19:40 31.12.2019
1377 Clouds 4 1029 93 10000 1 260 19:21 31.12.2019
1378 Clouds 4 1029 86 10000 0.5 0 18:57 31.12.2019
1379 Clouds 4 1029 86 10000 0.5 0 18:38 31.12.2019
1380 Clouds 5 1029 86 10000 1 260 18:19 31.12.2019
1381 Clouds 5 1029 86 8000 1 0 17:55 31.12.2019
1382 Clouds 6 1029 86 8000 1 0 17:36 31.12.2019
1383 Clouds 6 1029 81 9000 1 0 17:18 31.12.2019
1384 Clouds 7 1029 75 9000 1.5 240 16:56 31.12.2019
1385 Clouds 8 1029 75 9000 1.5 240 16:37 31.12.2019
1386 Clouds 8 1029 75 9000 1.5 240 16:37 31.12.2019
1387 Clouds 8 1028 70 10000 2.1 240 16:18 31.12.2019
1388 Clouds 8 1029 65 10000 2.6 240 15:56 31.12.2019
1389 Clouds 8 1029 65 10000 2.6 240 15:37 31.12.2019
1390 Clouds 8 1029 65 10000 2.1 230 15:19 31.12.2019
1391 Clouds 8 1029 65 10000 1.5 260 14:55 31.12.2019
1392 Clouds 8 1029 65 10000 1.5 260 14:37 31.12.2019
1393 Clouds 8 1029 65 10000 2.1 270 14:18 31.12.2019
1394 Clouds 8 1030 70 8000 2.1 250 13:55 31.12.2019
1395 Clouds 8 1030 70 8000 2.1 250 13:37 31.12.2019
1396 Clouds 8 1030 70 8000 2.1 250 13:19 31.12.2019
1397 Clouds 8 1030 70 8000 2.1 250 12:54 31.12.2019
1398 Clouds 7 1031 80 8000 2.6 250 12:36 31.12.2019
1399 Clouds 7 1031 80 8000 2.6 250 12:36 31.12.2019
1400 Clouds 7 1031 80 8000 1.5 240 12:18 31.12.2019
1401 Clouds 6 1032 86 7000 2.1 250 11:54 31.12.2019
1402 Clouds 6 1032 86 7000 2.1 250 11:36 31.12.2019
1403 Clouds 6 1032 86 7000 2.1 250 11:36 31.12.2019
1404 Clouds 5 1032 71 7000 1.5 250 11:18 31.12.2019
1405 Clouds 4 1032 71 7000 1.5 210 10:54 31.12.2019
1406 Clouds 3 1032 71 7000 1.5 210 10:36 31.12.2019
1407 Clouds 3 1032 71 7000 1.5 210 10:36 31.12.2019
1408 Clouds 2 1032 71 6000 1.5 260 10:18 31.12.2019
1409 Clouds 2 1032 71 6000 1.5 260 10:18 31.12.2019
1410 Mist 2 1032 71 5000 2.1 260 09:54 31.12.2019
1411 Mist 1 1032 71 5000 2.1 260 09:36 31.12.2019
1412 Mist 0 1031 71 2000 1.5 260 09:18 31.12.2019
1413 Fog -1 1031 100 1000 1 0 08:42 31.12.2019
1414 Fog -1 1031 100 400 2.1 250 08:21 31.12.2019
1415 Fog -1 1031 100 400 2.1 240 07:44 31.12.2019
1416 Fog -1 1031 100 200 2.1 250 07:22 31.12.2019
1417 Clear -1 1031 80 6000 1.5 240 06:51 31.12.2019
1418 Clear -1 1032 80 6000 1.5 240 06:23 31.12.2019
1419 Clear -1 1032 80 6000 1.5 240 06:23 31.12.2019
1420 Clear -1 1033 79 6000 1.5 260 04:54 31.12.2019
1421 Clear -1 1033 79 6000 2.1 250 04:21 31.12.2019
1422 Mist 0 1033 79 5000 2.1 250 02:57 31.12.2019
1423 Mist 0 1033 82 5000 1.5 260 02:20 31.12.2019
1424 Mist 0 1034 82 5000 1.5 250 01:48 31.12.2019
1425 Mist 0 1034 79 5000 1.5 260 01:29 31.12.2019
1426 Mist 0 1035 79 5000 1 0 00:48 31.12.2019
1427 Clear 0 1035 79 10000 1.5 270 00:23 31.12.2019
1428 Clear 0 1035 93 10000 2.1 250 23:58 30.12.2019
1429 Clear 0 1035 93 10000 2.1 250 23:38 30.12.2019
1430 Clear 0 1035 76 10000 1.5 260 23:20 30.12.2019
1431 Clear 0 1036 100 10000 1.5 240 22:58 30.12.2019
1432 Clear 1 1036 100 10000 1.5 240 22:40 30.12.2019
1433 Clear 1 1036 93 10000 1.5 250 22:20 30.12.2019
1434 Clear 1 1036 93 10000 1.5 250 22:20 30.12.2019
1435 Clear 1 1036 93 10000 1.5 240 21:57 30.12.2019
1436 Clear 1 1036 93 10000 1.5 240 21:39 30.12.2019
1437 Clear 1 1036 93 10000 2.1 250 21:19 30.12.2019
1438 Clear 1 1036 93 10000 2.1 260 20:57 30.12.2019
1439 Clear 1 1036 93 10000 2.1 260 20:39 30.12.2019
1440 Clear 2 1036 86 10000 2.1 250 20:20 30.12.2019
1441 Clear 2 1036 86 10000 2.1 250 19:58 30.12.2019
1442 Clear 2 1036 93 10000 2.1 250 19:38 30.12.2019
1443 Clear 2 1036 93 10000 2.1 250 19:19 30.12.2019
1444 Clear 3 1036 86 9000 1.5 240 18:56 30.12.2019
1445 Clear 3 1036 86 9000 1.5 240 18:38 30.12.2019
1446 Clear 3 1036 86 6000 2.1 240 18:20 30.12.2019
1447 Mist 3 1036 86 4000 2.1 230 17:55 30.12.2019
1448 Mist 4 1036 86 4000 2.1 230 17:37 30.12.2019
1449 Mist 4 1036 80 4000 2.1 240 17:18 30.12.2019
1450 Mist 5 1036 80 4000 2.1 240 16:55 30.12.2019
1451 Clouds 5 1036 80 6000 2.1 230 16:36 30.12.2019
1452 Clouds 5 1036 75 6000 2.6 240 16:18 30.12.2019
1453 Clouds 6 1036 75 6000 3.1 250 15:55 30.12.2019
1454 Clouds 6 1036 75 6000 3.1 250 15:36 30.12.2019
1455 Clouds 6 1036 75 6000 2.6 250 15:18 30.12.2019
1456 Clouds 6 1036 75 6000 3.1 230 14:42 30.12.2019
1457 Clouds 6 1036 75 6000 3.1 230 14:42 30.12.2019
1458 Clouds 6 1036 75 6000 3.1 240 14:19 30.12.2019
1459 Clouds 6 1036 75 6000 3.1 250 13:55 30.12.2019
1460 Clouds 6 1036 75 6000 3.1 250 13:37 30.12.2019
1461 Clouds 6 1037 75 6000 3.1 240 13:18 30.12.2019
1462 Clouds 5 1037 80 6000 3.1 250 12:42 30.12.2019
1463 Clouds 5 1037 80 6000 3.6 250 12:20 30.12.2019
1464 Clouds 5 1037 80 7000 2.6 250 11:58 30.12.2019
1465 Clouds 4 1037 80 7000 2.6 250 11:40 30.12.2019
1466 Clouds 4 1038 80 6000 2.6 250 11:19 30.12.2019
1467 Clouds 4 1037 86 6000 2.1 260 10:44 30.12.2019
1468 Mist 3 1037 86 4000 2.1 260 10:21 30.12.2019
1469 Mist 3 1037 86 4000 2.1 210 09:58 30.12.2019
1470 Mist 3 1037 86 4000 2.1 210 09:39 30.12.2019
1471 Mist 3 1037 86 4000 1 0 09:19 30.12.2019
1472 Mist 2 1037 86 3000 1.5 210 08:50 30.12.2019
1473 Mist 2 1037 86 3000 1.5 210 08:50 30.12.2019
1474 Mist 2 1037 86 5000 0.5 240 08:23 30.12.2019
1475 Clouds 2 1036 93 8000 1.5 190 07:55 30.12.2019
1476 Clouds 2 1036 93 8000 1.5 190 07:34 30.12.2019
1477 Clouds 2 1037 93 8000 0.35 83 06:52 30.12.2019
1478 Clouds 3 1036 86 8000 1.5 90 04:57 30.12.2019
1479 Clouds 3 1036 86 8000 1.5 70 03:55 30.12.2019
1480 Clouds 3 1036 86 8000 3.1 120 02:56 30.12.2019
1481 Clouds 3 1036 86 8000 3.1 120 02:37 30.12.2019
1482 Mist 3 1036 93 5000 3.6 90 01:50 30.12.2019
1483 Mist 3 1036 93 3500 3.6 90 01:20 30.12.2019
1484 Mist 3 1036 93 3500 2.6 100 00:44 30.12.2019
1485 Mist 3 1035 93 3500 3.6 100 00:18 30.12.2019
1486 Mist 3 1035 93 3000 2.1 120 23:39 29.12.2019
1487 Mist 3 1035 93 3000 2.6 130 23:21 29.12.2019
1488 Fog 3 1034 100 100 2.1 80 22:42 29.12.2019
1489 Mist 3 1034 93 1500 1.5 120 22:23 29.12.2019
1490 Mist 3 1034 93 1500 1.5 120 21:58 29.12.2019
1491 Mist 3 1034 100 1500 2.1 110 21:40 29.12.2019
1492 Mist 3 1034 100 1000 1.5 120 21:20 29.12.2019
1493 Fog 2 1033 100 400 1.5 120 20:57 29.12.2019
1494 Fog 3 1033 100 400 1.5 120 20:38 29.12.2019
1495 Fog 2 1033 100 50 1.5 120 20:20 29.12.2019
1496 Fog 3 1033 100 50 1.5 120 19:58 29.12.2019
1497 Fog 2 1033 100 50 1.5 110 19:39 29.12.2019
1498 Fog 2 1033 93 50 2.1 120 19:20 29.12.2019
1499 Fog 3 1033 93 50 2.1 120 18:56 29.12.2019
1500 Fog 3 1032 100 50 1.5 100 18:38 29.12.2019
1501 Mist 3 1032 100 3000 2.6 240 18:19 29.12.2019
1502 Fog 3 1032 93 300 1 0 17:57 29.12.2019
1503 Fog 4 1032 93 300 1 0 17:38 29.12.2019
1504 Mist 4 1032 93 2000 2.1 150 17:20 29.12.2019
1505 Mist 5 1032 93 2000 2.1 150 16:56 29.12.2019
1506 Mist 5 1032 93 3500 1.5 180 16:36 29.12.2019
1507 Mist 5 1032 93 3500 1.5 180 16:36 29.12.2019
1508 Mist 5 1032 86 3500 2.1 210 16:18 29.12.2019
1509 Mist 6 1033 87 3500 1.5 220 15:56 29.12.2019
1510 Mist 6 1033 87 3500 1.5 220 15:38 29.12.2019
1511 Mist 6 1033 86 3500 2.1 220 15:19 29.12.2019
1512 Mist 6 1032 93 4000 0.5 0 14:55 29.12.2019
1513 Mist 6 1032 93 4000 0.5 0 14:37 29.12.2019
1514 Mist 6 1033 93 3500 1.5 200 14:18 29.12.2019
1515 Mist 6 1033 93 3500 1.5 200 14:18 29.12.2019
1516 Mist 6 1034 100 1500 1 0 13:55 29.12.2019
1517 Mist 5 1034 100 1500 1 0 13:37 29.12.2019
1518 Mist 5 1034 93 3000 2.1 270 13:18 29.12.2019
1519 Mist 5 1035 100 5000 2.1 160 12:42 29.12.2019
1520 Mist 5 1035 93 3500 1 0 12:24 29.12.2019
1521 Mist 5 1035 100 2500 0.5 0 11:55 29.12.2019
1522 Mist 5 1035 100 2500 0.5 0 11:37 29.12.2019
1523 Fog 4 1035 100 1800 2.1 190 11:19 29.12.2019
1524 Fog 3 1035 100 2000 1.5 180 10:41 29.12.2019
1525 Fog 3 1035 100 1600 0.5 0 10:21 29.12.2019
1526 Fog 3 1035 100 800 0.5 0 09:54 29.12.2019
1527 Fog 3 1035 100 800 0.5 0 09:36 29.12.2019
1528 Fog 2 1035 74 300 0.5 0 09:18 29.12.2019
1529 Fog 2 1034 74 200 0.5 0 08:46 29.12.2019
1530 Fog 2 1034 83 200 0.5 0 08:24 29.12.2019
1531 Fog 1 1034 83 150 0.5 0 07:54 29.12.2019
1532 Fog 2 1034 100 100 1 350 07:28 29.12.2019
1533 Fog 2 1034 100 100 0.5 0 06:53 29.12.2019
1534 Fog 1 1034 100 100 0.5 0 06:23 29.12.2019
1535 Fog 1 1034 100 100 1 360 05:50 29.12.2019
1536 Fog 2 1034 100 100 1 200 04:35 29.12.2019
1537 Fog 1 1034 85 1200 0.5 350 03:40 29.12.2019
1538 Fog 1 1034 85 1600 0.5 0 03:19 29.12.2019
1539 Fog 1 1034 84 1200 1 340 02:19 29.12.2019
1540 Fog 1 1034 84 200 1 330 01:31 29.12.2019
1541 Fog 1 1034 84 200 1 330 01:31 29.12.2019
1542 Fog 1 1034 83 600 0.5 0 00:51 29.12.2019
1543 Fog 1 1034 83 2500 1 0 00:27 29.12.2019
1544 Fog 1 1034 83 2500 1 0 23:57 28.12.2019
1545 Fog 2 1034 100 2500 1 0 23:39 28.12.2019
1546 Fog 1 1034 100 2500 1 30 23:18 28.12.2019
1547 Clouds 1 1033 93 6000 0.5 0 22:39 28.12.2019
1548 Clouds 1 1033 93 10000 0.5 0 22:19 28.12.2019
1549 Clouds 2 1033 93 10000 0.5 0 21:57 28.12.2019
1550 Clouds 2 1033 93 10000 0.5 0 21:38 28.12.2019
1551 Clouds 2 1033 93 10000 0.5 0 21:20 28.12.2019
1552 Clouds 2 1033 93 10000 1 180 20:55 28.12.2019
1553 Clouds 2 1033 93 10000 1 180 20:36 28.12.2019
1554 Clouds 2 1032 86 10000 1.26 49 20:18 28.12.2019
1555 Clouds 2 1032 93 10000 1 260 19:54 28.12.2019
1556 Clouds 3 1032 93 10000 1 260 19:36 28.12.2019
1557 Clouds 3 1031 93 10000 1 250 19:18 28.12.2019
1558 Clouds 4 1031 93 10000 1 240 18:42 28.12.2019
1559 Clouds 4 1031 86 10000 0.5 250 18:20 28.12.2019
1560 Clouds 5 1031 86 10000 0.5 250 17:59 28.12.2019
1561 Clouds 5 1031 81 10000 1 240 17:40 28.12.2019
1562 Clouds 6 1030 75 10000 1 200 17:21 28.12.2019
1563 Clouds 7 1030 70 10000 0.5 0 16:51 28.12.2019
1564 Clouds 7 1030 70 10000 0.5 0 16:27 28.12.2019
1565 Clouds 8 1030 66 10000 1 0 15:58 28.12.2019
1566 Clouds 9 1030 66 10000 1 0 15:39 28.12.2019
1567 Clouds 8 1030 66 10000 0.5 0 15:21 28.12.2019
1568 Clouds 8 1030 66 10000 0.5 0 15:21 28.12.2019
1569 Clouds 8 1030 66 10000 0.5 0 15:21 28.12.2019
1570 Clouds 8 1030 66 8000 0.5 0 14:47 28.12.2019
1571 Clouds 8 1030 66 8000 0.5 0 14:26 28.12.2019
1572 Clouds 8 1031 70 10000 1.5 270 13:58 28.12.2019
1573 Clouds 8 1031 70 10000 1.5 270 13:39 28.12.2019
1574 Clouds 8 1031 70 10000 1 0 13:20 28.12.2019
1575 Clouds 7 1031 81 10000 1 240 12:55 28.12.2019
1576 Clouds 7 1031 81 10000 1 240 12:36 28.12.2019
1577 Clouds 7 1032 80 10000 1.5 250 12:18 28.12.2019
1578 Clouds 6 1032 86 10000 1.5 270 11:40 28.12.2019
1579 Clouds 5 1032 80 8000 1 260 11:21 28.12.2019
1580 Clouds 4 1031 86 8000 0.5 0 10:47 28.12.2019
1581 Clouds 3 1031 86 8000 1 0 10:23 28.12.2019
1582 Clouds 3 1031 86 8000 1 0 09:59 28.12.2019
1583 Clouds 2 1031 86 8000 1 250 09:41 28.12.2019
1584 Clouds 2 1030 93 8000 1 0 09:23 28.12.2019
1585 Clouds 1 1030 100 10000 1 240 08:45 28.12.2019
1586 Clouds 1 1030 100 10000 1 240 08:27 28.12.2019
1587 Clouds 1 1030 65 10000 1 0 07:59 28.12.2019
1588 Clouds 1 1030 93 10000 0.5 0 07:39 28.12.2019
1589 Clouds 0 1029 65 10000 1 0 06:50 28.12.2019
1590 Clear 1 1029 65 10000 0.5 0 05:31 28.12.2019
1591 Clear 1 1029 63 10000 1 350 03:47 28.12.2019
1592 Clear 1 1028 63 10000 1 0 02:49 28.12.2019
1593 Clear 1 1028 71 10000 2.1 10 02:19 28.12.2019
1594 Fog 2 1028 71 7000 1 0 01:50 28.12.2019
1595 Fog 1 1027 71 7000 2.1 30 01:20 28.12.2019
1596 Fog 2 1027 71 5000 0.5 0 00:41 28.12.2019
1597 Fog 2 1027 100 7000 0.5 0 00:23 28.12.2019
1598 Fog 2 1027 100 7000 1.5 50 23:45 27.12.2019
1599 Clear 2 1026 100 10000 0.5 0 23:21 27.12.2019
1600 Clear 2 1026 66 10000 0.5 0 22:58 27.12.2019
1601 Clear 2 1026 66 10000 0.5 0 22:39 27.12.2019
1602 Clear 2 1025 86 10000 1.5 150 22:21 27.12.2019
1603 Clear 2 1025 86 10000 1.5 150 21:59 27.12.2019
1604 Clear 2 1025 93 10000 1.5 140 21:40 27.12.2019
1605 Clear 2 1024 93 10000 1 240 21:22 27.12.2019
1606 Clear 3 1024 86 10000 1 0 20:42 27.12.2019
1607 Clear 3 1024 86 10000 2.1 250 20:23 27.12.2019
1608 Clear 3 1023 80 10000 1.5 250 19:55 27.12.2019
1609 Clear 3 1023 80 10000 1.5 250 19:36 27.12.2019
1610 Clear 4 1023 86 10000 0.5 0 19:18 27.12.2019
1611 Clear 4 1023 86 10000 0.5 0 19:18 27.12.2019
1612 Clear 4 1023 86 10000 0.5 0 19:18 27.12.2019
1613 Clear 4 1023 86 10000 1.5 250 18:41 27.12.2019
1614 Clear 4 1023 86 10000 1.5 250 18:23 27.12.2019
1615 Clear 5 1023 81 10000 2.1 250 17:59 27.12.2019
1616 Clear 6 1023 70 10000 2.6 250 17:41 27.12.2019
1617 Clear 6 1023 70 10000 1.5 230 17:19 27.12.2019
1618 Clear 7 1023 70 10000 1.5 230 16:59 27.12.2019
1619 Clear 8 1023 70 10000 2.1 270 16:39 27.12.2019
1620 Clear 8 1022 66 10000 1.5 250 16:20 27.12.2019
1621 Clear 9 1022 57 10000 1.5 250 15:45 27.12.2019
1622 Clear 9 1021 57 10000 0.5 0 15:23 27.12.2019
1623 Clear 9 1021 57 10000 0.5 0 14:58 27.12.2019
1624 Clear 9 1021 57 10000 0.5 0 14:40 27.12.2019
1625 Clouds 9 1021 61 10000 1 0 14:21 27.12.2019
1626 Clouds 9 1022 61 10000 0.5 0 13:57 27.12.2019
1627 Clouds 9 1022 61 10000 0.5 0 13:38 27.12.2019
1628 Clouds 9 1022 61 10000 0.5 0 13:38 27.12.2019
1629 Clouds 8 1022 65 10000 1 0 13:20 27.12.2019
1630 Clouds 8 1022 70 10000 1 0 12:42 27.12.2019
1631 Clouds 8 1022 70 10000 1 0 12:23 27.12.2019
1632 Clouds 7 1023 55 10000 1 0 11:46 27.12.2019
1633 Clouds 5 1023 86 10000 1.5 20 11:26 27.12.2019
1634 Clouds 5 1023 86 10000 1.5 20 10:59 27.12.2019
1635 Clouds 4 1023 70 10000 0.5 0 10:40 27.12.2019
1636 Clouds 4 1022 93 10000 0.5 0 10:22 27.12.2019
1637 Fog 3 1022 93 9000 0.5 0 09:44 27.12.2019
1638 Fog 2 1022 70 9000 0.5 0 09:22 27.12.2019
1639 Fog 2 1022 93 9000 0.5 0 09:22 27.12.2019
1640 Fog 2 1022 70 9000 0.5 0 08:59 27.12.2019
1641 Fog 1 1022 100 7000 0.5 0 08:36 27.12.2019
1642 Fog 1 1022 69 9000 0.5 0 07:52 27.12.2019
1643 Fog 1 1022 69 9000 0.5 0 07:33 27.12.2019
1644 Fog 1 1022 69 8000 1 30 06:38 27.12.2019
1645 Fog 1 1022 69 8000 1 0 05:38 27.12.2019
1646 Clear 1 1023 62 10000 0.5 0 03:44 27.12.2019
1647 Clear 1 1023 58 10000 0.5 0 02:23 27.12.2019
1648 Clear 2 1023 58 10000 1 0 01:42 27.12.2019
1649 Clear 2 1023 58 10000 0.5 0 01:20 27.12.2019
1650 Clear 2 1023 59 10000 0.5 0 00:44 27.12.2019
1651 Clear 2 1023 100 10000 0.5 0 00:24 27.12.2019
1652 Clear 2 1023 100 10000 0.5 0 00:24 27.12.2019
1653 Clear 2 1023 59 10000 0.5 0 23:42 26.12.2019
1654 Clear 2 1023 93 10000 0.5 0 23:22 26.12.2019
1655 Clear 2 1023 86 10000 0.5 0 22:48 26.12.2019
1656 Clear 3 1023 93 10000 1.5 260 22:23 26.12.2019
1657 Clear 3 1023 93 10000 1.5 260 21:59 26.12.2019
1658 Clear 3 1023 100 10000 0.5 0 21:39 26.12.2019
1659 Clear 3 1023 86 10000 1 0 21:20 26.12.2019
1660 Clear 3 1023 93 10000 1.5 290 20:46 26.12.2019
1661 Clear 3 1023 93 10000 1.5 290 20:23 26.12.2019
1662 Clouds 4 1022 80 10000 1 0 19:59 26.12.2019
1663 Clouds 4 1022 75 10000 1 0 19:40 26.12.2019
1664 Clouds 5 1022 75 10000 1 0 19:40 26.12.2019
1665 Clouds 5 1023 80 10000 2.1 270 19:22 26.12.2019
1666 Clouds 5 1023 80 10000 2.1 270 18:58 26.12.2019
1667 Clouds 5 1022 75 10000 1 0 18:39 26.12.2019
1668 Clouds 5 1022 80 10000 1 0 18:19 26.12.2019
1669 Clouds 6 1022 80 10000 1 0 17:57 26.12.2019
1670 Clouds 7 1022 70 10000 0.5 0 17:38 26.12.2019
1671 Clouds 7 1022 70 10000 0.5 0 17:38 26.12.2019
1672 Clouds 7 1022 61 10000 1.5 240 17:18 26.12.2019
1673 Clouds 9 1022 66 10000 1.5 250 16:43 26.12.2019
1674 Clouds 9 1022 61 10000 2.1 240 16:23 26.12.2019
1675 Clouds 9 1022 57 10000 1.5 250 15:56 26.12.2019
1676 Clouds 9 1022 57 10000 1.5 250 15:37 26.12.2019
1677 Clouds 9 1022 57 10000 2.1 240 15:18 26.12.2019
1678 Clouds 10 1022 57 10000 2.1 250 14:40 26.12.2019
1679 Clouds 10 1022 53 10000 2.1 250 14:21 26.12.2019
1680 Clouds 10 1023 57 10000 1.5 240 13:43 26.12.2019
1681 Clouds 10 1023 61 10000 1.5 230 13:21 26.12.2019
1682 Clouds 10 1023 61 10000 1.5 230 13:21 26.12.2019
1683 Clouds 10 1023 57 10000 1.5 220 12:58 26.12.2019
1684 Clouds 10 1023 57 10000 1.5 220 12:58 26.12.2019
1685 Clouds 10 1023 57 10000 1.5 220 12:39 26.12.2019
1686 Clouds 10 1023 66 10000 1.5 250 12:20 26.12.2019
1687 Clouds 10 1023 66 10000 1.5 250 11:57 26.12.2019
1688 Clouds 9 1023 57 10000 0.5 0 11:38 26.12.2019
1689 Clouds 8 1023 61 10000 0.5 0 11:20 26.12.2019
1690 Clouds 7 1023 75 10000 0.5 0 10:47 26.12.2019
1691 Clouds 5 1023 80 10000 1 20 10:19 26.12.2019
1692 Clouds 5 1023 93 10000 0.5 20 09:50 26.12.2019
1693 Clouds 4 1023 93 10000 0.5 20 09:31 26.12.2019
1694 Clouds 2 1022 41 10000 0.85 55 08:43 26.12.2019
1695 Clear 1 1022 100 10000 1.23 348 08:24 26.12.2019
1696 Clear 1 1021 51 10000 0.5 0 07:53 26.12.2019
1697 Clear 2 1021 51 10000 0.5 0 07:28 26.12.2019
1698 Clear 2 1021 51 10000 1.01 5 06:53 26.12.2019
1699 Clear 2 1021 51 10000 1.01 5 06:32 26.12.2019
1700 Clear 2 1020 51 10000 1 0 05:45 26.12.2019
1701 Clear 2 1020 53 10000 1 30 04:57 26.12.2019
1702 Clear 2 1020 53 10000 0.5 0 04:30 26.12.2019
1703 Clear 3 1019 64 10000 2.1 20 02:56 26.12.2019
1704 Clear 3 1019 64 10000 2.1 20 02:34 26.12.2019
1705 Clear 4 1019 55 10000 2.1 150 01:50 26.12.2019
1706 Clear 4 1019 55 10000 2.1 150 01:32 26.12.2019
1707 Clear 4 1018 80 10000 0.5 0 00:50 26.12.2019
1708 Clear 5 1018 54 10000 0.5 0 00:27 26.12.2019
1709 Clear 5 1018 54 10000 0.5 0 23:58 25.12.2019
1710 Clear 5 1018 54 10000 0.5 320 23:39 25.12.2019
1711 Clear 5 1018 50 10000 2.6 160 23:21 25.12.2019
1712 Clear 5 1018 50 10000 2.6 160 22:59 25.12.2019
1713 Clear 6 1017 56 10000 0.5 0 22:39 25.12.2019
1714 Clear 6 1017 52 10000 1.5 210 22:20 25.12.2019
1715 Clear 6 1017 39 10000 3.6 360 21:58 25.12.2019
1716 Clear 6 1017 39 10000 3.6 360 21:39 25.12.2019
1717 Clear 7 1017 30 10000 3.1 350 21:20 25.12.2019
1718 Clear 7 1017 42 10000 1.5 270 20:54 25.12.2019
1719 Clear 7 1017 42 10000 1.5 270 20:36 25.12.2019
1720 Clear 8 1016 34 10000 1 0 20:18 25.12.2019
1721 Clear 7 1016 43 10000 4.1 360 19:43 25.12.2019
1722 Clear 7 1016 43 10000 3.6 360 19:23 25.12.2019
1723 Clear 8 1016 43 10000 3.6 360 18:58 25.12.2019
1724 Clear 8 1015 40 10000 3.1 350 18:36 25.12.2019
1725 Clear 9 1015 53 10000 2.1 350 18:18 25.12.2019
1726 Clear 10 1014 50 10000 2.1 360 17:40 25.12.2019
1727 Clear 10 1014 37 10000 3.6 10 17:19 25.12.2019
1728 Clear 12 1014 38 10000 1 0 16:56 25.12.2019
1729 Clear 12 1014 38 10000 1 0 16:37 25.12.2019
1730 Clear 13 1014 38 10000 1 0 16:18 25.12.2019
1731 Clear 13 1014 38 10000 1 0 15:56 25.12.2019
1732 Clear 13 1014 47 10000 2.1 310 15:37 25.12.2019
1733 Clear 14 1014 31 10000 3.6 300 15:18 25.12.2019
1734 Clear 14 1014 31 10000 3.6 300 15:18 25.12.2019
1735 Clear 14 1014 36 10000 2.6 300 14:55 25.12.2019
1736 Clear 14 1014 36 10000 2.6 300 14:37 25.12.2019
1737 Clear 14 1014 38 10000 2.6 290 14:18 25.12.2019
1738 Clear 14 1014 41 10000 3.1 280 13:42 25.12.2019
1739 Clear 13 1015 40 10000 4.1 280 13:21 25.12.2019
1740 Clear 14 1015 40 10000 3.6 280 12:44 25.12.2019
1741 Clear 13 1015 46 10000 4.1 270 12:22 25.12.2019
1742 Clear 12 1015 46 10000 4.1 270 11:58 25.12.2019
1743 Clear 12 1015 50 10000 2.6 280 11:40 25.12.2019
1744 Clear 10 1016 57 10000 1.5 250 11:21 25.12.2019
1745 Clear 8 1015 65 10000 2.1 270 10:39 25.12.2019
1746 Clear 6 1015 75 10000 2.1 290 10:21 25.12.2019
1747 Clear 6 1015 75 10000 2.1 290 09:58 25.12.2019
1748 Clear 5 1015 75 10000 2.1 230 09:40 25.12.2019
1749 Clear 5 1015 75 10000 2.1 230 09:40 25.12.2019
1750 Clear 5 1015 51 10000 1.5 350 09:21 25.12.2019
1751 Clear 4 1015 74 10000 2.1 310 08:42 25.12.2019
1752 Clear 3 1015 57 10000 1 0 08:23 25.12.2019
1753 Clear 3 1015 74 10000 2.1 310 08:23 25.12.2019
1754 Clear 4 1015 57 10000 1 0 07:42 25.12.2019
1755 Clear 4 1015 57 10000 1 0 07:22 25.12.2019
1756 Clear 3 1014 86 10000 0.5 0 06:24 25.12.2019
1757 Clear 4 1014 57 10000 1.5 300 05:49 25.12.2019
1758 Clear 4 1014 80 10000 2.1 280 04:42 25.12.2019
1759 Clear 4 1014 80 10000 2.1 250 04:24 25.12.2019
1760 Clear 4 1014 54 10000 1 0 03:43 25.12.2019
1761 Clear 4 1014 80 10000 1 0 02:57 25.12.2019
1762 Clear 4 1014 71 10000 1 0 02:28 25.12.2019
1763 Clear 5 1014 72 10000 1 0 01:36 25.12.2019
1764 Clear 5 1014 80 10000 1 310 01:18 25.12.2019
1765 Clear 5 1014 86 10000 1.5 310 00:40 25.12.2019
1766 Clear 5 1014 75 10000 0.5 0 00:22 25.12.2019
1767 Clear 5 1014 80 10000 2.1 350 23:39 24.12.2019
1768 Clear 5 1014 75 10000 2.1 350 23:20 24.12.2019
1769 Clear 5 1014 75 10000 2.1 350 23:20 24.12.2019
1770 Clear 5 1014 80 10000 2.1 340 22:42 24.12.2019
1771 Clear 6 1014 65 10000 1 0 22:23 24.12.2019
1772 Clear 5 1014 65 10000 2.1 300 21:55 24.12.2019
1773 Clear 5 1014 65 10000 2.1 300 21:36 24.12.2019
1774 Clear 5 1014 61 10000 1.5 320 21:18 24.12.2019
1775 Clear 6 1014 65 10000 2.6 260 20:41 24.12.2019
1776 Clouds 6 1013 61 10000 3.1 260 20:19 24.12.2019
1777 Clouds 6 1014 61 10000 3.1 250 19:46 24.12.2019
1778 Clouds 6 1014 66 10000 2.6 250 19:22 24.12.2019
1779 Clouds 7 1014 66 10000 1 0 18:58 24.12.2019
1780 Clouds 7 1014 66 10000 1 0 18:40 24.12.2019
1781 Clouds 8 1014 66 10000 1.5 250 18:18 24.12.2019
1782 Clouds 8 1014 66 10000 1.5 260 17:42 24.12.2019
1783 Clear 9 1013 57 10000 1.5 250 17:21 24.12.2019
1784 Clouds 10 1014 54 10000 1.5 260 16:57 24.12.2019
1785 Clouds 10 1014 54 10000 1.5 260 16:38 24.12.2019
1786 Clouds 11 1015 43 10000 1.5 330 16:20 24.12.2019
1787 Clouds 11 1015 43 10000 1.5 330 15:56 24.12.2019
1788 Clouds 11 1015 50 10000 1.5 10 15:36 24.12.2019
1789 Clouds 11 1015 47 10000 1 0 15:18 24.12.2019
1790 Clear 11 1015 54 10000 1 170 14:56 24.12.2019
1791 Clear 11 1015 54 10000 1 170 14:38 24.12.2019
1792 Clouds 11 1015 46 10000 1 0 14:20 24.12.2019
1793 Clouds 11 1016 58 10000 2.1 10 13:55 24.12.2019
1794 Clouds 11 1016 58 10000 2.1 10 13:55 24.12.2019
1795 Clouds 11 1016 58 10000 2.1 10 13:37 24.12.2019
1796 Clouds 11 1016 43 10000 2.1 350 13:19 24.12.2019
1797 Clouds 11 1016 43 10000 2.1 320 12:55 24.12.2019
1798 Clouds 11 1016 43 10000 2.1 320 12:36 24.12.2019
1799 Clouds 11 1016 57 10000 2.1 260 12:18 24.12.2019
1800 Clouds 10 1017 61 10000 2.1 220 11:55 24.12.2019
1801 Clouds 9 1017 61 10000 2.1 220 11:36 24.12.2019
1802 Clouds 8 1017 61 10000 1.5 250 11:18 24.12.2019
1803 Clouds 8 1017 61 10000 1.5 250 11:18 24.12.2019
1804 Clouds 8 1017 61 10000 1.5 270 10:55 24.12.2019
1805 Clouds 8 1017 61 10000 1.5 270 10:55 24.12.2019
1806 Clouds 8 1017 61 10000 1.5 270 10:36 24.12.2019
1807 Clouds 7 1017 65 10000 1.5 250 10:18 24.12.2019
1808 Clouds 7 1017 70 10000 1.5 210 09:54 24.12.2019
1809 Clouds 6 1017 70 10000 1.5 210 09:36 24.12.2019
1810 Clouds 6 1017 48 10000 1.5 250 09:18 24.12.2019
1811 Clouds 5 1017 47 10000 3.1 260 08:42 24.12.2019
1812 Clouds 5 1017 48 10000 3.1 260 08:42 24.12.2019
1813 Clouds 4 1017 69 10000 1.5 240 08:19 24.12.2019
1814 Clouds 4 1016 65 10000 2.6 260 07:45 24.12.2019
1815 Clouds 4 1015 65 10000 2.6 270 07:24 24.12.2019
1816 Clouds 4 1015 65 10000 2.6 270 07:24 24.12.2019
1817 Clouds 4 1015 52 10000 1.5 300 06:44 24.12.2019
1818 Clouds 4 1015 52 10000 1.5 290 06:22 24.12.2019
1819 Clouds 4 1016 49 10000 1.5 320 05:57 24.12.2019
1820 Clear 5 1015 49 10000 2.1 300 05:20 24.12.2019
1821 Clear 5 1015 39 10000 3.6 330 04:33 24.12.2019
1822 Clear 5 1015 43 10000 4.1 310 03:50 24.12.2019
1823 Clear 5 1015 47 10000 2.1 310 02:59 24.12.2019
1824 Clear 6 1015 49 10000 4.1 270 02:18 24.12.2019
1825 Clear 7 1015 49 10000 5.1 280 01:42 24.12.2019
1826 Clear 7 1015 46 10000 5.7 280 01:19 24.12.2019
1827 Clear 7 1015 37 10000 2.6 310 00:41 24.12.2019
1828 Clear 7 1015 37 10000 2.6 310 00:22 24.12.2019
1829 Clear 7 1015 50 10000 3.6 210 23:43 23.12.2019
1830 Clear 7 1015 50 10000 3.6 210 23:24 23.12.2019
1831 Clear 8 1014 40 10000 5.1 320 22:58 23.12.2019
1832 Clear 8 1014 40 10000 5.1 320 22:58 23.12.2019
1833 Clear 8 1014 40 10000 5.1 320 22:38 23.12.2019
1834 Clear 9 1013 40 10000 5.1 320 22:20 23.12.2019
1835 Clear 9 1013 48 10000 4.1 310 21:57 23.12.2019
1836 Clear 9 1013 48 10000 4.1 310 21:37 23.12.2019
1837 Clear 9 1013 48 10000 5.1 310 21:19 23.12.2019
1838 Clear 9 1013 48 10000 4.6 310 20:59 23.12.2019
1839 Clear 9 1013 48 10000 4.6 310 20:41 23.12.2019
1840 Clear 9 1012 51 10000 4.6 310 20:19 23.12.2019
1841 Clear 9 1012 51 10000 4.6 310 19:59 23.12.2019
1842 Clear 10 1012 51 10000 3.6 300 19:41 23.12.2019
1843 Clear 10 1011 37 10000 4.6 320 19:22 23.12.2019
1844 Clear 10 1011 37 10000 4.1 320 18:59 23.12.2019
1845 Clear 10 1011 37 10000 4.1 320 18:39 23.12.2019
1846 Clear 11 1011 35 10000 3.6 320 18:21 23.12.2019
1847 Clear 11 1010 35 10000 4.1 310 17:59 23.12.2019
1848 Clear 12 1010 35 10000 4.1 310 17:41 23.12.2019
1849 Clear 12 1009 30 10000 5.7 320 17:20 23.12.2019
1850 Clear 12 1009 30 10000 5.7 320 17:20 23.12.2019
1851 Clear 12 1009 30 10000 5.7 320 16:59 23.12.2019
1852 Clear 13 1009 30 10000 4.6 300 16:40 23.12.2019
1853 Clear 14 1008 42 10000 4.1 300 16:19 23.12.2019
1854 Clear 13 1008 44 10000 3.6 260 15:58 23.12.2019
1855 Clear 13 1008 44 10000 3.6 260 15:37 23.12.2019
1856 Clear 14 1007 44 10000 3.1 250 15:19 23.12.2019
1857 Clear 14 1007 44 10000 3.1 250 14:56 23.12.2019
1858 Clear 14 1007 50 10000 3.6 250 14:38 23.12.2019
1859 Clear 14 1007 50 10000 4.6 260 14:19 23.12.2019
1860 Clear 14 1007 50 10000 4.6 260 13:56 23.12.2019
1861 Clear 14 1007 50 10000 4.6 250 13:38 23.12.2019
1862 Clear 13 1007 50 10000 3.1 240 13:20 23.12.2019
1863 Clear 14 1007 54 10000 3.1 230 12:55 23.12.2019
1864 Clear 13 1007 54 10000 3.1 230 12:36 23.12.2019
1865 Clear 13 1007 53 10000 3.1 240 12:18 23.12.2019
1866 Clear 13 1007 53 10000 3.1 240 12:18 23.12.2019
1867 Clear 12 1007 53 10000 3.1 240 11:42 23.12.2019
1868 Clear 12 1007 53 10000 3.1 240 11:42 23.12.2019
1869 Clear 12 1007 53 10000 3.1 240 11:42 23.12.2019
1870 Clear 10 1007 57 10000 3.6 270 11:24 23.12.2019
1871 Clear 10 1007 57 10000 3.6 270 10:56 23.12.2019
1872 Clear 9 1006 65 10000 3.1 250 10:38 23.12.2019
1873 Clear 8 1006 70 10000 4.1 270 10:20 23.12.2019
1874 Clear 7 1006 70 10000 4.1 270 09:58 23.12.2019
1875 Clear 7 1005 65 10000 4.1 250 09:39 23.12.2019
1876 Clear 6 1005 70 10000 3.1 250 09:19 23.12.2019
1877 Clear 6 1004 75 10000 3.1 240 08:42 23.12.2019
1878 Clouds 6 1004 75 10000 3.1 250 08:23 23.12.2019
1879 Clouds 6 1003 75 10000 3.6 250 07:57 23.12.2019
1880 Clouds 6 1003 75 10000 3.6 250 07:38 23.12.2019
1881 Clouds 6 1002 80 10000 3.1 260 07:19 23.12.2019
1882 Clouds 6 1002 70 10000 3.1 270 06:43 23.12.2019
1883 Clouds 6 1001 65 10000 3.6 270 06:22 23.12.2019
1884 Clouds 6 1001 70 10000 3.6 290 05:46 23.12.2019
1885 Clouds 7 1000 75 10000 3.1 270 04:55 23.12.2019
1886 Clouds 7 999 75 10000 2.1 260 03:59 23.12.2019
1887 Clouds 7 997 70 10000 2.1 260 02:48 23.12.2019
1888 Clouds 7 997 65 10000 3.6 290 02:20 23.12.2019
1889 Clouds 7 997 75 10000 4.1 270 01:51 23.12.2019
1890 Clouds 7 997 75 10000 4.1 270 01:32 23.12.2019
1891 Clouds 7 996 87 10000 3.1 260 00:49 23.12.2019
1892 Clouds 6 996 87 10000 3.1 260 00:30 23.12.2019
1893 Clouds 7 995 87 10000 3.1 290 23:57 22.12.2019
1894 Clouds 6 996 81 10000 2.1 260 23:57 22.12.2019
1895 Clouds 7 995 87 10000 3.1 290 23:37 22.12.2019
1896 Clear 6 995 87 10000 2.1 290 23:19 22.12.2019
1897 Clear 6 995 87 10000 1 0 22:55 22.12.2019
1898 Clear 6 995 87 10000 1 0 22:37 22.12.2019
1899 Clear 6 994 87 10000 1 0 22:18 22.12.2019
1900 Clear 6 994 81 10000 2.1 260 21:54 22.12.2019
1901 Clear 7 994 81 10000 2.1 260 21:36 22.12.2019
1902 Clear 7 994 81 10000 2.6 260 21:18 22.12.2019
1903 Clear 7 994 76 10000 2.1 260 20:40 22.12.2019
1904 Clear 7 993 71 10000 3.1 270 20:19 22.12.2019
1905 Clear 8 993 76 10000 3.6 260 19:57 22.12.2019
1906 Clear 8 993 76 10000 3.6 260 19:39 22.12.2019
1907 Clear 8 992 81 10000 5.1 270 19:20 22.12.2019
1908 Clear 8 991 87 10000 2.6 270 18:44 22.12.2019
1909 Clear 9 991 81 10000 3.1 250 18:25 22.12.2019
1910 Clear 9 991 81 10000 2.6 270 17:58 22.12.2019
1911 Clear 10 991 81 10000 2.6 270 17:39 22.12.2019
1912 Clear 10 990 81 10000 3.1 240 17:19 22.12.2019
1913 Clear 10 990 81 10000 3.1 240 16:59 22.12.2019
1914 Clear 11 991 76 10000 3.6 250 16:41 22.12.2019
1915 Clear 11 990 76 10000 3.1 280 16:22 22.12.2019
1916 Clear 12 990 76 10000 4.1 280 15:57 22.12.2019
1917 Clear 12 990 76 10000 4.1 280 15:39 22.12.2019
1918 Clear 12 990 71 10000 4.1 270 15:20 22.12.2019
1919 Clear 12 989 76 10000 4.6 260 14:56 22.12.2019
1920 Clear 12 989 76 10000 4.6 260 14:38 22.12.2019
1921 Clouds 12 989 71 10000 4.6 280 14:18 22.12.2019
1922 Clouds 12 989 71 10000 4.6 280 13:55 22.12.2019
1923 Clouds 11 989 76 10000 3.6 280 13:37 22.12.2019
1924 Clouds 11 989 76 10000 5.1 280 13:19 22.12.2019
1925 Clouds 11 990 81 10000 4.1 270 12:56 22.12.2019
1926 Clouds 11 990 81 10000 4.1 270 12:37 22.12.2019
1927 Clouds 10 990 81 10000 4.1 270 12:19 22.12.2019
1928 Clouds 9 990 81 10000 3.6 260 11:56 22.12.2019
1929 Clouds 9 990 81 10000 3.6 260 11:38 22.12.2019
1930 Clouds 9 990 81 10000 2.6 270 11:18 22.12.2019
1931 Clouds 8 990 87 10000 3.6 280 10:55 22.12.2019
1932 Clouds 8 990 87 10000 3.6 280 10:36 22.12.2019
1933 Clouds 7 990 87 10000 2.1 270 10:18 22.12.2019
1934 Clouds 7 989 93 10000 2.6 280 09:56 22.12.2019
1935 Clouds 7 989 93 10000 2.6 280 09:37 22.12.2019
1936 Clouds 7 989 100 10000 2.1 270 09:19 22.12.2019
1937 Clouds 7 989 93 10000 0.5 0 08:39 22.12.2019
1938 Clouds 7 988 93 10000 1.5 280 08:21 22.12.2019
1939 Clouds 7 988 87 10000 1.5 240 07:40 22.12.2019
1940 Clouds 7 988 93 10000 1.5 280 07:21 22.12.2019
1941 Clouds 7 988 87 10000 2.1 310 06:41 22.12.2019
1942 Rain 7 987 93 6000 2.6 90 05:56 22.12.2019
1943 Rain 7 988 93 6000 4.6 360 05:24 22.12.2019
1944 Rain 7 988 93 6000 4.6 10 04:30 22.12.2019
1945 Rain 7 989 93 6000 3.6 60 03:56 22.12.2019
1946 Rain 7 988 87 10000 3.6 140 02:42 22.12.2019
1947 Rain 7 988 87 10000 3.6 140 02:42 22.12.2019
1948 Clouds 7 989 87 10000 2.1 70 01:51 22.12.2019
1949 Clouds 8 989 87 10000 2.1 70 01:30 22.12.2019
1950 Clouds 8 989 87 10000 2.1 70 01:30 22.12.2019
1951 Rain 7 991 87 10000 2.6 60 00:47 22.12.2019
1952 Rain 7 992 100 10000 1 0 00:24 22.12.2019
1953 Rain 7 992 93 10000 1 0 23:57 21.12.2019
1954 Rain 7 992 93 10000 1 0 23:38 21.12.2019
1955 Rain 7 993 100 10000 1 0 23:19 21.12.2019
1956 Clouds 7 993 93 10000 1.5 50 22:41 21.12.2019
1957 Clouds 7 993 100 10000 2.1 70 22:19 21.12.2019
1958 Clouds 7 994 100 10000 2.1 30 21:57 21.12.2019
1959 Clouds 7 994 100 10000 2.1 30 21:38 21.12.2019
1960 Clouds 7 994 100 10000 2.1 360 21:19 21.12.2019
1961 Clouds 7 994 100 10000 2.1 360 20:59 21.12.2019
1962 Clouds 7 994 93 10000 2.6 20 20:39 21.12.2019
1963 Clear 7 994 93 10000 2.6 350 20:21 21.12.2019
1964 Clear 7 994 93 10000 3.6 360 19:58 21.12.2019
1965 Clear 8 994 93 10000 3.6 360 19:40 21.12.2019
1966 Clouds 8 994 93 10000 2.6 300 19:19 21.12.2019
1967 Clouds 8 994 93 10000 1 0 18:45 21.12.2019
1968 Clouds 8 994 93 10000 1.5 270 18:24 21.12.2019
1969 Clouds 9 994 87 10000 2.1 250 17:57 21.12.2019
1970 Clouds 9 994 87 10000 2.1 250 17:57 21.12.2019
1971 Clouds 9 994 87 10000 2.1 250 17:39 21.12.2019
1972 Clouds 9 994 93 10000 3.1 250 17:21 21.12.2019
1973 Clouds 10 993 87 10000 2.6 250 16:58 21.12.2019
1974 Clouds 10 993 87 10000 2.6 250 16:40 21.12.2019
1975 Clouds 11 993 87 10000 3.1 240 16:18 21.12.2019
1976 Clouds 11 993 87 10000 3.1 240 16:18 21.12.2019
1977 Clouds 11 993 87 10000 2.6 260 15:57 21.12.2019
1978 Clouds 11 993 87 10000 2.6 260 15:57 21.12.2019
1979 Clouds 11 993 87 10000 2.6 260 15:38 21.12.2019
1980 Clouds 11 993 87 10000 3.1 250 15:19 21.12.2019
1981 Clouds 11 993 93 10000 3.1 260 14:55 21.12.2019
1982 Clouds 11 993 93 10000 3.1 260 14:37 21.12.2019
1983 Clouds 11 993 93 10000 2.6 250 14:18 21.12.2019
1984 Clouds 11 993 93 6000 2.6 250 13:54 21.12.2019
1985 Clouds 11 993 93 6000 2.6 250 13:36 21.12.2019
1986 Mist 10 993 100 4000 2.1 240 13:18 21.12.2019
1987 Mist 10 994 100 4000 3.1 260 12:54 21.12.2019
1988 Mist 9 994 100 4000 3.1 260 12:36 21.12.2019
1989 Rain 9 994 100 5000 3.1 250 12:18 21.12.2019
1990 Rain 9 994 93 9000 1.5 230 11:41 21.12.2019
1991 Rain 9 994 93 5000 2.6 210 11:22 21.12.2019
1992 Rain 9 994 93 5000 1 0 10:42 21.12.2019
1993 Rain 9 993 100 5000 1.5 360 10:23 21.12.2019
1994 Rain 9 993 100 5000 1.5 360 09:59 21.12.2019
1995 Rain 9 993 93 3000 2.1 250 09:41 21.12.2019
1996 Rain 8 993 100 4000 1.5 100 09:20 21.12.2019
1997 Rain 9 993 100 5000 3.1 110 08:53 21.12.2019
1998 Rain 8 993 100 8000 2.6 120 08:27 21.12.2019
1999 Rain 8 993 100 8000 2.6 120 07:59 21.12.2019
2000 Rain 8 994 93 8000 4.1 140 07:41 21.12.2019
2001 Rain 8 994 93 8000 4.6 120 07:21 21.12.2019
2002 Rain 8 994 93 8000 2.1 130 06:42 21.12.2019
2003 Rain 8 995 93 7000 1.5 170 06:24 21.12.2019
2004 Rain 8 995 93 10000 0.5 0 05:43 21.12.2019
2005 Rain 8 996 100 6000 4.1 360 04:55 21.12.2019
2006 Clouds 8 997 100 10000 1.5 350 03:56 21.12.2019
2007 Clouds 8 998 100 10000 1 0 02:26 21.12.2019
2008 Mist 9 998 100 3500 3.6 360 01:53 21.12.2019
2009 Clouds 9 999 93 10000 1.5 210 01:26 21.12.2019
2010 Clouds 9 999 93 10000 2.1 190 00:49 21.12.2019
2011 Clouds 9 999 93 9000 1.5 150 00:28 21.12.2019
2012 Clouds 9 999 93 10000 2.6 170 23:40 20.12.2019
2013 Clouds 9 1000 93 9000 3.1 190 23:21 20.12.2019
2014 Clouds 9 1000 93 9000 3.1 190 22:59 20.12.2019
2015 Clouds 9 999 93 10000 4.6 190 22:39 20.12.2019
2016 Clouds 9 998 87 10000 4.6 160 22:19 20.12.2019
2017 Rain 9 998 87 10000 5.7 150 21:54 20.12.2019
2018 Rain 9 998 87 10000 5.7 150 21:36 20.12.2019
2019 Rain 9 998 87 6000 5.7 150 21:18 20.12.2019
2020 Rain 9 998 87 6000 5.7 150 21:18 20.12.2019
2021 Rain 9 998 87 6000 5.7 150 21:18 20.12.2019
2022 Rain 10 997 87 6000 7.2 130 20:38 20.12.2019
2023 Rain 9 997 87 10000 10.8 110 20:19 20.12.2019
2024 Rain 9 997 87 7000 9.8 100 19:56 20.12.2019
2025 Rain 9 997 87 7000 9.8 100 19:38 20.12.2019
2026 Rain 9 998 87 7000 9.3 100 19:18 20.12.2019
2027 Rain 9 999 87 10000 8.2 100 18:41 20.12.2019
2028 Rain 9 999 87 8000 8.7 100 18:23 20.12.2019
2029 Rain 9 999 87 8000 8.7 100 17:58 20.12.2019
2030 Rain 9 1000 93 8000 7.2 100 17:39 20.12.2019
2031 Rain 9 1000 93 8000 7.2 100 17:20 20.12.2019
2032 Rain 9 1001 93 3000 7.2 110 16:56 20.12.2019
2033 Rain 10 1002 87 5000 7.7 110 16:38 20.12.2019
2034 Rain 10 1002 87 5000 7.7 110 16:38 20.12.2019
2035 Rain 10 1002 87 5000 7.7 110 16:38 20.12.2019
2036 Rain 10 1002 87 5000 7.7 110 16:19 20.12.2019
2037 Rain 10 1002 87 7000 7.2 110 15:54 20.12.2019
2038 Rain 10 1003 87 7000 6.2 110 15:36 20.12.2019
2039 Rain 10 1003 87 7000 6.2 110 15:18 20.12.2019
2040 Rain 10 1003 87 8000 7.2 110 14:42 20.12.2019
2041 Rain 10 1004 87 5000 6.7 110 14:24 20.12.2019
2042 Rain 10 1005 93 5000 6.7 110 13:57 20.12.2019
2043 Rain 10 1005 93 2500 6.7 80 13:37 20.12.2019
2044 Rain 10 1005 93 2500 6.7 80 13:18 20.12.2019
2045 Rain 10 1007 93 4000 5.7 100 12:55 20.12.2019
2046 Rain 10 1007 93 3000 5.1 100 12:36 20.12.2019
2047 Rain 10 1007 93 3000 5.1 100 12:18 20.12.2019
2048 Rain 10 1008 93 3000 4.1 100 11:57 20.12.2019
2049 Rain 10 1009 93 3000 4.1 90 11:38 20.12.2019
2050 Rain 9 1009 93 3000 4.1 90 11:18 20.12.2019
2051 Rain 9 1009 100 2000 3.6 90 10:55 20.12.2019
2052 Rain 9 1010 100 2000 3.6 100 10:37 20.12.2019
2053 Rain 9 1010 100 2000 3.6 100 10:19 20.12.2019
2054 Rain 9 1010 100 600 4.1 100 09:42 20.12.2019
2055 Rain 9 1010 93 500 4.1 100 09:21 20.12.2019
2056 Drizzle 9 1010 100 500 2.6 90 08:54 20.12.2019
2057 Drizzle 9 1011 100 400 1.5 100 08:36 20.12.2019
2058 Drizzle 9 1011 100 400 1.5 100 08:18 20.12.2019
2059 Drizzle 9 1011 100 300 2.6 110 07:42 20.12.2019
2060 Rain 9 1011 93 150 3.1 90 07:23 20.12.2019
2061 Rain 9 1011 100 200 3.1 100 06:55 20.12.2019
2062 Rain 9 1011 93 200 2.1 110 06:36 20.12.2019
2063 Rain 9 1011 93 200 2.1 110 06:18 20.12.2019
2064 Rain 9 1012 100 200 1 0 05:45 20.12.2019
2065 Rain 9 1013 100 2000 1 0 04:46 20.12.2019
2066 Fog 9 1014 100 500 0.5 0 03:32 20.12.2019
2067 Rain 9 1014 93 1300 1 110 02:45 20.12.2019
2068 Rain 9 1015 93 2700 1 70 01:54 20.12.2019
2069 Mist 9 1016 93 3700 1 0 01:34 20.12.2019
2070 Mist 9 1016 93 2900 1 0 00:49 20.12.2019
2071 Mist 9 1016 93 3800 1.5 230 00:30 20.12.2019
2072 Fog 9 1016 100 500 2.6 200 23:56 19.12.2019
2073 Mist 9 1016 100 5000 1 0 23:38 19.12.2019
2074 Mist 9 1016 100 5000 1 0 23:18 19.12.2019
2075 Mist 9 1017 100 5000 1 0 22:38 19.12.2019
2076 Mist 9 1017 100 3000 1 0 22:20 19.12.2019
2077 Mist 9 1017 100 3000 1 0 21:56 19.12.2019
2078 Fog 9 1017 100 500 1.5 230 21:37 19.12.2019
2079 Rain 9 1017 100 500 1.5 230 21:19 19.12.2019
2080 Rain 9 1018 100 600 1 240 20:56 19.12.2019
2081 Rain 9 1018 93 1300 1 260 20:37 19.12.2019
2082 Fog 9 1018 93 1300 1 260 20:18 19.12.2019
2083 Mist 10 1018 100 2500 1 0 19:57 19.12.2019
2084 Mist 10 1018 100 2500 1 0 19:57 19.12.2019
2085 Mist 10 1018 100 3000 1.5 110 19:39 19.12.2019
2086 Mist 10 1018 100 3000 1.5 110 19:39 19.12.2019
2087 Mist 10 1018 100 3000 1.5 110 19:19 19.12.2019
2088 Mist 10 1018 100 3000 1.5 110 19:19 19.12.2019
2089 Fog 10 1018 100 2000 1.5 110 18:41 19.12.2019
2090 Fog 10 1018 100 2000 1.5 110 18:23 19.12.2019
2091 Fog 10 1018 100 1300 1.5 110 17:58 19.12.2019
2092 Fog 10 1018 100 1300 1.5 110 17:40 19.12.2019
2093 Fog 10 1018 100 600 2.6 100 17:19 19.12.2019
2094 Fog 10 1018 100 600 2.6 100 17:19 19.12.2019
2095 Fog 10 1018 100 800 2.1 80 16:59 19.12.2019
2096 Fog 10 1018 100 1500 3.1 110 16:41 19.12.2019
2097 Fog 10 1018 100 1500 3.1 110 16:22 19.12.2019
2098 Rain 10 1019 93 3000 3.1 100 15:59 19.12.2019
2099 Rain 10 1019 93 3000 3.1 100 15:40 19.12.2019
2100 Rain 10 1019 93 4000 3.1 110 15:20 19.12.2019
2101 Rain 10 1019 100 4000 2.1 100 14:59 19.12.2019
2102 Rain 10 1019 93 4000 2.1 70 14:41 19.12.2019
2103 Rain 10 1019 93 4000 2.1 70 14:41 19.12.2019
2104 Rain 10 1019 93 4000 2.1 70 14:19 19.12.2019
2105 Rain 10 1020 93 5000 2.1 70 13:57 19.12.2019
2106 Rain 10 1020 93 4000 2.6 60 13:37 19.12.2019
2107 Rain 10 1020 93 4000 2.6 60 13:18 19.12.2019
2108 Rain 10 1020 93 4000 2.6 60 12:55 19.12.2019
2109 Rain 10 1020 93 4000 2.6 60 12:55 19.12.2019
2110 Rain 10 1021 93 4000 1.5 60 12:37 19.12.2019
2111 Rain 10 1021 93 4000 1.5 60 12:18 19.12.2019
2112 Rain 10 1022 93 3000 2.1 70 11:57 19.12.2019
2113 Drizzle 10 1022 93 3000 1.5 70 11:38 19.12.2019
2114 Drizzle 10 1022 93 3000 1.5 70 11:18 19.12.2019
2115 Drizzle 10 1022 93 3000 1.5 80 10:39 19.12.2019
2116 Drizzle 9 1022 93 3000 1.5 80 10:20 19.12.2019
2117 Drizzle 9 1022 100 2500 1.5 60 09:59 19.12.2019
2118 Mist 9 1022 100 3000 1.5 70 09:38 19.12.2019
2119 Mist 9 1022 100 3000 1.5 70 09:20 19.12.2019
2120 Drizzle 9 1022 100 3000 1 0 08:57 19.12.2019
2121 Mist 9 1022 100 4000 1 0 08:39 19.12.2019
2122 Mist 9 1022 100 4000 1 0 08:19 19.12.2019
2123 Mist 9 1022 93 4000 1 280 07:56 19.12.2019
2124 Mist 9 1022 93 2000 0.5 0 07:37 19.12.2019
2125 Mist 9 1022 93 2000 0.5 0 07:19 19.12.2019
2126 Mist 9 1022 93 2000 1 200 06:45 19.12.2019
2127 Rain 9 1022 93 2000 1 200 06:26 19.12.2019
2128 Rain 9 1022 100 10000 2.1 20 05:49 19.12.2019
2129 Rain 9 1022 100 10000 2.6 20 05:28 19.12.2019
2130 Rain 9 1022 100 6000 0.5 0 04:43 19.12.2019
2131 Clouds 9 1023 100 6000 2.1 350 02:48 19.12.2019
2132 Clouds 9 1023 100 10000 4.1 360 01:46 19.12.2019
2133 Clouds 9 1023 100 6000 0.5 0 01:21 19.12.2019
2134 Clouds 9 1024 100 6000 1 290 00:39 19.12.2019
2135 Clouds 9 1024 100 6000 1 290 00:39 19.12.2019
2136 Clouds 9 1024 100 6000 1 290 00:39 19.12.2019
2137 Clouds 9 1024 100 6000 1 290 00:39 19.12.2019
2138 Clouds 9 1024 100 6000 1 290 00:39 19.12.2019
2139 Clouds 9 1024 100 6000 1 290 00:20 19.12.2019
2140 Clouds 9 1024 100 6000 1 0 23:45 18.12.2019
2141 Clouds 9 1024 100 6000 1 0 23:45 18.12.2019
2142 Clouds 9 1024 100 8000 0.5 220 23:19 18.12.2019
2143 Clouds 9 1024 100 8000 0.5 0 22:58 18.12.2019
2144 Clouds 9 1024 100 8000 0.5 0 22:40 18.12.2019
2145 Clouds 9 1024 100 8000 0.5 0 22:22 18.12.2019
2146 Clouds 9 1024 100 8000 0.5 0 21:59 18.12.2019
2147 Clouds 9 1024 100 8000 1 340 21:41 18.12.2019
2148 Clouds 9 1024 100 8000 1 340 21:21 18.12.2019
2149 Clouds 9 1024 93 8000 1 0 20:58 18.12.2019
2150 Clouds 9 1024 93 8000 0.5 0 20:39 18.12.2019
2151 Clouds 9 1024 93 8000 0.5 0 20:20 18.12.2019
2152 Clouds 9 1024 93 8000 0.5 0 19:57 18.12.2019
2153 Clouds 9 1024 93 6000 0.5 0 19:39 18.12.2019
2154 Clouds 9 1024 93 6000 0.5 0 19:19 18.12.2019
2155 Clouds 9 1024 93 6000 0.5 210 18:56 18.12.2019
2156 Mist 9 1024 93 5000 1 250 18:38 18.12.2019
2157 Mist 9 1024 93 5000 1 250 18:20 18.12.2019
2158 Mist 9 1024 93 5000 1 200 17:55 18.12.2019
2159 Mist 9 1024 93 5000 1 200 17:55 18.12.2019
2160 Mist 9 1024 93 3500 1 200 17:37 18.12.2019
2161 Mist 9 1024 93 3500 1 200 17:19 18.12.2019
2162 Mist 10 1023 93 3500 1 0 16:42 18.12.2019
2163 Mist 10 1023 93 3500 1 240 16:24 18.12.2019
2164 Mist 10 1023 93 3500 1 240 15:59 18.12.2019
2165 Mist 10 1023 93 3000 1 250 15:39 18.12.2019
2166 Drizzle 10 1023 100 5000 1.5 60 15:21 18.12.2019
2167 Drizzle 10 1023 100 5000 1.5 60 14:57 18.12.2019
2168 Mist 9 1023 100 2000 1 0 14:39 18.12.2019
2169 Mist 9 1023 93 2000 0.5 0 14:19 18.12.2019
2170 Mist 9 1023 93 2000 0.5 0 13:55 18.12.2019
2171 Rain 9 1023 93 2000 0.5 0 13:37 18.12.2019
2172 Rain 9 1024 93 2000 1 0 13:19 18.12.2019
2173 Rain 9 1024 100 2000 0.5 340 12:54 18.12.2019
2174 Rain 9 1024 100 2000 0.5 340 12:54 18.12.2019
2175 Rain 9 1024 100 2000 0.5 340 12:36 18.12.2019
2176 Rain 9 1024 93 2000 1 270 12:18 18.12.2019
2177 Mist 9 1024 93 2000 1 190 11:54 18.12.2019
2178 Mist 9 1024 93 2000 1 190 11:36 18.12.2019
2179 Mist 9 1024 93 2000 1 0 11:18 18.12.2019
2180 Mist 9 1024 93 2000 1 0 10:54 18.12.2019
2181 Mist 9 1024 93 2000 1 0 10:36 18.12.2019
2182 Mist 9 1023 93 2000 1 0 10:18 18.12.2019
2183 Mist 8 1023 93 2000 1 0 09:21 18.12.2019
2184 Mist 8 1023 93 2000 1 0 08:57 18.12.2019
2185 Mist 8 1023 93 2000 1 0 08:57 18.12.2019
2186 Mist 8 1023 93 2000 1 0 08:57 18.12.2019
2187 Mist 8 1022 100 2000 1 0 08:39 18.12.2019
2188 Mist 8 1022 100 3000 1 0 08:20 18.12.2019
2189 Mist 8 1022 93 3000 0.5 0 07:42 18.12.2019
2190 Mist 8 1022 100 4000 1 0 07:21 18.12.2019
2191 Mist 8 1022 93 4000 1 0 06:53 18.12.2019
2192 Mist 8 1022 93 4000 1 0 06:26 18.12.2019
2193 Clouds 8 1021 93 6000 1 0 05:39 18.12.2019
2194 Rain 8 1022 93 6000 1.5 250 04:35 18.12.2019
2195 Rain 8 1021 93 6000 1 0 02:50 18.12.2019
2196 Rain 8 1021 93 6000 1 0 02:30 18.12.2019
2197 Rain 8 1021 93 5000 1 0 01:47 18.12.2019
2198 Rain 8 1021 93 5000 1 0 01:28 18.12.2019
2199 Rain 8 1021 93 5000 1.5 240 00:59 18.12.2019
2200 Rain 8 1021 93 5000 1.5 240 00:39 18.12.2019
2201 Rain 8 1021 93 5000 2.1 240 00:21 18.12.2019
2202 Rain 8 1021 93 5000 2.1 250 23:44 17.12.2019
2203 Rain 8 1021 93 5000 1.5 250 23:24 17.12.2019
2204 Rain 8 1021 93 5000 1.5 250 22:57 17.12.2019
2205 Rain 8 1021 93 5000 1.5 250 22:39 17.12.2019
2206 Rain 8 1021 100 5000 1.5 230 22:20 17.12.2019
2207 Rain 8 1021 100 5000 1.5 230 21:57 17.12.2019
2208 Rain 8 1021 100 5000 1 260 21:39 17.12.2019
2209 Rain 8 1021 93 5000 2.1 200 21:20 17.12.2019
2210 Rain 8 1021 93 5000 2.1 200 20:59 17.12.2019
2211 Rain 8 1020 100 5000 0.5 0 20:40 17.12.2019
2212 Rain 8 1020 100 5000 1 0 20:19 17.12.2019
2213 Rain 8 1020 100 5000 1 0 19:59 17.12.2019
2214 Rain 8 1020 100 5000 1 0 19:41 17.12.2019
2215 Rain 8 1020 100 6000 0.5 0 19:20 17.12.2019
2216 Rain 8 1020 100 6000 0.5 0 18:57 17.12.2019
2217 Rain 8 1020 100 6000 0.5 0 18:38 17.12.2019
2218 Rain 8 1020 100 5000 0.5 0 18:20 17.12.2019
2219 Rain 8 1019 100 5000 0.6 22 17:55 17.12.2019
2220 Rain 8 1019 100 5000 0.6 22 17:37 17.12.2019
2221 Rain 8 1019 100 2500 1 0 17:18 17.12.2019
2222 Rain 8 1019 100 1200 1.5 250 16:55 17.12.2019
2223 Rain 8 1019 100 1200 1.5 250 16:36 17.12.2019
2224 Rain 8 1019 100 1200 1.5 260 16:18 17.12.2019
2225 Rain 8 1019 100 1200 1.5 260 16:18 17.12.2019
2226 Rain 8 1019 100 1200 1.5 260 16:18 17.12.2019
2227 Mist 8 1019 100 1500 1.5 250 15:38 17.12.2019
2228 Mist 8 1018 93 2500 1.5 220 15:20 17.12.2019
2229 Mist 8 1018 93 4000 2.1 180 14:56 17.12.2019
2230 Mist 8 1018 93 4000 2.1 180 14:38 17.12.2019
2231 Rain 8 1018 93 4000 2.6 130 14:19 17.12.2019
2232 Rain 8 1018 93 4000 2.6 130 13:58 17.12.2019
2233 Rain 8 1019 93 4000 2.1 120 13:39 17.12.2019
2234 Mist 8 1019 87 5000 1.5 100 13:19 17.12.2019
2235 Mist 8 1019 87 5000 1.5 100 12:59 17.12.2019
2236 Mist 8 1019 87 5000 1.5 60 12:38 17.12.2019
2237 Mist 8 1019 87 5000 1.5 50 12:18 17.12.2019
2238 Mist 8 1019 87 5000 1.5 50 12:18 17.12.2019
2239 Mist 8 1019 87 5000 0.5 0 11:56 17.12.2019
2240 Mist 8 1019 87 5000 0.5 0 11:37 17.12.2019
2241 Mist 8 1020 87 5000 1.5 130 11:18 17.12.2019
2242 Drizzle 8 1020 87 5000 1 0 10:57 17.12.2019
2243 Drizzle 8 1020 87 5000 1 0 10:38 17.12.2019
2244 Mist 8 1019 93 5000 0.5 0 10:19 17.12.2019
2245 Mist 8 1019 93 5000 0.5 0 09:43 17.12.2019
2246 Mist 8 1019 93 5000 1 0 09:22 17.12.2019
2247 Mist 8 1019 93 5000 1 0 08:59 17.12.2019
2248 Clouds 7 1019 93 6000 1 0 08:40 17.12.2019
2249 Clouds 7 1019 93 6000 0.5 0 08:22 17.12.2019
2250 Clouds 7 1019 93 6000 0.5 0 08:22 17.12.2019
2251 Clouds 7 1019 93 6000 0.5 0 07:58 17.12.2019
2252 Rain 7 1019 93 7000 1 0 07:39 17.12.2019
2253 Rain 7 1019 100 6000 1.5 20 07:21 17.12.2019
2254 Clouds 7 1019 100 6000 0.5 0 06:42 17.12.2019
2255 Clouds 7 1019 100 6000 0.5 0 06:24 17.12.2019
2256 Clouds 7 1019 100 6000 0.5 0 06:24 17.12.2019
2257 Clouds 7 1019 100 6000 2.49 58 05:41 17.12.2019
2258 Clouds 7 1019 93 6000 0.5 0 04:51 17.12.2019
2259 Clouds 7 1020 93 6000 1.5 80 03:40 17.12.2019
2260 Mist 7 1020 93 3500 1.5 10 02:22 17.12.2019
2261 Mist 7 1020 100 2500 1 50 01:21 17.12.2019
2262 Mist 7 1020 100 2500 1.5 60 00:45 17.12.2019
2263 Mist 7 1021 100 2500 0.5 0 00:21 17.12.2019
2264 Mist 7 1021 100 2500 1 0 23:43 16.12.2019
2265 Mist 7 1020 100 3500 0.5 0 23:20 16.12.2019
2266 Mist 7 1020 100 3500 0.5 0 22:58 16.12.2019
2267 Mist 7 1021 100 3500 1 180 22:38 16.12.2019
2268 Mist 7 1021 93 3500 0.5 0 22:20 16.12.2019
2269 Mist 7 1021 93 3500 0.5 0 21:57 16.12.2019
2270 Mist 7 1021 100 2500 0.5 0 21:38 16.12.2019
2271 Mist 7 1021 100 2000 0.5 260 21:20 16.12.2019
2272 Mist 7 1021 100 2000 0.5 260 20:58 16.12.2019
2273 Mist 7 1021 100 2000 1 230 20:39 16.12.2019
2274 Mist 7 1021 100 2000 1.5 260 20:19 16.12.2019
2275 Mist 7 1021 100 2000 1.5 260 19:56 16.12.2019
2276 Mist 7 1021 93 5000 1 240 19:37 16.12.2019
2277 Mist 7 1021 93 5000 1 260 19:19 16.12.2019
2278 Mist 7 1021 93 5000 0.5 0 18:58 16.12.2019
2279 Mist 7 1021 93 5000 0.5 0 18:40 16.12.2019
2280 Mist 7 1021 93 5000 0.5 230 18:20 16.12.2019
2281 Mist 7 1021 93 5000 0.5 0 17:57 16.12.2019
2282 Mist 7 1021 93 5000 0.5 0 17:57 16.12.2019
2283 Mist 7 1021 93 5000 0.5 0 17:38 16.12.2019
2284 Mist 7 1021 93 3000 0.5 190 17:20 16.12.2019
2285 Mist 7 1021 93 3000 0.5 190 16:57 16.12.2019
2286 Mist 7 1021 93 3500 0.5 0 16:38 16.12.2019
2287 Mist 7 1021 93 3000 0.5 0 16:19 16.12.2019
2288 Mist 7 1021 93 3500 1 0 15:57 16.12.2019
2289 Mist 7 1021 93 3500 1 0 15:38 16.12.2019
2290 Rain 7 1021 93 3500 1 0 15:20 16.12.2019
2291 Rain 7 1021 93 2500 2.1 350 14:55 16.12.2019
2292 Rain 7 1021 93 2500 2.1 350 14:37 16.12.2019
2293 Drizzle 7 1021 100 1600 1 0 14:18 16.12.2019
2294 Drizzle 7 1021 100 1600 1 0 14:18 16.12.2019
2295 Drizzle 7 1021 100 1600 1.5 250 13:56 16.12.2019
2296 Drizzle 7 1021 100 1600 1.5 250 13:37 16.12.2019
2297 Drizzle 7 1022 100 1600 2.1 240 13:19 16.12.2019
2298 Drizzle 7 1022 100 1600 1 0 12:56 16.12.2019
2299 Drizzle 7 1022 100 1600 1 0 12:38 16.12.2019
2300 Drizzle 7 1022 100 1600 1.5 240 12:18 16.12.2019
2301 Drizzle 7 1022 100 1600 1.5 240 11:57 16.12.2019
2302 Drizzle 7 1022 100 1500 1 0 11:38 16.12.2019
2303 Drizzle 7 1022 100 2000 2.1 210 11:19 16.12.2019
2304 Drizzle 7 1022 100 2000 1 200 10:40 16.12.2019
2305 Drizzle 7 1021 100 2000 1 0 10:22 16.12.2019
2306 Drizzle 7 1021 100 2000 1 0 09:59 16.12.2019
2307 Drizzle 6 1021 100 2000 0.5 0 09:41 16.12.2019
2308 Drizzle 6 1021 100 2000 0.5 0 09:23 16.12.2019
2309 Drizzle 6 1021 100 2000 0.5 0 08:40 16.12.2019
2310 Drizzle 6 1021 100 2000 0.5 0 08:19 16.12.2019
2311 Drizzle 6 1020 100 2000 0.5 0 07:52 16.12.2019
2312 Drizzle 6 1020 100 2000 0.5 0 07:31 16.12.2019
2313 Mist 6 1020 100 2500 1 230 06:52 16.12.2019
2314 Mist 6 1020 100 2500 1 0 06:27 16.12.2019
2315 Mist 6 1020 100 2500 1.5 250 05:59 16.12.2019
2316 Mist 6 1020 100 2500 1.5 250 05:40 16.12.2019
2317 Mist 6 1020 100 2500 1 0 05:22 16.12.2019
2318 Mist 6 1020 100 2500 1 0 02:59 16.12.2019
2319 Rain 6 1019 100 2500 0.5 0 01:45 16.12.2019
2320 Mist 6 1020 93 3500 2.1 250 00:56 16.12.2019
2321 Mist 6 1020 93 3500 2.1 250 00:38 16.12.2019
2322 Mist 6 1019 93 4000 0.5 0 00:18 16.12.2019
2323 Mist 5 1019 93 4000 1.5 250 23:41 15.12.2019
2324 Mist 5 1019 100 4000 0.5 0 23:22 15.12.2019
2325 Mist 5 1019 93 4000 0.5 0 22:57 15.12.2019
2326 Mist 5 1019 100 4000 0.5 0 22:57 15.12.2019
2327 Mist 5 1019 93 4000 0.5 0 22:38 15.12.2019
2328 Mist 5 1019 93 5000 1 0 22:19 15.12.2019
2329 Mist 6 1019 93 5000 1 0 21:57 15.12.2019
2330 Mist 6 1019 93 5000 1 0 21:38 15.12.2019
2331 Mist 6 1019 93 5000 1 0 21:38 15.12.2019
2332 Mist 6 1019 93 5000 1.5 240 21:19 15.12.2019
2333 Mist 6 1019 93 5000 1.5 240 21:19 15.12.2019
2334 Mist 6 1019 93 5000 1.5 240 20:57 15.12.2019
2335 Rain 5 1018 93 4000 1 240 20:38 15.12.2019
2336 Rain 5 1018 93 4000 1 240 20:38 15.12.2019
2337 Drizzle 5 1018 93 4000 1 250 20:19 15.12.2019
2338 Drizzle 6 1018 93 4000 1 250 19:57 15.12.2019
2339 Drizzle 6 1018 93 4000 1.5 260 19:39 15.12.2019
2340 Drizzle 6 1018 93 4000 1.5 260 19:39 15.12.2019
2341 Drizzle 6 1018 93 4000 1.5 250 19:19 15.12.2019
2342 Drizzle 6 1017 93 4000 2.1 260 18:57 15.12.2019
2343 Drizzle 6 1017 93 4000 2.1 260 18:38 15.12.2019
2344 Drizzle 6 1017 93 3000 1 0 18:18 15.12.2019
2345 Drizzle 6 1017 93 3000 1.5 290 17:56 15.12.2019
2346 Drizzle 6 1017 93 3000 1.5 290 17:37 15.12.2019
2347 Drizzle 6 1017 100 3000 0.5 0 17:19 15.12.2019
2348 Drizzle 6 1017 93 3000 1 0 16:56 15.12.2019
2349 Drizzle 6 1017 93 3000 1 0 16:38 15.12.2019
2350 Drizzle 6 1017 93 4000 1.5 260 16:20 15.12.2019
2351 Drizzle 7 1016 87 8000 2.1 210 15:55 15.12.2019
2352 Drizzle 7 1016 87 8000 2.1 210 15:55 15.12.2019
2353 Drizzle 7 1016 87 8000 2.1 210 15:36 15.12.2019
2354 Clouds 7 1016 87 10000 1.5 200 15:18 15.12.2019
2355 Clouds 7 1016 81 10000 1.5 250 14:55 15.12.2019
2356 Clouds 7 1016 81 10000 1.5 250 14:36 15.12.2019
2357 Clouds 7 1016 81 10000 2.1 220 14:18 15.12.2019
2358 Clouds 7 1016 81 10000 1 0 13:54 15.12.2019
2359 Clouds 7 1016 81 10000 1 0 13:36 15.12.2019
2360 Clouds 7 1016 81 10000 0.5 0 13:18 15.12.2019
2361 Clouds 7 1016 81 10000 0.5 0 13:18 15.12.2019
2362 Clouds 7 1016 75 10000 1 0 12:55 15.12.2019
2363 Clouds 7 1016 75 10000 1 0 12:37 15.12.2019
2364 Clouds 7 1016 75 10000 1 0 12:19 15.12.2019
2365 Clouds 6 1016 87 10000 1.5 210 11:38 15.12.2019
2366 Clouds 6 1016 81 10000 0.5 0 11:19 15.12.2019
2367 Clouds 6 1016 81 10000 0.5 0 11:19 15.12.2019
2368 Clouds 6 1016 93 10000 0.5 0 10:56 15.12.2019
2369 Clouds 6 1016 93 10000 0.5 0 10:38 15.12.2019
2370 Clouds 6 1016 93 10000 0.5 0 10:38 15.12.2019
2371 Clouds 5 1016 93 10000 0.5 0 10:19 15.12.2019
2372 Clouds 5 1016 93 10000 0.5 0 09:57 15.12.2019
2373 Clouds 5 1015 93 10000 1 330 09:37 15.12.2019
2374 Clouds 5 1015 86 10000 0.5 0 09:19 15.12.2019
2375 Clouds 4 1014 93 10000 0.5 0 08:42 15.12.2019
2376 Clouds 4 1014 93 10000 0.5 0 08:42 15.12.2019
2377 Clouds 4 1014 93 10000 0.5 0 08:23 15.12.2019
2378 Clouds 4 1014 93 10000 0.5 0 07:59 15.12.2019
2379 Clouds 4 1014 100 10000 1 0 07:38 15.12.2019
2380 Clouds 4 1013 82 10000 0.5 0 07:19 15.12.2019
2381 Clear 3 1012 82 10000 1.5 30 06:24 15.12.2019
2382 Clear 3 1012 82 10000 1 0 05:42 15.12.2019
2383 Clouds 3 1012 93 10000 1 40 05:20 15.12.2019
2384 Clouds 3 1012 80 10000 2.1 70 04:19 15.12.2019
2385 Clouds 3 1011 86 10000 2.6 50 02:49 15.12.2019
2386 Clouds 3 1011 86 10000 2.6 50 02:30 15.12.2019
2387 Clear 3 1011 86 10000 1.5 70 01:40 15.12.2019
2388 Clear 3 1010 86 10000 2.6 80 01:18 15.12.2019
2389 Clear 4 1010 86 10000 1.5 50 00:47 15.12.2019
2390 Clear 4 1010 86 10000 1.5 50 00:47 15.12.2019
2391 Clear 4 1010 80 10000 2.6 70 00:29 15.12.2019
2392 Clear 4 1010 80 10000 2.6 80 23:41 14.12.2019
2393 Clear 4 1009 93 10000 2.6 50 23:22 14.12.2019
2394 Clear 4 1009 93 10000 0.5 0 22:59 14.12.2019
2395 Clear 4 1009 93 10000 0.5 0 22:41 14.12.2019
2396 Clear 4 1008 93 10000 2.1 170 22:22 14.12.2019
2397 Clear 4 1008 86 10000 0.5 0 21:56 14.12.2019
2398 Clear 4 1008 86 10000 0.5 0 21:38 14.12.2019
2399 Clear 4 1007 86 10000 1 0 21:19 14.12.2019
2400 Clear 4 1007 86 10000 1 0 20:57 14.12.2019
2401 Clear 4 1007 86 10000 1 0 20:39 14.12.2019
2402 Clear 4 1007 86 10000 1 0 20:19 14.12.2019
2403 Clear 5 1007 86 10000 1 0 19:57 14.12.2019
2404 Clear 5 1006 86 10000 1.5 350 19:37 14.12.2019
2405 Clear 5 1006 80 10000 1 0 19:19 14.12.2019
2406 Clear 5 1006 75 10000 1.5 0 18:56 14.12.2019
2407 Clear 5 1006 75 10000 1.5 0 18:37 14.12.2019
2408 Clear 5 1005 75 10000 1 40 18:19 14.12.2019
2409 Clear 6 1005 75 10000 1.5 290 17:43 14.12.2019
2410 Clear 7 1005 75 10000 1.5 300 17:24 14.12.2019
2411 Clear 8 1004 61 10000 1 0 16:58 14.12.2019
2412 Clear 7 1004 61 10000 1 0 16:38 14.12.2019
2413 Clear 7 1004 61 10000 1 0 16:38 14.12.2019
2414 Clear 8 1004 66 10000 2.1 260 16:18 14.12.2019
2415 Clear 8 1003 61 10000 3.1 250 15:43 14.12.2019
2416 Clear 9 1003 61 10000 3.1 260 15:21 14.12.2019
2417 Clear 9 1003 61 10000 3.1 260 14:58 14.12.2019
2418 Clear 10 1003 57 10000 3.1 240 14:38 14.12.2019
2419 Clear 10 1003 66 10000 2.6 240 14:19 14.12.2019
2420 Clear 9 1002 66 10000 2.1 240 13:45 14.12.2019
2421 Clear 10 1002 65 10000 2.1 240 13:21 14.12.2019
2422 Clear 10 1002 65 10000 2.1 240 13:21 14.12.2019
2423 Clear 9 1002 65 10000 2.1 240 12:59 14.12.2019
2424 Clear 10 1002 66 10000 2.1 220 12:41 14.12.2019
2425 Clear 9 1002 65 10000 2.6 210 12:21 14.12.2019
2426 Clear 9 1002 65 10000 2.6 210 12:21 14.12.2019
2427 Clear 9 1002 65 10000 2.6 210 11:59 14.12.2019
2428 Clear 8 1002 61 10000 0.5 0 11:39 14.12.2019
2429 Clear 7 1002 70 10000 0.5 0 11:20 14.12.2019
2430 Clear 6 1002 75 10000 1 0 10:59 14.12.2019
2431 Clear 5 1002 75 10000 1 0 10:40 14.12.2019
2432 Clear 4 1001 75 10000 0.5 0 10:22 14.12.2019
2433 Clear 4 1001 75 10000 0.5 0 09:57 14.12.2019
2434 Clear 4 1000 62 10000 0.5 0 09:39 14.12.2019
2435 Clear 3 1000 86 10000 1 0 09:19 14.12.2019
2436 Clear 2 999 62 10000 0.5 0 08:43 14.12.2019
2437 Clear 1 999 63 10000 2.1 350 08:20 14.12.2019
2438 Clear 1 998 63 10000 1.5 350 07:44 14.12.2019
2439 Clear 1 998 63 10000 1.5 360 07:23 14.12.2019
2440 Clear 1 998 63 10000 2.6 350 06:57 14.12.2019
2441 Clear 1 998 63 10000 2.6 350 06:37 14.12.2019
2442 Clear 1 997 86 10000 2.6 10 05:59 14.12.2019
2443 Clear 1 997 80 10000 3.1 260 04:48 14.12.2019
2444 Clear 2 995 60 10000 2.6 250 02:35 14.12.2019
2445 Clouds 1 996 52 10000 5.1 260 01:56 14.12.2019
2446 Clouds 1 996 52 10000 5.1 260 01:56 14.12.2019
2447 Clouds 1 994 50 10000 3.6 250 01:37 14.12.2019
2448 Clear 2 994 50 10000 5.1 250 00:47 14.12.2019
2449 Clear 1 994 50 10000 5.1 250 00:27 14.12.2019
2450 Clear 1 993 50 10000 4.6 250 23:56 13.12.2019
2451 Clear 2 993 50 10000 4.6 250 23:37 13.12.2019
2452 Clear 1 993 70 10000 4.1 240 23:18 13.12.2019
2453 Clear 1 992 70 10000 4.1 240 22:40 13.12.2019
2454 Clear 1 992 70 10000 5.1 270 22:19 13.12.2019
2455 Clear 1 992 70 10000 5.1 250 21:56 13.12.2019
2456 Clear 1 992 70 10000 5.1 250 21:37 13.12.2019
2457 Clear 1 992 70 10000 4.6 250 21:19 13.12.2019
2458 Clear 1 992 93 10000 6.2 270 20:41 13.12.2019
2459 Clouds 1 991 93 10000 4.1 270 20:22 13.12.2019
2460 Clouds 1 991 93 10000 4.1 270 19:59 13.12.2019
2461 Clouds 1 990 93 10000 3.1 260 19:40 13.12.2019
2462 Clouds 1 990 93 10000 3.1 260 19:22 13.12.2019
2463 Clouds 1 990 86 10000 5.7 270 18:58 13.12.2019
2464 Clouds 1 990 86 10000 4.1 260 18:40 13.12.2019
2465 Clouds 1 990 86 10000 4.1 260 18:19 13.12.2019
2466 Clouds 1 989 86 10000 3.6 250 17:43 13.12.2019
2467 Clouds 2 989 86 10000 3.6 250 17:20 13.12.2019
2468 Clouds 2 989 86 10000 3.6 250 17:20 13.12.2019
2469 Clouds 2 989 86 10000 3.6 250 16:59 13.12.2019
2470 Clouds 2 988 86 10000 3.6 240 16:39 13.12.2019
2471 Clouds 2 988 86 10000 3.6 240 16:20 13.12.2019
2472 Clouds 3 987 86 10000 2.6 210 15:43 13.12.2019
2473 Clouds 3 987 86 10000 2.6 210 15:23 13.12.2019
2474 Clouds 3 987 86 10000 2.6 210 15:23 13.12.2019
2475 Clouds 3 988 86 10000 2.1 240 14:59 13.12.2019
2476 Clouds 3 988 93 10000 1 0 14:41 13.12.2019
2477 Rain 3 988 93 10000 1 0 14:20 13.12.2019
2478 Rain 2 989 100 8000 1 0 13:57 13.12.2019
2479 Rain 2 989 100 1600 2.6 340 13:37 13.12.2019
2480 Rain 2 989 100 1600 2.6 340 13:19 13.12.2019
2481 Rain 1 990 95 800 1.5 350 12:42 13.12.2019
2482 Rain 1 990 95 800 1.5 350 12:20 13.12.2019
2483 Rain 1 990 95 800 1.5 350 12:20 13.12.2019
2484 Rain 1 991 95 800 1.5 310 11:57 13.12.2019
2485 Rain 1 991 95 800 1.5 10 11:39 13.12.2019
2486 Rain 1 991 96 800 1.5 10 11:19 13.12.2019
2487 Rain 1 991 96 800 2.1 80 10:42 13.12.2019
2488 Rain 1 991 96 800 2.1 80 10:22 13.12.2019
2489 Rain 1 993 96 800 1 0 09:54 13.12.2019
2490 Rain 1 993 96 1600 2.1 50 09:36 13.12.2019
2491 Rain 1 993 96 1600 2.1 50 09:18 13.12.2019
2492 Rain 1 993 96 1600 2.1 50 09:18 13.12.2019
2493 Rain 1 994 96 1600 1.5 70 08:40 13.12.2019
2494 Rain 1 994 93 1600 1.5 70 08:22 13.12.2019
2495 Rain 1 995 93 1200 0.5 0 07:44 13.12.2019
2496 Rain 1 995 93 1200 0.5 0 07:20 13.12.2019
2497 Rain 1 995 93 2000 0.5 0 06:50 13.12.2019
2498 Rain 1 995 93 2000 2.1 90 06:28 13.12.2019
2499 Rain 1 996 100 3000 1 60 05:44 13.12.2019
2500 Rain 1 996 91 3000 2.1 360 05:24 13.12.2019
2501 Rain 1 997 93 4000 0.5 0 04:35 13.12.2019
2502 Rain 1 998 93 6000 1 0 03:30 13.12.2019
2503 Clouds 1 999 93 10000 1.5 100 02:32 13.12.2019
2504 Clouds 1 999 93 10000 1.5 100 02:32 13.12.2019
2505 Clouds 1 1000 84 10000 1 170 01:40 13.12.2019
2506 Clouds 1 1001 86 10000 1 0 00:51 13.12.2019
2507 Clouds 1 1001 86 10000 0.5 0 00:32 13.12.2019
2508 Clouds 1 1002 86 10000 0.5 0 23:47 12.12.2019
2509 Clouds 1 1002 86 10000 2.1 240 23:27 12.12.2019
2510 Clouds 1 1003 86 10000 1.5 250 22:59 12.12.2019
2511 Clouds 1 1003 86 10000 2.6 260 22:41 12.12.2019
2512 Clouds 1 1003 86 10000 1.5 250 22:41 12.12.2019
2513 Clouds 1 1003 86 10000 2.6 260 22:22 12.12.2019
2514 Clouds 2 1003 86 10000 2.6 250 21:56 12.12.2019
2515 Clear 1 1003 86 10000 1.5 250 21:38 12.12.2019
2516 Clear 1 1003 86 10000 1.5 250 21:20 12.12.2019
2517 Clear 1 1003 86 10000 1.5 250 21:20 12.12.2019
2518 Clear 1 1003 86 10000 1.5 250 20:59 12.12.2019
2519 Clouds 2 1004 86 10000 1 230 20:40 12.12.2019
2520 Clouds 2 1004 77 10000 1 230 20:22 12.12.2019
2521 Clouds 2 1004 86 10000 1.5 240 19:56 12.12.2019
2522 Clouds 2 1004 80 10000 1.5 230 19:38 12.12.2019
2523 Clouds 2 1004 80 10000 1.5 230 19:20 12.12.2019
2524 Clouds 3 1005 80 10000 1.5 230 18:56 12.12.2019
2525 Clouds 3 1005 80 10000 1.5 210 18:38 12.12.2019
2526 Clouds 3 1005 80 10000 2.1 230 18:19 12.12.2019
2527 Clouds 3 1005 80 10000 2.1 230 17:57 12.12.2019
2528 Clouds 3 1005 86 10000 1.5 220 17:38 12.12.2019
2529 Clouds 3 1005 86 10000 1.5 220 17:19 12.12.2019
2530 Clouds 3 1005 86 10000 1.5 250 16:55 12.12.2019
2531 Clouds 3 1005 80 10000 1 0 16:36 12.12.2019
2532 Clouds 3 1005 80 10000 1 0 16:18 12.12.2019
2533 Clouds 3 1006 86 8000 1.5 180 15:42 12.12.2019
2534 Clouds 3 1006 80 8000 1 0 15:20 12.12.2019
2535 Clouds 3 1006 80 8000 1 0 14:57 12.12.2019
2536 Clouds 3 1006 80 8000 1 0 14:37 12.12.2019
2537 Clouds 3 1006 80 8000 1 0 14:19 12.12.2019
2538 Clouds 3 1006 80 8000 2.1 150 13:55 12.12.2019
2539 Clouds 3 1006 89 8000 2.1 170 13:37 12.12.2019
2540 Clouds 3 1006 88 8000 2.1 170 13:19 12.12.2019
2541 Clouds 3 1007 86 8000 1.5 190 12:55 12.12.2019
2542 Clouds 3 1007 93 6000 1.5 100 12:37 12.12.2019
2543 Rain 2 1007 93 6000 1.5 100 12:18 12.12.2019
2544 Rain 2 1008 93 5000 2.1 70 11:40 12.12.2019
2545 Mist 2 1008 93 5000 2.1 70 11:22 12.12.2019
2546 Rain 2 1007 93 5000 1.5 60 10:59 12.12.2019
2547 Rain 2 1007 93 5000 1.5 60 10:59 12.12.2019
2548 Rain 2 1007 93 5000 1.5 60 10:41 12.12.2019
2549 Rain 2 1007 93 5000 2.1 90 10:22 12.12.2019
2550 Rain 2 1007 93 4000 1.5 60 09:56 12.12.2019
2551 Rain 2 1007 93 4000 1.5 60 09:56 12.12.2019
2552 Rain 2 1007 93 4000 2.6 30 09:38 12.12.2019
2553 Rain 1 1007 93 4000 2.6 30 09:20 12.12.2019
2554 Rain 1 1007 93 4000 3.1 20 08:50 12.12.2019
2555 Rain 1 1007 93 3000 1.5 320 08:29 12.12.2019
2556 Rain 1 1006 93 5000 2.1 90 07:56 12.12.2019
2557 Rain 1 1006 93 5000 2.1 90 07:56 12.12.2019
2558 Rain 1 1006 93 5000 1.5 70 07:37 12.12.2019
2559 Rain 1 1006 93 5000 1.5 70 07:19 12.12.2019
2560 Rain 1 1006 93 8000 2.6 70 06:41 12.12.2019
2561 Rain 1 1006 93 8000 2.6 70 06:22 12.12.2019
2562 Rain 1 1006 93 10000 1 0 05:32 12.12.2019
2563 Rain 2 1006 93 10000 1 0 04:47 12.12.2019
2564 Clouds 2 1007 86 10000 1.5 230 02:43 12.12.2019
2565 Clouds 3 1007 86 10000 2.1 220 02:24 12.12.2019
2566 Clouds 3 1008 80 10000 2.1 200 01:59 12.12.2019
2567 Clouds 3 1008 80 10000 1 210 01:36 12.12.2019
2568 Clouds 3 1009 80 10000 1 0 00:50 12.12.2019
2569 Clouds 3 1009 80 10000 2.1 260 00:22 12.12.2019
2570 Clouds 3 1009 80 10000 2.1 240 23:58 11.12.2019
2571 Clouds 3 1009 80 10000 1 180 23:38 11.12.2019
2572 Clouds 3 1009 80 10000 1 180 23:18 11.12.2019
2573 Clouds 3 1009 86 10000 2.1 200 22:56 11.12.2019
2574 Clouds 3 1009 86 10000 2.1 200 22:56 11.12.2019
2575 Clouds 3 1010 75 10000 2.1 200 22:38 11.12.2019
2576 Clouds 4 1010 75 10000 2.1 200 22:18 11.12.2019
2577 Clouds 3 1010 75 10000 2.1 200 22:18 11.12.2019
2578 Clouds 4 1010 75 10000 1 200 21:54 11.12.2019
2579 Clouds 4 1010 75 10000 1 200 21:36 11.12.2019
2580 Clouds 4 1010 75 10000 1 200 21:18 11.12.2019
2581 Clouds 4 1011 57 10000 1.5 250 20:54 11.12.2019
2582 Clouds 4 1011 75 10000 1 240 20:36 11.12.2019
2583 Clouds 4 1011 75 10000 1 240 20:18 11.12.2019
2584 Clouds 4 1011 57 10000 0.5 0 19:41 11.12.2019
2585 Clouds 4 1011 57 10000 1 0 19:23 11.12.2019
2586 Clouds 4 1012 57 10000 1 280 18:59 11.12.2019
2587 Clouds 4 1012 57 10000 0.5 0 18:39 11.12.2019
2588 Clouds 4 1012 57 10000 0.5 0 18:19 11.12.2019
2589 Clouds 5 1012 60 10000 1 180 17:56 11.12.2019
2590 Clouds 5 1013 65 10000 0.5 180 17:37 11.12.2019
2591 Clouds 5 1013 60 10000 0.5 0 17:18 11.12.2019
2592 Clouds 5 1013 60 10000 0.5 0 16:55 11.12.2019
2593 Clouds 5 1013 56 10000 1 0 16:37 11.12.2019
2594 Clouds 5 1013 56 10000 1 0 16:18 11.12.2019
2595 Clouds 6 1014 56 10000 2.1 140 15:55 11.12.2019
2596 Clouds 6 1014 56 10000 3.1 110 15:37 11.12.2019
2597 Clouds 6 1014 56 10000 3.1 110 15:18 11.12.2019
2598 Clouds 6 1015 52 10000 1.5 150 14:54 11.12.2019
2599 Clouds 6 1015 52 10000 1 0 14:36 11.12.2019
2600 Clouds 6 1015 52 10000 1 0 14:18 11.12.2019
2601 Clouds 7 1016 56 10000 2.1 140 13:42 11.12.2019
2602 Clouds 7 1017 56 10000 2.1 140 13:21 11.12.2019
2603 Clouds 7 1017 56 10000 2.1 120 12:57 11.12.2019
2604 Clouds 7 1017 52 10000 1 0 12:38 11.12.2019
2605 Clouds 6 1017 52 10000 1 0 12:20 11.12.2019
2606 Clouds 6 1018 56 10000 1 0 11:58 11.12.2019
2607 Clouds 6 1019 60 10000 2.1 100 11:38 11.12.2019
2608 Clouds 6 1019 60 10000 2.1 100 11:18 11.12.2019
2609 Clouds 5 1019 64 10000 1.5 120 10:56 11.12.2019
2610 Clouds 5 1019 74 10000 1 180 10:38 11.12.2019
2611 Clouds 4 1019 74 10000 1 180 10:19 11.12.2019
2612 Clouds 3 1019 74 10000 1.5 190 09:43 11.12.2019
2613 Clouds 2 1019 74 10000 1.5 190 09:21 11.12.2019
2614 Clouds 1 1019 74 10000 0.5 0 08:58 11.12.2019
2615 Clouds 1 1019 41 10000 0.5 0 08:38 11.12.2019
2616 Clouds 0 1019 36 10000 0.5 0 08:19 11.12.2019
2617 Clouds 0 1019 36 10000 1 0 07:56 11.12.2019
2618 Clouds 0 1019 36 10000 1 350 07:38 11.12.2019
2619 Clouds 0 1019 36 10000 1 350 07:19 11.12.2019
2620 Clouds 0 1019 36 10000 1.5 360 06:44 11.12.2019
2621 Clouds 0 1020 36 10000 1.5 360 06:22 11.12.2019
2622 Clouds 0 1020 36 10000 1.5 360 05:41 11.12.2019
2623 Clear 0 1020 30 10000 1.5 360 05:20 11.12.2019
2624 Clear 1 1021 30 10000 1.5 360 04:28 11.12.2019
2625 Clear 1 1022 80 10000 1 360 02:49 11.12.2019
2626 Clear 2 1022 69 10000 0.5 0 01:25 11.12.2019
2627 Clear 2 1022 69 10000 2.1 160 00:49 11.12.2019
2628 Clear 2 1023 74 10000 1 0 00:22 11.12.2019
2629 Clear 2 1022 69 10000 1.5 350 23:50 10.12.2019
2630 Clear 2 1022 80 10000 2.1 360 23:30 10.12.2019
2631 Clear 2 1022 80 10000 1.5 30 22:59 10.12.2019
2632 Clear 2 1022 80 10000 1.5 30 22:59 10.12.2019
2633 Clear 3 1022 29 10000 1.5 80 22:40 10.12.2019
2634 Clear 3 1022 29 10000 1.5 80 22:40 10.12.2019
2635 Clear 3 1022 29 10000 1.5 80 22:40 10.12.2019
2636 Clear 2 1022 29 10000 1.5 80 22:22 10.12.2019
2637 Clear 2 1021 86 10000 0.5 0 21:57 10.12.2019
2638 Clear 3 1021 80 10000 1 0 21:39 10.12.2019
2639 Clear 3 1021 80 10000 1 0 21:21 10.12.2019
2640 Clear 3 1021 75 10000 1 350 20:57 10.12.2019
2641 Clear 3 1020 75 10000 1.5 30 20:37 10.12.2019
2642 Clear 4 1020 75 10000 1.5 30 20:19 10.12.2019
2643 Clear 4 1020 60 10000 1.5 90 19:55 10.12.2019
2644 Clear 4 1020 51 10000 0.5 0 19:37 10.12.2019
2645 Clear 5 1019 40 10000 1 330 19:18 10.12.2019
2646 Clear 7 1019 31 10000 1.5 140 18:40 10.12.2019
2647 Clear 7 1019 31 10000 1.5 140 18:20 10.12.2019
2648 Clear 8 1019 36 10000 0.5 0 17:58 10.12.2019
2649 Clear 9 1018 29 10000 1 320 17:39 10.12.2019
2650 Clear 9 1018 29 10000 1 320 17:20 10.12.2019
2651 Clear 10 1018 25 10000 2.6 350 16:44 10.12.2019
2652 Clear 11 1018 16 10000 3.1 350 16:21 10.12.2019
2653 Clear 11 1018 24 10000 2.6 350 15:59 10.12.2019
2654 Clear 11 1018 19 10000 4.1 350 15:38 10.12.2019
2655 Clear 12 1018 19 10000 4.1 350 15:18 10.12.2019
2656 Clear 12 1018 19 10000 4.1 350 15:18 10.12.2019
2657 Clear 13 1018 22 10000 3.1 340 14:56 10.12.2019
2658 Clear 13 1018 24 10000 3.6 10 14:37 10.12.2019
2659 Clear 13 1018 24 10000 3.6 10 14:37 10.12.2019
2660 Clear 13 1018 24 10000 3.6 10 14:19 10.12.2019
2661 Clear 13 1018 20 10000 5.7 10 13:56 10.12.2019
2662 Clear 13 1018 20 10000 5.1 360 13:38 10.12.2019
2663 Clear 13 1018 20 10000 5.1 360 13:19 10.12.2019
2664 Clear 12 1018 20 10000 8.2 360 12:45 10.12.2019
2665 Clear 12 1018 20 10000 8.7 360 12:45 10.12.2019
2666 Clear 12 1018 20 10000 8.7 360 12:25 10.12.2019
2667 Clear 12 1018 20 10000 10.3 360 11:45 10.12.2019
2668 Clear 12 1018 24 10000 8.2 360 11:25 10.12.2019
2669 Clear 9 1018 26 10000 6.7 350 10:57 10.12.2019
2670 Clear 9 1017 30 10000 7.7 360 10:39 10.12.2019
2671 Clear 9 1017 30 10000 7.7 360 10:39 10.12.2019
2672 Clear 8 1017 30 10000 7.7 360 10:21 10.12.2019
2673 Clear 8 1017 30 10000 6.7 350 09:56 10.12.2019
2674 Clear 8 1017 30 10000 6.7 350 09:56 10.12.2019
2675 Clear 8 1016 34 10000 5.7 350 09:38 10.12.2019
2676 Clear 8 1016 34 10000 5.7 350 09:38 10.12.2019
2677 Clear 8 1016 34 10000 5.7 350 09:20 10.12.2019
2678 Clear 7 1016 34 10000 6.2 330 08:55 10.12.2019
2679 Clear 7 1015 34 10000 6.2 330 08:37 10.12.2019
2680 Clouds 5 1015 34 10000 6.2 330 08:18 10.12.2019
2681 Clouds 5 1015 34 10000 6.7 330 07:44 10.12.2019
2682 Clouds 5 1014 37 10000 6.7 330 07:25 10.12.2019
2683 Clouds 5 1014 37 10000 7.2 330 06:48 10.12.2019
2684 Clouds 5 1013 37 10000 7.2 330 06:22 10.12.2019
2685 Clouds 5 1013 37 10000 6.2 330 05:55 10.12.2019
2686 Clouds 5 1012 37 10000 5.1 330 04:56 10.12.2019
2687 Clouds 5 1011 40 10000 4.6 330 03:39 10.12.2019
2688 Clouds 5 1011 34 10000 4.1 330 02:46 10.12.2019
2689 Fog 5 1010 93 50 1 0 01:45 10.12.2019
2690 Fog 4 1010 100 50 2.1 110 01:24 10.12.2019
2691 Fog 5 1010 93 200 2.6 120 00:43 10.12.2019
2692 Fog 5 1009 100 800 1 0 00:24 10.12.2019
2693 Fog 5 1009 100 800 1.5 200 23:43 09.12.2019
2694 Fog 4 1009 100 800 1.5 200 23:24 09.12.2019
2695 Fog 5 1009 100 2000 1.5 110 22:58 09.12.2019
2696 Fog 5 1009 100 2000 1.5 110 22:58 09.12.2019
2697 Fog 5 1008 93 2000 1 250 22:40 09.12.2019
2698 Fog 5 1008 93 2000 1 250 22:20 09.12.2019
2699 Fog 5 1008 100 2500 1 0 21:57 09.12.2019
2700 Fog 4 1008 100 2500 1.5 250 21:39 09.12.2019
2701 Fog 4 1008 100 2500 1.5 250 21:39 09.12.2019
2702 Fog 4 1008 100 2500 1.5 250 21:19 09.12.2019
2703 Fog 4 1008 100 3500 0.5 0 20:57 09.12.2019
2704 Fog 4 1008 100 5000 0.5 0 20:39 09.12.2019
2705 Fog 4 1008 100 5000 0.5 0 20:20 09.12.2019
2706 Mist 5 1008 93 5000 0.5 0 19:56 09.12.2019
2707 Mist 4 1007 100 5000 1.5 150 19:38 09.12.2019
2708 Mist 5 1007 100 5000 1.5 150 19:19 09.12.2019
2709 Mist 6 1007 93 5000 1 0 18:56 09.12.2019
2710 Mist 6 1007 93 5000 1.5 140 18:38 09.12.2019
2711 Mist 6 1007 93 5000 1.5 140 18:19 09.12.2019
2712 Mist 6 1007 81 5000 1.5 130 17:58 09.12.2019
2713 Mist 7 1007 87 5000 1.5 70 17:39 09.12.2019
2714 Mist 7 1007 87 5000 1.5 70 17:20 09.12.2019
2715 Mist 8 1007 81 5000 0.5 240 16:56 09.12.2019
2716 Mist 8 1007 71 5000 0.5 0 16:37 09.12.2019
2717 Mist 8 1007 71 5000 0.5 0 16:19 09.12.2019
2718 Mist 9 1006 76 5000 1.5 210 15:55 09.12.2019
2719 Mist 9 1006 76 5000 1.5 210 15:37 09.12.2019
2720 Mist 9 1006 76 5000 1.5 210 15:19 09.12.2019
2721 Mist 9 1007 76 5000 1.5 210 14:42 09.12.2019
2722 Mist 9 1007 76 5000 1.5 210 14:19 09.12.2019
2723 Mist 9 1007 76 5000 2.1 200 13:59 09.12.2019
2724 Mist 9 1007 76 5000 2.1 220 13:38 09.12.2019
2725 Mist 9 1007 76 5000 2.1 220 13:19 09.12.2019
2726 Mist 9 1008 76 5000 1 0 12:57 09.12.2019
2727 Mist 9 1008 81 5000 1.5 240 12:38 09.12.2019
2728 Mist 9 1008 81 5000 1.5 240 12:20 09.12.2019
2729 Mist 8 1009 87 4000 1.5 250 11:58 09.12.2019
2730 Mist 8 1009 87 3500 2.6 250 11:39 09.12.2019
2731 Mist 7 1009 87 3500 2.6 250 11:21 09.12.2019
2732 Mist 7 1009 93 3500 1.5 270 10:54 09.12.2019
2733 Mist 6 1009 93 3500 0.5 0 10:36 09.12.2019
2734 Mist 6 1009 93 3500 0.5 0 10:18 09.12.2019
2735 Mist 6 1009 93 3500 1 220 09:41 09.12.2019
2736 Mist 5 1009 93 2500 0.5 0 09:21 09.12.2019
2737 Mist 5 1010 93 2000 2.1 220 08:54 09.12.2019
2738 Rain 5 1010 100 2000 1 0 08:36 09.12.2019
2739 Rain 5 1010 100 2000 1 0 08:18 09.12.2019
2740 Rain 5 1010 100 2000 1 0 08:18 09.12.2019
2741 Rain 5 1010 100 2000 0.5 0 07:42 09.12.2019
2742 Rain 5 1010 100 2000 0.5 0 07:23 09.12.2019
2743 Rain 6 1010 100 2500 0.5 200 06:49 09.12.2019
2744 Rain 6 1010 100 2500 1 120 06:25 09.12.2019
2745 Rain 6 1011 100 3000 0.5 0 05:29 09.12.2019
2746 Rain 6 1012 100 3000 0.5 0 04:46 09.12.2019
2747 Rain 6 1013 93 5000 1 0 03:45 09.12.2019
2748 Clouds 6 1014 87 8000 1.5 190 02:24 09.12.2019
2749 Clouds 6 1014 87 10000 2.1 200 01:42 09.12.2019
2750 Rain 6 1015 93 8000 1.5 170 00:51 09.12.2019
2751 Drizzle 6 1015 93 8000 1.5 360 00:31 09.12.2019
2752 Clouds 7 1016 87 10000 2.1 180 23:43 08.12.2019
2753 Clouds 7 1016 87 10000 2.1 180 23:24 08.12.2019
2754 Clouds 7 1016 87 10000 1 200 22:57 08.12.2019
2755 Clouds 7 1016 87 10000 1 0 22:39 08.12.2019
2756 Clouds 7 1016 87 10000 1 0 22:39 08.12.2019
2757 Clouds 7 1016 87 10000 1 0 22:19 08.12.2019
2758 Clouds 7 1016 87 10000 1 0 21:58 08.12.2019
2759 Clouds 7 1016 87 10000 1.5 250 21:40 08.12.2019
2760 Clouds 7 1016 87 10000 1.5 250 21:20 08.12.2019
2761 Clouds 7 1017 81 10000 1.5 230 20:57 08.12.2019
2762 Clouds 7 1017 81 10000 2.1 260 20:38 08.12.2019
2763 Clouds 7 1017 81 10000 2.1 260 20:20 08.12.2019
2764 Clouds 7 1017 81 10000 2.1 250 19:59 08.12.2019
2765 Clouds 7 1017 81 10000 2.1 230 19:41 08.12.2019
2766 Clouds 7 1017 81 10000 2.1 230 19:22 08.12.2019
2767 Clouds 7 1017 81 10000 2.1 240 18:55 08.12.2019
2768 Clouds 7 1017 81 10000 2.1 240 18:55 08.12.2019
2769 Clouds 8 1017 81 10000 2.1 260 18:37 08.12.2019
2770 Clouds 8 1017 81 10000 2.1 260 18:19 08.12.2019
2771 Clouds 8 1018 81 10000 2.1 240 17:56 08.12.2019
2772 Clouds 8 1018 81 8000 2.1 250 17:38 08.12.2019
2773 Clouds 8 1018 81 8000 2.1 250 17:19 08.12.2019
2774 Mist 8 1018 76 4000 2.1 240 16:56 08.12.2019
2775 Mist 8 1018 76 4000 1.5 240 16:38 08.12.2019
2776 Mist 8 1018 76 4000 1.5 240 16:20 08.12.2019
2777 Clouds 9 1018 76 8000 2.1 240 15:54 08.12.2019
2778 Clouds 9 1018 76 8000 2.1 240 15:36 08.12.2019
2779 Clouds 9 1018 76 8000 2.1 240 15:18 08.12.2019
2780 Clouds 9 1019 71 8000 2.6 240 14:41 08.12.2019
2781 Clouds 9 1019 70 8000 2.6 240 14:22 08.12.2019
2782 Clouds 9 1019 76 9000 2.1 240 13:57 08.12.2019
2783 Clouds 9 1020 76 8000 2.1 260 13:38 08.12.2019
2784 Clouds 9 1020 76 8000 2.1 260 13:20 08.12.2019
2785 Clouds 9 1020 81 6000 1.5 250 12:54 08.12.2019
2786 Clouds 8 1021 87 6000 1.5 250 12:36 08.12.2019
2787 Clouds 8 1021 87 6000 1.5 250 12:18 08.12.2019
2788 Clouds 7 1022 81 7000 1.5 360 11:39 08.12.2019
2789 Clouds 7 1022 81 7000 1.5 360 11:21 08.12.2019
2790 Clouds 6 1022 87 6000 0.5 0 10:59 08.12.2019
2791 Mist 6 1022 93 5000 0.5 0 10:38 08.12.2019
2792 Mist 5 1022 93 5000 0.5 0 10:20 08.12.2019
2793 Mist 4 1022 93 3500 1.5 10 09:57 08.12.2019
2794 Mist 4 1022 93 3500 1.5 10 09:57 08.12.2019
2795 Mist 4 1022 100 3500 1.5 360 09:38 08.12.2019
2796 Mist 3 1022 100 3500 1.5 360 09:19 08.12.2019
2797 Fog 3 1022 93 3000 0.5 0 08:58 08.12.2019
2798 Fog 2 1021 100 3000 1 180 08:37 08.12.2019
2799 Fog 2 1021 100 3000 1 180 08:19 08.12.2019
2800 Fog 2 1021 100 6000 0.5 160 07:43 08.12.2019
2801 Fog 2 1021 100 1100 0.5 0 07:20 08.12.2019
2802 Fog 2 1021 100 500 0.5 0 06:50 08.12.2019
2803 Mist 2 1020 100 1800 0.5 10 06:22 08.12.2019
2804 Snow 2 1021 100 1800 1 280 05:48 08.12.2019
2805 Mist 2 1021 93 3700 1 0 05:18 08.12.2019
2806 Snow 2 1021 93 2300 0.5 0 03:50 08.12.2019
2807 Snow 2 1021 93 2300 0.5 0 03:22 08.12.2019
2808 Fog 2 1021 100 1500 0.5 0 02:38 08.12.2019
2809 Mist 2 1021 93 1300 0.5 330 01:54 08.12.2019
2810 Mist 2 1021 100 2500 1.21 73 01:19 08.12.2019
2811 Mist 2 1021 100 2900 1 360 00:40 08.12.2019
2812 Mist 2 1021 100 2900 1 360 00:20 08.12.2019
2813 Mist 3 1021 93 2800 0.5 360 23:40 07.12.2019
2814 Clouds 3 1021 93 10000 1 0 23:21 07.12.2019
2815 Clouds 3 1021 93 10000 1.5 100 22:56 07.12.2019
2816 Clouds 3 1020 86 10000 1 0 22:38 07.12.2019
2817 Clouds 3 1020 86 10000 1 0 22:20 07.12.2019
2818 Clouds 4 1020 86 8000 1.5 30 21:56 07.12.2019
2819 Clouds 4 1020 93 8000 0.5 0 21:38 07.12.2019
2820 Clouds 4 1020 93 8000 0.5 0 21:38 07.12.2019
2821 Clouds 4 1020 93 8000 0.5 0 21:19 07.12.2019
2822 Clouds 4 1020 81 10000 1 0 20:56 07.12.2019
2823 Clouds 4 1020 86 10000 0.5 0 20:36 07.12.2019
2824 Clouds 5 1020 86 10000 0.5 0 20:18 07.12.2019
2825 Clouds 5 1019 81 10000 1 0 19:56 07.12.2019
2826 Clouds 5 1019 81 10000 0.5 0 19:37 07.12.2019
2827 Clouds 6 1019 81 10000 0.5 0 19:19 07.12.2019
2828 Clouds 6 1019 75 10000 1 0 18:44 07.12.2019
2829 Clouds 7 1019 75 10000 1.5 220 18:19 07.12.2019
2830 Clouds 7 1019 81 10000 2.1 200 17:58 07.12.2019
2831 Clouds 7 1018 75 6000 2.1 220 17:39 07.12.2019
2832 Clear 7 1018 75 6000 2.1 220 17:21 07.12.2019
2833 Clear 8 1018 75 8000 3.1 190 16:56 07.12.2019
2834 Clear 8 1018 70 10000 3.1 190 16:38 07.12.2019
2835 Clear 8 1018 70 10000 3.1 190 16:19 07.12.2019
2836 Clear 9 1017 66 10000 2.6 200 15:42 07.12.2019
2837 Clear 9 1017 66 10000 2.6 200 15:23 07.12.2019
2838 Clear 9 1017 70 10000 2.1 180 14:58 07.12.2019
2839 Clear 9 1018 61 10000 1 0 14:40 07.12.2019
2840 Clouds 10 1018 61 10000 1 0 14:18 07.12.2019
2841 Clouds 9 1018 66 10000 1.5 220 13:41 07.12.2019
2842 Clouds 9 1018 66 10000 1.5 220 13:41 07.12.2019
2843 Clouds 9 1018 66 10000 1.5 220 13:21 07.12.2019
2844 Clouds 9 1019 66 10000 1.5 220 12:59 07.12.2019
2845 Clouds 9 1019 75 10000 2.1 260 12:40 07.12.2019
2846 Clouds 9 1019 75 10000 2.1 260 12:22 07.12.2019
2847 Clouds 8 1020 70 10000 1.5 240 11:57 07.12.2019
2848 Clouds 7 1020 81 10000 2.1 210 11:38 07.12.2019
2849 Clouds 6 1020 81 10000 2.1 210 11:20 07.12.2019
2850 Clouds 5 1019 81 10000 1 0 10:38 07.12.2019
2851 Clouds 4 1019 81 10000 1 0 10:19 07.12.2019
2852 Clouds 3 1019 86 10000 1.5 280 09:41 07.12.2019
2853 Clouds 3 1019 86 10000 1.5 280 09:22 07.12.2019
2854 Clouds 2 1019 100 10000 1.5 280 08:56 07.12.2019
2855 Clouds 2 1019 93 6000 2.1 250 08:37 07.12.2019
2856 Clouds 2 1019 93 6000 2.1 250 08:19 07.12.2019
2857 Clouds 2 1019 93 8000 2.6 250 07:44 07.12.2019
2858 Clouds 2 1019 93 10000 2.1 250 07:23 07.12.2019
2859 Clouds 2 1019 93 10000 1.5 230 06:45 07.12.2019
2860 Clouds 2 1019 93 10000 1 0 06:24 07.12.2019
2861 Clouds 3 1018 93 8000 1 0 05:19 07.12.2019
2862 Clouds 4 1019 93 8000 1.5 240 03:55 07.12.2019
2863 Clouds 4 1020 86 10000 1.5 250 02:59 07.12.2019
2864 Clouds 4 1020 86 10000 2.6 250 02:21 07.12.2019
2865 Clouds 4 1021 86 10000 2.1 260 01:34 07.12.2019
2866 Clouds 4 1021 86 10000 2.1 240 00:52 07.12.2019
2867 Clouds 4 1021 86 10000 2.1 230 00:19 07.12.2019
2868 Clouds 4 1021 81 10000 2.6 250 23:48 06.12.2019
2869 Clouds 4 1021 81 10000 1.5 240 23:24 06.12.2019
2870 Clouds 4 1022 81 10000 1.5 240 22:58 06.12.2019
2871 Clouds 4 1022 81 10000 1 0 22:37 06.12.2019
2872 Clouds 4 1022 81 10000 1 0 22:19 06.12.2019
2873 Clouds 4 1022 81 10000 2.1 250 21:56 06.12.2019
2874 Clouds 4 1022 81 10000 2.1 250 21:56 06.12.2019
2875 Clouds 4 1022 81 10000 1 0 21:38 06.12.2019
2876 Clouds 4 1022 81 10000 1 0 21:19 06.12.2019
2877 Clouds 5 1022 81 10000 1 0 20:42 06.12.2019
2878 Clouds 4 1022 81 10000 1 300 20:22 06.12.2019
2879 Clouds 4 1022 81 10000 1 0 19:57 06.12.2019
2880 Clouds 4 1022 81 10000 1.5 260 19:39 06.12.2019
2881 Clouds 4 1022 81 10000 1.5 260 19:20 06.12.2019
2882 Clouds 4 1022 81 10000 1.5 230 18:44 06.12.2019
2883 Clouds 4 1022 81 10000 1.5 230 18:23 06.12.2019
2884 Clouds 4 1022 81 10000 1.5 230 18:23 06.12.2019
2885 Clouds 5 1022 81 9000 1.5 220 17:58 06.12.2019
2886 Clouds 5 1022 81 9000 1.5 220 17:40 06.12.2019
2887 Clouds 5 1022 81 6000 1 0 17:40 06.12.2019
2888 Clouds 5 1022 81 6000 1 0 17:22 06.12.2019
2889 Clouds 5 1022 81 6000 1.5 240 16:58 06.12.2019
2890 Mist 6 1023 75 5000 1.5 240 16:39 06.12.2019
2891 Mist 6 1023 75 5000 1.5 240 16:21 06.12.2019
2892 Mist 7 1023 81 5000 1.5 230 15:42 06.12.2019
2893 Mist 7 1023 81 5000 1.5 250 15:23 06.12.2019
2894 Clouds 7 1023 75 6000 1.5 230 14:59 06.12.2019
2895 Clouds 7 1024 81 6000 1.5 250 14:40 06.12.2019
2896 Clouds 7 1024 81 6000 1.5 250 14:20 06.12.2019
2897 Clouds 7 1024 81 6000 1.5 220 13:55 06.12.2019
2898 Clouds 7 1025 86 7000 1.5 230 13:37 06.12.2019
2899 Clouds 7 1025 86 7000 1.5 230 13:19 06.12.2019
2900 Clouds 7 1025 86 7000 1.5 260 12:39 06.12.2019
2901 Clouds 6 1025 86 7000 1.5 260 12:21 06.12.2019
2902 Clouds 6 1025 53 10000 1 0 11:43 06.12.2019
2903 Clouds 4 1026 93 7000 1 0 11:23 06.12.2019
2904 Clouds 4 1026 93 7000 1.5 270 10:57 06.12.2019
2905 Clouds 3 1026 100 7000 1 190 10:38 06.12.2019
2906 Clouds 3 1026 100 7000 1 190 10:20 06.12.2019
2907 Mist 3 1026 55 5000 1 270 09:56 06.12.2019
2908 Mist 3 1026 55 5000 0.5 0 09:37 06.12.2019
2909 Mist 2 1026 55 5000 0.5 0 09:19 06.12.2019
2910 Mist 1 1026 55 5000 0.5 0 08:43 06.12.2019
2911 Fog 0 1026 52 6000 1 0 08:25 06.12.2019
2912 Fog 0 1026 100 8000 0.5 0 07:42 06.12.2019
2913 Mist 0 1026 100 2000 0.5 170 07:22 06.12.2019
2914 Mist 0 1026 92 3000 0.5 0 06:48 06.12.2019
2915 Fog 0 1026 100 300 1 0 06:25 06.12.2019
2916 Fog 0 1026 100 1500 0.5 0 05:48 06.12.2019
2917 Fog 0 1026 63 1500 0.5 280 02:51 06.12.2019
2918 Fog 0 1026 100 1000 0.5 180 01:45 06.12.2019
2919 Fog 1 1027 64 2000 0.5 0 00:51 06.12.2019
2920 Fog 1 1027 100 6000 0.57 243 00:23 06.12.2019
2921 Fog 1 1027 100 7000 1 240 23:51 05.12.2019
2922 Fog 1 1027 100 7000 1 270 23:21 05.12.2019
2923 Fog 1 1027 64 8000 1 190 22:58 05.12.2019
2924 Fog 1 1027 100 8000 0.5 0 22:39 05.12.2019
2925 Fog 1 1027 100 8000 0.5 0 22:19 05.12.2019
2926 Fog 1 1027 100 7000 1 280 21:57 05.12.2019
2927 Fog 1 1027 100 7000 1 280 21:57 05.12.2019
2928 Fog 1 1027 100 7000 1 280 21:39 05.12.2019
2929 Fog 1 1027 93 9000 1 300 21:39 05.12.2019
2930 Fog 1 1027 93 9000 1 300 21:20 05.12.2019
2931 Fog 2 1027 93 9000 1 190 20:56 05.12.2019
2932 Fog 2 1027 93 9000 1 190 20:56 05.12.2019
2933 Fog 2 1027 93 9000 1 190 20:56 05.12.2019
2934 Fog 2 1027 93 9000 1 190 20:37 05.12.2019
2935 Clouds 2 1027 93 10000 0.5 200 20:18 05.12.2019
2936 Clouds 2 1027 93 10000 0.5 200 20:18 05.12.2019
2937 Clouds 2 1027 93 10000 0.5 0 19:40 05.12.2019
2938 Clouds 3 1027 93 10000 0.5 0 19:22 05.12.2019
2939 Clouds 3 1027 93 10000 0.5 0 18:58 05.12.2019
2940 Clouds 3 1027 86 10000 0.5 290 18:38 05.12.2019
2941 Clouds 4 1026 86 10000 0.5 0 18:20 05.12.2019
2942 Clouds 4 1026 86 10000 0.5 0 18:20 05.12.2019
2943 Clouds 5 1026 75 10000 1.5 190 17:41 05.12.2019
2944 Clouds 5 1026 75 10000 1.5 150 17:20 05.12.2019
2945 Clouds 5 1026 75 10000 1.5 150 16:59 05.12.2019
2946 Clouds 6 1026 70 10000 1.5 110 16:40 05.12.2019
2947 Clouds 7 1026 70 10000 1 0 16:21 05.12.2019
2948 Clouds 7 1026 70 10000 1 0 16:21 05.12.2019
2949 Clouds 8 1025 61 10000 1.5 100 15:58 05.12.2019
2950 Clouds 8 1025 61 10000 1.5 100 15:39 05.12.2019
2951 Clouds 8 1026 61 10000 1 0 15:20 05.12.2019
2952 Clouds 8 1026 65 10000 1.5 70 14:56 05.12.2019
2953 Clouds 8 1026 65 10000 1.5 70 14:56 05.12.2019
2954 Clouds 8 1026 65 10000 1.5 70 14:38 05.12.2019
2955 Clouds 8 1026 65 10000 1.5 150 14:19 05.12.2019
2956 Clouds 8 1026 65 10000 1 0 13:57 05.12.2019
2957 Clouds 7 1026 65 10000 1 0 13:39 05.12.2019
2958 Clouds 7 1027 70 10000 2.1 120 13:19 05.12.2019
2959 Clouds 7 1027 70 9000 1.5 110 12:57 05.12.2019
2960 Clouds 7 1027 70 9000 1.5 110 12:38 05.12.2019
2961 Clouds 7 1027 75 10000 1 0 12:20 05.12.2019
2962 Clouds 7 1027 70 10000 1 0 11:39 05.12.2019
2963 Clouds 5 1027 75 9000 1 0 11:21 05.12.2019
2964 Clouds 5 1027 86 9000 0.5 0 10:58 05.12.2019
2965 Clouds 5 1027 86 9000 0.5 0 10:40 05.12.2019
2966 Clouds 3 1026 86 9000 1 0 10:19 05.12.2019
2967 Clouds 4 1026 100 8000 1 0 09:55 05.12.2019
2968 Clouds 4 1026 100 8000 1 0 09:36 05.12.2019
2969 Clouds 3 1026 100 8000 0.5 0 09:18 05.12.2019
2970 Clouds 1 1026 64 7000 1 0 08:39 05.12.2019
2971 Mist 1 1025 72 4000 0.5 0 08:20 05.12.2019
2972 Mist 1 1025 72 4000 0.5 0 08:20 05.12.2019
2973 Mist 0 1025 72 4000 0.5 0 07:57 05.12.2019
2974 Clouds 0 1025 72 10000 0.5 0 07:36 05.12.2019
2975 Clouds 0 1025 72 10000 1 30 07:18 05.12.2019
2976 Clouds 0 1025 72 10000 0.5 0 06:42 05.12.2019
2977 Clouds 1 1024 72 10000 1 160 06:22 05.12.2019
2978 Clouds 1 1024 72 10000 1 190 05:48 05.12.2019
2979 Clouds 1 1024 66 10000 0.5 200 05:23 05.12.2019
2980 Clouds 1 1024 66 10000 1 170 04:25 05.12.2019
2981 Clouds 1 1024 100 10000 0.5 0 02:54 05.12.2019
2982 Clouds 1 1025 93 10000 1 150 02:25 05.12.2019
2983 Clouds 2 1024 93 10000 0.5 0 01:55 05.12.2019
2984 Clouds 2 1024 93 10000 0.5 0 01:27 05.12.2019
2985 Clouds 2 1024 93 10000 0.5 0 01:27 05.12.2019
2986 Clouds 2 1025 86 10000 0.5 60 00:54 05.12.2019
2987 Clouds 2 1025 86 10000 0.5 60 00:36 05.12.2019
2988 Clouds 2 1025 93 10000 1 10 00:18 05.12.2019
2989 Clouds 2 1025 86 10000 1 50 23:40 04.12.2019
2990 Clouds 2 1024 86 10000 1 190 23:22 04.12.2019
2991 Clouds 2 1024 86 10000 1 190 22:57 04.12.2019
2992 Clouds 2 1025 93 10000 0.5 0 22:36 04.12.2019
2993 Clouds 2 1025 93 10000 0.5 0 22:36 04.12.2019
2994 Clouds 2 1025 93 10000 0.5 0 22:18 04.12.2019
2995 Clouds 2 1025 93 10000 0.5 0 21:55 04.12.2019
2996 Clouds 2 1025 86 10000 1 180 21:37 04.12.2019
2997 Clouds 2 1024 86 10000 0.5 180 21:18 04.12.2019
2998 Clouds 2 1024 86 10000 0.5 0 20:56 04.12.2019
2999 Clouds 2 1024 86 10000 0.5 0 20:37 04.12.2019
3000 Clear 2 1024 69 10000 1 240 20:19 04.12.2019
3001 Clear 3 1024 80 10000 0.5 0 19:40 04.12.2019
3002 Clear 3 1024 80 10000 0.5 0 19:22 04.12.2019
3003 Clear 4 1024 80 10000 0.5 0 18:58 04.12.2019
3004 Clear 4 1024 80 10000 0.5 220 18:40 04.12.2019
3005 Clear 4 1024 86 10000 0.5 0 18:22 04.12.2019
3006 Clear 5 1024 86 10000 1.5 360 17:56 04.12.2019
3007 Clear 5 1024 86 10000 1.5 360 17:37 04.12.2019
3008 Clear 5 1024 51 10000 1.5 180 17:18 04.12.2019
3009 Clear 6 1024 51 10000 1.5 180 16:40 04.12.2019
3010 Clear 7 1025 51 10000 2.1 180 16:20 04.12.2019
3011 Clear 8 1025 51 10000 2.1 150 15:57 04.12.2019
3012 Clear 8 1025 51 10000 2.1 150 15:38 04.12.2019
3013 Clear 8 1025 51 10000 1.5 140 15:19 04.12.2019
3014 Clear 8 1025 51 10000 2.1 170 14:57 04.12.2019
3015 Clear 8 1025 51 10000 2.1 170 14:39 04.12.2019
3016 Clear 8 1025 52 10000 2.1 170 14:20 04.12.2019
3017 Clear 8 1025 51 10000 2.1 150 13:39 04.12.2019
3018 Clear 7 1026 52 10000 2.6 140 13:20 04.12.2019
3019 Clear 7 1026 52 10000 2.6 140 12:59 04.12.2019
3020 Clouds 7 1026 52 10000 2.6 110 12:40 04.12.2019
3021 Clouds 7 1026 56 10000 3.1 140 12:22 04.12.2019
3022 Clouds 7 1027 56 10000 2.6 110 11:41 04.12.2019
3023 Clouds 7 1027 58 10000 1.5 120 11:23 04.12.2019
3024 Clouds 6 1027 56 10000 1.5 120 10:44 04.12.2019
3025 Clouds 6 1027 56 10000 1.5 120 10:24 04.12.2019
3026 Clouds 6 1027 56 10000 1.5 160 09:58 04.12.2019
3027 Clouds 5 1027 60 10000 1 0 09:39 04.12.2019
3028 Clouds 5 1026 58 10000 1 0 09:21 04.12.2019
3029 Clouds 5 1026 86 10000 0.5 200 08:43 04.12.2019
3030 Clouds 4 1026 57 10000 1 210 08:24 04.12.2019
3031 Clouds 4 1026 57 10000 0.5 0 07:51 04.12.2019
3032 Clouds 4 1026 57 10000 0.5 0 07:31 04.12.2019
3033 Clouds 4 1026 60 10000 1.5 60 06:57 04.12.2019
3034 Clouds 4 1026 60 10000 1.5 60 06:31 04.12.2019
3035 Clouds 4 1026 57 10000 1 30 05:43 04.12.2019
3036 Clouds 4 1026 60 10000 1 0 04:33 04.12.2019
3037 Clouds 4 1027 60 10000 1 0 03:25 04.12.2019
3038 Clouds 5 1027 59 10000 1.5 110 01:21 04.12.2019
3039 Clouds 5 1028 65 10000 1.5 120 00:40 04.12.2019
3040 Clouds 5 1028 65 10000 1.5 120 00:40 04.12.2019
3041 Clouds 5 1028 65 10000 1 0 00:19 04.12.2019
3042 Clouds 5 1027 70 10000 1.5 90 23:41 03.12.2019
3043 Clouds 6 1027 70 10000 2.1 90 23:20 03.12.2019
3044 Clouds 6 1027 75 10000 2.1 80 22:56 03.12.2019
3045 Clouds 6 1027 75 10000 2.1 80 22:36 03.12.2019
3046 Clouds 6 1027 75 10000 2.1 90 22:18 03.12.2019
3047 Clouds 6 1027 65 10000 1.5 80 21:54 03.12.2019
3048 Clouds 6 1027 65 10000 1.5 80 21:54 03.12.2019
3049 Clouds 6 1027 65 10000 1.5 80 21:36 03.12.2019
3050 Clouds 6 1027 75 10000 1.5 60 21:18 03.12.2019
3051 Clouds 6 1026 70 10000 1.5 70 20:41 03.12.2019
3052 Clouds 6 1026 70 10000 2.1 120 20:19 03.12.2019
3053 Clouds 6 1026 70 10000 2.1 110 19:56 03.12.2019
3054 Clouds 6 1026 70 10000 2.1 110 19:38 03.12.2019
3055 Clouds 6 1025 75 10000 2.1 110 19:20 03.12.2019
3056 Clouds 6 1025 75 10000 2.1 100 18:57 03.12.2019
3057 Clouds 6 1025 75 10000 2.1 100 18:39 03.12.2019
3058 Clouds 6 1025 75 10000 1.5 90 18:21 03.12.2019
3059 Clouds 6 1025 75 10000 1.5 90 18:21 03.12.2019
3060 Clouds 6 1025 75 10000 1.5 90 17:57 03.12.2019
3061 Clouds 6 1025 75 10000 1.5 100 17:57 03.12.2019
3062 Clouds 7 1025 75 10000 1.5 100 17:38 03.12.2019
3063 Clouds 7 1025 75 10000 1.5 100 17:38 03.12.2019
3064 Clouds 7 1024 70 10000 2.1 110 17:18 03.12.2019
3065 Clouds 8 1024 66 10000 2.6 100 16:57 03.12.2019
3066 Clouds 8 1024 66 10000 2.6 100 16:38 03.12.2019
3067 Clouds 9 1024 61 10000 3.1 100 16:20 03.12.2019
3068 Clouds 9 1024 66 10000 3.1 100 15:56 03.12.2019
3069 Clouds 9 1024 66 10000 3.1 100 15:56 03.12.2019
3070 Clouds 9 1024 66 10000 3.1 100 15:38 03.12.2019
3071 Clouds 10 1024 62 10000 2.6 120 15:18 03.12.2019
3072 Clouds 10 1024 66 10000 3.1 110 14:42 03.12.2019
3073 Clouds 9 1024 61 10000 3.1 120 14:20 03.12.2019
3074 Clouds 9 1024 66 10000 3.6 110 13:56 03.12.2019
3075 Clouds 9 1024 66 10000 3.6 110 13:37 03.12.2019
3076 Clouds 9 1025 66 10000 4.1 110 13:18 03.12.2019
3077 Clouds 9 1025 66 10000 3.6 110 12:41 03.12.2019
3078 Clouds 9 1025 61 10000 3.1 120 12:18 03.12.2019
3079 Clouds 9 1025 61 10000 3.1 120 11:58 03.12.2019
3080 Clouds 9 1025 66 10000 3.6 130 11:39 03.12.2019
3081 Clouds 8 1025 66 10000 3.1 140 11:20 03.12.2019
3082 Clouds 8 1025 66 10000 3.1 140 10:57 03.12.2019
3083 Clouds 8 1025 70 10000 3.1 130 10:39 03.12.2019
3084 Clouds 8 1024 70 10000 2.6 120 10:19 03.12.2019
3085 Clouds 8 1024 70 10000 2.1 130 09:46 03.12.2019
3086 Clouds 7 1024 75 10000 1.5 130 09:25 03.12.2019
3087 Clouds 7 1024 75 10000 1.5 130 08:59 03.12.2019
3088 Clouds 7 1023 81 10000 1 0 08:40 03.12.2019
3089 Clouds 7 1023 81 10000 1 0 08:21 03.12.2019
3090 Clouds 7 1023 70 10000 1.5 90 07:53 03.12.2019
3091 Clouds 7 1023 70 10000 1.5 90 07:29 03.12.2019
3092 Clouds 7 1023 81 10000 1.5 70 06:58 03.12.2019
3093 Clouds 7 1022 87 10000 1 0 06:21 03.12.2019
3094 Clouds 7 1022 87 10000 1 70 05:55 03.12.2019
3095 Clouds 8 1022 87 10000 2.1 50 03:44 03.12.2019
3096 Rain 8 1022 87 10000 2.1 40 03:22 03.12.2019
3097 Clouds 8 1022 87 10000 2.6 40 02:54 03.12.2019
3098 Clouds 8 1022 87 10000 2.6 40 02:32 03.12.2019
3099 Clouds 8 1021 87 10000 2.1 50 01:59 03.12.2019
3100 Clouds 8 1021 87 10000 1.5 50 01:39 03.12.2019
3101 Clouds 8 1021 87 10000 2.6 40 01:20 03.12.2019
3102 Clouds 8 1021 87 10000 2.1 50 00:42 03.12.2019
3103 Clouds 8 1021 87 10000 2.1 30 00:23 03.12.2019
3104 Clouds 8 1021 87 10000 2.1 30 00:23 03.12.2019
3105 Clouds 7 1021 87 10000 2.1 50 23:44 02.12.2019
3106 Clouds 7 1020 93 10000 2.1 50 23:22 02.12.2019
3107 Clouds 7 1020 93 10000 2.1 50 22:57 02.12.2019
3108 Clouds 7 1020 93 10000 2.1 50 22:38 02.12.2019
3109 Clouds 7 1019 87 10000 1 0 22:20 02.12.2019
3110 Clouds 7 1019 87 10000 2.1 90 21:39 02.12.2019
3111 Clouds 6 1019 87 10000 2.1 80 21:20 02.12.2019
3112 Clouds 6 1019 87 10000 2.1 80 20:58 02.12.2019
3113 Clouds 6 1018 87 10000 0.5 0 20:39 02.12.2019
3114 Clouds 6 1018 93 10000 0.5 0 20:20 02.12.2019
3115 Clouds 6 1017 93 10000 0.5 290 19:57 02.12.2019
3116 Clouds 6 1017 93 10000 0.5 290 19:39 02.12.2019
3117 Clouds 6 1017 93 10000 1 0 19:20 02.12.2019
3118 Clear 7 1016 87 10000 1 270 18:48 02.12.2019
3119 Clear 7 1016 93 10000 1 210 18:24 02.12.2019
3120 Clear 8 1015 87 10000 1 210 17:59 02.12.2019
3121 Clear 8 1015 87 10000 1 210 17:41 02.12.2019
3122 Clear 8 1015 81 10000 2.1 200 17:21 02.12.2019
3123 Clear 8 1015 81 10000 2.1 200 17:21 02.12.2019
3124 Clear 8 1015 81 10000 2.1 200 16:57 02.12.2019
3125 Clear 9 1015 81 10000 2.1 220 16:39 02.12.2019
3126 Clear 9 1015 76 10000 2.1 230 16:18 02.12.2019
3127 Clear 10 1014 71 10000 2.6 250 15:56 02.12.2019
3128 Clear 10 1014 71 10000 2.6 250 15:38 02.12.2019
3129 Clear 10 1014 76 10000 2.6 250 15:20 02.12.2019
3130 Clear 10 1014 76 10000 3.1 260 14:41 02.12.2019
3131 Clouds 10 1015 81 10000 2.1 230 14:20 02.12.2019
3132 Clouds 10 1015 81 10000 2.1 230 14:00 02.12.2019
3133 Clouds 10 1015 81 10000 2.6 240 13:41 02.12.2019
3134 Clouds 10 1015 81 10000 2.6 240 13:41 02.12.2019
3135 Clouds 9 1016 87 10000 2.6 220 13:20 02.12.2019
3136 Clouds 8 1016 87 10000 2.6 220 12:59 02.12.2019
3137 Clouds 8 1016 93 10000 2.1 240 12:40 02.12.2019
3138 Clouds 8 1016 87 10000 2.6 240 12:20 02.12.2019
3139 Clouds 7 1016 87 10000 2.6 240 11:56 02.12.2019
3140 Clouds 7 1016 93 8000 2.6 240 11:37 02.12.2019
3141 Clouds 6 1016 93 8000 2.6 260 11:18 02.12.2019
3142 Clouds 6 1016 93 8000 2.6 260 10:55 02.12.2019
3143 Clouds 6 1016 93 10000 2.6 240 10:37 02.12.2019
3144 Clouds 5 1016 93 10000 2.1 260 10:19 02.12.2019
3145 Clouds 5 1016 93 10000 2.6 280 09:41 02.12.2019
3146 Clouds 5 1016 93 10000 2.6 240 09:19 02.12.2019
3147 Clouds 5 1016 93 10000 2.6 240 08:57 02.12.2019
3148 Clouds 4 1016 93 10000 2.6 240 08:38 02.12.2019
3149 Clouds 5 1015 100 10000 2.1 230 08:20 02.12.2019
3150 Clouds 5 1015 93 10000 2.1 240 07:44 02.12.2019
3151 Clouds 5 1015 93 10000 2.6 260 07:21 02.12.2019
3152 Clouds 5 1015 93 10000 1.5 250 06:56 02.12.2019
3153 Clouds 5 1015 93 10000 1.5 250 06:37 02.12.2019
3154 Clouds 6 1015 93 10000 2.6 250 05:32 02.12.2019
3155 Drizzle 6 1016 93 4000 2.6 250 04:21 02.12.2019
3156 Rain 6 1016 93 4000 1.5 260 02:53 02.12.2019
3157 Rain 6 1016 93 4000 1 240 02:26 02.12.2019
3158 Rain 6 1017 93 8000 1 240 01:25 02.12.2019
3159 Rain 6 1017 93 7000 1 0 00:55 02.12.2019
3160 Rain 6 1017 93 10000 1 0 00:24 02.12.2019
3161 Rain 6 1018 93 10000 1.5 250 23:45 01.12.2019
3162 Rain 6 1018 93 10000 2.1 260 23:23 01.12.2019
3163 Rain 6 1018 93 10000 2.1 260 22:58 01.12.2019
3164 Rain 6 1018 93 10000 1.5 250 22:39 01.12.2019
3165 Rain 6 1018 93 10000 1 0 22:20 01.12.2019
3166 Rain 6 1018 93 10000 1 0 21:58 01.12.2019
3167 Rain 6 1018 93 10000 1 0 21:40 01.12.2019
3168 Rain 6 1018 93 10000 1 0 21:22 01.12.2019
3169 Rain 6 1018 93 10000 0.5 0 20:59 01.12.2019
3170 Rain 6 1018 93 10000 1 320 20:59 01.12.2019
3171 Rain 6 1018 93 10000 1 320 20:41 01.12.2019
3172 Rain 6 1018 93 10000 1 300 20:23 01.12.2019
3173 Rain 6 1018 93 10000 1 300 19:59 01.12.2019
3174 Rain 6 1019 93 10000 0.5 0 19:40 01.12.2019
3175 Rain 6 1018 93 7000 1.5 210 19:21 01.12.2019
3176 Rain 6 1018 100 6000 1.5 230 18:57 01.12.2019
3177 Rain 6 1018 100 6000 1.5 230 18:39 01.12.2019
3178 Rain 6 1018 100 7000 1 260 18:19 01.12.2019
3179 Rain 6 1018 100 7000 1 260 17:59 01.12.2019
3180 Rain 6 1018 100 5000 1.5 210 17:41 01.12.2019
3181 Rain 6 1018 100 1500 0.5 0 17:23 01.12.2019
3182 Rain 6 1018 100 1500 0.5 0 17:23 01.12.2019
3183 Rain 6 1019 100 1500 1 0 16:55 01.12.2019
3184 Rain 6 1019 100 1500 1 0 16:37 01.12.2019
3185 Rain 6 1019 100 2000 1.5 260 16:19 01.12.2019
3186 Rain 6 1019 100 3000 1.5 240 15:46 01.12.2019
3187 Rain 7 1019 100 3000 1.5 240 15:27 01.12.2019
3188 Rain 7 1019 100 3000 1.5 240 15:27 01.12.2019
3189 Rain 7 1019 100 3000 1 0 14:42 01.12.2019
3190 Rain 7 1019 93 4000 1 0 14:20 01.12.2019
3191 Rain 7 1019 93 4000 3.6 30 13:56 01.12.2019
3192 Rain 7 1019 93 4000 3.6 30 13:38 01.12.2019
3193 Rain 7 1020 87 4000 2.1 30 13:19 01.12.2019
3194 Rain 7 1020 93 5000 2.1 40 12:42 01.12.2019
3195 Rain 7 1021 87 5000 2.6 60 11:55 01.12.2019
3196 Rain 7 1021 87 5000 2.6 60 11:37 01.12.2019
3197 Rain 7 1021 87 5000 2.6 60 11:37 01.12.2019
3198 Rain 7 1021 87 5000 2.6 80 11:19 01.12.2019
3199 Rain 7 1021 87 5000 2.6 70 10:43 01.12.2019
3200 Rain 7 1021 87 4000 2.1 80 10:20 01.12.2019
3201 Rain 7 1021 87 4000 1 0 09:42 01.12.2019
3202 Rain 7 1021 87 4000 1 0 09:24 01.12.2019
3203 Mist 7 1021 93 5000 1 30 08:58 01.12.2019
3204 Rain 7 1020 93 5000 1 60 08:38 01.12.2019
3205 Rain 7 1020 87 6000 1.5 80 08:19 01.12.2019
3206 Clouds 7 1021 87 10000 1 90 07:49 01.12.2019
3207 Clouds 6 1021 87 10000 1 90 07:29 01.12.2019
3208 Mist 7 1021 93 5000 1 70 06:53 01.12.2019
3209 Mist 7 1020 100 5000 1.5 20 06:19 01.12.2019
3210 Mist 7 1021 93 5000 1.5 90 05:42 01.12.2019
3211 Mist 7 1021 93 5000 1.5 120 04:29 01.12.2019
3212 Mist 6 1022 93 5000 1 0 02:46 01.12.2019
3213 Mist 7 1022 93 5000 1.5 110 02:28 01.12.2019
3214 Mist 7 1022 93 5000 2.1 130 01:54 01.12.2019
3215 Mist 7 1022 93 5000 2.1 130 01:32 01.12.2019
3216 Mist 7 1022 93 5000 1.5 50 00:50 01.12.2019
3217 Mist 7 1022 93 5000 2.6 70 00:27 01.12.2019
3218 Mist 6 1022 93 5000 2.1 80 23:57 30.11.2019
3219 Mist 6 1022 93 5000 2.1 80 23:39 30.11.2019
3220 Mist 7 1022 93 5000 2.1 80 23:20 30.11.2019
3221 Mist 6 1022 93 5000 2.6 70 22:47 30.11.2019
3222 Mist 6 1022 93 5000 2.6 70 22:28 30.11.2019
3223 Mist 6 1022 93 5000 4.1 110 21:54 30.11.2019
3224 Mist 6 1022 93 5000 4.1 110 21:36 30.11.2019
3225 Mist 6 1021 93 5000 3.6 120 21:18 30.11.2019
3226 Mist 6 1021 87 5000 3.6 110 20:54 30.11.2019
3227 Mist 6 1021 87 5000 3.6 110 20:36 30.11.2019
3228 Mist 6 1021 87 4000 3.6 110 20:18 30.11.2019
3229 Mist 6 1021 93 5000 3.6 110 19:54 30.11.2019
3230 Mist 6 1021 93 5000 3.6 110 19:36 30.11.2019
3231 Mist 6 1020 93 4000 4.6 110 19:18 30.11.2019
3232 Mist 6 1020 93 4000 3.6 120 18:39 30.11.2019
3233 Mist 6 1020 93 4000 3.1 120 18:21 30.11.2019
3234 Mist 6 1020 93 4000 3.1 120 17:59 30.11.2019
3235 Mist 6 1020 93 4000 4.1 110 17:41 30.11.2019
3236 Mist 7 1020 93 4000 3.6 100 17:23 30.11.2019
3237 Mist 8 1019 93 4000 3.6 130 16:59 30.11.2019
3238 Mist 8 1019 93 4000 3.6 130 16:59 30.11.2019
3239 Mist 8 1019 93 4000 3.6 130 16:40 30.11.2019
3240 Mist 8 1019 100 5000 2.6 100 16:21 30.11.2019
3241 Mist 9 1019 93 5000 3.1 110 15:54 30.11.2019
3242 Mist 9 1019 93 5000 3.1 110 15:36 30.11.2019
3243 Mist 10 1019 93 1800 1.5 130 15:18 30.11.2019
3244 Mist 10 1019 93 1800 1.5 180 14:54 30.11.2019
3245 Mist 10 1019 93 1800 1.5 180 14:36 30.11.2019
3246 Mist 10 1018 100 2500 1.5 150 14:18 30.11.2019
3247 Mist 11 1018 100 3500 1.5 140 13:42 30.11.2019
3248 Mist 11 1019 100 2500 1.5 140 13:24 30.11.2019
3249 Clear 12 1018 76 10000 2.6 150 12:47 30.11.2019
3250 Clear 12 1018 76 10000 2.6 150 12:29 30.11.2019
3251 Clear 11 1018 76 10000 1 0 11:59 30.11.2019
3252 Clear 11 1018 76 10000 1 0 11:41 30.11.2019
3253 Fog 8 1019 93 150 2.1 90 11:19 30.11.2019
3254 Fog 8 1018 100 200 2.6 90 10:54 30.11.2019
3255 Fog 5 1018 100 200 2.6 90 10:36 30.11.2019
3256 Fog 6 1018 100 200 2.1 80 10:18 30.11.2019
3257 Fog 6 1018 100 200 1.5 60 09:42 30.11.2019
3258 Fog 5 1017 93 4000 1 0 09:20 30.11.2019
3259 Clear 4 1017 100 6000 2.6 270 08:42 30.11.2019
3260 Fog 3 1016 93 1000 2.1 180 08:19 30.11.2019
3261 Clear 3 1016 100 10000 1.5 180 07:44 30.11.2019
3262 Clear 3 1016 100 10000 1.5 180 07:26 30.11.2019
3263 Clear 3 1015 100 10000 1 0 06:49 30.11.2019
3264 Mist 3 1015 100 5000 2.1 260 06:28 30.11.2019
3265 Clear 3 1015 100 10000 1 0 06:28 30.11.2019
3266 Fog 3 1015 93 300 1.5 220 05:33 30.11.2019
3267 Fog 3 1015 100 250 1.5 250 03:40 30.11.2019
3268 Fog 3 1014 93 250 1.5 240 02:39 30.11.2019
3269 Fog 4 1014 100 250 1.5 250 02:20 30.11.2019
3270 Fog 4 1014 100 250 1 0 01:25 30.11.2019
3271 Fog 4 1014 100 250 1.5 280 00:47 30.11.2019
3272 Fog 4 1014 100 250 1.5 280 00:28 30.11.2019
3273 Fog 4 1013 100 250 2.1 240 23:55 29.11.2019
3274 Fog 4 1013 100 250 2.1 240 23:37 29.11.2019
3275 Fog 5 1013 100 250 2.1 240 23:18 29.11.2019
3276 Fog 5 1013 93 100 2.6 220 22:39 29.11.2019
3277 Fog 5 1012 93 100 1 0 22:21 29.11.2019
3278 Fog 5 1012 100 100 1.5 280 21:42 29.11.2019
3279 Fog 5 1012 100 100 1.5 180 21:22 29.11.2019
3280 Fog 6 1012 100 100 1.5 280 20:57 29.11.2019
3281 Fog 6 1012 100 100 1.5 280 20:37 29.11.2019
3282 Fog 6 1012 93 100 0.5 0 20:19 29.11.2019
3283 Fog 6 1012 93 100 0.5 0 19:56 29.11.2019
3284 Fog 6 1011 100 200 0.5 0 19:38 29.11.2019
3285 Fog 6 1011 100 50 2.1 40 19:19 29.11.2019
3286 Fog 6 1011 93 200 1 0 18:42 29.11.2019
3287 Fog 6 1011 93 200 1 0 18:42 29.11.2019
3288 Fog 7 1011 93 200 1 0 18:24 29.11.2019
3289 Fog 7 1011 100 200 1 0 18:00 29.11.2019
3290 Fog 7 1010 100 200 1 0 17:41 29.11.2019
3291 Fog 8 1010 100 200 2.1 230 17:22 29.11.2019
3292 Fog 8 1010 100 200 1.5 230 16:44 29.11.2019
3293 Fog 9 1009 100 200 1.5 240 16:21 29.11.2019
3294 Fog 9 1009 93 500 2.1 230 15:57 29.11.2019
3295 Fog 9 1009 93 500 2.1 230 15:39 29.11.2019
3296 Fog 10 1009 93 500 2.6 210 15:21 29.11.2019
3297 Mist 10 1009 93 2000 2.6 180 14:40 29.11.2019
3298 Mist 10 1009 93 3000 1.5 150 14:22 29.11.2019
3299 Mist 10 1009 87 3000 2.6 200 13:57 29.11.2019
3300 Mist 10 1009 87 3000 2.6 200 13:38 29.11.2019
3301 Mist 10 1009 93 3000 1 0 13:19 29.11.2019
3302 Mist 10 1009 93 2000 1.5 160 12:43 29.11.2019
3303 Mist 10 1009 93 2000 1.5 160 12:25 29.11.2019
3304 Mist 10 1009 93 5000 2.1 160 11:56 29.11.2019
3305 Mist 10 1009 93 5000 2.1 160 11:56 29.11.2019
3306 Mist 10 1009 93 5000 2.1 160 11:38 29.11.2019
3307 Clouds 8 1009 87 10000 1.5 170 11:19 29.11.2019
3308 Clouds 8 1009 87 10000 1.5 170 10:57 29.11.2019
3309 Clouds 8 1009 87 10000 2.1 80 10:39 29.11.2019
3310 Clouds 7 1009 100 6000 0.5 0 10:20 29.11.2019
3311 Clouds 7 1009 100 6000 0.5 0 09:57 29.11.2019
3312 Clouds 6 1008 100 6000 1 0 09:57 29.11.2019
3313 Clouds 6 1008 100 6000 1 0 09:38 29.11.2019
3314 Mist 6 1008 100 3000 1 0 09:20 29.11.2019
3315 Fog 5 1008 93 400 1 0 08:55 29.11.2019
3316 Fog 4 1008 93 400 1 0 08:36 29.11.2019
3317 Fog 4 1007 100 150 1 0 08:18 29.11.2019
3318 Fog 4 1007 100 150 1 0 07:41 29.11.2019
3319 Fog 4 1007 100 300 0.5 0 07:23 29.11.2019
3320 Fog 4 1007 100 300 1 70 06:46 29.11.2019
3321 Fog 4 1007 100 300 1 70 06:27 29.11.2019
3322 Fog 4 1007 93 300 1 0 05:32 29.11.2019
3323 Fog 4 1007 100 400 0.5 0 04:49 29.11.2019
3324 Fog 5 1007 100 3000 1.5 10 03:23 29.11.2019
3325 Rain 5 1007 100 2000 1.5 360 02:53 29.11.2019
3326 Rain 5 1007 100 2000 2.1 340 02:21 29.11.2019
3327 Fog 6 1007 100 3000 1 210 01:27 29.11.2019
3328 Clouds 6 1007 93 8000 2.1 190 00:51 29.11.2019
3329 Clouds 6 1006 93 10000 1 0 00:23 29.11.2019
3330 Clouds 6 1006 100 10000 1.5 270 23:58 28.11.2019
3331 Clouds 6 1006 100 10000 1.5 270 23:39 28.11.2019
3332 Clouds 6 1006 100 10000 1.5 260 23:20 28.11.2019
3333 Clouds 6 1006 100 10000 1.5 260 23:20 28.11.2019
3334 Clouds 6 1006 100 10000 1.5 260 23:20 28.11.2019
3335 Clouds 7 1006 93 10000 1.5 250 22:55 28.11.2019
3336 Clouds 7 1006 93 10000 1.5 250 22:36 28.11.2019
3337 Clouds 7 1006 93 10000 1.5 240 22:18 28.11.2019
3338 Clouds 7 1005 93 10000 1.5 260 21:42 28.11.2019
3339 Clouds 7 1005 87 10000 1.5 240 21:21 28.11.2019
3340 Clouds 7 1005 87 10000 1.5 240 20:58 28.11.2019
3341 Clouds 8 1005 93 10000 2.6 260 20:40 28.11.2019
3342 Clouds 8 1005 93 10000 2.1 260 20:21 28.11.2019
3343 Clouds 8 1004 93 10000 2.6 260 19:57 28.11.2019
3344 Clouds 8 1004 93 10000 2.6 260 19:37 28.11.2019
3345 Clouds 8 1004 93 10000 1 260 19:19 28.11.2019
3346 Clouds 8 1004 100 10000 2.1 290 18:57 28.11.2019
3347 Clouds 8 1004 100 10000 2.1 290 18:38 28.11.2019
3348 Clouds 9 1004 93 10000 2.6 250 18:18 28.11.2019
3349 Clouds 9 1004 93 10000 2.1 250 17:43 28.11.2019
3350 Clouds 10 1004 87 8000 2.1 230 17:25 28.11.2019
3351 Clouds 10 1004 87 8000 2.1 230 16:59 28.11.2019
3352 Clouds 11 1004 87 9000 1.5 220 16:40 28.11.2019
3353 Clouds 11 1004 93 9000 1.5 260 16:19 28.11.2019
3354 Clouds 11 1003 93 9000 2.1 240 15:57 28.11.2019
3355 Clouds 11 1003 93 9000 2.1 240 15:38 28.11.2019
3356 Clouds 11 1003 93 9000 2.1 240 15:38 28.11.2019
3357 Clouds 12 1003 93 8000 2.6 250 15:19 28.11.2019
3358 Clouds 11 1003 93 8000 2.6 250 14:57 28.11.2019
3359 Clouds 11 1003 93 8000 2.6 250 14:57 28.11.2019
3360 Clouds 11 1003 93 7000 1.5 230 14:38 28.11.2019
3361 Clouds 11 1003 87 7000 1 200 14:19 28.11.2019
3362 Mist 11 1003 87 5000 1 0 13:42 28.11.2019
3363 Mist 11 1004 93 5000 2.1 260 13:23 28.11.2019
3364 Mist 11 1004 87 5000 1 0 12:55 28.11.2019
3365 Mist 11 1004 87 5000 1 0 12:55 28.11.2019
3366 Mist 11 1004 87 5000 1 0 12:36 28.11.2019
3367 Mist 10 1004 93 5000 1.5 270 12:18 28.11.2019
3368 Mist 10 1004 93 5000 1.5 270 11:54 28.11.2019
3369 Clouds 10 1004 87 6000 2.1 250 11:36 28.11.2019
3370 Clouds 10 1005 93 6000 2.1 250 11:18 28.11.2019
3371 Clouds 9 1004 93 6000 1.5 290 10:41 28.11.2019
3372 Clouds 9 1004 93 6000 1.5 280 10:20 28.11.2019
3373 Mist 8 1004 93 5000 1 0 09:42 28.11.2019
3374 Mist 8 1004 93 5000 1 0 09:24 28.11.2019
3375 Clouds 8 1004 93 6000 2.1 210 08:59 28.11.2019
3376 Clouds 8 1004 93 6000 2.1 210 08:40 28.11.2019
3377 Clouds 8 1004 93 10000 1.5 170 08:21 28.11.2019
3378 Clouds 8 1004 100 10000 1 220 07:43 28.11.2019
3379 Clouds 8 1004 100 10000 0.5 0 07:25 28.11.2019
3380 -273 0 0 0 0 0 06:57 28.11.2019
3381 Clouds 8 1003 93 10000 0.5 0 06:36 28.11.2019
3382 Clouds 8 1003 93 10000 1.5 330 05:53 28.11.2019
3383 Clouds 8 1003 93 10000 2.1 10 05:18 28.11.2019
3384 Clouds 8 1003 93 10000 2.1 10 05:18 28.11.2019
3385 Clouds 8 1004 93 9000 1.5 240 02:51 28.11.2019
3386 Clouds 8 1004 93 9000 2.1 230 01:57 28.11.2019
3387 Clouds 9 1004 100 9000 1 0 00:49 28.11.2019
3388 Clouds 9 1004 100 7000 1 0 00:25 28.11.2019
3389 Clouds 9 1004 100 7000 1 0 23:56 27.11.2019
3390 Clouds 9 1004 100 7000 1.5 240 23:38 27.11.2019
3391 Mist 9 1004 100 5000 1.5 240 23:19 27.11.2019
3392 Mist 9 1004 100 5000 1.5 240 22:39 27.11.2019
3393 Mist 9 1004 100 5000 1 0 22:20 27.11.2019
3394 Mist 9 1004 100 5000 1 0 22:20 27.11.2019
3395 Mist 9 1004 100 5000 1 0 21:56 27.11.2019
3396 Mist 9 1004 100 5000 1 0 21:38 27.11.2019
3397 Mist 9 1004 100 4000 1.5 260 21:19 27.11.2019
3398 Drizzle 9 1004 100 2500 1 240 20:59 27.11.2019
3399 Drizzle 9 1004 100 2500 1 240 20:59 27.11.2019
3400 Drizzle 9 1004 100 2500 1 240 20:40 27.11.2019
3401 Drizzle 9 1004 100 2500 1 240 20:22 27.11.2019
3402 Drizzle 9 1004 100 2000 1.5 280 19:59 27.11.2019
3403 Drizzle 9 1004 100 2500 1.5 220 19:41 27.11.2019
3404 Drizzle 9 1004 100 3000 2.6 250 19:22 27.11.2019
3405 Drizzle 9 1003 100 3500 1.5 200 18:59 27.11.2019
3406 Drizzle 9 1003 100 3500 1.5 200 18:38 27.11.2019
3407 Drizzle 9 1003 100 3500 1.5 230 18:19 27.11.2019
3408 Rain 9 1003 93 8000 1.5 200 17:58 27.11.2019
3409 Rain 9 1003 93 8000 1.5 200 17:40 27.11.2019
3410 Clouds 9 1003 93 6000 1 0 17:21 27.11.2019
3411 Clouds 9 1003 93 6000 1 0 16:57 27.11.2019
3412 Rain 9 1003 93 4000 1 310 16:38 27.11.2019
3413 Drizzle 9 1003 93 4000 0.5 0 16:20 27.11.2019
3414 Drizzle 9 1003 93 4000 0.5 0 16:20 27.11.2019
3415 Drizzle 9 1003 93 3500 0.5 0 15:57 27.11.2019
3416 Drizzle 10 1003 93 3500 0.5 0 15:38 27.11.2019
3417 Drizzle 10 1002 93 4000 2.1 150 15:20 27.11.2019
3418 Drizzle 10 1002 93 4000 2.1 150 14:57 27.11.2019
3419 Rain 10 1002 93 7000 1.5 140 14:38 27.11.2019
3420 Rain 10 1002 93 7000 1.5 140 14:38 27.11.2019
3421 Rain 10 1002 93 9000 3.6 120 14:20 27.11.2019
3422 Rain 10 1002 93 9000 3.6 120 13:56 27.11.2019
3423 Rain 10 1002 100 4000 5.1 100 13:38 27.11.2019
3424 Rain 10 1004 93 2000 1.5 120 13:19 27.11.2019
3425 Rain 10 1004 93 2000 1.5 120 13:19 27.11.2019
3426 Rain 10 1004 93 2000 2.1 20 12:54 27.11.2019
3427 Rain 9 1004 93 2000 2.1 20 12:36 27.11.2019
3428 Rain 9 1004 93 2000 2.1 80 12:18 27.11.2019
3429 Rain 9 1004 93 2000 2.6 120 11:37 27.11.2019
3430 Rain 9 1004 93 2000 5.1 110 11:19 27.11.2019
3431 Rain 9 1004 93 2000 4.1 100 10:55 27.11.2019
3432 Rain 9 1004 93 2000 4.1 100 10:37 27.11.2019
3433 Rain 9 1004 93 2000 5.1 100 10:19 27.11.2019
3434 Rain 9 1004 93 2000 5.1 90 09:41 27.11.2019
3435 Rain 9 1004 93 2000 4.6 100 09:23 27.11.2019
3436 Rain 9 1005 93 2000 3.1 110 08:43 27.11.2019
3437 Rain 9 1005 93 2000 3.1 120 08:23 27.11.2019
3438 Rain 9 1005 93 6000 3.1 110 07:51 27.11.2019
3439 Rain 9 1006 93 7000 3.1 130 07:31 27.11.2019
3440 Rain 9 1006 93 8000 2.6 110 06:58 27.11.2019
3441 Rain 9 1006 93 8000 2.6 110 06:39 27.11.2019
3442 Rain 9 1006 93 10000 2.1 80 05:55 27.11.2019
3443 Rain 9 1007 100 8000 2.6 70 05:26 27.11.2019
3444 Rain 9 1007 100 8000 1.5 130 04:49 27.11.2019
3445 Rain 9 1008 100 10000 1 0 04:31 27.11.2019
3446 Clouds 9 1008 93 10000 1 0 03:45 27.11.2019
3447 Clouds 9 1008 100 10000 1.5 90 03:20 27.11.2019
3448 Clouds 9 1008 100 10000 1 0 02:34 27.11.2019
3449 Clouds 9 1009 87 10000 2.6 110 00:55 27.11.2019
3450 Clouds 9 1009 87 10000 2.6 110 00:37 27.11.2019
3451 Clouds 9 1010 93 10000 1 110 00:19 27.11.2019
3452 Clouds 9 1010 93 10000 0.5 0 23:42 26.11.2019
3453 Clouds 9 1010 93 10000 0.5 0 23:23 26.11.2019
3454 Clouds 9 1010 93 10000 1 70 22:40 26.11.2019
3455 Clouds 9 1010 87 10000 1 0 22:20 26.11.2019
3456 Clouds 9 1010 87 10000 1 0 21:59 26.11.2019
3457 Clouds 9 1010 93 10000 0.5 0 21:39 26.11.2019
3458 Clouds 9 1010 93 10000 1 0 21:21 26.11.2019
3459 Clouds 9 1010 93 10000 1 360 20:57 26.11.2019
3460 Clouds 9 1010 93 10000 1 360 20:38 26.11.2019
3461 Clouds 9 1010 93 10000 1 350 20:19 26.11.2019
3462 Clouds 9 1010 93 10000 1 350 20:19 26.11.2019
3463 Clouds 9 1009 93 10000 0.5 0 19:56 26.11.2019
3464 Clouds 9 1009 93 10000 0.5 0 19:56 26.11.2019
3465 Clouds 9 1009 93 10000 0.5 0 19:38 26.11.2019
3466 Clouds 9 1010 93 10000 1 290 19:19 26.11.2019
3467 Clouds 10 1009 100 10000 1.5 190 18:57 26.11.2019
3468 Clouds 10 1009 93 10000 0.5 0 18:39 26.11.2019
3469 Clouds 10 1009 93 10000 0.5 0 18:21 26.11.2019
3470 Clouds 11 1009 93 10000 1 170 17:58 26.11.2019
3471 Clouds 11 1009 93 10000 1 170 17:39 26.11.2019
3472 Clouds 11 1009 87 10000 1 0 17:21 26.11.2019
3473 Clouds 12 1009 87 10000 1 0 16:57 26.11.2019
3474 Clouds 12 1009 87 10000 1 0 16:37 26.11.2019
3475 Clouds 12 1009 87 10000 1 0 16:18 26.11.2019
3476 Clouds 12 1009 82 10000 1 0 15:58 26.11.2019
3477 Clouds 12 1009 82 10000 1 0 15:37 26.11.2019
3478 Clouds 13 1009 82 10000 1.5 70 15:19 26.11.2019
3479 Clouds 13 1009 82 10000 1 0 14:46 26.11.2019
3480 Clouds 13 1009 87 10000 1 0 14:25 26.11.2019
3481 Clouds 13 1009 87 10000 1 0 13:56 26.11.2019
3482 Clouds 13 1009 87 10000 1.5 110 13:37 26.11.2019
3483 Clouds 13 1009 87 10000 1 0 13:18 26.11.2019
3484 Clouds 12 1009 87 10000 1.5 110 12:38 26.11.2019
3485 Clouds 12 1009 81 10000 1.5 100 12:19 26.11.2019
3486 Clouds 12 1010 87 10000 0.5 0 11:56 26.11.2019
3487 Clouds 12 1010 87 10000 0.5 0 11:38 26.11.2019
3488 Clouds 11 1010 87 10000 1 0 11:19 26.11.2019
3489 Clouds 11 1010 87 10000 1 0 11:19 26.11.2019
3490 Clouds 11 1010 93 10000 0.5 0 10:57 26.11.2019
3491 Clouds 10 1010 93 10000 0.5 0 10:38 26.11.2019
3492 Clouds 10 1009 100 10000 0.5 0 10:20 26.11.2019
3493 Clouds 9 1009 100 10000 0.5 0 09:43 26.11.2019
3494 Clouds 8 1009 100 10000 1 190 09:25 26.11.2019
3495 Clouds 8 1009 100 10000 1 190 08:58 26.11.2019
3496 Fog 7 1009 100 8000 1 250 08:38 26.11.2019
3497 Fog 7 1008 100 1500 0.5 0 08:18 26.11.2019
3498 Fog 7 1008 100 400 1.5 210 07:43 26.11.2019
3499 Rain 7 1008 100 100 0.5 0 07:24 26.11.2019
3500 Fog 7 1008 100 150 0.5 0 06:53 26.11.2019
3501 Fog 7 1008 100 150 0.82 19 05:59 26.11.2019
3502 Fog 7 1008 100 100 0.82 19 05:32 26.11.2019
3503 Fog 7 1008 100 100 0.5 0 03:22 26.11.2019
3504 Fog 8 1008 100 350 2.6 220 01:42 26.11.2019
3505 Fog 8 1008 100 100 0.5 0 01:23 26.11.2019
3506 Fog 8 1009 100 300 1 0 00:47 26.11.2019
3507 Fog 8 1009 100 150 1 240 00:20 26.11.2019
3508 Fog 9 1009 100 400 1 0 23:39 25.11.2019
3509 Clouds 9 1009 100 10000 1 0 23:19 25.11.2019
3510 Clouds 9 1009 100 10000 1.5 270 22:54 25.11.2019
3511 Clouds 9 1009 100 10000 1.5 270 22:36 25.11.2019
3512 Clouds 9 1009 93 10000 2.1 260 22:18 25.11.2019
3513 Clouds 10 1009 100 10000 2.1 250 21:42 25.11.2019
3514 Clouds 10 1009 93 10000 2.1 260 21:23 25.11.2019
3515 Clouds 10 1009 93 10000 2.1 260 20:58 25.11.2019
3516 Clouds 10 1009 93 10000 2.1 250 20:40 25.11.2019
3517 Clouds 10 1009 93 10000 1.5 280 20:20 25.11.2019
3518 Clouds 10 1009 93 10000 1.5 280 19:57 25.11.2019
3519 Clouds 11 1009 87 10000 2.1 260 19:39 25.11.2019
3520 Clouds 11 1009 93 10000 1.5 250 19:20 25.11.2019
3521 Clouds 11 1009 93 10000 1.5 250 18:59 25.11.2019
3522 Clouds 12 1008 87 10000 2.1 250 18:41 25.11.2019
3523 Clouds 12 1008 87 10000 2.1 250 18:23 25.11.2019
3524 Clouds 13 1008 82 10000 2.6 240 17:58 25.11.2019
3525 Clouds 13 1008 82 10000 2.6 240 17:40 25.11.2019
3526 Clouds 14 1008 77 10000 2.6 250 17:22 25.11.2019
3527 Clouds 14 1008 77 10000 2.6 250 16:59 25.11.2019
3528 Clouds 14 1008 77 10000 2.6 250 16:59 25.11.2019
3529 Clear 14 1008 72 10000 3.1 250 16:41 25.11.2019
3530 Clear 15 1008 72 10000 3.1 250 16:22 25.11.2019
3531 Clear 15 1008 63 10000 2.6 240 15:56 25.11.2019
3532 Clear 16 1008 63 10000 2.6 240 15:37 25.11.2019
3533 Clear 16 1008 55 10000 2.1 230 15:19 25.11.2019
3534 Clear 16 1008 55 10000 2.1 230 15:19 25.11.2019
3535 Clear 16 1008 55 10000 1 0 14:54 25.11.2019
3536 Clear 16 1008 55 10000 1 0 14:36 25.11.2019
3537 Clouds 16 1008 59 10000 1.5 270 14:18 25.11.2019
3538 Clouds 16 1008 59 10000 1.5 310 13:39 25.11.2019
3539 Clouds 16 1009 63 10000 0.5 0 13:20 25.11.2019
3540 Clouds 16 1009 67 10000 1.5 360 12:59 25.11.2019
3541 Clouds 16 1009 63 10000 0.5 0 12:59 25.11.2019
3542 Clouds 16 1009 67 10000 1.5 360 12:39 25.11.2019
3543 Clouds 16 1009 67 10000 2.1 10 12:19 25.11.2019
3544 Clouds 15 1009 77 10000 2.1 350 11:40 25.11.2019
3545 Clouds 14 1010 82 10000 2.6 350 11:21 25.11.2019
3546 Clouds 14 1010 82 10000 2.6 350 10:59 25.11.2019
3547 Clouds 13 1010 76 10000 1 0 10:41 25.11.2019
3548 Clouds 13 1010 76 10000 1 0 10:41 25.11.2019
3549 Clouds 13 1010 87 10000 1 0 10:19 25.11.2019
3550 Clouds 12 1010 93 10000 1 0 09:44 25.11.2019
3551 Clouds 12 1010 87 10000 1.5 170 09:26 25.11.2019
3552 Clouds 11 1010 87 10000 1.5 170 08:57 25.11.2019
3553 Clouds 11 1010 87 10000 1 0 08:38 25.11.2019
3554 Clouds 11 1009 87 10000 1 0 08:18 25.11.2019
3555 Clouds 11 1009 87 10000 1.5 320 07:39 25.11.2019
3556 Clouds 11 1009 93 10000 4.1 360 07:18 25.11.2019
3557 Clouds 11 1008 87 10000 1.5 310 06:39 25.11.2019
3558 Clouds 11 1008 87 10000 3.6 360 06:19 25.11.2019
3559 Clouds 11 1008 87 10000 2.6 10 05:33 25.11.2019
3560 Clouds 11 1009 87 10000 1.5 350 04:50 25.11.2019
3561 Clouds 11 1009 87 10000 3.1 0 02:45 25.11.2019
3562 Clouds 11 1008 93 10000 2.1 10 01:56 25.11.2019
3563 Clouds 11 1008 93 10000 2.6 360 01:36 25.11.2019
3564 Clouds 11 1008 93 10000 2.6 360 01:18 25.11.2019
3565 Rain 11 1008 93 10000 2.6 360 00:21 25.11.2019
3566 Rain 11 1009 93 10000 1.5 20 23:45 24.11.2019
3567 Rain 11 1009 93 10000 1.5 20 23:45 24.11.2019
3568 Rain 11 1008 93 10000 2.1 330 23:21 24.11.2019
3569 Rain 11 1009 100 10000 1.5 340 22:58 24.11.2019
3570 Rain 11 1009 100 10000 1.5 340 22:39 24.11.2019
3571 Rain 11 1009 93 10000 0.5 0 22:20 24.11.2019
3572 Rain 11 1009 93 10000 0.5 0 21:57 24.11.2019
3573 Rain 11 1008 93 10000 1 0 21:39 24.11.2019
3574 Rain 11 1008 93 10000 1.5 350 21:20 24.11.2019
3575 Rain 11 1008 93 10000 1 320 20:58 24.11.2019
3576 Rain 11 1008 93 10000 1 320 20:38 24.11.2019
3577 Rain 11 1008 93 10000 1.5 20 20:18 24.11.2019
3578 Rain 11 1007 93 10000 2.1 340 19:56 24.11.2019
3579 Rain 11 1007 93 10000 2.1 340 19:56 24.11.2019
3580 Rain 11 1007 93 10000 2.1 340 19:38 24.11.2019
3581 Rain 11 1007 93 10000 1 0 19:19 24.11.2019
3582 Rain 11 1007 93 10000 1.5 350 18:57 24.11.2019
3583 Rain 11 1007 93 10000 1.5 350 18:37 24.11.2019
3584 Rain 11 1007 93 10000 2.1 340 18:19 24.11.2019
3585 Rain 11 1007 93 10000 1.5 350 17:55 24.11.2019
3586 Rain 11 1007 93 10000 1.5 350 17:37 24.11.2019
3587 Rain 11 1006 93 10000 2.6 350 17:19 24.11.2019
3588 Rain 11 1006 93 10000 3.1 350 16:54 24.11.2019
3589 Rain 11 1006 93 10000 3.1 350 16:36 24.11.2019
3590 Rain 11 1006 93 10000 3.1 360 16:18 24.11.2019
3591 Rain 11 1006 93 8000 3.6 340 15:43 24.11.2019
3592 Rain 11 1006 93 9000 3.1 360 15:24 24.11.2019
3593 Rain 11 1006 93 9000 3.1 360 14:57 24.11.2019
3594 Rain 11 1006 93 9000 2.6 330 14:38 24.11.2019
3595 Rain 11 1006 93 9000 2.6 330 14:38 24.11.2019
3596 Rain 11 1006 93 6000 2.1 310 14:18 24.11.2019
3597 Rain 11 1006 93 5000 3.1 330 13:40 24.11.2019
3598 Rain 11 1006 93 6000 2.6 330 13:22 24.11.2019
3599 Rain 11 1006 93 6000 2.6 330 12:58 24.11.2019
3600 Rain 11 1006 93 10000 2.6 320 12:39 24.11.2019
3601 Rain 11 1007 93 10000 3.1 340 12:18 24.11.2019
3602 Rain 11 1007 93 10000 3.6 340 11:55 24.11.2019
3603 Rain 11 1007 93 10000 3.6 340 11:36 24.11.2019
3604 Rain 11 1007 87 10000 3.6 20 11:18 24.11.2019
3605 Rain 11 1006 87 10000 2.6 10 10:45 24.11.2019
3606 Rain 11 1006 82 10000 4.1 50 10:27 24.11.2019
3607 Clouds 10 1006 76 10000 3.6 60 09:55 24.11.2019
3608 Clouds 10 1006 76 10000 3.6 60 09:36 24.11.2019
3609 Clouds 10 1006 71 10000 3.1 50 09:18 24.11.2019
3610 Clouds 10 1005 81 10000 3.1 20 08:43 24.11.2019
3611 Rain 10 1005 76 10000 3.6 40 08:21 24.11.2019
3612 Rain 10 1005 76 10000 4.1 50 07:53 24.11.2019
3613 Rain 10 1005 76 10000 4.1 50 07:34 24.11.2019
3614 Rain 10 1004 81 10000 3.6 60 06:57 24.11.2019
3615 Rain 10 1004 81 10000 4.6 70 05:59 24.11.2019
3616 Rain 10 1004 81 10000 4.6 70 05:59 24.11.2019
3617 Rain 10 1004 87 10000 5.1 80 04:47 24.11.2019
3618 Rain 11 1003 76 10000 6.7 90 02:50 24.11.2019
3619 Rain 11 1003 76 10000 6.7 90 02:50 24.11.2019
3620 Rain 11 1003 67 10000 9.3 90 01:58 24.11.2019
3621 Rain 12 1003 67 10000 8.2 90 01:39 24.11.2019
3622 Rain 12 1003 67 10000 8.2 90 01:20 24.11.2019
3623 Clouds 12 1004 71 10000 9.3 90 00:45 24.11.2019
3624 Clouds 12 1004 71 10000 9.3 90 00:22 24.11.2019
3625 Clouds 12 1003 71 10000 9.8 100 23:44 23.11.2019
3626 Clouds 12 1003 76 10000 8.7 100 23:21 23.11.2019
3627 Rain 12 1003 76 10000 8.7 100 22:57 23.11.2019
3628 Drizzle 11 1003 76 10000 8.7 90 22:38 23.11.2019
3629 Drizzle 11 1003 76 10000 8.7 90 22:38 23.11.2019
3630 Drizzle 11 1003 76 10000 8.7 90 22:38 23.11.2019
3631 Drizzle 11 1003 76 10000 8.2 100 22:20 23.11.2019
3632 Drizzle 11 1003 76 10000 8.2 100 21:57 23.11.2019
3633 Drizzle 11 1003 82 10000 8.2 90 21:39 23.11.2019
3634 Drizzle 11 1004 82 10000 6.2 90 21:21 23.11.2019
3635 Drizzle 11 1004 82 10000 6.2 90 21:21 23.11.2019
3636 Drizzle 11 1004 87 10000 3.1 60 20:40 23.11.2019
3637 Drizzle 11 1004 87 10000 2.1 80 20:21 23.11.2019
3638 Drizzle 11 1004 87 10000 2.1 80 19:58 23.11.2019
3639 Drizzle 11 1004 87 10000 2.6 80 19:39 23.11.2019
3640 Rain 11 1004 87 10000 4.1 80 19:19 23.11.2019
3641 Rain 11 1003 81 10000 5.1 80 18:59 23.11.2019
3642 Rain 11 1003 81 10000 5.1 80 18:39 23.11.2019
3643 Rain 11 1003 81 10000 5.1 110 18:19 23.11.2019
3644 Rain 11 1003 87 10000 5.1 110 17:45 23.11.2019
3645 Rain 11 1003 81 10000 6.7 100 17:23 23.11.2019
3646 Rain 11 1003 81 10000 6.7 100 17:23 23.11.2019
3647 Rain 11 1003 87 10000 7.2 90 16:57 23.11.2019
3648 Rain 11 1003 87 10000 7.2 90 16:39 23.11.2019
3649 Rain 11 1003 87 10000 7.2 90 16:39 23.11.2019
3650 Rain 11 1003 87 10000 7.7 100 16:21 23.11.2019
3651 Rain 11 1003 87 10000 7.7 100 15:59 23.11.2019
3652 Rain 11 1003 87 10000 7.7 100 15:59 23.11.2019
3653 Drizzle 11 1003 87 10000 8.2 100 15:39 23.11.2019
3654 Rain 11 1003 81 6000 7.7 100 15:19 23.11.2019
3655 Rain 11 1003 87 6000 8.7 100 14:57 23.11.2019
3656 Rain 11 1003 87 6000 8.7 100 14:39 23.11.2019
3657 Rain 11 1004 87 6000 7.7 100 14:20 23.11.2019
3658 Rain 11 1004 87 6000 7.7 100 13:54 23.11.2019
3659 Rain 11 1004 87 6000 7.7 100 13:54 23.11.2019
3660 Rain 11 1004 87 6000 7.7 100 13:36 23.11.2019
3661 Rain 11 1004 87 5000 8.7 100 13:18 23.11.2019
3662 Rain 11 1004 87 5000 8.7 100 13:18 23.11.2019
3663 Rain 11 1005 87 5000 8.2 110 12:41 23.11.2019
3664 Rain 11 1005 81 6000 7.7 110 12:22 23.11.2019
3665 Drizzle 11 1005 76 10000 8.2 110 11:43 23.11.2019
3666 Drizzle 11 1005 76 10000 8.2 110 11:21 23.11.2019
3667 Rain 11 1005 76 10000 8.7 110 10:45 23.11.2019
3668 Rain 11 1006 76 10000 8.2 110 10:22 23.11.2019
3669 Rain 10 1006 81 10000 8.2 110 09:43 23.11.2019
3670 Rain 10 1006 81 10000 8.2 110 09:21 23.11.2019
3671 Rain 10 1006 81 10000 7.7 110 08:56 23.11.2019
3672 Rain 10 1006 81 10000 7.7 110 08:37 23.11.2019
3673 Rain 10 1006 81 10000 7.7 110 08:18 23.11.2019
3674 Rain 10 1006 81 10000 8.2 110 07:39 23.11.2019
3675 Rain 9 1006 87 10000 3.1 80 06:50 23.11.2019
3676 Rain 9 1007 93 10000 2.1 20 06:23 23.11.2019
3677 Rain 9 1007 93 10000 1 0 05:53 23.11.2019
3678 Rain 9 1007 93 10000 2.1 90 05:31 23.11.2019
3679 Rain 9 1007 93 10000 2.1 60 04:50 23.11.2019
3680 Rain 9 1007 93 10000 2.1 60 04:29 23.11.2019
3681 Rain 9 1009 93 10000 1.5 100 03:20 23.11.2019
3682 Rain 9 1009 93 10000 2.6 100 02:24 23.11.2019
3683 Rain 9 1009 93 10000 1.5 90 01:38 23.11.2019
3684 Rain 9 1010 93 10000 3.1 110 00:43 23.11.2019
3685 Rain 9 1010 93 10000 3.1 110 00:18 23.11.2019
3686 Rain 9 1010 87 10000 3.6 100 23:42 22.11.2019
3687 Rain 9 1011 87 10000 3.1 100 23:21 22.11.2019
3688 Clouds 9 1011 87 10000 3.1 90 22:58 22.11.2019
3689 Clouds 9 1011 87 10000 3.1 90 22:38 22.11.2019
3690 Clouds 9 1011 87 10000 3.1 90 22:38 22.11.2019
3691 Clouds 9 1011 87 10000 3.1 90 22:38 22.11.2019
3692 Clouds 9 1011 87 10000 3.6 90 22:20 22.11.2019
3693 Rain 9 1011 93 6000 3.1 100 21:58 22.11.2019
3694 Rain 9 1011 93 6000 3.1 100 21:39 22.11.2019
3695 Clouds 9 1011 93 6000 2.1 100 21:20 22.11.2019
3696 Rain 9 1011 93 4000 2.1 120 20:43 22.11.2019
3697 Rain 9 1011 93 4000 2.1 120 20:22 22.11.2019
3698 Rain 9 1011 93 4000 2.1 120 19:57 22.11.2019
3699 Rain 9 1011 93 5000 1.5 120 19:37 22.11.2019
3700 Rain 9 1011 93 6000 1.5 150 19:19 22.11.2019
3701 Rain 9 1011 93 3000 2.1 140 18:40 22.11.2019
3702 Rain 9 1011 93 6000 2.1 130 18:21 22.11.2019
3703 Rain 9 1011 93 2000 2.1 150 17:58 22.11.2019
3704 Rain 9 1011 93 2000 2.1 150 17:40 22.11.2019
3705 Rain 9 1011 93 1500 1.5 150 17:21 22.11.2019
3706 Rain 9 1011 93 2000 2.1 150 16:42 22.11.2019
3707 Rain 9 1011 93 2000 2.1 150 16:24 22.11.2019
3708 Rain 9 1011 93 3000 2.6 130 15:45 22.11.2019
3709 Rain 9 1011 93 3000 2.6 130 15:24 22.11.2019
3710 Rain 9 1011 100 3000 2.6 120 15:24 22.11.2019
3711 Rain 9 1011 100 3000 2.6 120 14:56 22.11.2019
3712 Rain 9 1012 93 3000 3.1 130 14:38 22.11.2019
3713 Rain 9 1012 93 2500 4.6 120 14:19 22.11.2019
3714 Rain 9 1012 93 2500 4.6 120 13:57 22.11.2019
3715 Rain 9 1012 100 2500 3.1 130 13:37 22.11.2019
3716 Rain 9 1012 93 3000 2.6 130 13:18 22.11.2019
3717 Rain 9 1012 93 3000 2.6 130 12:55 22.11.2019
3718 Rain 9 1012 93 3000 2.6 120 12:36 22.11.2019
3719 Rain 9 1012 93 2500 2.6 130 12:18 22.11.2019
3720 Rain 9 1013 93 2500 4.1 110 11:40 22.11.2019
3721 Rain 9 1013 93 2500 4.1 130 11:22 22.11.2019
3722 Rain 9 1013 93 2500 4.1 130 10:59 22.11.2019
3723 Rain 9 1013 93 2500 3.6 130 10:40 22.11.2019
3724 Rain 9 1013 93 2500 3.6 130 10:40 22.11.2019
3725 Rain 9 1013 93 2500 3.6 130 10:22 22.11.2019
3726 Rain 9 1013 93 2500 3.6 130 09:56 22.11.2019
3727 Rain 9 1013 93 2500 4.1 120 09:37 22.11.2019
3728 Rain 9 1013 93 2500 3.1 120 09:19 22.11.2019
3729 Rain 9 1012 93 2500 3.6 110 08:45 22.11.2019
3730 Rain 9 1012 93 2500 3.6 110 08:26 22.11.2019
3731 Rain 9 1012 93 4000 2.6 110 07:45 22.11.2019
3732 -273 0 0 0 0 0 07:23 22.11.2019
3733 Rain 9 1012 93 4000 3.1 100 06:49 22.11.2019
3734 Rain 9 1012 93 4000 3.1 100 06:30 22.11.2019
3735 Rain 9 1012 93 4000 4.1 110 05:49 22.11.2019
3736 Mist 9 1012 93 4000 3.1 120 04:50 22.11.2019
3737 Clouds 9 1012 93 7000 3.6 120 02:53 22.11.2019
3738 Clouds 9 1012 93 7000 3.6 120 02:31 22.11.2019
3739 Rain 9 1012 93 7000 3.1 90 01:45 22.11.2019
3740 Rain 9 1012 93 7000 2.6 90 01:20 22.11.2019
3741 Rain 9 1012 93 5000 2.6 80 00:50 22.11.2019
3742 Rain 9 1013 93 5000 2.6 80 00:24 22.11.2019
3743 Rain 9 1013 93 5000 2.6 90 23:49 21.11.2019
3744 Rain 9 1013 93 7000 3.1 80 23:30 21.11.2019
3745 Rain 9 1013 93 7000 3.1 80 22:59 21.11.2019
3746 Rain 9 1013 93 7000 2.6 80 22:39 21.11.2019
3747 Rain 9 1013 93 7000 2.6 80 22:39 21.11.2019
3748 Rain 9 1013 93 7000 2.1 80 22:21 21.11.2019
3749 Rain 9 1013 93 7000 2.1 80 21:56 21.11.2019
3750 Clouds 9 1013 93 7000 2.6 80 21:37 21.11.2019
3751 Clouds 9 1013 93 7000 2.1 80 21:19 21.11.2019
3752 Clouds 9 1013 93 7000 2.1 80 20:58 21.11.2019
3753 Clouds 9 1013 93 7000 1.5 40 20:38 21.11.2019
3754 Rain 9 1012 93 7000 2.1 50 20:19 21.11.2019
3755 Rain 9 1012 93 7000 2.1 50 20:19 21.11.2019
3756 Rain 9 1012 93 7000 2.1 50 19:59 21.11.2019
3757 Rain 9 1012 93 7000 1.5 60 19:39 21.11.2019
3758 Rain 9 1012 93 7000 1.5 60 19:39 21.11.2019
3759 Rain 9 1012 93 6000 1.5 50 19:21 21.11.2019
3760 Rain 9 1012 93 7000 1 0 18:56 21.11.2019
3761 Rain 9 1012 93 6000 1.5 50 18:56 21.11.2019
3762 Rain 10 1012 93 7000 1 0 18:37 21.11.2019
3763 Rain 10 1012 93 7000 1 60 18:18 21.11.2019
3764 Rain 10 1012 93 6000 2.1 90 17:41 21.11.2019
3765 Mist 10 1012 93 5000 2.6 140 17:22 21.11.2019
3766 Mist 10 1012 93 5000 2.6 140 16:59 21.11.2019
3767 Clouds 10 1012 87 6000 2.6 130 16:40 21.11.2019
3768 Clouds 10 1011 87 7000 2.1 110 16:21 21.11.2019
3769 Clouds 11 1011 87 7000 2.1 110 15:56 21.11.2019
3770 Clouds 11 1011 87 6000 2.1 70 15:37 21.11.2019
3771 Mist 11 1011 87 5000 3.1 130 15:19 21.11.2019
3772 Rain 11 1011 87 5000 2.1 70 14:39 21.11.2019
3773 Rain 11 1012 87 5000 1 0 14:21 21.11.2019
3774 Rain 11 1012 81 5000 1.5 120 13:59 21.11.2019
3775 Rain 11 1012 81 5000 1.5 120 13:38 21.11.2019
3776 Mist 11 1012 87 5000 2.6 100 13:19 21.11.2019
3777 Mist 11 1012 87 5000 2.6 100 13:19 21.11.2019
3778 Mist 11 1012 87 5000 2.6 90 12:43 21.11.2019
3779 Mist 10 1013 87 5000 3.1 110 12:25 21.11.2019
3780 Mist 10 1013 87 5000 3.1 110 11:59 21.11.2019
3781 Mist 10 1013 87 5000 3.1 90 11:40 21.11.2019
3782 Mist 10 1013 87 5000 3.6 110 11:21 21.11.2019
3783 Mist 10 1013 87 5000 3.6 110 11:21 21.11.2019
3784 Mist 10 1013 87 5000 3.6 110 10:55 21.11.2019
3785 Mist 9 1013 87 5000 3.1 120 10:37 21.11.2019
3786 Mist 9 1013 87 5000 3.1 120 10:37 21.11.2019
3787 Mist 9 1013 87 5000 2.6 90 10:19 21.11.2019
3788 Mist 9 1012 93 5000 1.5 80 09:43 21.11.2019
3789 Mist 9 1012 87 5000 2.6 110 09:23 21.11.2019
3790 Mist 9 1012 87 5000 2.6 110 08:55 21.11.2019
3791 Mist 8 1012 87 3000 1.5 70 08:37 21.11.2019
3792 Mist 8 1012 93 3000 1.5 60 08:18 21.11.2019
3793 Mist 8 1012 93 4000 2.1 90 07:39 21.11.2019
3794 Mist 8 1011 93 4000 1 0 07:18 21.11.2019
3795 Mist 8 1011 93 5000 0.5 0 06:45 21.11.2019
3796 Clouds 8 1011 93 6000 1 0 06:24 21.11.2019
3797 Clouds 8 1012 93 6000 1.5 160 05:27 21.11.2019
3798 Clouds 9 1011 100 6000 0.5 200 03:31 21.11.2019
3799 Clouds 9 1012 93 6000 0.5 200 02:40 21.11.2019
3800 Clouds 9 1012 100 6000 0.5 210 01:52 21.11.2019
3801 Clouds 9 1012 93 6000 0.5 0 01:23 21.11.2019
3802 Clouds 9 1012 93 6000 1 250 00:47 21.11.2019
3803 Clouds 9 1012 93 6000 1 240 00:20 21.11.2019
3804 Clouds 9 1012 93 6000 1 240 00:20 21.11.2019
3805 Clouds 9 1012 93 6000 1 0 23:51 20.11.2019
3806 Clouds 9 1012 93 8000 1 0 23:23 20.11.2019
3807 Clouds 9 1012 93 8000 1 0 22:58 20.11.2019
3808 Clouds 9 1012 93 8000 1 0 22:40 20.11.2019
3809 Clouds 9 1012 93 8000 1 0 22:20 20.11.2019
3810 Clouds 9 1012 93 8000 1 0 21:58 20.11.2019
3811 Clouds 9 1012 100 8000 1 0 21:39 20.11.2019
3812 Clouds 9 1012 100 8000 1.5 260 21:21 20.11.2019
3813 Clouds 9 1012 100 7000 1.5 250 20:57 20.11.2019
3814 Clouds 9 1012 100 7000 1.5 250 20:39 20.11.2019
3815 Clouds 9 1012 100 9000 1.5 250 20:21 20.11.2019
3816 Clouds 9 1012 100 9000 1.5 250 19:57 20.11.2019
3817 Clouds 9 1012 100 9000 1.5 240 19:37 20.11.2019
3818 Clouds 9 1012 100 9000 1 250 19:19 20.11.2019
3819 Clouds 9 1012 100 9000 1 250 18:58 20.11.2019
3820 Clouds 9 1012 100 9000 1.5 260 18:39 20.11.2019
3821 Clouds 9 1012 100 9000 1.5 260 18:39 20.11.2019
3822 Clouds 9 1012 100 9000 1.5 260 18:21 20.11.2019
3823 Clouds 9 1012 93 9000 1.5 240 17:56 20.11.2019
3824 Clouds 9 1012 93 9000 1.5 240 17:56 20.11.2019
3825 Clouds 10 1012 93 9000 1.5 240 17:38 20.11.2019
3826 Clouds 10 1012 93 9000 1.5 240 17:38 20.11.2019
3827 Clouds 10 1012 93 9000 2.1 250 17:20 20.11.2019
3828 Clouds 10 1012 93 8000 3.1 220 16:55 20.11.2019
3829 Clouds 10 1012 93 8000 3.1 220 16:36 20.11.2019
3830 Clouds 11 1012 87 8000 1.5 220 16:18 20.11.2019
3831 Clouds 11 1012 87 8000 2.6 240 15:41 20.11.2019
3832 Clouds 11 1012 87 8000 2.6 240 15:41 20.11.2019
3833 Clouds 11 1012 87 6000 3.1 220 15:22 20.11.2019
3834 Clouds 11 1012 87 6000 3.1 220 14:59 20.11.2019
3835 Clouds 11 1012 87 6000 3.1 240 14:40 20.11.2019
3836 Clouds 11 1013 93 6000 2.6 240 14:21 20.11.2019
3837 Clouds 11 1013 93 6000 2.6 240 13:57 20.11.2019
3838 Mist 11 1013 93 5000 3.6 250 13:39 20.11.2019
3839 Mist 11 1013 93 5000 3.6 260 13:20 20.11.2019
3840 Mist 11 1013 93 3000 3.1 270 12:44 20.11.2019
3841 Mist 11 1013 93 3000 3.1 270 12:25 20.11.2019
3842 Mist 11 1014 93 1600 2.6 240 11:59 20.11.2019
3843 Mist 10 1014 100 1800 2.6 240 11:40 20.11.2019
3844 Mist 10 1014 100 1600 1.5 240 11:21 20.11.2019
3845 Mist 10 1014 100 2000 1.5 230 10:55 20.11.2019
3846 Mist 9 1014 100 2000 1.5 230 10:37 20.11.2019
3847 Mist 9 1014 93 2000 1.5 250 10:19 20.11.2019
3848 Mist 9 1014 100 2000 1.5 260 09:43 20.11.2019
3849 Mist 9 1014 100 1800 2.1 250 09:21 20.11.2019
3850 Mist 8 1014 100 1800 2.1 250 08:56 20.11.2019
3851 Mist 8 1014 93 2000 1.5 250 08:56 20.11.2019
3852 Mist 8 1014 93 2000 1.5 250 08:37 20.11.2019
3853 Mist 8 1014 93 2000 2.1 260 08:18 20.11.2019
3854 Mist 8 1015 93 2000 1.5 230 07:42 20.11.2019
3855 Mist 8 1015 93 2000 1.5 230 07:24 20.11.2019
3856 Mist 8 1015 93 2500 1.5 260 06:47 20.11.2019
3857 Drizzle 8 1015 93 4000 1.5 210 06:20 20.11.2019
3858 Mist 8 1015 93 5000 1 210 04:51 20.11.2019
3859 Drizzle 8 1016 93 3000 1.5 200 03:28 20.11.2019
3860 Drizzle 8 1015 100 3000 0.5 180 02:18 20.11.2019
3861 Drizzle 8 1015 100 4000 0.5 0 01:21 20.11.2019
3862 Drizzle 8 1015 100 4000 1 0 00:35 20.11.2019
3863 Drizzle 8 1016 100 4000 1 220 23:46 19.11.2019
3864 Rain 8 1016 100 4000 1 0 23:25 19.11.2019
3865 Rain 8 1016 100 6000 0.5 0 22:57 19.11.2019
3866 Rain 8 1016 100 6000 0.5 0 22:38 19.11.2019
3867 Rain 8 1016 100 7000 1 0 22:19 19.11.2019
3868 Rain 8 1016 100 7000 1 260 21:55 19.11.2019
3869 Rain 8 1016 100 7000 1 260 21:37 19.11.2019
3870 Rain 8 1016 100 6000 1 0 21:19 19.11.2019
3871 Rain 8 1016 100 6000 1 0 20:55 19.11.2019
3872 Rain 8 1016 100 6000 1 0 20:55 19.11.2019
3873 Rain 8 1016 100 8000 0.5 0 20:36 19.11.2019
3874 Rain 8 1016 100 8000 0.5 0 20:36 19.11.2019
3875 Rain 8 1016 100 8000 0.5 0 20:36 19.11.2019
3876 Rain 8 1016 93 8000 0.5 0 20:18 19.11.2019
3877 Rain 8 1016 93 8000 1 0 19:54 19.11.2019
3878 Rain 8 1016 93 8000 1 0 19:36 19.11.2019
3879 Rain 8 1015 100 8000 2.1 360 19:18 19.11.2019
3880 Rain 8 1015 100 8000 1 0 18:41 19.11.2019
3881 Rain 8 1015 100 8000 1 0 18:21 19.11.2019
3882 Rain 8 1015 100 8000 1 0 18:21 19.11.2019
3883 Rain 8 1015 100 8000 1 0 17:58 19.11.2019
3884 Rain 8 1015 100 8000 1.5 360 17:58 19.11.2019
3885 Rain 8 1015 100 8000 1.5 360 17:40 19.11.2019
3886 Rain 8 1015 100 6000 1 0 17:20 19.11.2019
3887 Rain 8 1015 100 6000 1 0 16:59 19.11.2019
3888 Rain 8 1015 100 6000 2.1 350 16:40 19.11.2019
3889 Drizzle 8 1015 100 6000 2.1 350 16:20 19.11.2019
3890 Drizzle 8 1015 100 6000 1.5 330 15:47 19.11.2019
3891 Drizzle 8 1015 100 6000 1.5 330 15:26 19.11.2019
3892 Drizzle 8 1015 100 6000 1.5 330 15:26 19.11.2019
3893 Drizzle 8 1015 100 5000 2.1 320 14:58 19.11.2019
3894 Rain 8 1015 93 4000 2.1 310 14:39 19.11.2019
3895 Rain 8 1015 93 7000 1.5 300 14:20 19.11.2019
3896 Rain 8 1015 93 8000 2.6 330 13:42 19.11.2019
3897 Rain 8 1015 100 7000 2.1 320 13:21 19.11.2019
3898 Rain 8 1015 100 7000 2.1 320 12:56 19.11.2019
3899 Rain 8 1015 93 6000 1.5 310 12:38 19.11.2019
3900 Rain 8 1015 93 6000 1 0 12:20 19.11.2019
3901 Rain 7 1015 93 10000 1 0 11:55 19.11.2019
3902 Rain 7 1015 93 10000 1 0 11:36 19.11.2019
3903 Rain 7 1015 100 7000 1.5 360 11:18 19.11.2019
3904 Drizzle 7 1015 100 5000 1.5 340 10:44 19.11.2019
3905 Rain 7 1015 93 4000 2.6 350 10:20 19.11.2019
3906 Rain 7 1014 93 5000 2.1 360 09:43 19.11.2019
3907 Rain 7 1014 93 5000 2.1 360 09:21 19.11.2019
3908 Rain 7 1014 93 5000 2.1 360 08:57 19.11.2019
3909 Rain 7 1014 93 6000 1.5 320 08:39 19.11.2019
3910 Rain 6 1014 93 7000 1.5 320 08:20 19.11.2019
3911 Rain 6 1014 93 10000 2.6 330 07:43 19.11.2019
3912 Rain 6 1014 93 10000 2.6 330 07:24 19.11.2019
3913 Rain 6 1014 100 8000 2.1 330 06:58 19.11.2019
3914 Rain 6 1014 100 8000 2.1 330 06:37 19.11.2019
3915 Rain 6 1014 100 7000 1.5 330 05:52 19.11.2019
3916 Rain 6 1013 100 8000 2.1 350 05:18 19.11.2019
3917 Rain 6 1014 93 7000 2.1 350 03:39 19.11.2019
3918 Rain 6 1014 93 7000 2.1 350 03:19 19.11.2019
3919 Rain 6 1014 93 8000 2.6 360 02:39 19.11.2019
3920 Rain 6 1015 93 7000 2.1 350 01:47 19.11.2019
3921 Rain 6 1015 93 8000 1.5 350 00:41 19.11.2019
3922 Rain 7 1015 93 10000 2.1 330 00:19 19.11.2019
3923 Rain 6 1015 93 8000 2.6 330 23:38 18.11.2019
3924 Rain 7 1015 93 5000 1 320 23:19 18.11.2019
3925 Rain 7 1015 93 5000 0.5 0 22:46 18.11.2019
3926 Rain 7 1015 93 5000 0.5 0 22:24 18.11.2019
3927 Rain 7 1016 93 5000 1 340 21:57 18.11.2019
3928 Rain 7 1016 93 5000 2.1 360 21:39 18.11.2019
3929 Rain 7 1016 93 5000 1 340 21:20 18.11.2019
3930 Rain 7 1016 93 5000 1 340 20:57 18.11.2019
3931 Rain 7 1016 93 5000 1 0 20:39 18.11.2019
3932 Rain 7 1015 93 4000 1.5 350 20:18 18.11.2019
3933 Rain 7 1015 93 4000 1.5 350 19:56 18.11.2019
3934 Rain 7 1015 93 5000 1 330 19:37 18.11.2019
3935 Rain 7 1015 93 7000 0.5 0 19:19 18.11.2019
3936 Rain 7 1015 93 7000 0.5 0 18:55 18.11.2019
3937 Rain 7 1015 93 7000 0.5 0 18:55 18.11.2019
3938 Rain 7 1015 93 7000 0.5 0 18:37 18.11.2019
3939 Rain 7 1015 93 7000 1 0 18:19 18.11.2019
3940 Rain 7 1015 93 7000 1 0 17:39 18.11.2019
3941 Rain 7 1015 93 7000 1 0 17:39 18.11.2019
3942 Clouds 7 1014 87 7000 1 220 17:20 18.11.2019
3943 Clouds 7 1014 87 6000 1 0 16:57 18.11.2019
3944 Clouds 8 1014 87 6000 1 0 16:39 18.11.2019
3945 Clouds 8 1014 93 7000 1 0 16:21 18.11.2019
3946 Clouds 8 1014 93 7000 1.5 190 15:56 18.11.2019
3947 Clouds 8 1014 93 7000 1.5 190 15:37 18.11.2019
3948 Clouds 8 1014 81 7000 0.5 0 15:18 18.11.2019
3949 Drizzle 8 1014 87 7000 1 0 14:42 18.11.2019
3950 Drizzle 8 1014 87 8000 1 0 14:24 18.11.2019
3951 Clouds 8 1014 87 10000 1 0 13:56 18.11.2019
3952 Clouds 8 1014 87 10000 1 0 13:37 18.11.2019
3953 Clouds 8 1014 87 10000 1.5 210 13:18 18.11.2019
3954 Clouds 8 1014 81 9000 2.1 200 12:38 18.11.2019
3955 Clouds 8 1014 81 10000 1 0 12:19 18.11.2019
3956 Clouds 8 1014 87 10000 1 0 11:45 18.11.2019
3957 Clouds 8 1014 87 10000 1 0 11:26 18.11.2019
3958 Clouds 7 1013 87 8000 1.5 240 10:58 18.11.2019
3959 Clouds 7 1013 87 8000 1.5 240 10:40 18.11.2019
3960 Clouds 7 1013 93 8000 1.5 190 10:20 18.11.2019
3961 Clouds 7 1012 100 10000 0.5 0 09:55 18.11.2019
3962 Clouds 6 1012 100 10000 0.5 0 09:37 18.11.2019
3963 Fog 6 1012 100 9000 1 30 09:18 18.11.2019
3964 Fog 6 1012 100 5000 0.5 0 08:44 18.11.2019
3965 Clouds 5 1011 100 6000 1 0 08:20 18.11.2019
3966 Mist 5 1011 93 4000 1 280 07:48 18.11.2019
3967 Mist 5 1011 93 4000 1 280 07:48 18.11.2019
3968 Mist 5 1011 93 4000 1 280 07:48 18.11.2019
3969 Clouds 5 1011 100 10000 0.5 0 07:29 18.11.2019
3970 Clouds 5 1011 100 10000 0.5 0 06:56 18.11.2019
3971 Fog 5 1009 93 8000 1 0 06:32 18.11.2019
3972 Clouds 5 1009 93 10000 1.5 90 05:48 18.11.2019
3973 Clouds 5 1008 100 7000 1.5 170 04:46 18.11.2019
3974 Rain 5 1007 100 7000 2.1 60 01:56 18.11.2019
3975 Rain 6 1007 100 6000 4.1 350 01:31 18.11.2019
3976 Drizzle 6 1007 100 6000 2.1 60 00:23 18.11.2019
3977 Rain 6 1007 100 4000 0.5 0 23:43 17.11.2019
3978 Mist 6 1006 100 3500 1 0 23:24 17.11.2019
3979 Mist 6 1006 100 3500 1 0 22:58 17.11.2019
3980 Mist 6 1006 100 3000 2.1 130 22:40 17.11.2019
3981 Rain 6 1006 93 7000 2.6 140 22:22 17.11.2019
3982 Rain 6 1006 93 7000 2.6 140 21:57 17.11.2019
3983 Rain 6 1006 93 7000 1.5 200 21:39 17.11.2019
3984 Clouds 6 1006 93 10000 2.6 210 21:19 17.11.2019
3985 Clouds 6 1006 93 10000 1.5 150 20:56 17.11.2019
3986 Clouds 6 1006 93 10000 1.5 150 20:37 17.11.2019
3987 Clouds 6 1006 93 10000 1.5 100 20:19 17.11.2019
3988 Clouds 6 1006 93 10000 1.5 100 19:56 17.11.2019
3989 Clouds 6 1006 93 10000 2.1 70 19:37 17.11.2019
3990 Clouds 6 1005 93 10000 3.1 20 19:19 17.11.2019
3991 Clouds 6 1005 93 10000 3.1 20 18:55 17.11.2019
3992 Clouds 6 1005 93 10000 1.5 70 18:36 17.11.2019
3993 Clouds 6 1005 93 10000 1.5 70 18:36 17.11.2019
3994 Clouds 6 1005 93 10000 2.1 30 18:18 17.11.2019
3995 Clouds 6 1005 93 10000 1 0 17:57 17.11.2019
3996 Clouds 6 1005 93 10000 1 0 17:38 17.11.2019
3997 Rain 6 1004 93 10000 0.5 0 17:19 17.11.2019
3998 Clouds 7 1003 93 10000 1.5 280 16:55 17.11.2019
3999 Clouds 7 1003 93 10000 1.5 280 16:37 17.11.2019
4000 Clouds 7 1003 93 10000 1.5 280 16:37 17.11.2019
4001 Drizzle 7 1003 93 10000 1.5 230 16:19 17.11.2019
4002 Drizzle 7 1002 93 10000 2.1 220 15:41 17.11.2019
4003 Drizzle 7 1002 93 10000 2.1 220 15:41 17.11.2019
4004 Drizzle 7 1002 93 10000 2.1 220 15:41 17.11.2019
4005 Rain 7 1002 93 8000 1.5 260 15:19 17.11.2019
4006 Rain 6 1002 93 8000 1.5 260 14:58 17.11.2019
4007 Rain 6 1002 93 8000 1.5 260 14:58 17.11.2019
4008 Rain 6 1002 93 4000 2.6 260 14:40 17.11.2019
4009 Rain 7 1002 93 3000 2.6 250 14:21 17.11.2019
4010 Rain 6 1002 93 3000 2.6 250 13:59 17.11.2019
4011 Rain 6 1001 100 6000 2.6 10 13:40 17.11.2019
4012 Rain 6 1001 93 6000 2.1 280 13:20 17.11.2019
4013 Rain 7 1001 93 6000 1 0 12:45 17.11.2019
4014 Rain 7 1001 100 2000 1.5 280 12:25 17.11.2019
4015 Rain 6 1001 100 2000 1.5 280 11:59 17.11.2019
4016 Rain 6 1001 93 2000 1 0 11:40 17.11.2019
4017 Rain 6 1001 93 2000 2.6 320 11:21 17.11.2019
4018 Rain 6 1001 93 2000 2.6 320 10:58 17.11.2019
4019 Rain 6 1001 93 2000 1.5 260 10:40 17.11.2019
4020 Rain 6 1001 93 2000 1.5 300 10:21 17.11.2019
4021 Rain 6 1001 93 2000 1.5 280 09:42 17.11.2019
4022 Rain 6 1001 100 3000 2.1 340 09:23 17.11.2019
4023 Rain 6 1002 100 1500 1 270 08:44 17.11.2019
4024 Rain 6 1002 100 1500 1 270 08:44 17.11.2019
4025 Rain 6 1002 100 1500 1 270 08:25 17.11.2019
4026 Rain 6 1002 93 6000 0.5 0 07:57 17.11.2019
4027 Rain 6 1002 93 6000 0.5 0 07:39 17.11.2019
4028 Rain 6 1002 93 6000 1 0 07:19 17.11.2019
4029 Rain 6 1003 93 6000 2.1 270 06:51 17.11.2019
4030 Rain 6 1004 93 10000 2.1 240 06:29 17.11.2019
4031 Rain 6 1004 93 10000 2.1 240 06:29 17.11.2019
4032 Rain 6 1004 93 10000 2.1 240 06:29 17.11.2019
4033 Rain 6 1005 93 6000 1.5 260 04:57 17.11.2019
4034 Rain 7 1006 93 6000 0.5 0 03:59 17.11.2019
4035 Rain 7 1006 93 6000 0.5 0 03:35 17.11.2019
4036 Rain 7 1007 93 6000 1 0 02:59 17.11.2019
4037 Drizzle 7 1008 93 10000 1.5 80 01:50 17.11.2019
4038 Rain 7 1009 93 10000 2.1 130 00:59 17.11.2019
4039 Rain 7 1010 93 10000 2.1 140 00:23 17.11.2019
4040 Rain 7 1011 93 8000 1.5 30 23:59 16.11.2019
4041 Rain 7 1011 93 8000 1.5 30 23:40 16.11.2019
4042 Rain 7 1011 87 10000 1.5 50 23:18 16.11.2019
4043 Clouds 7 1011 93 10000 0.5 0 22:42 16.11.2019
4044 Clouds 7 1011 93 10000 1 280 22:20 16.11.2019
4045 Clouds 7 1011 93 10000 4.6 360 21:57 16.11.2019
4046 Clouds 7 1011 87 10000 1 0 21:38 16.11.2019
4047 Clouds 7 1011 87 10000 1 330 21:20 16.11.2019
4048 Clouds 7 1011 87 10000 1 330 20:56 16.11.2019
4049 Clouds 7 1012 87 10000 1.5 330 20:38 16.11.2019
4050 Clouds 7 1012 93 10000 1.5 330 20:18 16.11.2019
4051 Clouds 7 1012 87 10000 1.5 300 19:41 16.11.2019
4052 Clouds 7 1013 93 10000 1.5 360 19:22 16.11.2019
4053 Clouds 8 1013 93 10000 1.5 360 18:48 16.11.2019
4054 Clouds 8 1013 87 6000 1.5 360 18:30 16.11.2019
4055 Clouds 8 1013 87 6000 1.5 360 17:58 16.11.2019
4056 Clouds 8 1013 93 6000 1.5 270 17:39 16.11.2019
4057 Clouds 8 1013 93 7000 1 0 17:21 16.11.2019
4058 Clouds 8 1013 93 6000 1 190 16:56 16.11.2019
4059 Clouds 8 1013 93 6000 1 190 16:37 16.11.2019
4060 Clouds 8 1013 81 8000 1.5 150 16:19 16.11.2019
4061 Clouds 9 1013 81 8000 1.5 150 15:41 16.11.2019
4062 Clouds 9 1013 81 8000 1.5 150 15:41 16.11.2019
4063 Clouds 9 1013 81 8000 1.5 150 15:22 16.11.2019
4064 Clouds 9 1013 81 10000 1 0 14:58 16.11.2019
4065 Clouds 9 1013 81 10000 1.5 110 14:40 16.11.2019
4066 Drizzle 9 1013 81 10000 1.5 110 14:21 16.11.2019
4067 Drizzle 9 1013 81 10000 1.5 110 13:56 16.11.2019
4068 Clouds 9 1012 87 10000 1 0 13:38 16.11.2019
4069 Clouds 8 1012 81 10000 0.5 0 13:19 16.11.2019
4070 Clouds 8 1012 81 10000 0.5 0 13:19 16.11.2019
4071 Clouds 8 1012 87 6000 1.5 100 12:55 16.11.2019
4072 Clouds 8 1012 87 6000 1.5 100 12:36 16.11.2019
4073 Drizzle 8 1013 87 6000 1 0 12:18 16.11.2019
4074 Clouds 8 1013 87 7000 2.1 180 11:42 16.11.2019
4075 Clouds 8 1013 87 7000 2.1 120 11:23 16.11.2019
4076 Mist 7 1013 87 5000 1.5 140 10:56 16.11.2019
4077 Mist 7 1013 87 5000 1.5 140 10:37 16.11.2019
4078 Mist 7 1012 93 5000 1.5 100 10:18 16.11.2019
4079 Rain 7 1012 93 5000 1 0 09:40 16.11.2019
4080 Rain 7 1012 93 5000 0.5 0 09:20 16.11.2019
4081 Rain 7 1012 93 5000 0.5 0 08:56 16.11.2019
4082 Rain 7 1011 93 5000 1.5 80 08:36 16.11.2019
4083 Mist 6 1010 100 5000 1 0 08:18 16.11.2019
4084 Mist 6 1010 93 5000 1 0 07:41 16.11.2019
4085 Mist 6 1010 93 5000 0.5 260 07:19 16.11.2019
4086 Rain 6 1009 93 5000 1 250 06:43 16.11.2019
4087 Rain 6 1009 93 5000 0.5 0 06:23 16.11.2019
4088 Mist 6 1008 100 5000 1 30 04:47 16.11.2019
4089 Mist 6 1008 100 4000 0.5 0 03:26 16.11.2019
4090 Rain 6 1007 100 3500 0.5 150 02:54 16.11.2019
4091 Rain 6 1007 100 2000 2.6 220 01:43 16.11.2019
4092 Mist 6 1007 100 2000 1.5 210 00:59 16.11.2019
4093 Mist 6 1006 100 3000 2.1 80 00:36 16.11.2019
4094 Mist 6 1006 100 2000 1 130 00:18 16.11.2019
4095 Mist 6 1005 100 2000 1 220 23:39 15.11.2019
4096 Mist 6 1005 100 2000 0.5 0 23:20 15.11.2019
4097 Mist 6 1005 93 2000 1 0 22:42 15.11.2019
4098 Mist 6 1005 93 2500 1.5 220 22:20 15.11.2019
4099 Mist 6 1005 93 2500 1.5 220 21:59 15.11.2019
4100 Mist 6 1004 93 3500 1 0 21:40 15.11.2019
4101 Mist 6 1004 93 3500 2.1 240 21:20 15.11.2019
4102 Mist 6 1004 93 3500 2.1 240 20:57 15.11.2019
4103 Clouds 6 1004 93 8000 2.1 240 20:39 15.11.2019
4104 Clouds 7 1003 93 10000 1 0 20:20 15.11.2019
4105 Clouds 7 1003 93 10000 2.1 250 19:57 15.11.2019
4106 Clouds 7 1003 93 10000 2.1 250 19:38 15.11.2019
4107 Clouds 7 1003 93 10000 2.1 250 19:19 15.11.2019
4108 Clouds 7 1003 93 10000 2.1 250 18:55 15.11.2019
4109 Clouds 7 1003 87 10000 2.1 220 18:37 15.11.2019
4110 Clouds 7 1003 87 10000 1.5 120 18:19 15.11.2019
4111 Clouds 7 1002 93 8000 1.5 250 17:41 15.11.2019
4112 Clouds 7 1002 93 6000 1 0 17:23 15.11.2019
4113 Clouds 8 1002 93 6000 1.5 230 16:56 15.11.2019
4114 Clouds 8 1002 93 6000 1.5 230 16:37 15.11.2019
4115 Clouds 8 1002 93 6000 2.1 250 16:19 15.11.2019
4116 Clouds 8 1002 93 6000 2.1 220 15:38 15.11.2019
4117 Clouds 8 1002 87 6000 3.1 220 15:19 15.11.2019
4118 Clouds 8 1001 93 6000 2.1 110 14:57 15.11.2019
4119 Clouds 8 1001 93 6000 2.1 110 14:38 15.11.2019
4120 Clouds 8 1002 87 6000 2.6 190 14:19 15.11.2019
4121 Clouds 8 1002 87 6000 2.6 190 14:19 15.11.2019
4122 Clouds 8 1002 87 10000 1.5 220 13:57 15.11.2019
4123 Clouds 9 1002 87 10000 1.5 220 13:39 15.11.2019
4124 Clouds 9 1002 87 10000 1 0 13:20 15.11.2019
4125 Clouds 8 1002 87 10000 1 0 12:57 15.11.2019
4126 Clouds 8 1002 87 10000 1 0 12:39 15.11.2019
4127 Clouds 8 1002 93 10000 2.1 340 12:19 15.11.2019
4128 Clouds 8 1002 93 10000 2.1 340 11:56 15.11.2019
4129 Clouds 8 1002 87 10000 1.5 350 11:37 15.11.2019
4130 Clouds 7 1002 87 10000 1.5 340 11:19 15.11.2019
4131 Clouds 7 1002 87 10000 1.5 340 11:19 15.11.2019
4132 Clouds 7 1002 93 10000 1.5 320 10:40 15.11.2019
4133 Clouds 7 1002 87 10000 1.5 340 10:21 15.11.2019
4134 Clouds 6 1002 87 10000 1.5 340 09:58 15.11.2019
4135 Clouds 6 1001 93 10000 1.5 280 09:40 15.11.2019
4136 Clouds 6 1001 93 10000 2.1 260 09:19 15.11.2019
4137 Clouds 5 1001 93 10000 2.1 270 08:42 15.11.2019
4138 Clouds 5 1000 93 10000 2.6 260 08:22 15.11.2019
4139 Clouds 6 1000 93 10000 2.6 230 07:47 15.11.2019
4140 Clouds 6 1000 93 10000 2.6 230 07:27 15.11.2019
4141 Rain 7 999 87 8000 6.2 220 06:37 15.11.2019
4142 Rain 8 998 93 8000 9.3 120 05:58 15.11.2019
4143 Rain 8 998 81 6000 7.7 130 05:39 15.11.2019
4144 Rain 8 998 93 3500 5.1 170 04:58 15.11.2019
4145 Rain 8 999 93 3500 6.2 160 03:46 15.11.2019
4146 Rain 8 999 81 4000 10.3 130 02:44 15.11.2019
4147 Rain 7 999 81 7000 8.2 130 01:58 15.11.2019
4148 Rain 8 1000 87 4000 12.3 130 01:32 15.11.2019
4149 Rain 8 1000 87 4000 12.3 130 01:32 15.11.2019
4150 Rain 8 1001 87 4000 5.1 190 00:42 15.11.2019
4151 Rain 8 1001 76 9000 7.2 110 00:24 15.11.2019
4152 Rain 8 1002 66 10000 8.7 110 23:47 14.11.2019
4153 Rain 8 1003 71 10000 7.2 110 23:27 14.11.2019
4154 Rain 8 1004 81 10000 4.1 140 22:43 14.11.2019
4155 Drizzle 7 1004 76 10000 4.6 110 22:23 14.11.2019
4156 Drizzle 8 1004 76 10000 3.1 120 21:59 14.11.2019
4157 Drizzle 8 1004 76 10000 3.1 120 21:41 14.11.2019
4158 Rain 8 1004 66 10000 4.6 90 21:22 14.11.2019
4159 Clouds 8 1004 66 10000 4.6 90 20:55 14.11.2019
4160 Clouds 8 1004 70 10000 3.6 100 20:55 14.11.2019
4161 Clouds 7 1004 70 10000 3.6 100 20:37 14.11.2019
4162 Clouds 7 1005 76 10000 3.6 80 20:19 14.11.2019
4163 Clouds 7 1005 76 10000 3.1 70 19:55 14.11.2019
4164 Clouds 7 1005 76 10000 3.1 70 19:36 14.11.2019
4165 Clouds 7 1006 75 10000 2.1 50 19:18 14.11.2019
4166 Clouds 7 1006 75 10000 2.6 50 18:42 14.11.2019
4167 Clouds 7 1006 75 10000 1.5 20 18:23 14.11.2019
4168 Clouds 7 1007 81 10000 2.1 360 17:57 14.11.2019
4169 Clouds 7 1007 75 10000 0.5 0 17:38 14.11.2019
4170 Clouds 7 1007 75 10000 0.5 0 17:20 14.11.2019
4171 Clouds 7 1007 70 10000 1 0 16:58 14.11.2019
4172 Clouds 7 1007 70 10000 1 0 16:37 14.11.2019
4173 Clouds 7 1007 70 10000 1 210 16:19 14.11.2019
4174 Clouds 7 1007 66 10000 1.5 340 15:57 14.11.2019
4175 Clouds 7 1007 66 10000 1.5 340 15:38 14.11.2019
4176 Clouds 7 1007 61 10000 2.1 340 15:19 14.11.2019
4177 Clouds 7 1007 61 10000 2.1 340 15:19 14.11.2019
4178 Clouds 7 1008 65 10000 1 0 14:46 14.11.2019
4179 Clouds 7 1008 65 10000 1 0 14:23 14.11.2019
4180 Clouds 7 1008 65 10000 1 0 13:58 14.11.2019
4181 Clouds 7 1008 65 10000 0.5 0 13:39 14.11.2019
4182 Clouds 7 1008 61 10000 0.5 0 13:20 14.11.2019
4183 Clouds 7 1008 61 10000 0.5 0 12:56 14.11.2019
4184 Clouds 7 1009 70 10000 2.1 70 12:37 14.11.2019
4185 Clouds 7 1009 70 10000 1 0 12:19 14.11.2019
4186 Clouds 7 1010 70 10000 2.1 70 11:39 14.11.2019
4187 Clouds 7 1010 70 10000 1.5 60 11:20 14.11.2019
4188 Clouds 6 1010 70 10000 1.5 60 10:59 14.11.2019
4189 Clouds 6 1010 75 10000 2.6 30 10:40 14.11.2019
4190 Clouds 6 1010 70 10000 2.1 50 10:20 14.11.2019
4191 Clouds 5 1010 70 10000 2.1 50 09:56 14.11.2019
4192 Clouds 5 1010 51 10000 1 0 09:38 14.11.2019
4193 Clouds 3 1009 51 10000 2.6 170 09:19 14.11.2019
4194 Clouds 3 1009 51 10000 2.6 170 08:47 14.11.2019
4195 Clouds 3 1008 49 10000 1.5 80 08:25 14.11.2019
4196 Clouds 3 1008 49 10000 1.5 80 07:57 14.11.2019
4197 Clouds 2 1008 49 10000 0.5 0 07:37 14.11.2019
4198 Clouds 2 1008 49 10000 1.5 20 07:19 14.11.2019
4199 Clouds 2 1008 69 10000 2.6 60 06:42 14.11.2019
4200 Clouds 2 1008 69 10000 2.1 40 06:18 14.11.2019
4201 Clear 1 1008 60 10000 2.1 50 04:42 14.11.2019
4202 Clear 2 1008 60 10000 0.5 0 04:22 14.11.2019
4203 Mist 2 1007 86 5000 1.5 110 02:47 14.11.2019
4204 Mist 3 1006 87 5000 2.1 110 01:51 14.11.2019
4205 Mist 3 1006 87 5000 2.1 110 01:32 14.11.2019
4206 Mist 3 1006 87 4900 2.1 60 00:49 14.11.2019
4207 Mist 3 1006 87 4900 2.1 60 00:29 14.11.2019
4208 Mist 3 1006 93 3000 3.1 30 23:41 13.11.2019
4209 Clouds 3 1006 93 10000 2.1 40 23:22 13.11.2019
4210 Clouds 4 1006 93 10000 2.1 40 22:57 13.11.2019
4211 Clouds 4 1006 93 10000 2.1 360 22:39 13.11.2019
4212 Clouds 6 1005 87 10000 1.5 80 22:21 13.11.2019
4213 Clouds 6 1005 87 10000 1 0 21:56 13.11.2019
4214 Clouds 6 1005 87 10000 1 0 21:37 13.11.2019
4215 Clouds 6 1005 87 10000 1 0 21:37 13.11.2019
4216 Clouds 6 1004 87 10000 1.5 210 21:19 13.11.2019
4217 Clouds 6 1003 87 10000 2.1 60 20:56 13.11.2019
4218 Clouds 6 1003 87 10000 2.1 60 20:37 13.11.2019
4219 Clouds 6 1003 87 10000 2.1 60 20:37 13.11.2019
4220 Clear 6 1003 81 10000 2.1 40 20:19 13.11.2019
4221 Clear 7 1003 56 10000 1.5 10 19:44 13.11.2019
4222 Clear 8 1003 65 10000 1.5 230 19:21 13.11.2019
4223 Clear 8 1002 65 10000 1.5 0 18:59 13.11.2019
4224 Clear 8 1002 65 10000 1.5 0 18:39 13.11.2019
4225 Clear 9 1002 65 10000 1.5 260 18:21 13.11.2019
4226 Clear 9 1002 65 10000 1.5 260 17:59 13.11.2019
4227 Clear 10 1001 37 10000 0.5 0 17:40 13.11.2019
4228 Clear 10 1001 28 10000 1 0 17:22 13.11.2019
4229 Clear 11 1001 28 10000 1 0 16:59 13.11.2019
4230 -273 0 0 0 0 0 16:59 13.11.2019
4231 Clear 11 1001 28 10000 1 0 16:59 13.11.2019
4232 Clear 11 1000 24 10000 2.6 330 16:40 13.11.2019
4233 Clear 12 1000 21 10000 3.1 330 16:21 13.11.2019
4234 Clear 12 1000 21 10000 3.1 330 16:21 13.11.2019
4235 Clear 13 999 24 10000 4.1 340 15:58 13.11.2019
4236 Clear 13 999 24 10000 4.1 340 15:39 13.11.2019
4237 Clear 13 999 26 10000 4.1 340 15:20 13.11.2019
4238 Clear 13 999 26 10000 4.1 330 14:43 13.11.2019
4239 Clear 13 999 44 10000 3.6 270 14:23 13.11.2019
4240 Clear 13 998 41 10000 4.6 270 13:58 13.11.2019
4241 Clear 13 998 41 10000 4.6 270 13:37 13.11.2019
4242 Clear 12 998 54 10000 2.6 240 13:18 13.11.2019
4243 Clear 13 999 58 10000 3.6 260 12:55 13.11.2019
4244 Clear 13 999 58 10000 3.6 260 12:37 13.11.2019
4245 Clear 12 999 71 10000 2.6 230 12:19 13.11.2019
4246 Clear 11 999 75 10000 2.1 240 11:40 13.11.2019
4247 Clear 9 999 75 10000 2.6 230 11:20 13.11.2019
4248 Clear 9 999 75 10000 2.6 230 10:58 13.11.2019
4249 Clear 8 999 87 10000 2.1 230 10:40 13.11.2019
4250 Clouds 7 998 93 10000 2.1 260 10:20 13.11.2019
4251 Clouds 7 998 93 6000 2.6 240 09:55 13.11.2019
4252 Clouds 7 998 93 10000 2.1 260 09:55 13.11.2019
4253 Clouds 6 998 93 6000 2.6 240 09:37 13.11.2019
4254 Mist 6 998 93 5000 3.1 260 09:19 13.11.2019
4255 Mist 5 997 93 2000 2.6 250 08:39 13.11.2019
4256 Mist 4 997 100 1500 1.5 230 08:20 13.11.2019
4257 Fog 4 997 100 800 2.1 210 07:42 13.11.2019
4258 Fog 4 997 100 500 1.5 180 07:20 13.11.2019
4259 Fog 4 997 100 900 2.1 200 06:46 13.11.2019
4260 Mist 5 997 93 3000 1.5 210 06:19 13.11.2019
4261 Mist 5 997 93 3000 1.5 210 06:19 13.11.2019
4262 Mist 5 997 93 3000 1.5 110 05:53 13.11.2019
4263 Mist 5 997 93 3000 1.5 110 05:31 13.11.2019
4264 Clouds 5 996 100 10000 2.6 350 04:27 13.11.2019
4265 Mist 6 995 93 3000 0.5 0 02:18 13.11.2019
4266 Mist 6 995 100 3000 1 0 01:41 13.11.2019
4267 Fog 6 996 100 3000 0.5 0 00:44 13.11.2019
4268 Fog 6 996 100 3000 0.5 0 00:44 13.11.2019
4269 Fog 7 996 93 5000 0.5 0 00:19 13.11.2019
4270 Clouds 7 996 93 10000 1 20 23:41 12.11.2019
4271 Clouds 7 996 93 10000 1 0 23:21 12.11.2019
4272 Clouds 7 996 93 10000 1.5 60 22:43 12.11.2019
4273 Clouds 7 996 93 10000 1.5 70 22:20 12.11.2019
4274 Clouds 8 996 93 10000 1.5 70 21:58 12.11.2019
4275 Clouds 7 996 93 10000 1 0 21:40 12.11.2019
4276 Clouds 8 996 93 10000 1 0 21:22 12.11.2019
4277 Clouds 8 996 93 10000 1.5 180 20:56 12.11.2019
4278 Clouds 8 996 93 10000 1.5 180 20:37 12.11.2019
4279 Clouds 8 996 87 10000 1.5 220 20:18 12.11.2019
4280 Clouds 8 996 87 10000 1.5 220 19:57 12.11.2019
4281 Clouds 8 996 93 10000 1.5 250 19:38 12.11.2019
4282 Clouds 8 997 93 10000 2.1 240 19:19 12.11.2019
4283 Clouds 9 997 87 10000 3.1 220 18:58 12.11.2019
4284 Clouds 9 997 87 10000 3.1 220 18:39 12.11.2019
4285 Clouds 9 997 87 10000 2.6 250 18:21 12.11.2019
4286 Clouds 9 998 87 10000 1.5 230 17:56 12.11.2019
4287 Clouds 9 997 87 10000 2.6 250 17:56 12.11.2019
4288 Clouds 9 998 87 10000 1.5 230 17:37 12.11.2019
4289 Clouds 10 998 87 10000 2.1 240 17:19 12.11.2019
4290 Clouds 10 998 87 10000 2.1 250 16:44 12.11.2019
4291 Clouds 10 998 87 10000 2.6 260 16:25 12.11.2019
4292 Clouds 10 998 87 10000 2.6 260 16:25 12.11.2019
4293 Clouds 10 998 87 10000 2.6 260 15:57 12.11.2019
4294 Clouds 10 998 87 10000 2.6 260 15:57 12.11.2019
4295 Clouds 10 999 93 10000 2.6 250 15:37 12.11.2019
4296 Clouds 10 1000 87 10000 2.1 210 15:18 12.11.2019
4297 Clouds 10 1000 87 10000 1.5 250 14:42 12.11.2019
4298 Clouds 10 1000 87 10000 2.1 260 14:21 12.11.2019
4299 Clouds 10 1000 87 10000 2.1 260 13:59 12.11.2019
4300 Clouds 9 1001 93 9000 2.6 260 13:40 12.11.2019
4301 Clouds 9 1001 87 9000 2.6 250 13:20 12.11.2019
4302 Clouds 9 1002 87 9000 1.5 250 12:59 12.11.2019
4303 Clouds 9 1002 87 9000 1.5 250 12:39 12.11.2019
4304 Clouds 9 1003 93 9000 2.6 280 12:18 12.11.2019
4305 Rain 8 1003 93 6000 2.1 290 11:45 12.11.2019
4306 Rain 8 1003 93 7000 2.6 280 11:24 12.11.2019
4307 Rain 8 1004 93 7000 2.1 250 10:58 12.11.2019
4308 Rain 7 1004 93 7000 2.1 250 10:40 12.11.2019
4309 Rain 7 1005 93 7000 2.6 250 10:22 12.11.2019
4310 Rain 7 1005 93 10000 1.5 270 09:59 12.11.2019
4311 Clouds 7 1005 93 10000 1.5 270 09:39 12.11.2019
4312 Rain 7 1004 93 9000 1.5 290 09:18 12.11.2019
4313 Rain 7 1004 93 6000 2.6 280 08:48 12.11.2019
4314 Rain 7 1004 93 6000 2.6 280 08:28 12.11.2019
4315 Rain 6 1005 93 9000 1 260 07:42 12.11.2019
4316 Rain 6 1005 93 5000 1 260 07:24 12.11.2019
4317 Rain 6 1005 93 5000 1.5 260 06:51 12.11.2019
4318 Rain 6 1006 93 7000 1.5 220 06:24 12.11.2019
4319 Rain 6 1005 93 7000 0.5 0 05:52 12.11.2019
4320 Rain 6 1006 93 10000 1 0 04:51 12.11.2019
4321 Rain 6 1007 93 10000 0.5 0 04:20 12.11.2019
4322 Rain 6 1008 93 6000 2.1 340 01:53 12.11.2019
4323 Rain 6 1009 93 6000 1.5 350 01:26 12.11.2019
4324 Rain 6 1009 93 5000 2.6 350 00:52 12.11.2019
4325 Rain 6 1009 93 5000 2.6 350 00:32 12.11.2019
4326 Rain 6 1009 93 3500 2.1 340 23:50 11.11.2019
4327 Rain 6 1010 93 3500 1.5 360 23:26 11.11.2019
4328 Rain 6 1010 93 3500 1.5 360 22:59 11.11.2019
4329 Rain 6 1010 93 3000 1.5 10 22:38 11.11.2019
4330 Drizzle 6 1010 93 5000 1.5 350 22:19 11.11.2019
4331 Drizzle 6 1010 93 5000 1.5 350 21:58 11.11.2019
4332 Drizzle 6 1010 93 7000 1 0 21:39 11.11.2019
4333 Drizzle 6 1010 93 9000 0.5 0 21:20 11.11.2019
4334 Drizzle 7 1010 93 9000 0.5 0 21:20 11.11.2019
4335 Rain 7 1010 93 9000 1.5 20 20:55 11.11.2019
4336 Rain 7 1010 93 9000 1.5 20 20:36 11.11.2019
4337 Rain 7 1011 93 9000 2.1 10 20:18 11.11.2019
4338 Rain 7 1011 93 9000 1.5 330 19:42 11.11.2019
4339 Rain 7 1011 93 9000 2.1 30 19:19 11.11.2019
4340 Rain 7 1011 93 9000 2.6 10 18:57 11.11.2019
4341 Rain 7 1011 93 9000 2.1 30 18:57 11.11.2019
4342 Rain 7 1011 93 9000 2.6 10 18:39 11.11.2019
4343 Rain 7 1011 87 10000 3.1 10 18:20 11.11.2019
4344 Rain 7 1011 87 10000 2.1 360 17:44 11.11.2019
4345 Rain 7 1012 93 8000 1 0 17:25 11.11.2019
4346 Drizzle 7 1012 93 10000 1 340 16:55 11.11.2019
4347 Drizzle 8 1012 93 10000 1 340 16:36 11.11.2019
4348 Rain 8 1011 81 7000 2.6 340 16:18 11.11.2019
4349 Rain 8 1012 87 7000 2.1 340 15:41 11.11.2019
4350 Rain 8 1012 87 7000 1.5 350 15:20 11.11.2019
4351 Rain 8 1012 81 8000 1.5 10 14:54 11.11.2019
4352 Rain 8 1012 81 8000 1.5 10 14:36 11.11.2019
4353 Rain 9 1012 87 8000 1 0 14:18 11.11.2019
4354 Rain 9 1013 81 8000 1.5 360 13:39 11.11.2019
4355 Rain 9 1013 81 8000 1.5 360 13:39 11.11.2019
4356 Rain 9 1013 81 8000 2.1 360 13:21 11.11.2019
4357 Rain 9 1013 81 8000 2.1 360 12:58 11.11.2019
4358 Rain 9 1014 81 8000 2.1 360 12:40 11.11.2019
4359 Rain 9 1014 81 10000 1 0 12:22 11.11.2019
4360 Rain 8 1014 81 10000 1 0 11:55 11.11.2019
4361 Rain 8 1014 81 10000 1 0 11:37 11.11.2019
4362 Rain 8 1015 81 8000 1 350 11:19 11.11.2019
4363 Rain 8 1015 87 8000 0.5 0 10:42 11.11.2019
4364 Rain 8 1015 87 10000 1 0 10:18 11.11.2019
4365 Rain 7 1015 87 10000 0.5 290 09:56 11.11.2019
4366 Rain 7 1015 87 10000 0.5 290 09:37 11.11.2019
4367 Rain 7 1016 87 10000 1 0 09:18 11.11.2019
4368 Rain 7 1016 87 10000 0.5 0 08:40 11.11.2019
4369 Rain 6 1016 87 10000 0.5 0 08:21 11.11.2019
4370 Clouds 7 1015 93 10000 0.5 0 07:56 11.11.2019
4371 Clouds 6 1015 93 10000 0.5 0 07:37 11.11.2019
4372 Clouds 6 1015 93 10000 0.5 0 07:37 11.11.2019
4373 Clouds 6 1015 93 10000 1 0 07:18 11.11.2019
4374 Clouds 6 1015 93 10000 3.6 360 06:44 11.11.2019
4375 Clouds 6 1015 87 10000 1 0 06:21 11.11.2019
4376 Clouds 6 1015 87 10000 1.5 10 05:50 11.11.2019
4377 Clouds 5 1015 87 10000 1.5 350 04:29 11.11.2019
4378 Clouds 5 1015 87 10000 2.1 360 03:23 11.11.2019
4379 Clouds 5 1016 93 10000 1 10 02:20 11.11.2019
4380 Mist 5 1016 100 5000 1.5 350 01:53 11.11.2019
4381 Mist 5 1016 100 5000 1.5 350 01:33 11.11.2019
4382 Fog 4 1016 100 1500 1 360 00:47 11.11.2019
4383 Fog 4 1015 93 1500 0.5 0 00:19 11.11.2019
4384 Fog 4 1015 93 1500 0.5 0 00:19 11.11.2019
4385 Fog 5 1015 100 1200 1.5 10 23:39 10.11.2019
4386 Fog 5 1015 100 4000 0.19 52 23:20 10.11.2019
4387 Fog 5 1015 100 7000 0.5 0 22:57 10.11.2019
4388 Fog 5 1015 100 7000 0.5 0 22:38 10.11.2019
4389 Fog 5 1014 100 7000 0.5 280 22:20 10.11.2019
4390 Fog 6 1014 100 7000 0.5 280 21:58 10.11.2019
4391 Fog 6 1014 100 8000 0.5 0 21:39 10.11.2019
4392 Fog 6 1014 100 8000 1 10 21:21 10.11.2019
4393 Clouds 6 1013 100 8000 0.5 0 20:43 10.11.2019
4394 Clouds 6 1013 100 8000 0.5 0 20:43 10.11.2019
4395 Clouds 6 1013 100 8000 0.5 0 20:23 10.11.2019
4396 Fog 7 1013 93 8000 0.5 0 19:57 10.11.2019
4397 Fog 7 1013 93 8000 0.5 0 19:38 10.11.2019
4398 Fog 7 1013 93 8000 1 0 19:19 10.11.2019
4399 Fog 7 1013 93 8000 1 0 18:59 10.11.2019
4400 Clouds 8 1012 93 7000 1 0 18:40 10.11.2019
4401 Clouds 8 1012 93 7000 1 0 18:40 10.11.2019
4402 Mist 8 1012 93 4000 2.1 210 18:20 10.11.2019
4403 Mist 8 1012 93 4000 2.1 210 17:58 10.11.2019
4404 Mist 9 1011 93 4000 2.6 200 17:40 10.11.2019
4405 Clouds 9 1011 87 7000 3.1 200 17:20 10.11.2019
4406 Clouds 9 1011 87 7000 3.1 200 16:59 10.11.2019
4407 Clouds 10 1010 81 10000 3.1 210 16:41 10.11.2019
4408 Clouds 11 1010 76 10000 2.1 210 16:22 10.11.2019
4409 Clouds 11 1010 76 10000 2.1 210 15:56 10.11.2019
4410 Clouds 11 1010 76 10000 2.1 210 15:56 10.11.2019
4411 Clouds 11 1010 58 10000 1.5 240 15:37 10.11.2019
4412 Clouds 12 1010 62 10000 2.1 220 15:18 10.11.2019
4413 Clouds 12 1010 62 10000 1.5 0 14:55 10.11.2019
4414 Clouds 12 1010 62 10000 1.5 0 14:36 10.11.2019
4415 Clouds 12 1010 62 10000 1 0 14:18 10.11.2019
4416 Clouds 12 1010 62 10000 1.5 40 13:43 10.11.2019
4417 Clouds 12 1010 66 10000 1.5 20 13:21 10.11.2019
4418 Clouds 11 1010 66 10000 1.5 0 12:58 10.11.2019
4419 Clouds 11 1010 66 10000 1.5 0 12:40 10.11.2019
4420 Clouds 11 1010 66 10000 1.5 150 12:18 10.11.2019
4421 Clouds 10 1010 66 10000 1.5 150 11:55 10.11.2019
4422 Clouds 10 1010 71 10000 1.5 0 11:36 10.11.2019
4423 Clouds 10 1010 71 10000 0.5 0 11:18 10.11.2019
4424 Clouds 10 1010 71 10000 0.5 0 11:18 10.11.2019
4425 Clouds 9 1010 81 10000 0.5 0 10:42 10.11.2019
4426 Clouds 9 1010 81 10000 0.5 0 10:20 10.11.2019
4427 Clouds 8 1010 81 10000 1.5 20 09:55 10.11.2019
4428 Clouds 7 1010 93 10000 1 0 09:37 10.11.2019
4429 Clouds 7 1010 93 10000 0.5 0 09:18 10.11.2019
4430 Clouds 6 1009 100 10000 1 360 08:38 10.11.2019
4431 Clouds 6 1009 100 10000 1 360 08:38 10.11.2019
4432 Clouds 5 1009 100 10000 0.5 0 08:19 10.11.2019
4433 Clouds 5 1009 100 10000 0.5 0 07:43 10.11.2019
4434 Clouds 5 1009 100 10000 0.5 0 07:25 10.11.2019
4435 Clouds 5 1009 100 10000 0.5 0 07:25 10.11.2019
4436 Clouds 5 1009 100 10000 0.5 0 06:33 10.11.2019
4437 Clouds 5 1009 100 8000 1 360 05:43 10.11.2019
4438 Fog 5 1009 93 50 0.5 0 03:22 10.11.2019
4439 Fog 5 1009 100 500 1 0 01:55 10.11.2019
4440 Fog 5 1009 93 800 0.5 140 01:19 10.11.2019
4441 Fog 5 1009 100 50 0.5 0 00:41 10.11.2019
4442 Fog 5 1009 100 1500 0.5 0 23:58 09.11.2019
4443 Fog 5 1009 100 2000 1.5 350 23:37 09.11.2019
4444 Fog 5 1009 100 10000 1 340 23:18 09.11.2019
4445 Fog 5 1009 93 10000 1 340 22:41 09.11.2019
4446 Fog 5 1010 93 10000 1.5 350 22:21 09.11.2019
4447 Clear 6 1010 100 10000 3.1 10 21:56 09.11.2019
4448 Clear 6 1010 100 10000 3.1 10 21:56 09.11.2019
4449 Clear 6 1010 100 10000 3.1 10 21:37 09.11.2019
4450 Fog 6 1010 100 10000 1 0 21:19 09.11.2019
4451 Clear 6 1010 100 10000 1.5 360 20:43 09.11.2019
4452 Clear 6 1010 93 10000 0.5 0 20:22 09.11.2019
4453 Clear 7 1010 93 10000 0.5 0 19:58 09.11.2019
4454 Clear 7 1010 93 10000 1 0 19:39 09.11.2019
4455 Clear 7 1009 93 10000 1 140 19:21 09.11.2019
4456 Clear 8 1009 93 10000 1 180 18:56 09.11.2019
4457 Clear 8 1009 93 10000 1 180 18:38 09.11.2019
4458 Clear 9 1009 93 10000 0.5 0 18:18 09.11.2019
4459 Clear 10 1009 81 10000 1 180 17:41 09.11.2019
4460 Clear 10 1008 81 10000 2.1 200 17:22 09.11.2019
4461 Clear 11 1008 71 10000 2.1 200 16:55 09.11.2019
4462 Clear 12 1008 71 10000 2.1 200 16:36 09.11.2019
4463 Clear 12 1008 71 10000 2.6 220 16:18 09.11.2019
4464 Clear 13 1008 71 10000 4.1 200 15:41 09.11.2019
4465 Clear 13 1008 58 10000 2.6 210 15:23 09.11.2019
4466 Clear 13 1008 54 10000 2.1 200 14:45 09.11.2019
4467 Clear 13 1008 54 10000 2.1 200 14:22 09.11.2019
4468 Clear 13 1008 50 10000 1.5 0 13:58 09.11.2019
4469 Clear 13 1008 54 10000 1 0 13:39 09.11.2019
4470 Clear 13 1008 54 10000 1 0 13:21 09.11.2019
4471 Clear 13 1009 58 10000 2.1 340 12:56 09.11.2019
4472 Clear 12 1009 62 10000 2.6 290 12:38 09.11.2019
4473 Clear 12 1009 62 10000 3.6 300 12:20 09.11.2019
4474 Clear 11 1009 71 10000 2.6 260 11:48 09.11.2019
4475 Clear 10 1009 71 10000 1 0 11:21 09.11.2019
4476 Clear 10 1009 71 10000 1 0 10:57 09.11.2019
4477 Clear 9 1009 71 10000 2.1 270 10:38 09.11.2019
4478 Clear 9 1009 71 10000 2.1 310 10:18 09.11.2019
4479 Clear 8 1009 76 10000 1.5 320 09:43 09.11.2019
4480 Clear 7 1009 81 10000 2.1 290 09:21 09.11.2019
4481 Clear 6 1009 93 10000 2.1 290 08:53 09.11.2019
4482 Clouds 5 1008 93 10000 2.1 240 08:26 09.11.2019
4483 Clouds 5 1008 93 10000 2.1 240 07:57 09.11.2019
4484 Clouds 5 1007 93 10000 2.6 260 07:39 09.11.2019
4485 Clouds 5 1007 93 10000 2.1 250 07:20 09.11.2019
4486 Clouds 5 1007 93 10000 2.6 250 06:46 09.11.2019
4487 Clouds 5 1007 93 10000 2.6 250 06:28 09.11.2019
4488 Clouds 6 1007 93 10000 2.6 250 05:40 09.11.2019
4489 Clouds 6 1006 87 10000 1.5 210 04:30 09.11.2019
4490 Clouds 7 1006 93 10000 1 0 02:55 09.11.2019
4491 Clouds 7 1006 93 10000 1 0 02:36 09.11.2019
4492 Clouds 7 1005 100 8000 1.5 200 01:18 09.11.2019
4493 Thunderstorm 8 1005 100 7000 2.1 200 00:43 09.11.2019
4494 Thunderstorm 8 1005 100 7000 2.1 200 00:25 09.11.2019
4495 Thunderstorm 8 1005 87 10000 0.5 0 23:41 08.11.2019
4496 Rain 8 1005 87 10000 1.5 10 23:22 08.11.2019
4497 Clouds 8 1005 93 10000 1.5 350 22:59 08.11.2019
4498 Clouds 8 1005 93 10000 1.5 350 22:40 08.11.2019
4499 Clouds 8 1005 87 10000 1 0 22:21 08.11.2019
4500 Rain 8 1004 87 10000 2.1 360 21:42 08.11.2019
4501 Rain 8 1004 87 10000 2.1 360 21:23 08.11.2019
4502 Rain 8 1004 93 10000 3.1 350 20:58 08.11.2019
4503 Rain 8 1004 87 10000 1 0 20:40 08.11.2019
4504 Rain 8 1004 93 10000 1 50 20:20 08.11.2019
4505 Clouds 8 1004 87 10000 1.5 40 19:55 08.11.2019
4506 Clouds 8 1004 87 10000 1.5 40 19:36 08.11.2019
4507 Clouds 9 1004 87 10000 2.1 50 19:18 08.11.2019
4508 Clouds 9 1004 87 10000 2.1 50 19:18 08.11.2019
4509 Clouds 9 1004 100 10000 1 0 18:54 08.11.2019
4510 Clouds 9 1004 100 10000 1 0 18:36 08.11.2019
4511 Clouds 9 1004 93 10000 1 320 18:18 08.11.2019
4512 Clouds 9 1004 93 10000 1 320 18:18 08.11.2019
4513 Clouds 9 1003 93 10000 0.5 0 17:54 08.11.2019
4514 Clouds 9 1003 93 10000 0.5 0 17:36 08.11.2019
4515 Clouds 9 1003 93 10000 0.5 0 17:36 08.11.2019
4516 Clouds 9 1003 87 10000 1.5 90 17:18 08.11.2019
4517 Clouds 9 1003 87 10000 1.5 90 17:18 08.11.2019
4518 Clouds 9 1003 87 10000 1.5 90 16:56 08.11.2019
4519 Rain 9 1003 81 8000 1 0 16:37 08.11.2019
4520 Clouds 9 1002 81 10000 2.6 100 16:18 08.11.2019
4521 Clouds 10 1002 81 10000 3.1 100 15:41 08.11.2019
4522 Clouds 10 1002 81 10000 3.1 100 15:22 08.11.2019
4523 Clouds 10 1002 81 10000 3.6 100 14:57 08.11.2019
4524 Clouds 10 1002 81 10000 4.1 120 14:38 08.11.2019
4525 Rain 10 1002 87 10000 3.1 130 14:20 08.11.2019
4526 Rain 10 1002 87 10000 2.6 140 13:58 08.11.2019
4527 Rain 10 1002 87 10000 2.6 140 13:39 08.11.2019
4528 Rain 10 1002 81 10000 3.1 120 13:21 08.11.2019
4529 Clouds 10 1001 87 10000 5.7 120 12:45 08.11.2019
4530 Clouds 10 1001 87 10000 5.7 120 12:27 08.11.2019
4531 Clouds 9 1001 93 10000 5.7 110 11:58 08.11.2019
4532 Rain 9 1002 93 10000 4.1 110 11:40 08.11.2019
4533 Rain 9 1003 100 3000 3.1 130 11:21 08.11.2019
4534 Rain 9 1002 93 3000 4.1 150 10:58 08.11.2019
4535 Rain 9 1002 93 3000 4.1 150 10:40 08.11.2019
4536 Rain 9 1002 87 10000 4.1 140 10:21 08.11.2019
4537 Rain 9 1002 87 10000 4.1 140 09:56 08.11.2019
4538 Clouds 9 1001 87 10000 4.6 100 09:37 08.11.2019
4539 Rain 8 1001 93 9000 5.7 100 09:18 08.11.2019
4540 Rain 8 1001 93 9000 5.7 100 09:18 08.11.2019
4541 Rain 8 1002 93 5000 6.7 110 08:44 08.11.2019
4542 Rain 8 1001 93 10000 5.7 110 08:20 08.11.2019
4543 Rain 8 1001 93 6000 2.1 110 07:43 08.11.2019
4544 Rain 8 1001 93 0 3.1 140 07:23 08.11.2019
4545 Rain 8 1001 93 0 3.1 140 06:56 08.11.2019
4546 Rain 8 1001 93 0 2.1 110 06:36 08.11.2019
4547 Rain 8 1002 93 0 1 0 06:18 08.11.2019
4548 Rain 8 1002 93 0 2.6 110 05:25 08.11.2019
4549 Rain 8 1002 87 0 3.6 90 04:19 08.11.2019
4550 Rain 8 1002 93 0 3.1 80 03:42 08.11.2019
4551 Rain 8 1003 87 0 5.1 110 02:55 08.11.2019
4552 Rain 8 1003 93 0 5.1 100 01:50 08.11.2019
4553 Rain 8 1003 93 0 5.1 100 01:32 08.11.2019
4554 Rain 9 1004 93 0 3.1 110 00:38 08.11.2019
4555 Rain 9 1005 93 0 5.1 110 00:20 08.11.2019
4556 Rain 9 1005 93 0 5.7 100 23:44 07.11.2019
4557 Rain 9 1005 93 0 5.7 100 23:25 07.11.2019
4558 Rain 9 1006 93 5000 3.6 80 22:55 07.11.2019
4559 Rain 9 1006 93 5000 3.6 80 22:37 07.11.2019
4560 Rain 9 1006 93 5000 3.6 90 22:19 07.11.2019
4561 Rain 9 1006 93 5000 3.6 90 21:38 07.11.2019
4562 Rain 9 1006 93 5000 3.6 100 21:20 07.11.2019
4563 Rain 9 1006 93 10000 2.6 80 20:58 07.11.2019
4564 Rain 9 1006 93 10000 2.6 80 20:40 07.11.2019
4565 Rain 9 1007 93 10000 1.5 60 20:21 07.11.2019
4566 Rain 9 1007 93 10000 2.1 80 19:56 07.11.2019
4567 Rain 9 1007 93 10000 2.1 80 19:37 07.11.2019
4568 Rain 9 1007 87 10000 2.1 80 19:19 07.11.2019
4569 Rain 9 1007 87 10000 2.6 60 18:56 07.11.2019
4570 Rain 9 1007 87 10000 2.6 60 18:37 07.11.2019
4571 Clouds 9 1007 93 10000 2.6 40 18:19 07.11.2019
4572 Rain 9 1007 93 8000 2.1 40 17:41 07.11.2019
4573 Rain 9 1007 93 8000 2.1 40 17:23 07.11.2019
4574 Rain 9 1008 93 4000 2.1 30 16:59 07.11.2019
4575 Rain 9 1008 93 5000 1 0 16:40 07.11.2019
4576 Rain 10 1008 93 5000 1 0 16:22 07.11.2019
4577 Rain 10 1008 87 3500 0.5 0 15:59 07.11.2019
4578 Rain 10 1008 93 10000 1 0 15:39 07.11.2019
4579 Rain 10 1008 93 10000 1 0 15:19 07.11.2019
4580 Clouds 10 1008 87 10000 2.6 110 14:46 07.11.2019
4581 Clouds 10 1007 93 7000 2.1 50 14:27 07.11.2019
4582 Clouds 10 1007 93 7000 2.1 50 14:27 07.11.2019
4583 Clouds 10 1008 87 10000 1 0 13:58 07.11.2019
4584 Rain 10 1008 93 7000 2.6 50 13:40 07.11.2019
4585 Rain 10 1008 93 7000 2.6 50 13:21 07.11.2019
4586 Rain 10 1008 93 8000 0.5 0 12:59 07.11.2019
4587 Rain 10 1008 93 10000 1 0 12:41 07.11.2019
4588 Rain 9 1008 93 10000 1 0 12:22 07.11.2019
4589 Rain 9 1008 93 8000 0.5 0 11:59 07.11.2019
4590 Rain 9 1008 93 8000 1.5 100 11:40 07.11.2019
4591 Rain 9 1008 93 8000 1.5 100 11:22 07.11.2019
4592 Rain 9 1008 87 10000 3.1 110 10:42 07.11.2019
4593 Rain 9 1008 87 10000 2.1 120 10:19 07.11.2019
4594 Clouds 8 1008 87 10000 2.6 70 09:44 07.11.2019
4595 Clouds 8 1008 87 10000 2.6 70 09:23 07.11.2019
4596 -273 0 0 0 0 0 08:58 07.11.2019
4597 Clouds 8 1008 100 10000 2.1 70 08:57 07.11.2019
4598 Clouds 8 1008 93 8000 2.1 10 08:38 07.11.2019
4599 Clouds 7 1008 93 8000 2.1 10 08:19 07.11.2019
4600 Clouds 7 1008 93 8000 2.1 10 08:19 07.11.2019
4601 Clouds 7 1008 93 8000 2.1 10 08:19 07.11.2019
4602 Mist 7 1007 93 3000 0.5 0 07:42 07.11.2019
4603 Mist 7 1007 93 3000 0.5 0 07:42 07.11.2019
4604 -273 0 0 0 0 0 07:22 07.11.2019
4605 Mist 7 1007 93 3000 0.5 0 07:21 07.11.2019
4606 Fog 6 1007 100 800 0.5 0 06:46 07.11.2019
4607 Fog 6 1007 100 800 1.5 190 06:25 07.11.2019
4608 Fog 6 1007 100 800 1 0 05:51 07.11.2019
4609 Tornado 6 1007 100 800 1.02 41 05:32 07.11.2019
4610 Tornado 6 1007 100 800 1.02 41 05:32 07.11.2019
4611 Clouds 7 1006 100 8000 1 30 04:52 07.11.2019
4612 Clouds 7 1006 93 8000 0.5 0 04:30 07.11.2019
4613 Clouds 7 1006 93 8000 0.5 0 04:30 07.11.2019
4614 Fog 7 1007 93 2000 0.5 0 01:32 07.11.2019
4615 Clouds 7 1006 100 10000 1 0 00:41 07.11.2019
4616 Clouds 8 1006 100 10000 1 0 00:18 07.11.2019
4617 Fog 8 1006 100 6000 1 0 23:43 06.11.2019
4618 Fog 8 1006 100 6000 1 0 23:20 06.11.2019
4619 Fog 8 1006 100 10000 0.5 0 22:41 06.11.2019
4620 Fog 8 1006 100 10000 0.5 0 22:21 06.11.2019
4621 Clouds 8 1006 100 10000 1 260 21:58 06.11.2019
4622 Clouds 8 1006 100 10000 1 260 21:58 06.11.2019
4623 Clouds 8 1005 93 10000 2.1 200 21:39 06.11.2019
4624 Clouds 8 1005 93 10000 2.1 200 21:20 06.11.2019
4625 Fog 8 1005 100 10000 1.5 190 20:57 06.11.2019
4626 Fog 9 1005 93 10000 0.5 200 20:39 06.11.2019
4627 Fog 9 1005 93 10000 0.5 200 20:20 06.11.2019
4628 Fog 9 1005 93 10000 0.5 0 19:58 06.11.2019
4629 Clouds 9 1005 100 10000 0.5 0 19:37 06.11.2019
4630 Clouds 9 1005 100 10000 0.5 0 19:19 06.11.2019
4631 Clouds 9 1005 93 10000 1 0 18:55 06.11.2019
4632 Clouds 9 1005 93 10000 1 0 18:37 06.11.2019
4633 Clouds 9 1004 93 10000 0.5 180 18:18 06.11.2019
4634 Clouds 10 1004 93 10000 1 270 17:42 06.11.2019
4635 Clouds 10 1004 87 10000 1 290 17:23 06.11.2019
4636 Rain 10 1004 87 10000 1 290 16:57 06.11.2019
4637 Rain 11 1004 87 10000 0.5 0 16:39 06.11.2019
4638 Rain 11 1004 87 10000 1 0 16:21 06.11.2019
4639 Clouds 11 1004 87 10000 1 0 15:58 06.11.2019
4640 Clouds 11 1004 87 10000 1.5 150 15:38 06.11.2019
4641 Clouds 11 1003 87 10000 1.5 80 15:19 06.11.2019
4642 Clouds 11 1003 87 10000 1 0 14:57 06.11.2019
4643 Clouds 11 1003 87 10000 1 0 14:39 06.11.2019
4644 Rain 10 1003 93 10000 1 0 14:20 06.11.2019
4645 Rain 10 1003 93 10000 1.5 360 13:58 06.11.2019
4646 Rain 10 1003 93 10000 1.5 360 13:37 06.11.2019
4647 Rain 10 1003 93 9000 0.5 0 13:18 06.11.2019
4648 Rain 10 1004 93 6000 2.1 140 12:55 06.11.2019
4649 Rain 10 1004 93 6000 2.1 140 12:37 06.11.2019
4650 Rain 10 1004 93 5000 2.1 160 12:18 06.11.2019
4651 Rain 10 1004 93 5000 2.1 160 11:54 06.11.2019
4652 Rain 10 1004 93 5000 2.1 190 11:36 06.11.2019
4653 Rain 10 1004 93 3000 1 0 11:18 06.11.2019
4654 Rain 10 1003 93 5000 0.5 0 10:42 06.11.2019
4655 Rain 10 1003 87 5000 2.1 180 10:24 06.11.2019
4656 Rain 10 1003 87 5000 2.1 180 10:24 06.11.2019
4657 Rain 10 1003 87 5000 2.1 180 09:58 06.11.2019
4658 Thunderstorm 10 1003 87 10000 2.6 0 09:39 06.11.2019
4659 Rain 10 1002 87 9000 2.1 90 09:20 06.11.2019
4660 Clouds 9 1002 87 9000 2.1 60 08:55 06.11.2019
4661 Clouds 9 1002 87 9000 2.1 60 08:37 06.11.2019
4662 Clouds 9 1002 87 9000 2.1 60 08:37 06.11.2019
4663 Clouds 9 1001 93 10000 2.1 30 08:18 06.11.2019
4664 Clouds 9 1001 93 10000 2.6 50 07:43 06.11.2019
4665 Clouds 9 1001 93 10000 2.6 50 07:24 06.11.2019
4666 Clouds 9 1000 93 10000 1 0 06:48 06.11.2019
4667 Rain 9 1000 93 10000 2.6 50 06:28 06.11.2019
4668 Thunderstorm 9 1000 100 8000 2.1 20 05:32 06.11.2019
4669 Mist 8 999 100 5000 1 0 02:54 06.11.2019
4670 Fog 8 1000 100 4000 1 0 01:41 06.11.2019
4671 Fog 9 999 100 3000 1 0 00:46 06.11.2019
4672 Fog 9 999 100 3000 1 0 00:46 06.11.2019
4673 Fog 9 999 93 4000 0.5 0 23:59 05.11.2019
4674 Fog 9 999 93 5000 1.5 210 23:39 05.11.2019
4675 Fog 9 998 93 3000 1 0 23:21 05.11.2019
4676 Fog 9 998 93 3000 1 0 22:55 05.11.2019
4677 Fog 10 998 100 4000 1 280 22:36 05.11.2019
4678 Fog 10 998 93 4000 0.5 0 22:18 05.11.2019
4679 Fog 10 998 100 10000 1 0 21:42 05.11.2019
4680 Clouds 10 997 100 10000 1 0 21:21 05.11.2019
4681 Clouds 10 997 100 10000 1 0 21:21 05.11.2019
4682 Clouds 11 997 100 10000 1 0 20:59 05.11.2019
4683 Clouds 11 997 93 10000 1 10 20:39 05.11.2019
4684 Clouds 11 997 87 10000 1 0 20:20 05.11.2019
4685 Clouds 11 997 93 10000 2.1 50 19:58 05.11.2019
4686 Clouds 12 997 93 10000 2.1 50 19:38 05.11.2019
4687 Clouds 12 997 87 10000 1.5 60 19:20 05.11.2019
4688 Clouds 12 996 87 10000 0.5 0 18:57 05.11.2019
4689 Clouds 12 996 87 10000 0.5 0 18:39 05.11.2019
4690 Rain 13 996 93 10000 1 180 18:20 05.11.2019
4691 Rain 13 996 82 10000 2.1 160 17:57 05.11.2019
4692 Rain 13 996 82 10000 2.1 160 17:38 05.11.2019
4693 Clouds 14 996 82 10000 1.5 170 17:18 05.11.2019
4694 Clouds 14 996 77 10000 2.1 160 16:54 05.11.2019
4695 Clouds 15 996 77 10000 2.1 160 16:36 05.11.2019
4696 Clouds 15 995 82 10000 2.1 150 16:18 05.11.2019
4697 Clouds 15 995 77 10000 2.6 140 15:37 05.11.2019
4698 Clouds 15 995 77 10000 2.6 140 15:37 05.11.2019
4699 Clouds 16 996 72 10000 1.5 150 15:19 05.11.2019
4700 Clouds 16 996 72 10000 1.5 150 14:57 05.11.2019
4701 Clouds 16 996 77 10000 1 0 14:38 05.11.2019
4702 Clouds 16 996 77 10000 1.5 0 14:19 05.11.2019
4703 Clouds 15 996 77 10000 1.5 0 14:19 05.11.2019
4704 Clouds 15 996 77 10000 1.5 120 13:43 05.11.2019
4705 Clouds 15 996 77 10000 1.5 120 13:24 05.11.2019
4706 Clouds 15 996 82 9000 2.1 10 12:59 05.11.2019
4707 Clouds 15 996 82 9000 2.1 10 12:39 05.11.2019
4708 Clouds 15 997 87 7000 1.5 300 12:18 05.11.2019
4709 Mist 14 997 93 5000 1.5 330 11:41 05.11.2019
4710 Mist 14 998 93 4000 2.1 300 11:21 05.11.2019
4711 Mist 13 998 93 4000 2.1 300 10:59 05.11.2019
4712 Mist 13 998 100 3000 2.1 260 10:59 05.11.2019
4713 Mist 13 998 100 3000 2.1 260 10:41 05.11.2019
4714 Mist 12 997 93 3500 1.5 250 10:22 05.11.2019
4715 Mist 12 997 93 5000 1 0 09:56 05.11.2019
4716 Mist 12 997 93 5000 1 0 09:37 05.11.2019
4717 Mist 11 998 93 5000 0.5 0 09:18 05.11.2019
4718 Rain 11 998 100 5000 1.5 260 08:40 05.11.2019
4719 Rain 11 998 100 3500 3.1 250 08:20 05.11.2019
4720 Rain 11 998 100 3500 3.1 250 07:57 05.11.2019
4721 Mist 11 997 93 3000 2.1 140 07:39 05.11.2019
4722 Mist 11 997 93 3000 2.1 140 07:39 05.11.2019
4723 Rain 11 997 93 4100 1.5 180 07:20 05.11.2019
4724 Rain 11 997 93 3600 1.5 80 06:49 05.11.2019
4725 Rain 11 998 93 2800 1.5 260 05:51 05.11.2019
4726 Rain 11 997 93 2500 1.5 180 05:22 05.11.2019
4727 Rain 11 997 93 2500 1.5 180 05:22 05.11.2019
4728 Rain 11 997 93 3300 1.5 180 04:25 05.11.2019
4729 Rain 11 997 93 3300 1.5 180 04:25 05.11.2019
4730 Mist 11 997 87 4800 1.5 180 03:55 05.11.2019
4731 Rain 12 998 93 5000 3.1 130 02:46 05.11.2019
4732 Rain 12 999 93 6000 2.6 130 02:18 05.11.2019
4733 Rain 12 999 87 10000 2.6 90 00:52 05.11.2019
4734 Clouds 12 999 87 8000 2.6 110 00:30 05.11.2019
4735 Clouds 12 999 87 9000 2.6 80 23:56 04.11.2019
4736 Clouds 12 999 87 9000 2.6 80 23:37 04.11.2019
4737 Clouds 12 999 87 10000 2.6 100 23:18 04.11.2019
4738 Clouds 12 999 82 10000 3.1 100 22:41 04.11.2019
4739 Clouds 12 999 82 10000 3.6 110 22:23 04.11.2019
4740 Clouds 12 999 82 10000 3.6 110 22:23 04.11.2019
4741 Clouds 12 999 82 10000 3.1 80 21:56 04.11.2019
4742 Clouds 12 999 82 10000 3.1 80 21:37 04.11.2019
4743 Clouds 12 1000 82 10000 1.5 80 21:19 04.11.2019
4744 Clouds 12 1000 82 10000 1.5 80 20:58 04.11.2019
4745 Clouds 12 1000 93 10000 2.1 60 20:39 04.11.2019
4746 Clouds 12 1000 93 10000 2.1 40 20:21 04.11.2019
4747 Clouds 12 1000 93 10000 2.1 40 19:58 04.11.2019
4748 Clouds 12 1000 93 10000 2.1 20 19:40 04.11.2019
4749 Clouds 12 1000 93 10000 1 0 19:21 04.11.2019
4750 Clouds 12 999 93 10000 0.5 300 18:56 04.11.2019
4751 Clouds 12 999 93 10000 0.5 300 18:56 04.11.2019
4752 Clouds 12 999 93 10000 0.5 300 18:37 04.11.2019
4753 Clouds 13 999 93 10000 1 0 18:19 04.11.2019
4754 Clouds 13 999 87 10000 0.5 0 17:39 04.11.2019
4755 Clouds 14 998 87 10000 0.5 0 17:21 04.11.2019
4756 Clouds 15 998 82 10000 1 0 16:56 04.11.2019
4757 Clouds 15 998 82 10000 1 0 16:38 04.11.2019
4758 Clouds 15 999 82 10000 1.5 0 16:19 04.11.2019
4759 Clouds 16 998 87 10000 2.1 120 15:41 04.11.2019
4760 Clouds 16 998 87 10000 2.1 110 15:22 04.11.2019
4761 Clouds 15 998 87 10000 2.1 110 14:59 04.11.2019
4762 Clouds 15 998 87 10000 1 0 14:41 04.11.2019
4763 Clear 15 998 82 10000 2.1 90 14:21 04.11.2019
4764 Clear 15 998 82 10000 2.1 120 13:58 04.11.2019
4765 Clear 15 998 82 10000 2.1 120 13:40 04.11.2019
4766 Clouds 15 998 87 10000 1 0 13:21 04.11.2019
4767 Clouds 15 998 87 10000 1 0 13:21 04.11.2019
4768 Clouds 15 998 87 10000 1 0 13:21 04.11.2019
4769 Clouds 15 998 87 10000 1 0 13:21 04.11.2019
4770 Clouds 15 998 87 10000 1 0 12:57 04.11.2019
4771 Clouds 15 998 87 10000 3.1 190 12:57 04.11.2019
4772 Clouds 15 998 87 10000 3.1 190 12:39 04.11.2019
4773 Clouds 15 998 87 10000 3.1 180 12:20 04.11.2019
4774 Clear 14 997 82 10000 1.5 160 11:43 04.11.2019
4775 Clear 13 997 87 10000 1.5 130 11:24 04.11.2019
4776 Clear 12 998 71 10000 0.5 0 10:59 04.11.2019
4777 Clear 12 998 71 10000 0.5 0 10:41 04.11.2019
4778 Clear 12 998 71 10000 0.5 0 10:41 04.11.2019
4779 Clear 11 998 82 10000 1.5 250 10:23 04.11.2019
4780 Clear 11 998 82 10000 1.5 250 10:23 04.11.2019
4781 Clear 10 998 81 10000 1.5 260 09:46 04.11.2019
4782 Clear 10 998 81 10000 1.5 260 09:28 04.11.2019
4783 Clear 9 997 100 10000 2.1 360 08:58 04.11.2019
4784 Clear 8 997 100 10000 2.1 360 08:38 04.11.2019
4785 Clear 7 997 93 10000 0.5 0 08:19 04.11.2019
4786 Clear 7 997 93 10000 0.5 0 08:19 04.11.2019
4787 Fog 7 997 100 9000 0.5 0 07:43 04.11.2019
4788 Fog 7 996 100 9000 1 0 07:21 04.11.2019
4789 Fog 7 996 100 9000 1 0 06:56 04.11.2019
4790 Rain 7 996 100 9000 1 0 06:33 04.11.2019
4791 Clouds 7 996 100 10000 2.1 270 05:48 04.11.2019
4792 Mist 7 995 100 5000 3.1 280 04:43 04.11.2019
4793 Fog 7 995 100 800 1.5 340 04:21 04.11.2019
4794 Clouds 8 994 93 10000 2.1 250 02:32 04.11.2019
4795 Clouds 9 994 93 10000 1.5 260 01:21 04.11.2019
4796 Clouds 9 994 93 10000 2.1 270 00:40 04.11.2019
4797 Clouds 9 994 87 10000 2.6 280 00:20 04.11.2019
4798 Clouds 10 994 100 10000 2.1 280 23:41 03.11.2019
4799 Clouds 10 994 93 10000 2.1 260 23:21 03.11.2019
4800 Clouds 10 994 93 10000 2.1 260 22:58 03.11.2019
4801 Clouds 10 993 93 10000 1.5 210 22:40 03.11.2019
4802 Clouds 10 993 100 10000 1 0 22:20 03.11.2019
4803 Clouds 10 993 100 10000 1 0 22:20 03.11.2019
4804 Clouds 10 993 100 10000 2.6 270 21:56 03.11.2019
4805 Clouds 10 993 100 10000 2.6 270 21:38 03.11.2019
4806 Clouds 10 993 100 10000 2.1 250 21:19 03.11.2019
4807 Clouds 10 993 100 10000 2.1 250 20:54 03.11.2019
4808 Clouds 10 992 100 10000 1.5 240 20:36 03.11.2019
4809 Clouds 10 992 93 10000 2.1 250 20:18 03.11.2019
4810 Clouds 10 992 93 10000 2.1 250 19:54 03.11.2019
4811 Clouds 10 992 93 10000 2.1 240 19:36 03.11.2019
4812 Drizzle 10 992 93 10000 1 0 19:18 03.11.2019
4813 Rain 10 992 93 10000 2.6 250 18:38 03.11.2019
4814 Drizzle 10 991 100 5000 2.6 260 18:18 03.11.2019
4815 Drizzle 10 991 100 5000 2.6 260 18:18 03.11.2019
4816 Drizzle 10 990 93 5000 1 0 17:57 03.11.2019
4817 Drizzle 10 990 93 5000 1 0 17:39 03.11.2019
4818 Drizzle 10 991 93 2500 1.5 240 17:18 03.11.2019
4819 Drizzle 10 991 100 3000 1.5 220 16:54 03.11.2019
4820 Drizzle 11 991 100 3000 1.5 220 16:36 03.11.2019
4821 Drizzle 11 991 100 2000 1.5 270 16:18 03.11.2019
4822 Rain 11 990 100 5000 1 340 15:45 03.11.2019
4823 Rain 11 991 100 4000 1.5 270 15:25 03.11.2019
4824 Rain 11 991 100 3500 2.1 260 14:57 03.11.2019
4825 Rain 11 991 100 3500 2.1 260 14:38 03.11.2019
4826 Rain 11 991 93 5000 1.5 220 14:18 03.11.2019
4827 Rain 11 991 93 6000 1.5 150 13:44 03.11.2019
4828 Rain 11 991 93 6000 2.6 120 13:21 03.11.2019
4829 Rain 11 992 100 6000 1.5 160 12:59 03.11.2019
4830 Rain 11 992 100 6000 1.5 160 12:37 03.11.2019
4831 Rain 10 993 100 6000 3.1 160 12:19 03.11.2019
4832 Rain 10 993 100 6000 3.1 160 11:54 03.11.2019
4833 Rain 10 993 100 5000 3.1 130 11:36 03.11.2019
4834 Rain 10 994 93 6000 3.1 150 11:18 03.11.2019
4835 Rain 10 994 93 4000 3.1 100 10:40 03.11.2019
4836 Rain 10 995 93 4000 2.6 120 10:22 03.11.2019
4837 Rain 10 995 93 10000 2.6 90 09:56 03.11.2019
4838 Rain 10 995 93 10000 2.6 90 09:38 03.11.2019
4839 Clouds 10 995 93 10000 2.1 90 09:20 03.11.2019
4840 Rain 10 995 100 10000 2.1 70 08:39 03.11.2019
4841 Clouds 10 996 100 10000 1.5 80 08:20 03.11.2019
4842 Clouds 9 996 100 9000 2.1 90 07:45 03.11.2019
4843 Rain 9 996 93 4000 1 0 07:23 03.11.2019
4844 Rain 9 996 93 4000 2.6 70 06:49 03.11.2019
4845 Rain 9 997 93 4000 1.5 110 06:30 03.11.2019
4846 Rain 9 998 93 4000 2.1 270 05:38 03.11.2019
4847 Rain 9 998 93 4000 1 0 04:56 03.11.2019
4848 Rain 9 998 93 5000 1 0 04:33 03.11.2019
4849 Rain 10 999 93 6000 3.1 110 03:30 03.11.2019
4850 Drizzle 10 1002 100 2000 2.6 120 02:30 03.11.2019
4851 Drizzle 10 1002 100 2000 2.1 120 01:59 03.11.2019
4852 Drizzle 10 1002 100 2000 2.1 120 01:38 03.11.2019
4853 Drizzle 10 1003 93 2000 2.1 120 01:19 03.11.2019
4854 Drizzle 10 1003 93 2000 2.1 120 00:42 03.11.2019
4855 Drizzle 10 1003 93 2000 2.1 110 00:23 03.11.2019
4856 Drizzle 10 1004 93 2000 1.5 110 23:57 02.11.2019
4857 Drizzle 10 1004 93 2000 1.5 110 23:37 02.11.2019
4858 Drizzle 10 1004 93 2000 0.5 0 23:18 02.11.2019
4859 Drizzle 10 1005 93 2500 0.5 0 22:55 02.11.2019
4860 Drizzle 10 1005 93 2500 0.5 0 22:37 02.11.2019
4861 Drizzle 10 1005 93 2500 0.5 0 22:37 02.11.2019
4862 Drizzle 10 1005 93 2500 0.5 190 22:18 02.11.2019
4863 Drizzle 10 1005 93 2500 0.5 190 21:55 02.11.2019
4864 Drizzle 10 1005 93 2500 1 0 21:37 02.11.2019
4865 Drizzle 10 1005 93 2500 1.5 120 21:18 02.11.2019
4866 Drizzle 10 1005 93 2500 1.5 120 21:18 02.11.2019
4867 Drizzle 10 1005 93 2500 1.5 120 21:18 02.11.2019
4868 Drizzle 10 1005 93 2500 1.5 120 21:18 02.11.2019
4869 Drizzle 10 1006 93 2500 0.5 0 20:56 02.11.2019
4870 Drizzle 10 1006 93 2500 0.5 0 20:38 02.11.2019
4871 Drizzle 10 1006 93 2500 1 0 20:18 02.11.2019
4872 Drizzle 10 1006 93 2000 1 0 19:39 02.11.2019
4873 Drizzle 10 1006 93 2000 1 0 19:20 02.11.2019
4874 Drizzle 10 1006 93 4000 0.5 0 18:55 02.11.2019
4875 Drizzle 10 1006 93 2000 1 0 18:55 02.11.2019
4876 Drizzle 10 1006 93 4000 0.5 0 18:37 02.11.2019
4877 Drizzle 11 1007 93 4000 0.5 0 18:18 02.11.2019
4878 Drizzle 11 1007 93 4000 0.5 0 17:55 02.11.2019
4879 Drizzle 11 1007 93 2000 1.5 170 17:37 02.11.2019
4880 Drizzle 11 1007 93 2000 1 160 17:18 02.11.2019
4881 Drizzle 11 1007 93 3000 1.5 170 16:40 02.11.2019
4882 Drizzle 11 1007 87 4000 1 0 16:21 02.11.2019
4883 Drizzle 11 1007 81 5000 1.5 150 15:44 02.11.2019
4884 Mist 11 1007 81 5000 2.1 120 15:22 02.11.2019
4885 Mist 12 1007 81 5000 2.1 120 14:59 02.11.2019
4886 Mist 12 1007 87 5000 1.5 160 14:41 02.11.2019
4887 Mist 12 1007 87 5000 1.5 160 14:41 02.11.2019
4888 Mist 12 1007 87 5000 1.5 160 14:41 02.11.2019
4889 Mist 12 1007 87 5000 1.5 170 14:22 02.11.2019
4890 Mist 12 1007 87 5000 1.5 170 13:55 02.11.2019
4891 Drizzle 11 1008 81 5000 2.1 130 13:37 02.11.2019
4892 Mist 11 1008 87 5000 1.5 140 13:18 02.11.2019
4893 Clouds 11 1008 87 7000 2.1 130 12:40 02.11.2019
4894 Clouds 11 1009 87 7000 1.5 120 12:22 02.11.2019
4895 Clouds 11 1009 87 7000 1.5 110 11:56 02.11.2019
4896 Clouds 11 1009 87 7000 1.5 110 11:38 02.11.2019
4897 Clouds 11 1009 81 7000 1.5 100 11:19 02.11.2019
4898 Clouds 10 1010 81 6000 1.5 90 10:43 02.11.2019
4899 Clouds 10 1010 87 6000 0.5 0 10:24 02.11.2019
4900 Clouds 10 1010 87 6000 0.5 0 09:54 02.11.2019
4901 Clouds 10 1010 87 6000 0.5 0 09:54 02.11.2019
4902 Mist 10 1010 87 5000 1 190 09:36 02.11.2019
4903 Mist 10 1010 93 5000 0.5 0 09:18 02.11.2019
4904 Drizzle 10 1010 93 5000 2.1 140 08:42 02.11.2019
4905 Clouds 10 1010 93 6000 1.5 180 08:20 02.11.2019
4906 Clouds 9 1009 93 8000 1.5 130 07:47 02.11.2019
4907 Drizzle 10 1010 87 10000 1.5 140 07:27 02.11.2019
4908 Drizzle 10 1010 81 10000 2.1 120 06:52 02.11.2019
4909 Drizzle 10 1010 81 10000 2.1 120 06:25 02.11.2019
4910 Clouds 10 1010 81 10000 1.5 120 05:54 02.11.2019
4911 Drizzle 10 1011 81 10000 1.5 150 04:46 02.11.2019
4912 Clouds 10 1011 81 10000 1 110 04:19 02.11.2019
4913 Clouds 10 1012 81 10000 1 0 03:33 02.11.2019
4914 Clouds 10 1012 81 10000 1 0 02:32 02.11.2019
4915 Clouds 10 1012 81 10000 1 110 01:41 02.11.2019
4916 Clouds 10 1013 81 10000 1 90 01:19 02.11.2019
4917 Clouds 10 1013 76 10000 1 0 00:42 02.11.2019
4918 Clouds 10 1013 76 10000 1.5 60 00:22 02.11.2019
4919 Clouds 10 1014 71 10000 1 0 23:42 01.11.2019
4920 Clouds 11 1014 71 10000 1 0 23:20 01.11.2019
4921 Clouds 11 1014 71 10000 1 0 22:43 01.11.2019
4922 Clouds 11 1014 71 10000 1.5 110 22:21 01.11.2019
4923 Clouds 11 1014 71 10000 1.5 110 22:21 01.11.2019
4924 Clouds 11 1014 71 10000 1.5 110 21:56 01.11.2019
4925 Clouds 11 1014 71 10000 1 0 21:37 01.11.2019
4926 Clouds 11 1015 71 10000 2.1 110 21:18 01.11.2019
4927 Clouds 11 1015 71 10000 2.1 130 20:42 01.11.2019
4928 Clouds 11 1015 71 10000 2.1 130 20:24 01.11.2019
4929 Clouds 11 1015 71 10000 2.1 130 19:59 01.11.2019
4930 Clouds 11 1015 71 10000 2.1 130 19:41 01.11.2019
4931 Clouds 11 1016 71 10000 1.5 110 19:21 01.11.2019
4932 Clouds 11 1016 66 10000 1.5 120 18:42 01.11.2019
4933 Clouds 11 1016 71 10000 2.1 140 18:21 01.11.2019
4934 Clouds 12 1015 71 10000 2.1 140 17:59 01.11.2019
4935 Clouds 12 1015 71 10000 2.1 140 17:41 01.11.2019
4936 Clouds 12 1016 71 10000 2.1 130 17:23 01.11.2019
4937 Clouds 12 1016 71 10000 1 0 16:41 01.11.2019
4938 Clouds 13 1016 62 10000 2.1 90 16:21 01.11.2019
4939 Clouds 13 1016 62 10000 1.5 100 15:58 01.11.2019
4940 Clouds 13 1016 62 10000 1.5 100 15:40 01.11.2019
4941 Clouds 13 1016 62 10000 1.5 160 15:22 01.11.2019
4942 Clouds 13 1017 67 10000 2.1 130 14:44 01.11.2019
4943 Clouds 13 1017 67 10000 2.1 130 14:25 01.11.2019
4944 Clouds 13 1017 67 10000 1.5 0 13:59 01.11.2019
4945 Clouds 13 1018 66 10000 2.1 150 13:40 01.11.2019
4946 Clouds 13 1018 62 10000 1.5 0 13:21 01.11.2019
4947 Clouds 13 1018 62 10000 1.5 0 13:21 01.11.2019
4948 Clouds 13 1018 62 10000 1.5 0 12:55 01.11.2019
4949 Clouds 13 1018 62 10000 1.5 0 12:55 01.11.2019
4950 Clouds 13 1018 66 10000 1.5 140 12:37 01.11.2019
4951 Clouds 12 1019 66 10000 1.5 60 12:19 01.11.2019
4952 Clouds 12 1019 66 10000 2.1 80 11:41 01.11.2019
4953 Clouds 12 1019 71 10000 1.5 90 11:23 01.11.2019
4954 Clouds 12 1019 71 10000 1.5 120 10:44 01.11.2019
4955 Clouds 11 1019 71 10000 1.5 120 10:25 01.11.2019
4956 Clouds 11 1020 76 10000 0.5 0 09:59 01.11.2019
4957 Clouds 11 1020 76 10000 0.5 0 09:59 01.11.2019
4958 Clouds 11 1020 76 10000 0.5 0 09:41 01.11.2019
4959 Clouds 11 1020 76 10000 1 0 09:21 01.11.2019
4960 Clouds 11 1019 81 10000 1.5 120 08:46 01.11.2019
4961 Clouds 10 1019 81 10000 1 0 08:23 01.11.2019
4962 Clouds 10 1019 81 10000 1 0 07:58 01.11.2019
4963 Clouds 10 1019 81 10000 1 220 07:40 01.11.2019
4964 Clouds 10 1019 81 10000 0.5 0 07:21 01.11.2019
4965 Clouds 10 1019 87 10000 0.5 0 06:49 01.11.2019
4966 Clouds 10 1019 81 10000 0.5 0 06:22 01.11.2019
4967 Clouds 10 1019 87 10000 1 160 05:44 01.11.2019
4968 Clouds 11 1019 87 10000 0.5 0 04:39 01.11.2019
4969 Clouds 11 1020 76 10000 1.5 50 03:26 01.11.2019
4970 Clouds 11 1020 87 10000 1 40 01:37 01.11.2019
4971 Clouds 11 1020 76 10000 1.5 50 00:42 01.11.2019
4972 Clouds 11 1020 76 10000 1.5 60 00:19 01.11.2019
4973 Clouds 11 1020 76 10000 1.5 50 23:43 31.10.2019
4974 Clouds 11 1021 76 10000 1.5 70 23:23 31.10.2019
4975 Clouds 11 1021 76 10000 1.5 80 22:57 31.10.2019
4976 Clouds 11 1021 76 10000 1.5 80 22:57 31.10.2019
4977 Clouds 11 1021 76 10000 1.5 80 22:39 31.10.2019
4978 Clouds 11 1021 76 10000 2.1 80 22:20 31.10.2019
4979 Clouds 11 1021 76 10000 2.1 80 21:44 31.10.2019
4980 Clouds 11 1021 81 10000 2.1 80 21:21 31.10.2019
4981 Clouds 11 1020 76 10000 2.1 90 20:57 31.10.2019
4982 Clouds 11 1020 76 10000 2.1 90 20:39 31.10.2019
4983 Clouds 11 1020 76 10000 2.1 90 20:21 31.10.2019
4984 Clouds 11 1020 76 10000 2.6 90 19:42 31.10.2019
4985 Clouds 11 1020 76 10000 2.1 70 19:22 31.10.2019
4986 Clouds 11 1020 76 10000 2.1 80 18:57 31.10.2019
4987 Clouds 11 1020 76 10000 2.1 80 18:39 31.10.2019
4988 Clouds 11 1020 76 10000 2.6 80 18:19 31.10.2019
4989 Clouds 11 1019 76 10000 2.6 80 17:42 31.10.2019
4990 Clouds 11 1019 76 10000 3.1 90 17:22 31.10.2019
4991 Clouds 11 1019 76 10000 2.6 90 16:58 31.10.2019
4992 Clouds 12 1019 76 10000 2.6 90 16:40 31.10.2019
4993 Clouds 11 1019 76 10000 2.6 90 16:40 31.10.2019
4994 Clouds 12 1019 76 10000 3.1 100 16:20 31.10.2019
4995 Clouds 12 1019 71 10000 3.1 110 15:54 31.10.2019
4996 Clouds 12 1019 71 10000 3.1 110 15:36 31.10.2019
4997 Clouds 12 1019 76 10000 3.1 100 15:18 31.10.2019
4998 Clouds 12 1020 76 10000 3.1 110 14:41 31.10.2019
4999 Clouds 12 1020 76 10000 3.6 110 14:23 31.10.2019
5000 Clouds 12 1020 76 10000 3.1 110 13:59 31.10.2019
5001 Clouds 12 1020 76 10000 3.1 110 13:39 31.10.2019
5002 Clouds 12 1020 71 10000 3.1 110 13:20 31.10.2019
5003 Clouds 12 1020 71 10000 2.6 100 12:58 31.10.2019
5004 Clouds 12 1020 71 10000 2.6 100 12:38 31.10.2019
5005 Clouds 12 1021 76 10000 2.1 90 12:20 31.10.2019
5006 Clouds 11 1021 76 10000 3.1 80 11:46 31.10.2019
5007 Clouds 11 1021 76 10000 3.1 90 11:21 31.10.2019
5008 Clouds 11 1021 71 10000 3.1 120 10:59 31.10.2019
5009 Clouds 11 1021 71 10000 3.1 120 10:40 31.10.2019
5010 Clouds 11 1021 76 10000 2.6 100 10:21 31.10.2019
5011 Clouds 11 1021 76 10000 2.6 80 09:56 31.10.2019
5012 Clouds 11 1021 76 10000 2.6 80 09:37 31.10.2019
5013 Clouds 11 1021 71 10000 3.1 80 09:18 31.10.2019
5014 Clouds 11 1020 76 10000 2.1 90 08:44 31.10.2019
5015 Clouds 11 1020 76 10000 2.1 90 08:26 31.10.2019
5016 Clouds 11 1020 76 10000 2.1 80 07:48 31.10.2019
5017 Clouds 11 1020 76 10000 2.1 80 07:27 31.10.2019
5018 Clouds 11 1020 76 10000 1.5 70 06:54 31.10.2019
5019 Clouds 11 1020 76 10000 1.5 80 06:32 31.10.2019
5020 Clouds 11 1020 76 10000 2.6 90 05:28 31.10.2019
5021 Clouds 11 1020 71 10000 2.6 90 03:20 31.10.2019
5022 Clouds 11 1021 71 10000 3.1 80 02:30 31.10.2019
5023 Clouds 11 1021 66 10000 3.1 110 01:24 31.10.2019
5024 Clouds 12 1021 71 10000 3.1 90 00:27 31.10.2019
5025 Clouds 12 1021 71 10000 3.1 90 23:52 30.10.2019
5026 Clouds 12 1021 71 10000 3.1 90 23:27 30.10.2019
5027 Clouds 12 1022 71 10000 3.1 80 22:43 30.10.2019
5028 Clouds 12 1021 71 10000 3.6 90 22:20 30.10.2019
5029 Clouds 12 1021 71 10000 3.6 90 22:20 30.10.2019
5030 Clouds 12 1021 71 10000 3.6 90 21:55 30.10.2019
5031 Clouds 12 1021 71 10000 3.1 110 21:37 30.10.2019
5032 Clouds 12 1021 71 10000 3.1 110 21:37 30.10.2019
5033 Clouds 12 1021 71 10000 3.1 110 21:37 30.10.2019
5034 Clouds 12 1021 71 10000 4.1 100 21:18 30.10.2019
5035 Clouds 12 1021 71 10000 4.1 100 20:58 30.10.2019
5036 Clouds 12 1021 71 10000 4.1 100 20:58 30.10.2019
5037 Clouds 12 1021 71 10000 4.1 100 20:39 30.10.2019
5038 Clouds 12 1021 76 10000 3.1 100 20:21 30.10.2019
5039 Clouds 12 1021 76 10000 3.1 100 19:54 30.10.2019
5040 Clouds 12 1021 76 10000 3.6 110 19:36 30.10.2019
5041 Clouds 12 1021 82 10000 2.6 120 19:18 30.10.2019
5042 Clouds 12 1021 76 10000 2.1 100 18:39 30.10.2019
5043 Clouds 13 1020 76 10000 4.1 110 18:19 30.10.2019
5044 Clouds 13 1020 71 10000 5.1 110 17:57 30.10.2019
5045 Clouds 13 1020 71 10000 5.1 110 17:38 30.10.2019
5046 Clouds 13 1020 71 10000 5.1 110 17:38 30.10.2019
5047 Clouds 13 1020 71 10000 4.6 120 17:18 30.10.2019
5048 Clouds 13 1020 71 10000 4.1 120 16:55 30.10.2019
5049 Clouds 13 1020 71 10000 4.1 120 16:36 30.10.2019
5050 Clouds 13 1020 71 10000 4.1 110 16:18 30.10.2019
5051 Clouds 13 1020 76 10000 3.1 110 15:41 30.10.2019
5052 Clouds 13 1020 76 10000 3.1 120 15:21 30.10.2019
5053 Clouds 13 1020 76 10000 3.1 120 15:21 30.10.2019
5054 Clouds 13 1020 76 10000 3.1 120 14:59 30.10.2019
5055 Clouds 13 1020 76 10000 3.1 90 14:41 30.10.2019
5056 Clouds 13 1020 76 10000 3.1 90 14:22 30.10.2019
5057 Clouds 13 1020 76 10000 3.6 100 13:57 30.10.2019
5058 Clouds 13 1020 76 10000 3.6 100 13:39 30.10.2019
5059 Clouds 13 1020 76 10000 3.6 110 13:19 30.10.2019
5060 Clouds 13 1020 76 10000 3.6 80 12:46 30.10.2019
5061 Clouds 13 1020 76 10000 3.6 80 12:28 30.10.2019
5062 Clouds 13 1021 82 10000 3.1 80 12:28 30.10.2019
5063 Clouds 13 1021 82 10000 3.1 80 11:59 30.10.2019
5064 Clouds 13 1021 82 10000 3.1 90 11:41 30.10.2019
5065 Clouds 13 1021 82 10000 3.1 90 11:21 30.10.2019
5066 Clouds 13 1021 87 10000 3.6 80 10:43 30.10.2019
5067 Clouds 13 1021 87 10000 3.1 80 10:23 30.10.2019
5068 Clouds 13 1020 93 9000 3.1 80 09:43 30.10.2019
5069 Clouds 13 1020 93 9000 3.1 80 09:24 30.10.2019
5070 Clouds 13 1020 87 6000 3.6 90 08:58 30.10.2019
5071 Mist 13 1020 93 3500 3.1 110 08:39 30.10.2019
5072 Mist 13 1020 100 2000 3.6 110 08:20 30.10.2019
5073 Mist 14 1019 93 2500 3.1 140 07:46 30.10.2019
5074 Mist 14 1019 93 3500 2.1 120 07:24 30.10.2019
5075 Mist 14 1019 93 3500 2.1 100 06:42 30.10.2019
5076 Mist 14 1019 93 3500 1.5 90 06:21 30.10.2019
5077 Mist 14 1019 100 2500 1 150 05:42 30.10.2019
5078 Mist 14 1019 93 3500 1.5 90 04:55 30.10.2019
5079 Mist 14 1019 100 3500 1.5 90 03:43 30.10.2019
5080 Mist 14 1019 93 3500 1 50 02:52 30.10.2019
5081 Mist 14 1019 93 3500 1.5 50 01:58 30.10.2019
5082 Mist 14 1018 100 3500 1.5 50 00:58 30.10.2019
5083 Mist 14 1018 100 3500 1.5 50 00:28 30.10.2019
5084 Mist 14 1018 100 5000 1.5 120 23:43 29.10.2019
5085 Mist 14 1018 100 5000 1.5 90 23:23 29.10.2019
5086 Mist 14 1018 100 5000 1 0 22:48 29.10.2019
5087 Mist 14 1018 93 5000 1 0 22:20 29.10.2019
5088 Fog 14 1018 100 5000 1 200 21:58 29.10.2019
5089 Fog 14 1018 100 5000 1 200 21:40 29.10.2019
5090 Fog 14 1018 93 5000 0.5 0 21:20 29.10.2019
5091 Fog 14 1018 93 5000 0.5 0 20:56 29.10.2019
5092 Fog 14 1017 93 5000 1 0 20:37 29.10.2019
5093 Clouds 14 1017 93 8000 1 0 20:19 29.10.2019
5094 Clouds 14 1017 93 8000 1 0 19:55 29.10.2019
5095 Clouds 14 1017 100 8000 1 0 19:36 29.10.2019
5096 Clouds 15 1017 93 8000 1.5 160 19:18 29.10.2019
5097 Clouds 15 1016 93 8000 2.1 170 18:54 29.10.2019
5098 Clouds 15 1016 93 8000 2.1 170 18:36 29.10.2019
5099 Clouds 15 1016 87 7000 2.6 150 18:18 29.10.2019
5100 Clouds 15 1016 87 8000 1.5 140 17:40 29.10.2019
5101 Mist 16 1016 82 5000 1.5 120 17:21 29.10.2019
5102 Clouds 16 1016 82 6000 1.5 0 16:58 29.10.2019
5103 Clouds 16 1016 82 6000 1.5 0 16:38 29.10.2019
5104 Clouds 16 1016 82 6000 1.5 130 16:19 29.10.2019
5105 Clouds 16 1015 87 6000 1.5 160 15:54 29.10.2019
5106 Clouds 16 1015 87 6000 1.5 160 15:36 29.10.2019
5107 Clouds 16 1015 82 8000 2.1 170 15:18 29.10.2019
5108 Clouds 16 1016 82 7000 1.5 90 14:42 29.10.2019
5109 Clouds 16 1016 82 7000 1.5 90 14:42 29.10.2019
5110 Clouds 16 1016 87 6000 1.5 110 14:23 29.10.2019
5111 Clouds 16 1016 87 6000 1.5 110 13:58 29.10.2019
5112 Clouds 16 1016 87 6000 2.6 90 13:39 29.10.2019
5113 Clouds 16 1016 87 6000 2.1 90 13:21 29.10.2019
5114 Clouds 16 1016 87 6000 2.1 90 13:21 29.10.2019
5115 Clouds 16 1016 87 6000 2.1 80 12:43 29.10.2019
5116 Clouds 16 1016 87 6000 2.1 80 12:43 29.10.2019
5117 Clouds 16 1016 87 6000 2.1 80 12:43 29.10.2019
5118 Clouds 16 1016 87 6000 2.1 70 12:25 29.10.2019
5119 Mist 15 1016 93 5000 2.1 80 11:55 29.10.2019
5120 Mist 15 1016 93 5000 2.1 80 11:37 29.10.2019
5121 Mist 15 1016 93 4000 2.1 80 11:18 29.10.2019
5122 Mist 15 1016 93 3500 2.1 90 10:57 29.10.2019
5123 Mist 15 1016 93 3500 2.1 90 10:38 29.10.2019
5124 Mist 15 1016 93 3000 2.1 50 10:19 29.10.2019
5125 Mist 14 1015 93 3000 2.1 90 09:42 29.10.2019
5126 Rain 14 1015 93 2500 2.1 90 09:23 29.10.2019
5127 Rain 14 1015 93 2000 2.1 90 08:57 29.10.2019
5128 Rain 14 1015 93 2000 2.1 90 08:38 29.10.2019
5129 Rain 14 1015 93 2000 1.5 80 08:20 29.10.2019
5130 Rain 14 1015 93 2000 1 0 07:47 29.10.2019
5131 Rain 14 1014 93 2000 1.5 50 07:20 29.10.2019
5132 Rain 14 1014 93 2000 2.6 70 06:52 29.10.2019
5133 Rain 14 1014 93 2000 2.1 60 06:29 29.10.2019
5134 Rain 14 1015 93 2500 1 40 05:53 29.10.2019
5135 Rain 15 1014 93 2500 1 0 05:35 29.10.2019
5136 Rain 15 1014 93 2500 1.5 360 04:34 29.10.2019
5137 Mist 15 1015 93 3000 1.5 30 02:34 29.10.2019
5138 Mist 15 1015 93 4000 1.5 360 01:56 29.10.2019
5139 Mist 15 1015 93 4000 1.5 10 01:34 29.10.2019
5140 Fog 15 1016 100 7000 1.5 20 00:52 29.10.2019
5141 Fog 15 1016 100 7000 1.5 20 00:52 29.10.2019
5142 Rain 15 1016 93 6000 1 60 23:58 28.10.2019
5143 Rain 15 1016 93 6000 1 60 23:37 28.10.2019
5144 Clouds 15 1015 93 6000 1.5 70 23:19 28.10.2019
5145 Clouds 15 1016 93 6000 1.5 50 22:39 28.10.2019
5146 Clouds 15 1015 87 10000 1.5 80 22:19 28.10.2019
5147 Clouds 15 1015 87 10000 1.5 80 21:56 28.10.2019
5148 Clouds 15 1015 87 10000 1.5 70 21:38 28.10.2019
5149 Clouds 15 1015 87 10000 1 0 21:20 28.10.2019
5150 Clouds 15 1015 82 10000 1 0 20:57 28.10.2019
5151 Clouds 15 1015 82 10000 1 0 20:38 28.10.2019
5152 Clouds 15 1015 87 10000 1 0 20:20 28.10.2019
5153 Clouds 15 1015 87 10000 1 0 19:54 28.10.2019
5154 Clouds 15 1015 87 10000 1 0 19:54 28.10.2019
5155 Clouds 16 1015 87 10000 1 0 19:36 28.10.2019
5156 Clouds 16 1015 82 10000 1.5 150 19:18 28.10.2019
5157 Clouds 16 1015 82 10000 1.5 150 18:42 28.10.2019
5158 Clouds 16 1015 82 7000 1.5 170 18:22 28.10.2019
5159 Clouds 17 1015 77 7000 2.1 150 17:57 28.10.2019
5160 Clouds 17 1015 77 7000 2.1 150 17:39 28.10.2019
5161 Clouds 17 1015 77 7000 2.6 140 17:20 28.10.2019
5162 Clouds 18 1015 77 7000 2.6 140 16:58 28.10.2019
5163 Clouds 18 1015 72 10000 1.5 160 16:40 28.10.2019
5164 Clouds 18 1015 72 10000 1.5 150 16:21 28.10.2019
5165 Clouds 19 1015 72 10000 1.5 150 15:59 28.10.2019
5166 Clouds 19 1015 72 10000 1.5 130 15:40 28.10.2019
5167 Clouds 19 1015 72 10000 2.1 140 15:21 28.10.2019
5168 Clouds 19 1016 72 10000 1.5 160 14:57 28.10.2019
5169 Clouds 19 1016 72 10000 1.5 160 14:39 28.10.2019
5170 Clouds 19 1016 72 10000 1.5 0 14:19 28.10.2019
5171 Clouds 19 1016 72 10000 1.5 160 13:56 28.10.2019
5172 Clouds 19 1016 72 10000 1.5 160 13:56 28.10.2019
5173 Clouds 19 1016 72 10000 1.5 160 13:38 28.10.2019
5174 Clouds 19 1016 72 8000 1.5 200 13:18 28.10.2019
5175 Clouds 18 1017 77 7000 1 0 12:42 28.10.2019
5176 Clouds 18 1017 77 7000 2.1 190 12:20 28.10.2019
5177 Clouds 18 1017 77 6000 1.5 120 11:40 28.10.2019
5178 Clouds 17 1017 82 7000 1.5 130 11:22 28.10.2019
5179 Clouds 17 1017 82 7000 1.5 130 10:58 28.10.2019
5180 Clouds 16 1017 82 6000 1.5 100 10:38 28.10.2019
5181 Clouds 16 1017 82 6000 0.5 0 10:20 28.10.2019
5182 Clouds 15 1017 82 6000 0.5 0 09:56 28.10.2019
5183 Clouds 15 1017 87 10000 0.5 0 09:37 28.10.2019
5184 Clouds 14 1017 93 10000 1.5 90 09:18 28.10.2019
5185 Clouds 14 1017 93 10000 1.5 90 08:56 28.10.2019
5186 Clouds 14 1017 93 8000 1 0 08:56 28.10.2019
5187 Clouds 13 1017 93 8000 1 0 08:37 28.10.2019
5188 Clouds 12 1016 100 9000 0.5 0 08:18 28.10.2019
5189 Clouds 12 1016 100 10000 1 0 07:47 28.10.2019
5190 Clouds 12 1016 100 10000 1 0 07:23 28.10.2019
5191 Clouds 12 1016 100 10000 1 20 07:23 28.10.2019
5192 Clouds 12 1016 100 10000 1 20 07:23 28.10.2019
5193 Clouds 12 1016 100 10000 1 20 06:59 28.10.2019
5194 Clouds 12 1016 100 10000 0.5 310 06:39 28.10.2019
5195 Clouds 12 1016 100 10000 0.5 0 05:19 28.10.2019
5196 Clouds 12 1017 93 10000 0.5 0 03:44 28.10.2019
5197 Fog 12 1017 93 10000 0.5 0 02:46 28.10.2019
5198 Fog 12 1018 100 10000 0.5 0 01:52 28.10.2019
5199 Fog 12 1018 100 10000 0.5 0 01:52 28.10.2019
5200 Clouds 13 1018 100 10000 0.5 0 00:47 28.10.2019
5201 Clouds 13 1018 93 10000 0.5 30 00:25 28.10.2019
5202 Clouds 13 1018 93 10000 0.5 0 23:44 27.10.2019
5203 Clouds 13 1018 93 10000 0.5 0 23:22 27.10.2019
5204 Clouds 13 1018 93 10000 1 10 22:56 27.10.2019
5205 Clouds 13 1018 93 10000 1 10 22:37 27.10.2019
5206 Clouds 13 1019 93 10000 1 10 22:19 27.10.2019
5207 Clouds 13 1019 93 10000 1 10 21:55 27.10.2019
5208 Clouds 13 1019 87 10000 0.5 0 21:37 27.10.2019
5209 Clouds 14 1019 87 10000 0.5 0 21:18 27.10.2019
5210 Clouds 14 1019 87 10000 0.5 0 20:41 27.10.2019
5211 Clouds 15 1019 87 10000 0.5 0 20:23 27.10.2019
5212 Clouds 14 1018 87 10000 0.5 190 19:58 27.10.2019
5213 Clouds 15 1018 87 10000 1 180 19:37 27.10.2019
5214 Clouds 16 1018 87 10000 1 170 19:19 27.10.2019
5215 Clouds 16 1018 87 10000 0.5 180 18:56 27.10.2019
5216 Clouds 16 1018 87 10000 0.5 180 18:38 27.10.2019
5217 Clouds 17 1018 82 10000 1 0 18:20 27.10.2019
5218 Clouds 18 1018 82 10000 1 0 17:55 27.10.2019
5219 Clouds 19 1018 77 10000 1 200 17:36 27.10.2019
5220 Clouds 19 1018 64 10000 0.5 200 17:18 27.10.2019
5221 Clouds 20 1018 56 10000 1.5 200 16:55 27.10.2019
5222 Clouds 20 1018 56 10000 1.5 200 16:55 27.10.2019
5223 Clouds 21 1018 56 10000 1.5 200 16:37 27.10.2019
5224 Clouds 21 1018 53 10000 1 0 16:18 27.10.2019
5225 Clouds 21 1019 53 10000 1 0 15:54 27.10.2019
5226 Clouds 22 1019 53 10000 1 0 15:36 27.10.2019
5227 Clouds 22 1019 53 10000 1.5 0 15:18 27.10.2019
5228 Clouds 22 1019 56 10000 1.5 220 14:41 27.10.2019
5229 Clear 22 1019 53 10000 1.5 220 14:19 27.10.2019
5230 Clear 22 1020 60 10000 1 0 13:54 27.10.2019
5231 Clear 21 1020 60 10000 1 0 13:36 27.10.2019
5232 Clear 21 1020 64 10000 1.5 240 13:18 27.10.2019
5233 Clear 21 1021 64 10000 1.5 230 12:42 27.10.2019
5234 Clear 20 1021 68 10000 1 0 12:23 27.10.2019
5235 Clear 19 1022 72 10000 1.5 250 11:43 27.10.2019
5236 Clear 19 1022 72 10000 1 0 11:25 27.10.2019
5237 Clear 19 1022 72 10000 1 0 11:25 27.10.2019
5238 Clear 19 1022 72 10000 1 0 11:25 27.10.2019
5239 Clear 18 1022 77 10000 1 0 10:57 27.10.2019
5240 Clear 18 1022 72 10000 1 0 10:57 27.10.2019
5241 Clear 18 1022 77 10000 1 0 10:39 27.10.2019
5242 Clear 18 1022 77 10000 1 0 10:38 27.10.2019
5243 Clear 17 1022 82 10000 1.5 250 10:20 27.10.2019
5244 Clear 16 1022 82 10000 1.5 210 09:43 27.10.2019
5245 Clear 15 1022 100 10000 1 0 09:19 27.10.2019
5246 Clear 15 1022 100 10000 1 0 09:19 27.10.2019
5247 Clear 15 1022 100 10000 1 0 08:57 27.10.2019
5248 Clear 14 1022 100 10000 0.5 0 08:37 27.10.2019
5249 Clear 14 1022 100 10000 0.5 0 08:37 27.10.2019
5250 Fog 12 1022 93 10000 0.5 0 08:19 27.10.2019
5251 Fog 12 1022 93 10000 0.5 0 08:19 27.10.2019
5252 Fog 11 1021 93 10000 1.29 291 07:45 27.10.2019
5253 Fog 11 1021 93 10000 1.29 291 07:26 27.10.2019
5254 Fog 10 1021 100 2500 0.5 0 06:52 27.10.2019
5255 Fog 11 1021 100 1500 0.5 190 06:29 27.10.2019
5256 Fog 11 1021 100 1500 0.5 190 05:54 27.10.2019
5257 Fog 11 1021 100 1500 0.5 0 05:34 27.10.2019
5258 Fog 12 1022 100 0 0.5 190 03:35 27.10.2019
5259 Fog 12 1023 100 1500 0.5 290 02:28 27.10.2019
5260 Fog 13 1023 93 7000 0.5 0 01:25 27.10.2019
5261 Fog 13 1023 100 8000 0.5 0 00:52 27.10.2019
5262 Fog 13 1023 100 10000 0.5 0 00:33 27.10.2019
5263 Clear 13 1023 93 10000 0.5 350 23:57 26.10.2019
5264 Clear 13 1023 93 10000 0.5 350 23:39 26.10.2019
5265 Clear 13 1023 100 10000 1 10 23:21 26.10.2019
5266 Clear 14 1023 100 10000 1 10 22:57 26.10.2019
5267 Clear 14 1023 93 10000 0.5 50 22:38 26.10.2019
5268 Clear 14 1023 87 10000 0.5 0 22:19 26.10.2019
5269 Clear 14 1023 93 10000 0.5 0 21:44 26.10.2019
5270 Clear 14 1023 87 10000 0.5 0 21:22 26.10.2019
5271 Clear 15 1023 87 10000 0.5 0 20:59 26.10.2019
5272 Clear 15 1023 87 10000 0.5 0 20:39 26.10.2019
5273 Clear 16 1022 87 10000 1 0 20:18 26.10.2019
5274 Clear 17 1022 77 10000 1 260 19:42 26.10.2019
5275 Clear 17 1022 77 10000 1 260 19:42 26.10.2019
5276 Clear 17 1022 72 10000 1 230 19:21 26.10.2019
5277 Clear 18 1022 64 10000 1 0 18:57 26.10.2019
5278 Clear 19 1022 64 10000 1 0 18:39 26.10.2019
5279 Clear 19 1022 64 10000 1.5 220 18:20 26.10.2019
5280 Clear 20 1022 60 10000 2.1 230 17:57 26.10.2019
5281 Clear 21 1022 60 10000 2.1 230 17:38 26.10.2019
5282 Clear 21 1022 60 10000 2.1 260 17:20 26.10.2019
5283 Clear 22 1022 53 10000 2.1 260 16:44 26.10.2019
5284 Clear 22 1023 56 10000 2.1 250 16:25 26.10.2019
5285 Clear 22 1023 60 10000 2.1 240 15:59 26.10.2019
5286 Clear 22 1023 60 10000 2.1 240 15:37 26.10.2019
5287 Clear 22 1023 56 10000 2.1 250 15:18 26.10.2019
5288 Clear 21 1023 56 10000 2.1 270 14:39 26.10.2019
5289 Clear 20 1024 64 10000 2.6 320 14:19 26.10.2019
5290 Clear 22 1023 43 0 1.81 257 13:55 26.10.2019
5291 Clear 21 1024 60 10000 2.6 300 13:36 26.10.2019
5292 Clear 20 1024 64 10000 2.6 320 13:18 26.10.2019
5293 Clear 20 1024 64 10000 2.6 320 13:18 26.10.2019
5294 Clear 17 1025 78 0 1.79 250 12:42 26.10.2019
5295 Clear 18 1025 77 10000 1 0 12:18 26.10.2019
5296 Clear 18 1025 77 10000 2.6 340 11:45 26.10.2019
5297 Clear 17 1025 77 10000 2.6 340 11:24 26.10.2019
5298 Clear 15 1025 93 10000 3.1 340 10:46 26.10.2019
5299 Clear 13 1025 93 10000 3.1 340 10:25 26.10.2019
5300 Clear 12 1025 100 10000 1.5 10 09:49 26.10.2019
5301 Clear 11 1025 100 10000 3.1 360 09:30 26.10.2019
5302 Clear 11 1024 100 10000 2.6 350 08:50 26.10.2019
5303 Fog 11 1024 100 10000 2.6 360 08:28 26.10.2019
5304 Fog 11 1024 100 10000 2.6 360 07:57 26.10.2019
5305 Fog 11 1024 100 10000 3.6 360 07:39 26.10.2019
5306 Clear 11 1024 100 10000 3.6 10 07:19 26.10.2019
5307 Clear 11 1024 100 10000 3.1 360 06:39 26.10.2019
5308 Clear 11 1024 100 10000 4.1 350 05:24 26.10.2019
5309 Clear 12 1024 100 10000 3.6 360 04:59 26.10.2019
5310 Clear 12 1024 100 10000 2.6 360 03:31 26.10.2019
5311 Clear 13 1024 100 10000 3.6 360 02:28 26.10.2019
5312 Clear 13 1024 100 10000 3.1 360 01:45 26.10.2019
5313 Clear 13 1024 100 10000 3.1 360 00:50 26.10.2019
5314 Clear 13 1024 100 10000 3.1 360 23:47 25.10.2019
5315 Clear 13 1024 100 10000 2.6 10 23:22 25.10.2019
5316 Clear 14 1024 100 10000 2.6 20 22:56 25.10.2019
5317 Clear 14 1024 100 10000 2.6 10 22:56 25.10.2019
5318 Clear 14 1024 100 10000 2.6 20 22:38 25.10.2019
5319 Clear 14 1024 100 10000 2.6 20 22:38 25.10.2019
5320 Clear 14 1024 100 10000 3.1 10 22:20 25.10.2019
5321 Clear 14 1024 100 10000 3.1 10 21:55 25.10.2019
5322 Clear 14 1024 100 10000 2.1 10 21:37 25.10.2019
5323 Clouds 15 1023 100 10000 2.6 10 21:18 25.10.2019
5324 Clouds 15 1023 100 10000 2.1 10 20:42 25.10.2019
5325 Clouds 15 1023 87 10000 1 20 20:19 25.10.2019
5326 Clouds 16 1022 88 10000 0.5 0 19:47 25.10.2019
5327 Clouds 16 1022 88 10000 0.5 0 19:27 25.10.2019
5328 Clouds 18 1021 77 10000 1 0 18:47 25.10.2019
5329 Clouds 18 1021 72 10000 1 190 18:29 25.10.2019
5330 Clouds 19 1020 64 10000 1 0 17:56 25.10.2019
5331 Clouds 20 1020 64 10000 1 0 17:36 25.10.2019
5332 Clouds 20 1020 64 10000 1 0 17:18 25.10.2019
5333 Clouds 20 1020 64 10000 1 0 16:43 25.10.2019
5334 Clouds 20 1020 56 10000 0.5 0 16:22 25.10.2019
5335 Clouds 20 1020 60 10000 1 0 15:55 25.10.2019
5336 Clouds 20 1020 60 10000 1 0 15:37 25.10.2019
5337 Clouds 20 1020 64 10000 1 0 15:18 25.10.2019
5338 Clouds 20 1020 64 10000 1 0 14:42 25.10.2019
5339 Clouds 19 1020 68 10000 1 0 14:23 25.10.2019
5340 Clouds 19 1020 68 10000 1 0 13:44 25.10.2019
5341 Clouds 19 1020 77 10000 1 0 13:25 25.10.2019
5342 Clouds 18 1020 77 10000 1 0 12:59 25.10.2019
5343 Clouds 18 1020 72 10000 1.5 10 12:41 25.10.2019
5344 Clouds 18 1020 77 10000 1 0 12:21 25.10.2019
5345 Clouds 17 1020 82 10000 0.5 0 11:57 25.10.2019
5346 Clouds 17 1020 82 10000 0.5 0 11:38 25.10.2019
5347 Clouds 16 1020 87 10000 1.5 360 11:18 25.10.2019
5348 Clouds 15 1020 100 10000 3.1 10 10:40 25.10.2019
5349 Clouds 15 1020 100 10000 3.6 340 10:21 25.10.2019
5350 Clouds 14 1020 100 10000 2.6 340 09:57 25.10.2019
5351 Clouds 14 1020 100 10000 2.6 340 09:38 25.10.2019
5352 Fog 13 1019 100 10000 2.6 360 09:19 25.10.2019
5353 Fog 13 1019 100 10000 2.6 360 09:19 25.10.2019
5354 Fog 13 1019 100 10000 1 10 08:45 25.10.2019
5355 Fog 13 1018 100 10000 2.6 40 08:26 25.10.2019
5356 Clouds 13 1018 100 10000 3.1 360 07:53 25.10.2019
5357 Fog 13 1018 100 300 1 0 07:34 25.10.2019
5358 Fog 13 1018 100 10000 2.1 300 06:41 25.10.2019
5359 Fog 13 1017 100 10000 1 0 05:51 25.10.2019
5360 Fog 13 1017 100 10000 1 0 05:32 25.10.2019
5361 Rain 14 1017 100 10000 1 0 04:42 25.10.2019
5362 Clouds 14 1018 100 10000 1.5 360 03:29 25.10.2019
5363 Rain 14 1018 100 10000 2.1 30 01:53 25.10.2019
5364 Clouds 14 1018 100 10000 1 0 00:47 25.10.2019
5365 Clouds 14 1018 100 10000 3.1 360 00:18 25.10.2019
5366 Clouds 14 1018 100 10000 3.1 360 23:40 24.10.2019
5367 Drizzle 14 1018 100 10000 2.1 10 23:21 24.10.2019
5368 Clouds 14 1017 100 10000 2.1 10 22:54 24.10.2019
5369 Clouds 14 1017 100 10000 2.1 10 22:54 24.10.2019
5370 Clouds 14 1017 100 10000 2.1 10 22:54 24.10.2019
5371 Clouds 14 1017 100 10000 2.1 10 22:36 24.10.2019
5372 Clouds 14 1018 100 10000 0.5 0 22:18 24.10.2019
5373 Clouds 14 1017 100 9000 2.1 360 21:54 24.10.2019
5374 Clouds 14 1017 100 9000 2.1 360 21:36 24.10.2019
5375 Clouds 14 1017 100 10000 1.5 340 21:18 24.10.2019
5376 Clouds 14 1017 100 10000 2.6 310 20:54 24.10.2019
5377 Clouds 15 1017 100 10000 2.6 310 20:36 24.10.2019
5378 Rain 15 1016 100 10000 2.1 280 20:18 24.10.2019
5379 Clouds 15 1016 93 10000 2.1 20 19:41 24.10.2019
5380 Clouds 15 1016 100 10000 2.6 50 19:22 24.10.2019
5381 Drizzle 15 1016 93 8000 2.1 70 18:58 24.10.2019
5382 Drizzle 15 1016 93 8000 2.1 70 18:38 24.10.2019
5383 Drizzle 15 1015 100 7000 2.6 50 18:20 24.10.2019
5384 Drizzle 15 1014 100 5000 4.6 70 17:42 24.10.2019
5385 Drizzle 15 1015 100 3000 3.6 100 17:21 24.10.2019
5386 Drizzle 15 1016 100 3000 3.1 150 16:58 24.10.2019
5387 Drizzle 15 1016 100 3000 3.1 150 16:40 24.10.2019
5388 Drizzle 15 1016 100 3000 2.6 150 16:22 24.10.2019
5389 Drizzle 15 1016 100 3000 2.6 150 15:58 24.10.2019
5390 Drizzle 15 1016 100 3000 2.6 150 15:58 24.10.2019
5391 Rain 16 1015 100 3000 3.6 100 15:40 24.10.2019
5392 Rain 16 1015 100 3500 3.6 110 15:21 24.10.2019
5393 Rain 16 1015 100 3500 3.6 110 14:57 24.10.2019
5394 Rain 16 1015 100 5000 3.6 90 14:38 24.10.2019
5395 Rain 16 1015 100 4500 3.1 80 14:20 24.10.2019
5396 Rain 16 1016 100 4500 5.1 90 13:41 24.10.2019
5397 Rain 16 1017 100 5000 3.6 60 13:20 24.10.2019
5398 Rain 16 1017 100 5000 3.6 60 12:58 24.10.2019
5399 Rain 16 1017 100 4000 4.6 70 12:39 24.10.2019
5400 Rain 16 1017 100 4500 3.6 110 12:19 24.10.2019
5401 Rain 16 1017 100 4000 1.5 90 11:57 24.10.2019
5402 Rain 16 1017 100 4000 1.5 90 11:38 24.10.2019
5403 Rain 16 1017 100 4000 2.6 120 11:19 24.10.2019
5404 Rain 16 1016 100 4000 3.1 120 10:55 24.10.2019
5405 Rain 16 1016 100 4000 3.1 120 10:37 24.10.2019
5406 Rain 16 1016 100 4500 2.1 360 10:18 24.10.2019
5407 Rain 16 1016 100 4000 0.5 0 09:38 24.10.2019
5408 Rain 15 1016 100 4000 2.1 50 09:18 24.10.2019
5409 Rain 15 1016 100 4000 2.1 50 09:18 24.10.2019
5410 Rain 15 1014 100 3000 6.7 60 08:44 24.10.2019
5411 Rain 15 1017 93 4000 1 0 08:21 24.10.2019
5412 Rain 16 1017 100 3500 0.5 0 07:59 24.10.2019
5413 Rain 16 1017 100 3500 0.5 0 07:41 24.10.2019
5414 Rain 16 1016 100 4000 2.1 280 07:21 24.10.2019
5415 Rain 16 1016 100 4000 4.1 330 06:39 24.10.2019
5416 Rain 16 1016 100 3000 2.1 350 05:57 24.10.2019
5417 Rain 16 1016 100 4000 2.1 30 05:39 24.10.2019
5418 Rain 16 1016 100 6000 4.1 60 04:49 24.10.2019
5419 Rain 16 1017 100 4000 3.1 40 03:36 24.10.2019
5420 Rain 16 1018 100 6000 1 0 02:51 24.10.2019
5421 Rain 16 1017 100 6000 3.1 10 02:22 24.10.2019
5422 Clouds 16 1018 100 7000 2.6 10 01:33 24.10.2019
5423 Clouds 16 1018 100 7000 2.6 40 00:57 24.10.2019
5424 Clouds 17 1018 100 7000 2.6 40 00:30 24.10.2019
5425 Clouds 17 1018 100 7000 1.5 360 23:59 23.10.2019
5426 Clouds 17 1018 100 7000 1.5 360 23:41 23.10.2019
5427 Clouds 17 1018 100 10000 1 0 23:21 23.10.2019
5428 Clouds 17 1018 100 10000 1 0 22:57 23.10.2019
5429 Rain 17 1018 100 10000 0.5 0 22:57 23.10.2019
5430 Clouds 17 1018 100 10000 1 0 22:57 23.10.2019
5431 Rain 17 1018 100 10000 0.5 0 22:37 23.10.2019
5432 Clouds 17 1018 93 10000 3.1 30 22:18 23.10.2019
5433 Clouds 17 1018 93 10000 3.1 30 22:18 23.10.2019
5434 Clouds 17 1018 93 10000 3.1 30 22:18 23.10.2019
5435 Clouds 17 1019 93 10000 1 190 21:57 23.10.2019
5436 Clouds 17 1018 93 10000 3.1 30 21:57 23.10.2019
5437 Clouds 17 1019 93 10000 1 190 21:37 23.10.2019
5438 Clouds 17 1018 93 10000 0.5 0 21:19 23.10.2019
5439 Clouds 17 1018 93 10000 1 30 20:54 23.10.2019
5440 Clouds 17 1018 93 10000 1 30 20:36 23.10.2019
5441 Clouds 17 1018 93 10000 1 40 20:18 23.10.2019
5442 Clouds 18 1018 93 10000 1.5 50 19:43 23.10.2019
5443 Clouds 18 1018 88 10000 1 0 19:19 23.10.2019
5444 Clouds 19 1019 88 10000 3.1 240 18:58 23.10.2019
5445 Clouds 19 1019 88 10000 3.1 240 18:39 23.10.2019
5446 Clouds 19 1019 82 10000 2.6 210 18:19 23.10.2019
5447 Clouds 20 1019 82 10000 3.6 210 17:55 23.10.2019
5448 Clouds 20 1019 82 10000 3.6 210 17:37 23.10.2019
5449 Clouds 20 1018 77 10000 2.6 230 17:18 23.10.2019
5450 Clouds 21 1018 73 10000 1.5 220 16:40 23.10.2019
5451 Clouds 21 1018 73 10000 1 0 16:21 23.10.2019
5452 Clouds 21 1018 73 10000 1 0 15:57 23.10.2019
5453 Clouds 21 1018 73 10000 1 0 15:57 23.10.2019
5454 Clouds 21 1018 73 10000 0.5 0 15:38 23.10.2019
5455 Clouds 21 1019 68 10000 0.5 0 15:20 23.10.2019
5456 Clear 21 1019 73 10000 1 0 14:56 23.10.2019
5457 Clear 21 1019 73 10000 1 0 14:37 23.10.2019
5458 Clear 21 1020 77 10000 4.1 250 14:18 23.10.2019
5459 Clear 21 1020 73 10000 1 0 13:42 23.10.2019
5460 Clear 21 1020 77 10000 1 0 13:24 23.10.2019
5461 Clear 20 1021 77 10000 1.5 0 12:57 23.10.2019
5462 Clear 20 1021 77 10000 1.5 0 12:38 23.10.2019
5463 Clear 19 1021 88 10000 1.5 340 12:19 23.10.2019
5464 Clear 19 1021 88 10000 2.1 360 11:57 23.10.2019
5465 Clear 18 1021 88 10000 2.1 360 11:39 23.10.2019
5466 Clear 18 1021 100 10000 2.1 350 11:20 23.10.2019
5467 Clear 17 1021 100 10000 2.1 360 10:46 23.10.2019
5468 Clear 17 1021 100 10000 2.1 360 10:46 23.10.2019
5469 Clear 16 1021 100 10000 2.1 360 10:26 23.10.2019
5470 Clouds 15 1021 100 6000 2.6 360 09:58 23.10.2019
5471 Clouds 15 1021 100 6000 2.6 360 09:39 23.10.2019
5472 Fog 14 1021 100 8000 2.6 10 09:20 23.10.2019
5473 Fog 13 1021 100 8000 2.6 10 08:43 23.10.2019
5474 Fog 13 1021 100 8000 2.6 10 08:25 23.10.2019
5475 Fog 13 1021 100 7000 3.1 360 07:47 23.10.2019
5476 Fog 13 1021 100 10000 2.1 30 07:25 23.10.2019
5477 Fog 13 1021 100 10000 2.6 20 06:48 23.10.2019
5478 Fog 13 1021 100 10000 2.6 30 06:22 23.10.2019
5479 Fog 13 1021 100 10000 3.1 20 05:55 23.10.2019
5480 Fog 13 1022 100 8000 2.6 20 04:59 23.10.2019
5481 Fog 14 1022 100 10000 2.6 10 03:35 23.10.2019
5482 Fog 14 1022 100 10000 2.6 360 02:41 23.10.2019
5483 Mist 15 1022 100 3500 2.1 360 01:33 23.10.2019
5484 Mist 15 1022 100 3500 2.1 360 00:56 23.10.2019
5485 Fog 15 1023 100 5000 2.1 20 00:28 23.10.2019
5486 Fog 15 1023 100 10000 1 0 23:40 22.10.2019
5487 Fog 15 1023 100 10000 2.1 30 23:18 22.10.2019
5488 Fog 15 1023 100 10000 1.5 20 22:57 22.10.2019
5489 Fog 15 1023 100 10000 1.5 20 22:39 22.10.2019
5490 Fog 16 1023 100 10000 1 30 22:20 22.10.2019
5491 Fog 16 1023 100 10000 1 0 21:56 22.10.2019
5492 Fog 16 1023 100 10000 1 0 21:37 22.10.2019
5493 Fog 16 1023 100 10000 0.5 0 21:18 22.10.2019
5494 Fog 16 1023 100 10000 0.5 0 20:56 22.10.2019
5495 Clouds 17 1023 100 10000 0.5 0 20:38 22.10.2019
5496 Clouds 17 1023 88 10000 1 0 20:19 22.10.2019
5497 Clouds 18 1023 88 10000 1.5 240 19:45 22.10.2019
5498 Clouds 18 1023 88 10000 1.5 240 19:45 22.10.2019
5499 Clouds 18 1023 88 10000 1.5 240 19:27 22.10.2019
5500 Clouds 19 1023 88 10000 3.1 210 18:58 22.10.2019
5501 Clouds 19 1023 88 10000 3.1 210 18:58 22.10.2019
5502 Clouds 19 1023 88 10000 3.1 210 18:40 22.10.2019
5503 Clouds 19 1023 82 10000 3.1 210 18:21 22.10.2019
5504 Clouds 20 1023 82 10000 3.1 210 17:57 22.10.2019
5505 Clouds 20 1023 82 10000 3.6 210 17:38 22.10.2019
5506 Clouds 20 1022 77 10000 2.6 200 17:20 22.10.2019
5507 Clouds 20 1022 77 10000 2.6 200 17:20 22.10.2019
5508 Clouds 21 1022 77 10000 2.6 200 17:20 22.10.2019
5509 Clouds 21 1022 77 10000 2.6 200 16:57 22.10.2019
5510 Clouds 21 1023 73 10000 1.5 240 16:37 22.10.2019
5511 Clouds 21 1023 73 10000 1 0 16:19 22.10.2019
5512 Clouds 21 1023 68 10000 1 0 15:44 22.10.2019
5513 Clouds 21 1023 68 10000 1.5 270 15:21 22.10.2019
5514 Clouds 21 1023 73 10000 0.5 0 14:58 22.10.2019
5515 Clouds 21 1023 73 10000 0.5 0 14:39 22.10.2019
5516 Clouds 21 1023 77 10000 1.5 0 14:19 22.10.2019
5517 Clouds 21 1024 77 10000 2.1 340 13:42 22.10.2019
5518 Clouds 21 1024 77 10000 2.1 360 13:21 22.10.2019
5519 Clouds 20 1024 73 10000 1 0 12:58 22.10.2019
5520 Clouds 20 1024 73 10000 1 0 12:39 22.10.2019
5521 Clouds 20 1024 82 10000 1.5 0 12:20 22.10.2019
5522 Clouds 20 1024 82 10000 1.5 0 12:20 22.10.2019
5523 Clouds 19 1024 82 10000 2.1 30 11:42 22.10.2019
5524 Clouds 19 1024 88 10000 1.5 0 11:23 22.10.2019
5525 Clouds 18 1024 88 10000 1.5 0 10:59 22.10.2019
5526 Clouds 18 1024 93 10000 2.6 10 10:59 22.10.2019
5527 Clouds 18 1024 93 10000 2.6 10 10:38 22.10.2019
5528 Clouds 18 1024 100 10000 2.1 30 10:19 22.10.2019
5529 Clouds 17 1024 100 10000 2.1 30 09:59 22.10.2019
5530 Clouds 17 1024 100 10000 2.1 20 09:41 22.10.2019
5531 Clouds 16 1024 100 10000 2.1 40 09:21 22.10.2019
5532 Clouds 16 1024 100 10000 2.1 40 08:57 22.10.2019
5533 Clouds 16 1024 100 10000 2.6 60 08:57 22.10.2019
5534 Clouds 16 1024 100 10000 2.6 60 08:39 22.10.2019
5535 Clouds 16 1023 100 10000 2.1 60 08:19 22.10.2019
5536 Clouds 16 1023 100 10000 2.1 50 07:44 22.10.2019
5537 Clouds 16 1023 100 10000 2.1 50 07:44 22.10.2019
5538 Clouds 16 1023 100 10000 2.6 20 07:24 22.10.2019
5539 Clouds 16 1023 100 10000 2.1 30 06:44 22.10.2019
5540 Clouds 16 1023 100 10000 3.1 20 06:25 22.10.2019
5541 Clouds 16 1023 100 10000 2.1 30 05:40 22.10.2019
5542 Clouds 16 1023 100 10000 1 0 04:22 22.10.2019
5543 Clouds 16 1022 100 10000 2.6 110 02:31 22.10.2019
5544 Clouds 16 1022 100 10000 2.1 120 01:38 22.10.2019
5545 Clouds 16 1023 100 10000 1 0 01:18 22.10.2019
5546 Clouds 16 1023 100 10000 2.6 120 00:42 22.10.2019
5547 Clouds 16 1023 100 10000 2.6 120 00:24 22.10.2019
5548 Rain 17 1023 100 10000 1.5 110 23:59 21.10.2019
5549 Rain 17 1023 100 10000 2.1 80 23:38 21.10.2019
5550 Rain 17 1023 100 10000 1 0 23:19 21.10.2019
5551 Rain 17 1023 100 10000 2.1 240 22:58 21.10.2019
5552 Rain 17 1023 100 10000 2.1 240 22:39 21.10.2019
5553 Rain 17 1023 100 10000 2.1 240 22:39 21.10.2019
5554 Rain 17 1022 100 10000 2.6 200 22:20 21.10.2019
5555 Rain 17 1022 100 10000 2.6 200 22:20 21.10.2019
5556 Rain 17 1022 100 10000 2.6 200 21:56 21.10.2019
5557 Rain 17 1021 100 10000 2.6 150 21:37 21.10.2019
5558 Rain 17 1022 100 10000 2.1 190 21:19 21.10.2019
5559 Rain 17 1022 100 10000 2.1 190 21:19 21.10.2019
5560 Rain 17 1022 100 10000 2.1 190 20:56 21.10.2019
5561 Clouds 17 1021 93 10000 2.6 160 20:37 21.10.2019
5562 Clouds 17 1021 93 10000 2.6 160 20:37 21.10.2019
5563 Rain 17 1021 100 10000 2.1 120 20:19 21.10.2019
5564 Rain 17 1021 100 10000 2.1 120 20:19 21.10.2019
5565 Rain 17 1021 100 10000 2.1 120 19:55 21.10.2019
5566 Rain 17 1021 100 10000 2.1 120 19:55 21.10.2019
5567 Rain 17 1021 100 10000 2.1 120 19:55 21.10.2019
5568 Rain 17 1021 100 10000 2.1 110 19:36 21.10.2019
5569 Rain 17 1020 100 10000 2.1 80 19:18 21.10.2019
5570 Rain 17 1020 100 10000 2.1 80 19:18 21.10.2019
5571 Rain 17 1020 100 10000 1.5 40 18:54 21.10.2019
5572 Rain 18 1020 100 10000 1.5 40 18:54 21.10.2019
5573 Rain 18 1020 100 10000 1.5 40 18:54 21.10.2019
5574 Rain 18 1020 100 10000 1.5 40 18:36 21.10.2019
5575 Rain 18 1021 100 10000 1.5 340 18:18 21.10.2019
5576 Clouds 18 1020 100 10000 2.1 40 17:38 21.10.2019
5577 Rain 18 1021 100 10000 1.5 70 17:19 21.10.2019
5578 Rain 18 1021 100 10000 1.5 70 16:58 21.10.2019
5579 Rain 18 1021 100 10000 2.6 70 16:40 21.10.2019
5580 Rain 18 1021 93 10000 2.6 70 16:21 21.10.2019
5581 Rain 17 1022 100 10000 1.5 60 15:49 21.10.2019
5582 Rain 17 1022 100 10000 1.5 60 15:27 21.10.2019
5583 Rain 17 1022 100 10000 2.1 30 14:59 21.10.2019
5584 Rain 17 1022 100 10000 2.1 30 14:59 21.10.2019
5585 Rain 17 1022 100 10000 2.1 30 14:40 21.10.2019
5586 Rain 17 1022 100 10000 1.5 20 14:21 21.10.2019
5587 Rain 17 1022 100 10000 1.5 20 14:21 21.10.2019
5588 Rain 17 1022 100 10000 1.5 20 13:57 21.10.2019
5589 Rain 16 1022 100 10000 1 0 13:39 21.10.2019
5590 Rain 16 1022 100 10000 1.5 40 13:20 21.10.2019
5591 Rain 16 1022 100 10000 1.5 80 12:42 21.10.2019
5592 Rain 16 1021 100 10000 2.6 60 12:23 21.10.2019
5593 Rain 16 1021 100 10000 2.6 60 11:58 21.10.2019
5594 Rain 16 1022 100 3500 2.1 310 11:39 21.10.2019
5595 Rain 16 1021 100 4000 0.5 0 11:21 21.10.2019
5596 Rain 16 1021 100 4000 0.5 0 10:57 21.10.2019
5597 Rain 16 1021 100 4000 0.5 0 10:57 21.10.2019
5598 Rain 15 1021 100 4000 3.6 110 10:38 21.10.2019
5599 Rain 15 1021 100 8000 4.1 110 10:19 21.10.2019
5600 Rain 15 1021 100 8000 3.6 120 09:51 21.10.2019
5601 Rain 15 1020 100 8000 6.2 120 09:26 21.10.2019
5602 Rain 15 1019 100 8000 1.5 100 08:59 21.10.2019
5603 Rain 15 1019 100 8000 1.5 100 08:40 21.10.2019
5604 Rain 15 1018 100 10000 4.1 100 08:22 21.10.2019
5605 Rain 15 1018 100 5000 5.1 110 07:44 21.10.2019
5606 Rain 15 1019 100 5000 4.6 140 07:21 21.10.2019
5607 Rain 15 1019 100 5000 4.6 140 06:57 21.10.2019
5608 Rain 16 1018 100 5000 2.6 120 06:39 21.10.2019
5609 Rain 16 1018 100 3500 4.6 110 05:57 21.10.2019
5610 Rain 16 1018 100 3500 4.6 110 05:57 21.10.2019
5611 Rain 16 1018 100 3500 4.6 110 05:57 21.10.2019
5612 Rain 16 1017 100 10000 3.6 140 04:49 21.10.2019
5613 Rain 16 1017 93 10000 3.6 120 03:38 21.10.2019
5614 Rain 16 1018 93 10000 8.2 120 02:25 21.10.2019
5615 Rain 16 1018 93 10000 8.2 120 02:25 21.10.2019
5616 Rain 16 1017 93 10000 8.2 120 01:59 21.10.2019
5617 Rain 16 1017 93 10000 8.2 120 01:37 21.10.2019
5618 Rain 16 1017 100 10000 7.2 120 00:50 21.10.2019
5619 Rain 16 1017 100 10000 7.2 120 00:27 21.10.2019
5620 Rain 16 1018 100 7000 5.1 120 23:43 20.10.2019
5621 Rain 16 1018 100 5000 4.1 110 23:22 20.10.2019
5622 Rain 16 1018 100 5000 4.1 110 22:57 20.10.2019
5623 Rain 16 1018 100 6000 4.6 110 22:39 20.10.2019
5624 Rain 16 1018 100 10000 3.6 110 22:19 20.10.2019
5625 Rain 16 1018 100 10000 3.6 110 21:58 20.10.2019
5626 Drizzle 16 1017 100 10000 4.6 110 21:39 20.10.2019
5627 Rain 16 1017 93 10000 4.1 130 21:21 20.10.2019
5628 Rain 16 1017 93 10000 1.5 220 20:42 20.10.2019
5629 Rain 17 1017 100 10000 3.6 100 20:20 20.10.2019
5630 Rain 17 1017 100 10000 3.6 100 19:57 20.10.2019
5631 Rain 17 1017 100 7000 3.1 310 19:39 20.10.2019
5632 Rain 17 1017 100 7000 3.1 310 19:39 20.10.2019
5633 Rain 17 1016 100 10000 2.1 160 19:20 20.10.2019
5634 Rain 17 1016 100 10000 2.1 160 19:20 20.10.2019
5635 Rain 17 1016 100 10000 2.1 160 18:56 20.10.2019
5636 Rain 17 1016 100 10000 2.1 160 18:56 20.10.2019
5637 Rain 17 1016 100 7000 1.5 130 18:38 20.10.2019
5638 Rain 17 1016 100 7000 1.5 130 18:38 20.10.2019
5639 Rain 17 1016 100 5000 1 0 18:19 20.10.2019
5640 Rain 17 1016 100 7000 1 0 17:54 20.10.2019
5641 Rain 17 1016 100 7000 1 0 17:36 20.10.2019
5642 Rain 17 1016 100 4000 1 0 17:18 20.10.2019
5643 Rain 17 1017 100 7000 1.5 310 16:41 20.10.2019
5644 Rain 17 1016 100 8000 1.5 50 16:23 20.10.2019
5645 Rain 17 1016 100 8000 1.5 50 15:57 20.10.2019
5646 Rain 17 1017 100 4000 3.1 300 15:38 20.10.2019
5647 Rain 17 1017 100 4000 3.1 300 15:38 20.10.2019
5648 Rain 17 1017 100 4000 1.5 70 15:19 20.10.2019
5649 Rain 18 1017 100 4000 1.5 70 14:56 20.10.2019
5650 Rain 18 1017 100 3500 1 0 14:37 20.10.2019
5651 Rain 18 1017 100 5000 2.6 100 14:18 20.10.2019
5652 Rain 18 1018 100 4000 2.6 150 13:55 20.10.2019
5653 Rain 17 1018 100 4000 2.6 150 13:36 20.10.2019
5654 Clouds 17 1018 100 10000 3.6 100 13:18 20.10.2019
5655 Rain 17 1018 100 10000 3.6 100 12:55 20.10.2019
5656 Rain 17 1018 100 10000 4.1 90 12:36 20.10.2019
5657 Rain 17 1018 100 7000 4.1 100 12:18 20.10.2019
5658 Rain 16 1018 100 7000 3.6 110 11:41 20.10.2019
5659 Rain 16 1018 100 7000 3.6 110 11:23 20.10.2019
5660 Rain 16 1018 100 5000 3.6 110 10:59 20.10.2019
5661 Rain 16 1018 100 4000 3.1 120 10:39 20.10.2019
5662 Rain 16 1018 100 4000 3.1 140 10:21 20.10.2019
5663 Rain 16 1018 100 4000 3.1 140 10:21 20.10.2019
5664 Rain 16 1018 100 4000 3.1 140 09:56 20.10.2019
5665 Rain 16 1018 100 3500 2.1 150 09:37 20.10.2019
5666 Rain 15 1017 100 5000 2.6 90 09:19 20.10.2019
5667 Rain 15 1017 100 4000 3.6 130 08:40 20.10.2019
5668 Rain 15 1016 100 10000 4.6 110 08:21 20.10.2019
5669 Clouds 15 1016 100 10000 4.6 110 07:48 20.10.2019
5670 Mist 15 1016 100 10000 4.6 110 07:28 20.10.2019
5671 Rain 15 1016 100 8000 4.1 120 06:31 20.10.2019
5672 Rain 15 1016 100 8000 4.6 120 04:34 20.10.2019
5673 Rain 15 1016 100 8000 4.1 120 03:52 20.10.2019
5674 Rain 15 1016 100 7000 4.1 120 03:22 20.10.2019
5675 Rain 15 1016 100 7000 4.1 110 02:49 20.10.2019
5676 Rain 15 1016 100 7000 4.1 110 02:22 20.10.2019
5677 Rain 15 1016 100 10000 3.1 120 01:50 20.10.2019
5678 Rain 15 1016 100 10000 3.6 130 01:22 20.10.2019
5679 Rain 15 1016 100 10000 4.1 120 00:49 20.10.2019
5680 Rain 15 1015 100 8000 4.1 120 00:21 20.10.2019
5681 Rain 15 1015 100 8000 4.1 120 00:21 20.10.2019
5682 Rain 15 1016 100 10000 4.6 130 23:54 19.10.2019
5683 Rain 15 1016 100 10000 4.6 130 23:36 19.10.2019
5684 Rain 15 1015 100 10000 6.2 120 23:18 19.10.2019
5685 Rain 15 1015 100 10000 5.7 130 22:40 19.10.2019
5686 Rain 15 1015 100 10000 4.1 120 22:22 19.10.2019
5687 Rain 15 1015 100 10000 4.1 120 21:57 19.10.2019
5688 Rain 15 1015 100 10000 3.6 120 21:39 19.10.2019
5689 Rain 15 1015 100 10000 3.1 110 21:20 19.10.2019
5690 Rain 15 1015 100 10000 3.6 110 20:42 19.10.2019
5691 Rain 15 1015 100 10000 3.6 110 20:21 19.10.2019
5692 Rain 15 1015 100 10000 4.1 120 19:42 19.10.2019
5693 Rain 15 1015 100 10000 4.1 120 19:24 19.10.2019
5694 Clouds 15 1015 100 10000 4.1 120 18:56 19.10.2019
5695 Clouds 16 1015 100 7000 4.1 120 18:37 19.10.2019
5696 Mist 16 1015 100 4000 3.1 130 18:18 19.10.2019
5697 Mist 16 1015 100 4000 2.6 120 17:41 19.10.2019
5698 Mist 16 1014 100 3500 2.6 100 17:21 19.10.2019
5699 Mist 16 1014 100 3500 2.6 100 16:56 19.10.2019
5700 Rain 16 1015 100 2500 3.1 100 16:37 19.10.2019
5701 Rain 16 1015 100 2500 4.6 110 16:18 19.10.2019
5702 Rain 16 1015 100 2500 4.6 110 16:18 19.10.2019
5703 Rain 15 1015 100 2100 4.1 130 15:41 19.10.2019
5704 Rain 15 1015 100 2000 4.1 130 15:23 19.10.2019
5705 Rain 15 1015 100 2000 2.6 120 14:39 19.10.2019
5706 Rain 15 1015 100 2000 3.6 110 14:20 19.10.2019
5707 Rain 15 1015 100 2000 3.6 110 13:58 19.10.2019
5708 Rain 15 1015 100 2000 3.6 120 13:39 19.10.2019
5709 Drizzle 15 1015 100 1500 3.6 130 13:19 19.10.2019
5710 Rain 15 1015 100 1500 4.1 120 12:56 19.10.2019
5711 Rain 15 1015 100 1500 4.1 120 12:37 19.10.2019
5712 Rain 15 1015 100 1500 4.1 110 12:18 19.10.2019
5713 Rain 14 1015 100 1500 3.6 120 11:41 19.10.2019
5714 Rain 14 1015 100 1500 3.6 130 11:23 19.10.2019
5715 Rain 14 1015 100 1500 5.7 130 10:56 19.10.2019
5716 Rain 14 1015 100 1500 4.1 120 10:38 19.10.2019
5717 Rain 14 1015 100 1500 4.1 120 10:19 19.10.2019
5718 Rain 14 1015 100 3000 4.1 120 09:42 19.10.2019
5719 Rain 14 1015 100 3000 2.1 100 09:24 19.10.2019
5720 Rain 14 1015 100 4000 1.5 80 08:59 19.10.2019
5721 Rain 14 1014 100 4000 2.6 90 08:39 19.10.2019
5722 Rain 14 1015 93 4000 1 0 08:20 19.10.2019
5723 Rain 14 1015 100 4000 0.5 0 07:44 19.10.2019
5724 Rain 14 1015 100 4000 2.1 100 07:24 19.10.2019
5725 Rain 14 1015 100 4000 2.1 100 07:24 19.10.2019
5726 Rain 14 1015 100 4000 2.1 100 07:24 19.10.2019
5727 Drizzle 14 1015 100 1900 0.5 0 06:46 19.10.2019
5728 Drizzle 14 1015 100 2000 2.1 110 05:57 19.10.2019
5729 Mist 14 1015 100 2000 2.6 120 05:28 19.10.2019
5730 Rain 14 1016 100 2000 1 0 03:59 19.10.2019
5731 Rain 14 1016 100 2000 1.5 100 02:40 19.10.2019
5732 Rain 14 1016 100 2000 0.5 60 01:51 19.10.2019
5733 Rain 14 1016 100 2000 1 0 01:19 19.10.2019
5734 Rain 14 1017 100 4000 1.5 130 00:45 19.10.2019
5735 Rain 14 1017 100 4000 1.5 130 00:23 19.10.2019
5736 Rain 14 1017 100 4000 1 0 23:41 18.10.2019
5737 Rain 14 1017 100 4000 1 0 23:23 18.10.2019
5738 Rain 14 1017 100 8000 1 0 22:55 18.10.2019
5739 Rain 15 1017 100 8000 1 0 22:37 18.10.2019
5740 Rain 15 1017 100 8000 1 0 22:37 18.10.2019
5741 Rain 15 1017 100 8000 1 0 22:19 18.10.2019
5742 Rain 15 1017 100 8000 1 0 21:56 18.10.2019
5743 Rain 15 1017 100 8000 1 0 21:56 18.10.2019
5744 Rain 15 1017 100 10000 2.1 130 21:38 18.10.2019
5745 Clouds 15 1017 100 8000 1 0 21:19 18.10.2019
5746 Clouds 15 1017 93 10000 1.5 110 20:43 18.10.2019
5747 Clouds 15 1017 93 10000 1.5 110 20:24 18.10.2019
5748 Clouds 15 1017 93 10000 1.5 160 19:59 18.10.2019
5749 Clouds 15 1017 93 10000 2.6 150 19:41 18.10.2019
5750 Clouds 15 1017 93 10000 3.1 150 19:22 18.10.2019
5751 Clouds 15 1017 93 10000 3.1 150 19:22 18.10.2019
5752 Clouds 15 1017 93 10000 3.1 150 18:59 18.10.2019
5753 Clouds 15 1017 88 10000 3.1 140 18:41 18.10.2019
5754 Clouds 16 1017 77 10000 1 0 18:23 18.10.2019
5755 Clouds 16 1017 77 10000 1 0 17:56 18.10.2019
5756 Clouds 16 1017 77 10000 2.1 200 17:37 18.10.2019
5757 Clouds 16 1017 77 10000 2.1 200 17:37 18.10.2019
5758 Drizzle 16 1017 77 10000 1 0 17:19 18.10.2019
5759 Drizzle 17 1017 77 10000 1 0 16:43 18.10.2019
5760 Drizzle 17 1017 77 10000 1 0 16:21 18.10.2019
5761 Drizzle 17 1017 77 10000 1 0 15:58 18.10.2019
5762 Drizzle 17 1017 77 10000 1 0 15:39 18.10.2019
5763 Clouds 17 1017 77 10000 1.5 200 15:20 18.10.2019
5764 Clouds 17 1017 77 10000 1.5 200 14:57 18.10.2019
5765 Clouds 17 1018 82 10000 1.5 170 14:38 18.10.2019
5766 Mist 17 1018 77 10000 1.5 140 14:19 18.10.2019
5767 Mist 17 1018 82 10000 2.1 130 13:57 18.10.2019
5768 Mist 17 1018 82 10000 2.1 130 13:38 18.10.2019
5769 Mist 16 1018 82 10000 1.5 120 13:19 18.10.2019
5770 Mist 16 1018 82 10000 1.5 120 12:55 18.10.2019
5771 Mist 16 1019 77 10000 1 0 12:37 18.10.2019
5772 Clouds 16 1018 82 10000 1.5 80 12:18 18.10.2019
5773 Clouds 15 1019 82 10000 1.5 30 11:42 18.10.2019
5774 Clouds 15 1019 87 10000 1 0 11:21 18.10.2019
5775 Clouds 15 1019 87 10000 1 0 10:59 18.10.2019
5776 Clouds 15 1019 87 10000 1 0 10:59 18.10.2019
5777 Clouds 15 1018 93 10000 1.5 80 10:41 18.10.2019
5778 Clouds 14 1018 100 10000 2.1 20 10:22 18.10.2019
5779 Clouds 14 1018 100 10000 2.1 20 09:57 18.10.2019
5780 Clouds 14 1018 100 10000 1.5 40 09:39 18.10.2019
5781 Clouds 14 1018 100 10000 1.5 40 09:39 18.10.2019
5782 Clouds 14 1018 100 10000 1 50 09:19 18.10.2019
5783 Clouds 13 1018 100 10000 1 0 08:45 18.10.2019
5784 Clouds 13 1018 100 10000 1 0 08:25 18.10.2019
5785 Clouds 13 1018 100 10000 1 0 08:25 18.10.2019
5786 Clouds 13 1018 100 8000 1 30 07:57 18.10.2019
5787 Clouds 13 1018 100 10000 2.1 20 07:38 18.10.2019
5788 Clouds 13 1018 100 6000 0.5 0 06:56 18.10.2019
5789 Clouds 13 1018 100 6000 1.5 30 06:35 18.10.2019
5790 Clouds 13 1018 100 6000 0.5 0 05:59 18.10.2019
5791 Clouds 13 1018 100 6000 1 140 05:41 18.10.2019
5792 Clouds 13 1018 100 6000 0.5 0 05:18 18.10.2019
5793 Clouds 13 1019 100 6000 2.1 10 03:36 18.10.2019
5794 Clouds 13 1019 100 7000 2.1 20 02:51 18.10.2019
5795 Clouds 13 1019 100 7000 2.1 20 02:32 18.10.2019
5796 Clouds 13 1019 100 7000 0.5 0 01:39 18.10.2019
5797 Clouds 13 1019 100 7000 1.5 40 01:18 18.10.2019
5798 Clouds 13 1019 100 7000 1 20 00:40 18.10.2019
5799 Clouds 13 1019 100 8000 1 0 00:19 18.10.2019
5800 Clouds 13 1019 100 8000 1 0 00:19 18.10.2019
5801 Clouds 13 1019 100 8000 1 0 23:38 17.10.2019
5802 Fog 13 1019 100 8000 1 0 23:20 17.10.2019
5803 Fog 14 1019 93 10000 1.5 40 22:56 17.10.2019
5804 Fog 14 1019 93 10000 1.5 40 22:56 17.10.2019
5805 Fog 14 1019 93 10000 1.5 40 22:38 17.10.2019
5806 Clear 14 1019 93 10000 0.5 0 22:19 17.10.2019
5807 Clear 14 1019 87 10000 0.5 0 21:56 17.10.2019
5808 Clear 14 1019 87 10000 0.5 0 21:38 17.10.2019
5809 Clear 14 1019 82 10000 1.5 200 21:20 17.10.2019
5810 Clear 14 1019 82 10000 1 0 20:57 17.10.2019
5811 -273 0 0 0 0 0 20:39 17.10.2019
5812 Clear 15 1019 82 10000 1 0 20:19 17.10.2019
5813 Clear 15 1018 77 10000 2.1 200 19:56 17.10.2019
5814 Clear 15 1018 77 10000 2.1 200 19:38 17.10.2019
5815 Clear 16 1018 72 10000 2.6 200 19:18 17.10.2019
5816 Clouds 17 1018 68 10000 3.1 200 18:42 17.10.2019
5817 Clouds 17 1018 59 10000 3.1 200 18:21 17.10.2019
5818 Clouds 18 1018 59 10000 3.1 200 17:55 17.10.2019
5819 Clouds 18 1018 63 10000 3.1 200 17:37 17.10.2019
5820 Clouds 18 1018 56 10000 2.1 200 17:19 17.10.2019
5821 Clouds 19 1018 56 10000 2.1 200 16:55 17.10.2019
5822 Clouds 19 1018 59 10000 2.1 190 16:36 17.10.2019
5823 Clouds 19 1019 56 10000 2.1 220 16:18 17.10.2019
5824 Clouds 19 1019 59 10000 2.1 190 15:41 17.10.2019
5825 Clouds 19 1019 59 10000 2.1 220 15:21 17.10.2019
5826 Clouds 19 1019 56 10000 1 0 14:58 17.10.2019
5827 Clouds 19 1019 56 10000 1 0 14:39 17.10.2019
5828 Clouds 19 1019 63 10000 1 0 14:21 17.10.2019
5829 Clouds 19 1020 59 10000 0.5 0 13:42 17.10.2019
5830 Clouds 18 1020 63 10000 1 0 13:21 17.10.2019
5831 Clouds 17 1020 67 10000 0.5 0 12:58 17.10.2019
5832 Clouds 17 1020 67 10000 0.5 0 12:40 17.10.2019
5833 Clouds 17 1020 67 10000 0.5 0 12:20 17.10.2019
5834 Clouds 17 1020 67 10000 0.5 0 12:20 17.10.2019
5835 Clouds 16 1020 67 10000 0.5 0 11:57 17.10.2019
5836 Clouds 16 1021 72 10000 1 0 11:38 17.10.2019
5837 Clouds 15 1021 72 10000 0.5 0 11:18 17.10.2019
5838 Clouds 15 1020 82 10000 1 0 10:42 17.10.2019
5839 Clouds 14 1020 93 10000 2.1 40 10:20 17.10.2019
5840 Clouds 13 1020 93 10000 2.1 40 09:58 17.10.2019
5841 Clouds 13 1020 87 10000 2.1 10 09:39 17.10.2019
5842 Clouds 12 1020 93 10000 1.5 20 09:20 17.10.2019
5843 -273 0 0 0 0 0 08:58 17.10.2019
5844 Clouds 11 1020 87 10000 3.1 10 08:38 17.10.2019
5845 Clouds 10 1019 93 10000 2.6 10 08:18 17.10.2019
5846 Clouds 10 1019 93 10000 3.6 360 07:48 17.10.2019
5847 Clouds 10 1019 93 10000 2.6 10 07:21 17.10.2019
5848 Clouds 10 1019 93 10000 2.6 10 07:21 17.10.2019
5849 Clouds 11 1019 93 10000 2.6 10 06:58 17.10.2019
5850 Clouds 11 1019 93 10000 4.1 360 06:39 17.10.2019
5851 Clouds 11 1019 93 10000 3.1 360 06:19 17.10.2019
5852 Clouds 11 1019 100 10000 3.1 10 05:41 17.10.2019
5853 Clouds 11 1019 93 10000 3.6 360 05:20 17.10.2019
5854 Clouds 11 1019 100 10000 2.6 10 04:50 17.10.2019
5855 Clouds 11 1019 93 10000 3.6 10 03:49 17.10.2019
5856 Clouds 11 1020 100 10000 3.6 10 02:35 17.10.2019
5857 Clouds 11 1019 100 10000 2.6 360 00:43 17.10.2019
5858 Clouds 11 1019 93 10000 2.6 20 00:21 17.10.2019
5859 Clouds 11 1019 93 10000 2.6 20 23:59 16.10.2019
5860 Clouds 12 1019 93 10000 2.6 10 23:41 16.10.2019
5861 Clouds 12 1019 87 10000 1 0 23:19 16.10.2019
5862 Clouds 11 1019 87 10000 1 0 23:19 16.10.2019
5863 Clouds 12 1019 100 10000 3.1 10 22:54 16.10.2019
5864 Clouds 12 1019 100 10000 3.1 10 22:36 16.10.2019
5865 Clouds 12 1018 100 10000 2.1 10 22:18 16.10.2019
5866 Clouds 12 1018 100 10000 2.1 10 21:55 16.10.2019
5867 Clouds 12 1018 100 10000 2.1 10 21:54 16.10.2019
5868 Clouds 12 1018 100 10000 2.1 10 21:54 16.10.2019
5869 Clouds 12 1018 100 10000 2.1 10 21:54 16.10.2019
5870 Clouds 12 1018 100 10000 2.1 30 21:36 16.10.2019
5871 Clouds 12 1018 87 10000 1.5 20 21:18 16.10.2019
5872 -273 0 0 0 0 0 20:54 16.10.2019
5873 Clouds 13 1018 93 10000 1 20 20:36 16.10.2019
5874 Clouds 13 1017 87 10000 1 360 20:18 16.10.2019
5875 Clouds 15 1017 87 10000 0.5 0 19:40 16.10.2019
5876 Clouds 15 1017 67 10000 0.5 0 19:21 16.10.2019
5877 Clouds 16 1017 67 10000 0.5 0 18:57 16.10.2019
5878 Clouds 17 1016 55 10000 1 0 18:37 16.10.2019
5879 Clear 18 1016 52 10000 1.5 290 18:18 16.10.2019
5880 Clear 19 1016 52 10000 1.5 290 17:55 16.10.2019
5881 Clear 19 1016 52 10000 1 0 17:36 16.10.2019
5882 Clear 19 1016 55 10000 2.6 250 17:18 16.10.2019
5883 Clear 19 1016 59 10000 3.1 210 16:43 16.10.2019
5884 Clear 19 1016 59 10000 3.1 210 16:23 16.10.2019
5885 Clear 19 1016 52 10000 2.1 200 15:59 16.10.2019
5886 Clear 19 1016 55 10000 3.1 220 15:39 16.10.2019
5887 Clear 19 1016 55 10000 3.1 220 15:39 16.10.2019
5888 Clear 19 1016 52 10000 1.5 0 15:19 16.10.2019
5889 Clear 19 1016 55 10000 2.6 240 14:58 16.10.2019
5890 Clear 19 1016 55 10000 2.6 240 14:39 16.10.2019
5891 Clear 19 1017 55 10000 2.1 240 14:20 16.10.2019
5892 Clear 18 1017 55 10000 2.1 240 13:57 16.10.2019
5893 Clear 18 1017 59 10000 1 0 13:39 16.10.2019
5894 Clear 18 1017 63 10000 1.5 0 13:20 16.10.2019
5895 Clear 18 1017 72 10000 2.1 0 12:42 16.10.2019
5896 Clear 17 1017 77 10000 3.1 290 12:20 16.10.2019
5897 Clear 16 1017 72 10000 2.6 280 11:45 16.10.2019
5898 Clear 15 1017 82 10000 1.5 260 11:19 16.10.2019
5899 Clear 15 1017 87 10000 2.1 270 10:56 16.10.2019
5900 Clear 15 1017 87 10000 2.1 270 10:36 16.10.2019
5901 Clear 14 1016 82 10000 1 0 10:18 16.10.2019
5902 Clear 12 1016 93 10000 0.5 0 09:40 16.10.2019
5903 Clear 12 1016 93 10000 0.5 0 09:40 16.10.2019
5904 Clouds 11 1015 87 10000 1 0 09:21 16.10.2019
5905 -273 0 0 0 0 0 08:46 16.10.2019
5906 Fog 10 1015 93 10000 3.1 350 08:26 16.10.2019
5907 Fog 9 1015 100 10000 2.6 340 07:59 16.10.2019
5908 Clear 9 1014 100 10000 3.1 350 07:41 16.10.2019
5909 Clear 10 1014 100 10000 3.1 350 07:22 16.10.2019
5910 Clear 10 1014 93 10000 2.1 10 06:46 16.10.2019
5911 Clear 10 1014 93 10000 2.1 10 06:27 16.10.2019
5912 Clear 11 1014 100 10000 3.6 350 04:24 16.10.2019
5913 Rain 12 1013 93 10000 2.1 350 02:50 16.10.2019
5914 Rain 12 1012 100 10000 3.6 10 01:20 16.10.2019
5915 Rain 12 1012 100 10000 3.6 10 00:58 16.10.2019
5916 Rain 12 1012 100 10000 2.6 20 00:39 16.10.2019
5917 Thunderstorm 13 1011 100 10000 8.7 10 23:42 15.10.2019
5918 Thunderstorm 14 1011 100 10000 8.7 10 23:23 15.10.2019
5919 Clouds 15 1011 100 3000 12.3 340 22:59 15.10.2019
5920 Thunderstorm 16 1010 100 3000 5.1 100 22:40 15.10.2019
5921 Mist 15 1009 100 5000 7.2 120 22:21 15.10.2019
5922 Mist 16 1009 100 5000 7.2 120 21:57 15.10.2019
5923 Mist 16 1008 100 5000 7.2 110 21:38 15.10.2019
5924 Mist 16 1008 100 5000 7.2 120 21:20 15.10.2019
5925 Clouds 16 1009 87 10000 2.1 100 21:20 15.10.2019
5926 Mist 16 1008 100 5000 7.2 120 20:58 15.10.2019
5927 Mist 16 1008 100 5000 5.7 120 20:40 15.10.2019
5928 Mist 16 1008 100 5000 5.7 120 20:40 15.10.2019
5929 Rain 16 1008 88 2500 5.1 100 20:21 15.10.2019
5930 Rain 16 1008 100 5000 6.2 140 19:59 15.10.2019
5931 Rain 17 1008 100 5000 8.2 130 19:41 15.10.2019
5932 Rain 17 1008 100 5000 6.7 120 19:20 15.10.2019
5933 Rain 17 1008 100 5000 6.7 120 18:55 15.10.2019
5934 Rain 17 1008 100 5000 3.1 140 18:36 15.10.2019
5935 Clouds 17 1008 100 8000 3.6 120 18:18 15.10.2019
5936 Mist 17 1008 100 5000 5.7 110 17:41 15.10.2019
5937 Mist 17 1008 100 5000 5.7 110 17:41 15.10.2019
5938 Rain 17 1009 100 4000 5.1 110 17:21 15.10.2019
5939 Rain 17 1009 100 4000 5.1 110 16:59 15.10.2019
5940 Rain 17 1009 100 4000 5.1 110 16:59 15.10.2019
5941 Rain 17 1008 100 5000 3.6 110 16:40 15.10.2019
5942 Rain 17 1009 100 5000 2.6 130 16:21 15.10.2019
5943 Rain 17 1010 93 3500 4.6 110 15:55 15.10.2019
5944 Thunderstorm 16 1010 100 1800 6.7 190 15:37 15.10.2019
5945 Rain 17 1009 100 1500 9.3 120 15:19 15.10.2019
5946 Rain 17 1009 100 1800 8.2 120 14:38 15.10.2019
5947 Rain 17 1009 100 1800 8.2 120 14:38 15.10.2019
5948 Rain 17 1009 93 1100 6.7 110 14:20 15.10.2019
5949 Rain 17 1009 100 2500 9.3 110 13:58 15.10.2019
5950 Rain 17 1010 100 2000 5.1 100 13:40 15.10.2019
5951 Rain 17 1010 100 2000 5.1 100 13:19 15.10.2019
5952 Rain 16 1012 100 2000 4.6 100 12:44 15.10.2019
5953 Rain 16 1012 100 2000 4.6 100 12:44 15.10.2019
5954 Rain 16 1012 100 2000 7.7 110 12:22 15.10.2019
5955 Rain 16 1012 100 2000 7.7 110 11:57 15.10.2019
5956 Rain 16 1012 100 2500 7.7 110 11:38 15.10.2019
5957 Rain 16 1013 100 2500 8.2 110 11:19 15.10.2019
5958 Rain 16 1013 100 2500 7.2 100 10:45 15.10.2019
5959 Rain 16 1013 100 2000 6.7 90 10:22 15.10.2019
5960 Rain 16 1013 100 2000 6.7 90 09:58 15.10.2019
5961 Rain 16 1014 100 2500 5.1 100 09:39 15.10.2019
5962 Rain 16 1015 82 4000 0.5 0 09:20 15.10.2019
5963 Rain 16 1015 100 3000 4.6 110 08:57 15.10.2019
5964 Rain 15 1014 100 2000 4.6 120 08:37 15.10.2019
5965 Rain 15 1014 100 1800 3.6 100 08:18 15.10.2019
5966 -273 0 0 0 0 0 07:42 15.10.2019
5967 Rain 15 1015 100 2000 3.1 70 07:21 15.10.2019
5968 Rain 15 1015 100 2000 3.1 70 06:54 15.10.2019
5969 Rain 15 1015 100 2000 3.6 60 06:36 15.10.2019
5970 Rain 15 1016 100 2000 2.6 40 05:54 15.10.2019
5971 Rain 15 1016 93 4000 2.1 70 05:35 15.10.2019
5972 Mist 15 1016 100 7000 2.6 20 04:39 15.10.2019
5973 Rain 15 1017 100 10000 2.6 10 03:57 15.10.2019
5974 Rain 15 1018 100 10000 1.5 350 03:27 15.10.2019
5975 Rain 16 1019 87 10000 1.5 70 01:51 15.10.2019
5976 Rain 16 1019 87 10000 0.5 0 01:23 15.10.2019
5977 Rain 16 1019 87 10000 1.5 50 00:50 15.10.2019
5978 Rain 16 1019 93 10000 1 0 00:22 15.10.2019
5979 Rain 16 1019 93 10000 2.1 30 23:46 14.10.2019
5980 Rain 16 1019 93 10000 2.1 30 23:21 14.10.2019
5981 Clouds 16 1020 87 10000 1 0 22:59 14.10.2019
5982 Clouds 16 1020 87 10000 1 0 22:38 14.10.2019
5983 Clouds 16 1020 82 10000 0.5 0 22:19 14.10.2019
5984 Clouds 16 1020 82 10000 0.5 0 21:56 14.10.2019
5985 Clouds 16 1019 93 10000 1.5 350 21:37 14.10.2019
5986 Mist 16 1019 87 10000 0.5 0 21:19 14.10.2019
5987 Mist 16 1019 87 10000 0.5 0 20:55 14.10.2019
5988 Mist 16 1019 87 10000 0.5 0 20:55 14.10.2019
5989 -273 0 0 0 0 0 20:54 14.10.2019
5990 -273 0 0 0 0 0 20:54 14.10.2019
5991 Mist 17 1019 87 10000 0.5 0 20:36 14.10.2019
5992 Mist 17 1020 82 10000 1 50 20:18 14.10.2019
5993 Clouds 17 1019 82 10000 1.5 40 19:41 14.10.2019
5994 Clouds 17 1019 82 10000 1.5 40 19:41 14.10.2019
5995 Clouds 17 1019 82 10000 1.5 40 19:23 14.10.2019
5996 Mist 17 1020 72 10000 1 0 19:23 14.10.2019
5997 Mist 18 1020 72 10000 1 0 18:58 14.10.2019
5998 Mist 19 1019 72 10000 1 50 18:39 14.10.2019
5999 Clouds 19 1020 72 10000 1 0 18:19 14.10.2019
6000 Clouds 19 1020 72 10000 1 0 17:56 14.10.2019
6001 Clouds 19 1020 64 10000 1 0 17:37 14.10.2019
6002 Clouds 20 1020 64 10000 0.5 0 17:19 14.10.2019
6003 Clouds 20 1020 60 10000 0.5 0 16:40 14.10.2019
6004 Clouds 20 1020 64 10000 1.5 50 16:21 14.10.2019
6005 Clouds 20 1021 64 10000 1.5 40 15:42 14.10.2019
6006 Clouds 20 1021 68 10000 1 0 15:22 14.10.2019
6007 Clouds 19 1021 68 10000 1 0 14:56 14.10.2019
6008 Clouds 19 1021 68 10000 1 0 14:56 14.10.2019
6009 Clouds 19 1021 68 10000 1.5 290 14:38 14.10.2019
6010 Mist 19 1022 68 10000 1 0 14:19 14.10.2019
6011 Mist 18 1022 68 10000 1.5 30 13:43 14.10.2019
6012 Mist 18 1023 72 10000 1.5 10 13:21 14.10.2019
6013 Mist 18 1023 77 10000 2.1 350 12:55 14.10.2019
6014 Mist 18 1023 77 10000 2.1 350 12:36 14.10.2019
6015 Mist 18 1023 72 10000 3.1 340 12:18 14.10.2019
6016 Mist 18 1023 72 10000 3.1 340 12:18 14.10.2019
6017 Mist 17 1023 72 10000 2.1 340 11:43 14.10.2019
6018 Mist 17 1023 72 10000 2.1 340 11:24 14.10.2019
6019 Mist 17 1023 77 10000 2.6 350 10:55 14.10.2019
6020 Mist 16 1023 77 10000 2.6 350 10:37 14.10.2019
6021 Mist 16 1023 82 10000 2.1 360 10:18 14.10.2019
6022 Mist 15 1023 87 10000 1 0 09:41 14.10.2019
6023 Clouds 15 1023 93 10000 1 0 09:21 14.10.2019
6024 Clouds 14 1023 87 10000 0.5 20 08:50 14.10.2019
6025 Clouds 14 1023 87 10000 0.5 20 08:50 14.10.2019
6026 Clouds 14 1023 87 10000 2.1 20 08:23 14.10.2019
6027 Clouds 14 1023 93 10000 1.5 30 07:47 14.10.2019
6028 Clouds 14 1023 93 10000 2.1 10 07:25 14.10.2019
6029 Clouds 14 1023 93 10000 2.1 10 06:58 14.10.2019
6030 Clouds 13 1023 93 8000 1.5 20 06:28 14.10.2019
6031 Clouds 13 1023 93 8000 1 20 05:56 14.10.2019
6032 Clouds 13 1023 93 8000 1.5 10 05:25 14.10.2019
6033 Mist 14 1023 93 7000 2.1 10 03:50 14.10.2019
6034 Mist 14 1024 87 7000 2.1 360 03:23 14.10.2019
6035 Mist 14 1024 87 6000 2.1 360 02:25 14.10.2019
6036 Mist 14 1024 87 6000 1 40 01:19 14.10.2019
6037 Mist 14 1024 87 6000 2.1 10 00:41 14.10.2019
6038 Mist 14 1024 87 7000 2.1 10 00:18 14.10.2019
6039 Mist 14 1024 87 10000 2.1 360 23:40 13.10.2019
6040 Clouds 14 1024 87 8000 2.1 20 23:19 13.10.2019
6041 Clouds 14 1024 87 8000 2.1 20 22:55 13.10.2019
6042 Clouds 14 1024 87 8000 2.1 20 22:55 13.10.2019
6043 Clouds 14 1024 87 8000 2.1 20 22:55 13.10.2019
6044 Clouds 15 1024 87 8000 3.1 10 22:37 13.10.2019
6045 Clouds 14 1024 87 10000 2.6 10 22:19 13.10.2019
6046 Clouds 14 1024 87 10000 2.6 10 22:19 13.10.2019
6047 Clouds 14 1024 87 10000 2.6 10 21:55 13.10.2019
6048 Clouds 15 1024 87 10000 1.5 360 21:36 13.10.2019
6049 Mist 15 1024 82 10000 2.1 310 21:18 13.10.2019
6050 Mist 15 1024 82 10000 2.1 310 21:18 13.10.2019
6051 -273 0 0 0 0 0 20:55 13.10.2019
6052 Mist 15 1024 77 10000 2.1 250 20:55 13.10.2019
6053 Mist 15 1024 77 10000 2.1 250 20:37 13.10.2019
6054 Mist 15 1024 77 10000 2.1 220 20:18 13.10.2019
6055 Mist 16 1024 77 10000 2.1 220 19:54 13.10.2019
6056 Mist 16 1023 77 10000 2.6 210 19:36 13.10.2019
6057 Mist 16 1023 77 10000 2.6 210 19:36 13.10.2019
6058 Clouds 16 1023 77 7000 2.1 210 19:18 13.10.2019
6059 Clouds 17 1023 72 8000 3.6 200 18:39 13.10.2019
6060 Clouds 18 1023 68 8000 3.6 200 18:20 13.10.2019
6061 Clear 18 1023 68 10000 3.6 200 17:59 13.10.2019
6062 Clear 19 1023 68 10000 3.6 200 17:40 13.10.2019
6063 Clear 19 1023 60 10000 2.1 240 17:22 13.10.2019
6064 Clear 19 1023 64 10000 2.1 190 16:43 13.10.2019
6065 Clear 19 1023 56 10000 1 0 16:19 13.10.2019
6066 Clear 19 1023 56 10000 1 0 15:57 13.10.2019
6067 Clear 20 1023 56 10000 2.1 0 15:39 13.10.2019
6068 Clear 19 1024 56 10000 1.5 190 15:20 13.10.2019
6069 Clear 19 1024 56 10000 1.5 190 15:20 13.10.2019
6070 Clouds 19 1024 64 10000 1.5 0 14:57 13.10.2019
6071 Clouds 19 1024 64 10000 1.5 0 14:39 13.10.2019
6072 Clouds 19 1024 63 10000 1.5 150 14:20 13.10.2019
6073 Clear 19 1024 64 10000 1 0 13:42 13.10.2019
6074 Clear 18 1025 68 10000 1.5 130 13:23 13.10.2019
6075 Clear 18 1025 68 10000 1.5 130 12:59 13.10.2019
6076 Clear 18 1025 63 10000 1 0 12:39 13.10.2019
6077 Clear 17 1025 77 10000 1 0 12:21 13.10.2019
6078 Clear 16 1025 77 10000 1 0 11:59 13.10.2019
6079 Clear 16 1025 82 10000 1.5 20 11:39 13.10.2019
6080 Clear 15 1025 87 10000 2.6 20 11:21 13.10.2019
6081 Clear 15 1025 93 10000 3.1 10 10:59 13.10.2019
6082 Clear 15 1025 93 10000 3.1 10 10:39 13.10.2019
6083 Clear 13 1024 100 10000 1.5 20 10:20 13.10.2019
6084 Clear 12 1024 100 10000 1.5 360 09:39 13.10.2019
6085 Clouds 11 1024 100 8000 2.1 10 09:21 13.10.2019
6086 Clouds 11 1024 100 8000 2.1 10 09:21 13.10.2019
6087 Fog 11 1024 100 8000 2.6 10 08:51 13.10.2019
6088 Fog 10 1024 100 8000 2.6 10 08:27 13.10.2019
6089 Fog 10 1024 100 8000 2.6 20 07:52 13.10.2019
6090 Fog 10 1024 100 8000 2.6 360 07:33 13.10.2019
6091 Fog 11 1023 100 6000 3.1 360 06:54 13.10.2019
6092 -273 0 0 0 0 0 06:54 13.10.2019
6093 Fog 10 1023 100 6000 3.1 20 06:24 13.10.2019
6094 Fog 11 1023 100 6000 3.1 360 06:24 13.10.2019
6095 Fog 11 1023 100 6000 2.6 20 05:27 13.10.2019
6096 Fog 11 1023 100 6000 2.6 20 05:27 13.10.2019
6097 Fog 11 1024 100 6000 3.1 350 04:35 13.10.2019
6098 Fog 11 1024 100 5000 2.1 10 03:34 13.10.2019
6099 Fog 11 1024 100 5000 2.1 20 02:31 13.10.2019
6100 Fog 11 1024 100 5000 2.1 20 02:31 13.10.2019
6101 Fog 12 1024 100 6000 1 30 01:37 13.10.2019
6102 Fog 12 1024 100 6000 1.5 30 00:56 13.10.2019
6103 Fog 12 1024 100 6000 1.5 30 00:56 13.10.2019
6104 Fog 12 1024 100 6000 1.5 30 00:38 13.10.2019
6105 Fog 12 1024 100 6000 2.6 10 00:19 13.10.2019
6106 Fog 12 1024 100 6000 2.6 20 23:42 12.10.2019
6107 Fog 13 1024 100 6000 2.6 10 23:23 12.10.2019
6108 Fog 13 1024 100 6000 2.6 10 22:58 12.10.2019
6109 Fog 13 1024 100 6000 2.1 10 22:40 12.10.2019
6110 Fog 13 1024 93 9000 1.5 30 22:22 12.10.2019
6111 Clear 13 1024 93 10000 1 0 21:58 12.10.2019
6112 Fog 13 1024 93 9000 1.5 30 21:58 12.10.2019
6113 Clear 14 1024 93 10000 1 0 21:39 12.10.2019
6114 Clear 14 1024 93 10000 1 40 21:21 12.10.2019
6115 Clear 14 1024 87 10000 1 20 20:46 12.10.2019
6116 Clear 14 1024 87 10000 1 20 20:46 12.10.2019
6117 Clear 15 1024 82 10000 0.5 0 20:28 12.10.2019
6118 Mist 16 1023 77 10000 0.5 0 19:57 12.10.2019
6119 Mist 16 1023 77 10000 0.5 0 19:36 12.10.2019
6120 Mist 17 1023 63 10000 1.5 200 19:18 12.10.2019
6121 Mist 18 1023 68 10000 1.5 190 18:41 12.10.2019
6122 Mist 18 1023 59 10000 0.5 0 18:23 12.10.2019
6123 Mist 18 1023 59 10000 1.5 210 17:45 12.10.2019
6124 Mist 19 1023 56 10000 1.5 0 17:21 12.10.2019
6125 Mist 19 1023 63 10000 1.5 0 16:58 12.10.2019
6126 Mist 19 1023 63 10000 1.5 0 16:58 12.10.2019
6127 Mist 19 1023 63 10000 1.5 0 16:40 12.10.2019
6128 Mist 19 1023 64 10000 1.5 230 16:19 12.10.2019
6129 Mist 19 1023 63 10000 1.5 250 15:45 12.10.2019
6130 Mist 19 1023 63 10000 1.5 250 15:26 12.10.2019
6131 Mist 19 1023 59 10000 1.5 270 14:59 12.10.2019
6132 Mist 19 1024 63 10000 2.1 260 14:38 12.10.2019
6133 Clear 19 1024 72 10000 2.1 230 14:19 12.10.2019
6134 Clear 18 1024 72 10000 1 0 13:45 12.10.2019
6135 Clear 18 1024 72 10000 1 0 13:27 12.10.2019
6136 Clear 18 1024 68 10000 0.5 0 12:55 12.10.2019
6137 Clear 17 1024 68 10000 0.5 0 12:36 12.10.2019
6138 Clear 17 1024 72 10000 1 0 12:18 12.10.2019
6139 Clear 16 1025 77 10000 1 0 11:40 12.10.2019
6140 Clear 16 1024 82 10000 1 0 11:22 12.10.2019
6141 Clear 15 1024 87 10000 1 0 10:56 12.10.2019
6142 -273 0 0 0 0 0 10:56 12.10.2019
6143 Clear 15 1024 87 10000 1 0 10:37 12.10.2019
6144 -273 0 0 0 0 0 10:18 12.10.2019
6145 Clear 13 1024 100 10000 2.6 20 09:56 12.10.2019
6146 Clear 13 1024 100 10000 1.5 20 09:55 12.10.2019
6147 Clear 13 1024 100 10000 2.6 20 09:37 12.10.2019
6148 Fog 10 1024 100 10000 2.6 10 09:18 12.10.2019
6149 Fog 10 1024 100 10000 3.1 20 08:41 12.10.2019
6150 Fog 9 1024 100 10000 3.1 20 08:41 12.10.2019
6151 Fog 9 1023 100 6000 2.6 20 08:20 12.10.2019
6152 Fog 9 1023 100 6000 2.6 20 08:20 12.10.2019
6153 Fog 9 1023 100 6000 2.6 20 07:36 12.10.2019
6154 Fog 9 1023 100 6000 3.1 10 06:59 12.10.2019
6155 Fog 9 1023 100 6000 2.6 20 05:49 12.10.2019
6156 Fog 10 1023 100 6000 2.1 10 05:24 12.10.2019
6157 Fog 10 1023 100 6000 2.6 20 04:26 12.10.2019
6158 Fog 10 1024 100 6000 2.6 10 03:41 12.10.2019
6159 Fog 10 1024 100 7000 2.1 20 01:56 12.10.2019
6160 Fog 11 1024 100 7000 1.5 30 01:24 12.10.2019
6161 Fog 11 1024 100 7000 1.5 20 00:43 12.10.2019
6162 Fog 11 1024 100 7000 1.5 30 00:19 12.10.2019
6163 Fog 12 1024 100 7000 1 10 23:40 11.10.2019
6164 Fog 12 1024 100 7000 1.5 30 23:20 11.10.2019
6165 Fog 12 1024 93 7000 1 30 22:41 11.10.2019
6166 Clear 12 1024 93 10000 0.5 0 22:22 11.10.2019
6167 Clear 13 1024 93 10000 0.5 0 21:58 11.10.2019
6168 Clear 13 1024 82 10000 2.1 260 21:39 11.10.2019
6169 Mist 13 1023 77 10000 2.1 250 21:21 11.10.2019
6170 Mist 14 1023 77 10000 2.6 230 20:45 11.10.2019
6171 Mist 14 1023 77 10000 3.1 210 20:27 11.10.2019
6172 Mist 14 1023 77 10000 3.1 210 20:27 11.10.2019
6173 Mist 15 1023 77 10000 2.1 200 19:59 11.10.2019
6174 Mist 15 1023 77 10000 2.1 200 19:39 11.10.2019
6175 Mist 15 1023 77 10000 2.1 200 19:39 11.10.2019
6176 Clear 16 1023 72 10000 2.1 210 19:18 11.10.2019
6177 Clear 16 1023 72 10000 2.1 210 19:18 11.10.2019
6178 Clear 16 1023 72 10000 2.1 210 19:18 11.10.2019
6179 Clear 16 1023 72 10000 2.1 210 19:18 11.10.2019
6180 Clear 17 1023 72 10000 2.1 210 18:59 11.10.2019
6181 Clear 17 1023 72 10000 2.1 210 18:59 11.10.2019
6182 Clear 17 1023 68 10000 2.6 210 18:38 11.10.2019
6183 Clear 18 1023 63 10000 2.6 210 18:19 11.10.2019
6184 Clear 18 1023 63 10000 2.6 210 18:19 11.10.2019
6185 Clear 18 1023 63 10000 2.6 210 17:58 11.10.2019
6186 Clear 19 1023 63 10000 2.1 200 17:38 11.10.2019
6187 Clouds 19 1023 60 10000 1.5 200 17:19 11.10.2019
6188 Clouds 19 1023 63 10000 1.5 210 16:58 11.10.2019
6189 Clouds 19 1023 63 10000 1.5 210 16:39 11.10.2019
6190 Clouds 19 1023 68 10000 1.5 190 16:19 11.10.2019
6191 Clouds 19 1024 60 10000 1.5 180 15:41 11.10.2019
6192 Clouds 19 1024 63 10000 1.5 170 15:20 11.10.2019
6193 Clouds 19 1024 63 10000 1.5 170 14:58 11.10.2019
6194 Clouds 19 1024 63 10000 1.5 170 14:58 11.10.2019
6195 Clouds 19 1024 68 10000 1 0 14:37 11.10.2019
6196 Clouds 18 1025 63 10000 1 0 14:19 11.10.2019
6197 Clouds 18 1025 72 10000 1 0 13:43 11.10.2019
6198 Clear 18 1025 72 10000 1 0 13:24 11.10.2019
6199 Clouds 17 1026 82 10000 0.5 0 12:56 11.10.2019
6200 Clouds 17 1026 82 10000 0.5 0 12:38 11.10.2019
6201 Clouds 16 1025 77 10000 0.5 0 12:20 11.10.2019
6202 Clouds 16 1026 77 10000 0.5 0 11:57 11.10.2019
6203 Clouds 16 1026 77 10000 0.5 0 11:38 11.10.2019
6204 Clouds 15 1025 82 10000 2.1 10 11:20 11.10.2019
6205 Clouds 14 1025 87 10000 2.6 20 10:42 11.10.2019
6206 Clouds 13 1025 93 10000 3.1 10 10:23 11.10.2019
6207 Clouds 13 1025 93 10000 3.1 10 09:59 11.10.2019
6208 Clouds 12 1025 93 10000 3.1 10 09:40 11.10.2019
6209 Clouds 11 1024 100 10000 2.6 10 09:20 11.10.2019
6210 Clouds 11 1024 100 10000 2.1 10 08:56 11.10.2019
6211 Clouds 11 1024 100 10000 2.1 10 08:37 11.10.2019
6212 Clouds 10 1024 100 10000 2.1 20 08:19 11.10.2019
6213 Clouds 10 1023 100 10000 3.1 10 07:45 11.10.2019
6214 Clear 10 1023 100 10000 2.6 10 07:27 11.10.2019
6215 Clear 10 1023 100 10000 3.6 10 06:49 11.10.2019
6216 Clear 10 1023 100 10000 3.1 20 06:24 11.10.2019
6217 Clear 10 1023 100 10000 2.6 10 05:41 11.10.2019
6218 Clear 10 1023 100 10000 2.1 10 05:20 11.10.2019
6219 Rain 10 1023 100 10000 3.6 20 04:28 11.10.2019
6220 Fog 10 1022 100 8000 1 0 02:41 11.10.2019
6221 Fog 11 1021 100 8000 1.5 360 00:51 11.10.2019
6222 Fog 11 1021 100 8000 1.5 20 00:29 11.10.2019
6223 Fog 11 1020 100 8000 1.5 40 23:46 10.10.2019
6224 Fog 11 1020 100 10000 1 30 23:23 10.10.2019
6225 Fog 12 1020 93 10000 1.5 20 22:58 10.10.2019
6226 Fog 12 1020 93 10000 1.5 20 22:39 10.10.2019
6227 Fog 12 1019 93 10000 0.5 0 22:21 10.10.2019
6228 Fog 13 1019 100 10000 0.5 0 21:58 10.10.2019
6229 Fog 13 1019 100 10000 0.5 0 21:39 10.10.2019
6230 Fog 13 1019 93 10000 1.5 60 21:21 10.10.2019
6231 Fog 13 1019 93 10000 1.5 60 21:21 10.10.2019
6232 Clear 14 1018 82 10000 1 0 20:43 10.10.2019
6233 Clear 14 1018 82 10000 2.1 200 20:22 10.10.2019
6234 Clear 15 1017 72 10000 2.6 210 19:59 10.10.2019
6235 Clear 16 1017 72 10000 2.6 210 19:41 10.10.2019
6236 Clear 16 1017 77 10000 2.6 200 19:21 10.10.2019
6237 Clear 16 1017 77 10000 1 190 18:59 10.10.2019
6238 Clear 17 1017 77 10000 1 190 18:39 10.10.2019
6239 Clear 17 1016 68 10000 2.6 220 18:20 10.10.2019
6240 Clear 18 1016 68 10000 3.1 230 17:55 10.10.2019
6241 Clear 18 1016 68 10000 3.1 230 17:55 10.10.2019
6242 Clear 18 1016 68 10000 3.1 230 17:37 10.10.2019
6243 Clear 18 1016 68 10000 4.1 230 17:18 10.10.2019
6244 Clear 18 1016 68 10000 4.6 240 16:44 10.10.2019
6245 Clear 18 1016 68 10000 4.6 240 16:44 10.10.2019
6246 Clear 19 1016 68 10000 4.6 240 16:26 10.10.2019
6247 Clear 19 1016 68 10000 3.6 230 15:54 10.10.2019
6248 Clear 19 1016 68 10000 3.6 230 15:36 10.10.2019
6249 Clear 19 1016 68 10000 3.6 230 15:36 10.10.2019
6250 Clear 18 1016 63 10000 3.6 210 15:18 10.10.2019
6251 Clear 18 1016 68 10000 2.6 270 14:54 10.10.2019
6252 Clear 18 1016 68 10000 2.6 270 14:36 10.10.2019
6253 Clear 18 1016 68 10000 2.6 280 14:18 10.10.2019
6254 Clear 17 1017 68 10000 1.5 0 13:41 10.10.2019
6255 Clear 18 1017 68 10000 1.5 0 13:41 10.10.2019
6256 Clear 17 1017 77 10000 2.1 330 13:23 10.10.2019
6257 Clouds 16 1017 77 10000 2.1 310 12:57 10.10.2019
6258 Clouds 16 1017 77 10000 2.1 310 12:39 10.10.2019
6259 Clouds 16 1017 82 10000 2.1 340 12:19 10.10.2019
6260 Clouds 15 1017 93 10000 1.5 320 11:55 10.10.2019
6261 Clouds 15 1017 93 10000 1.5 320 11:37 10.10.2019
6262 Clear 14 1017 100 10000 1.5 360 11:18 10.10.2019
6263 Clear 14 1017 100 10000 2.6 350 10:44 10.10.2019
6264 Clear 13 1017 100 10000 2.6 350 10:25 10.10.2019
6265 Mist 12 1017 100 10000 3.1 360 09:55 10.10.2019
6266 Mist 12 1016 100 8000 2.6 360 09:37 10.10.2019
6267 Fog 11 1016 100 8000 2.1 10 09:19 10.10.2019
6268 Mist 10 1016 100 5000 2.6 350 08:41 10.10.2019
6269 Fog 10 1015 100 1200 3.1 20 08:22 10.10.2019
6270 Fog 10 1015 100 8000 3.6 360 07:58 10.10.2019
6271 Fog 10 1015 100 8000 3.6 360 07:37 10.10.2019
6272 Fog 10 1015 100 8000 1 0 07:19 10.10.2019
6273 Fog 10 1015 100 7000 2.6 360 06:40 10.10.2019
6274 Fog 11 1015 100 6000 2.1 360 05:57 10.10.2019
6275 Fog 11 1015 100 5000 1.5 10 05:22 10.10.2019
6276 Fog 11 1015 100 5000 1.5 10 05:22 10.10.2019
6277 Fog 11 1015 100 4000 1.5 360 04:36 10.10.2019
6278 Mist 12 1015 100 3500 2.1 340 02:46 10.10.2019
6279 Mist 13 1015 100 4000 2.1 270 01:39 10.10.2019
6280 Mist 13 1015 100 4000 2.1 270 01:39 10.10.2019
6281 Mist 13 1015 100 4000 1.5 250 01:21 10.10.2019
6282 Mist 13 1015 100 4000 0.5 0 00:41 10.10.2019
6283 Rain 13 1015 100 4000 2.1 300 23:57 09.10.2019
6284 Rain 13 1015 100 4000 2.1 300 23:36 09.10.2019
6285 Rain 13 1015 100 4000 1 0 23:18 09.10.2019
6286 Mist 13 1015 100 4000 2.1 260 22:41 09.10.2019
6287 Mist 13 1015 100 4000 2.6 290 22:22 09.10.2019
6288 Mist 13 1015 100 4000 2.1 270 21:58 09.10.2019
6289 Mist 13 1015 100 4000 2.1 270 21:39 09.10.2019
6290 Mist 13 1015 100 4000 2.1 270 21:39 09.10.2019
6291 Mist 13 1015 100 4000 2.1 270 21:39 09.10.2019
6292 Mist 13 1015 100 4000 2.1 260 21:19 09.10.2019
6293 Mist 13 1015 100 3500 2.1 240 20:55 09.10.2019
6294 Mist 13 1015 100 3500 2.1 240 20:37 09.10.2019
6295 Mist 13 1015 100 4000 1.5 210 20:18 09.10.2019
6296 Mist 13 1015 100 4000 1.5 210 20:18 09.10.2019
6297 Rain 13 1015 100 6000 0.5 0 19:44 09.10.2019
6298 Rain 13 1015 100 6000 0.5 0 19:23 09.10.2019
6299 Rain 13 1015 100 3500 2.1 70 18:56 09.10.2019
6300 Rain 13 1015 100 3500 2.1 70 18:37 09.10.2019
6301 Rain 13 1015 100 1200 1.5 80 18:18 09.10.2019
6302 Rain 14 1015 100 600 2.1 20 17:40 09.10.2019
6303 Rain 14 1015 100 800 2.6 20 17:22 09.10.2019
6304 Rain 14 1015 100 700 1 0 16:58 09.10.2019
6305 Rain 14 1015 100 700 1 0 16:40 09.10.2019
6306 Rain 14 1015 100 800 1.5 80 16:21 09.10.2019
6307 Rain 14 1015 100 800 1.5 80 15:57 09.10.2019
6308 Rain 14 1015 100 800 1.5 80 15:38 09.10.2019
6309 Rain 14 1015 100 800 1.5 80 15:38 09.10.2019
6310 Rain 14 1016 100 800 3.1 120 15:19 09.10.2019
6311 Rain 14 1016 100 800 2.6 140 14:55 09.10.2019
6312 Rain 14 1016 100 800 2.6 140 14:36 09.10.2019
6313 Rain 14 1016 100 800 2.6 140 14:36 09.10.2019
6314 Rain 14 1016 100 4000 4.1 120 14:18 09.10.2019
6315 Rain 14 1016 100 2000 3.6 90 13:38 09.10.2019
6316 Rain 14 1018 100 2000 1 0 13:19 09.10.2019
6317 Rain 14 1018 93 3500 1 0 12:55 09.10.2019
6318 Rain 14 1018 93 3500 1 0 12:37 09.10.2019
6319 Mist 15 1018 87 7000 2.1 140 12:18 09.10.2019
6320 Mist 15 1018 87 6000 2.1 160 11:40 09.10.2019
6321 Mist 15 1018 82 8000 2.1 140 11:21 09.10.2019
6322 Clouds 15 1018 82 8000 2.1 120 10:59 09.10.2019
6323 Clouds 14 1018 82 8000 2.1 120 10:40 09.10.2019
6324 Clouds 14 1018 82 8000 2.1 90 10:19 09.10.2019
6325 Clouds 14 1018 82 8000 2.1 90 09:43 09.10.2019
6326 Clouds 14 1018 87 6000 2.1 100 09:21 09.10.2019
6327 Clouds 14 1018 87 6000 2.1 80 08:58 09.10.2019
6328 Clouds 13 1018 87 6000 2.1 80 08:39 09.10.2019
6329 Clouds 13 1018 87 7000 2.1 50 08:20 09.10.2019
6330 Clouds 13 1018 87 10000 1.5 30 07:47 09.10.2019
6331 Clouds 13 1018 87 10000 1 0 07:25 09.10.2019
6332 Clouds 13 1018 87 10000 1 0 06:58 09.10.2019
6333 Clouds 13 1018 93 10000 0.5 0 06:35 09.10.2019
6334 Clouds 13 1018 87 10000 0.5 60 05:52 09.10.2019
6335 Clouds 13 1018 87 10000 1 10 04:56 09.10.2019
6336 Clouds 13 1018 93 10000 2.1 10 03:48 09.10.2019
6337 Clouds 13 1019 100 10000 1.5 10 02:27 09.10.2019
6338 Clouds 13 1019 93 10000 1 40 01:39 09.10.2019
6339 Clouds 13 1019 93 10000 1.5 20 01:18 09.10.2019
6340 Clouds 13 1019 93 10000 1 30 00:41 09.10.2019
6341 Clouds 13 1019 87 10000 1.5 350 00:23 09.10.2019
6342 Clouds 13 1019 87 10000 1.5 350 23:58 08.10.2019
6343 Clouds 13 1019 93 10000 1 0 23:38 08.10.2019
6344 Clouds 13 1019 100 10000 1 40 23:18 08.10.2019
6345 Clouds 13 1019 100 10000 1 40 23:18 08.10.2019
6346 Clouds 13 1019 100 10000 0.5 0 22:41 08.10.2019
6347 Clouds 13 1019 93 10000 1 360 22:22 08.10.2019
6348 Clear 13 1018 93 10000 1 0 21:58 08.10.2019
6349 Clear 14 1018 93 10000 1 0 21:39 08.10.2019
6350 Clear 13 1018 82 10000 1.5 30 21:20 08.10.2019
6351 Clear 14 1018 82 10000 1.5 30 20:58 08.10.2019
6352 Clear 14 1018 87 10000 1.5 50 20:39 08.10.2019
6353 Clear 14 1018 77 10000 1.5 30 20:21 08.10.2019
6354 Clear 15 1018 72 10000 0.5 0 19:59 08.10.2019
6355 Clear 16 1018 72 10000 0.5 0 19:41 08.10.2019
6356 Clear 16 1018 63 10000 0.5 0 19:23 08.10.2019
6357 Clouds 17 1018 59 10000 1 0 18:55 08.10.2019
6358 Clouds 17 1018 59 10000 1 0 18:55 08.10.2019
6359 Clouds 17 1018 59 10000 1 0 18:37 08.10.2019
6360 Clouds 18 1018 55 10000 1 0 18:19 08.10.2019
6361 Clouds 18 1018 59 10000 1.5 240 17:55 08.10.2019
6362 Clouds 18 1018 59 10000 1.5 240 17:55 08.10.2019
6363 Clouds 18 1018 59 10000 1.5 240 17:36 08.10.2019
6364 Clouds 18 1018 59 10000 1.5 240 17:36 08.10.2019
6365 Clouds 18 1018 63 10000 1 0 17:18 08.10.2019
6366 Clouds 18 1018 59 10000 1.5 0 16:40 08.10.2019
6367 Clouds 18 1018 63 10000 1 0 16:22 08.10.2019
6368 Clouds 18 1018 63 10000 1.5 0 15:41 08.10.2019
6369 Clouds 18 1019 63 10000 2.1 140 15:22 08.10.2019
6370 Clouds 18 1019 63 10000 2.1 140 15:22 08.10.2019
6371 Clouds 18 1019 63 10000 2.1 140 14:58 08.10.2019
6372 Clouds 18 1019 63 10000 2.1 190 14:39 08.10.2019
6373 Clouds 17 1019 67 10000 2.6 150 14:21 08.10.2019
6374 Clouds 17 1020 63 10000 2.6 0 13:57 08.10.2019
6375 Clouds 17 1020 63 10000 2.6 0 13:38 08.10.2019
6376 Clouds 17 1020 67 10000 1 0 13:19 08.10.2019
6377 Clouds 17 1020 67 10000 1 0 12:58 08.10.2019
6378 Clouds 17 1020 67 10000 1 0 12:38 08.10.2019
6379 Clouds 16 1020 67 10000 2.1 180 12:18 08.10.2019
6380 Clouds 16 1020 67 10000 1 0 11:42 08.10.2019
6381 Clouds 15 1020 72 10000 1.5 190 11:24 08.10.2019
6382 Clouds 15 1020 72 10000 2.1 0 10:56 08.10.2019
6383 Clouds 14 1020 72 10000 2.1 0 10:37 08.10.2019
6384 Clouds 14 1020 87 10000 2.1 20 10:19 08.10.2019
6385 Clouds 13 1020 87 10000 2.1 30 09:55 08.10.2019
6386 Clouds 13 1020 87 10000 2.1 30 09:37 08.10.2019
6387 Clouds 13 1020 93 10000 1.5 40 09:19 08.10.2019
6388 Clouds 12 1020 100 10000 1.5 30 08:42 08.10.2019
6389 Clouds 12 1019 93 10000 2.1 20 08:23 08.10.2019
6390 Clouds 12 1019 93 10000 2.1 20 08:23 08.10.2019
6391 Mist 11 1019 100 10000 2.6 20 07:44 08.10.2019
6392 Clouds 11 1019 100 10000 2.6 10 07:21 08.10.2019
6393 Clouds 11 1019 100 10000 2.6 10 06:50 08.10.2019
6394 Mist 11 1019 100 10000 3.1 360 06:28 08.10.2019
6395 Clouds 11 1019 100 10000 3.1 360 05:46 08.10.2019
6396 Clouds 11 1019 100 10000 3.1 360 05:46 08.10.2019
6397 Clouds 11 1019 100 10000 2.1 20 05:25 08.10.2019
6398 Clear 11 1019 100 10000 3.1 20 03:57 08.10.2019
6399 Fog 11 1019 100 10000 4.1 360 03:24 08.10.2019
6400 Clear 11 1019 100 10000 2.6 350 02:35 08.10.2019
6401 Clear 11 1018 100 10000 1.5 10 01:45 08.10.2019
6402 Clear 12 1018 100 10000 2.1 10 01:26 08.10.2019
6403 Clear 12 1018 100 10000 1.5 30 00:45 08.10.2019
6404 Clear 12 1018 100 10000 2.1 20 00:20 08.10.2019
6405 Clear 12 1017 100 10000 2.6 30 23:39 07.10.2019
6406 Clear 12 1017 93 10000 1.5 10 23:20 07.10.2019
6407 Clear 13 1017 93 10000 2.1 20 22:56 07.10.2019
6408 Clear 13 1017 93 10000 2.1 20 22:37 07.10.2019
6409 Clear 13 1016 87 10000 1 30 22:19 07.10.2019
6410 Clear 13 1016 87 10000 1 30 21:55 07.10.2019
6411 Clear 14 1016 82 10000 0.5 0 21:37 07.10.2019
6412 Clear 14 1016 77 10000 1.5 140 21:18 07.10.2019
6413 Clear 14 1015 77 10000 1.5 160 20:56 07.10.2019
6414 Clear 14 1015 77 10000 1.5 160 20:38 07.10.2019
6415 Clear 14 1015 77 10000 1.5 160 20:38 07.10.2019
6416 Clear 15 1015 72 10000 1.5 180 20:19 07.10.2019
6417 Clear 16 1015 72 10000 1.5 180 19:54 07.10.2019
6418 Clear 16 1015 72 10000 1.5 180 19:36 07.10.2019
6419 Clear 17 1015 67 10000 1.5 180 19:18 07.10.2019
6420 Clear 18 1015 55 10000 2.6 190 18:42 07.10.2019
6421 Clear 19 1014 49 10000 3.6 210 18:19 07.10.2019
6422 Clear 19 1014 49 10000 3.6 210 17:59 07.10.2019
6423 Clear 19 1014 46 10000 3.1 200 17:40 07.10.2019
6424 Clear 19 1014 46 10000 3.1 200 17:40 07.10.2019
6425 Clear 19 1014 46 10000 3.1 200 17:40 07.10.2019
6426 Clear 19 1014 43 10000 2.6 210 17:19 07.10.2019
6427 Clear 20 1014 46 10000 2.6 240 16:46 07.10.2019
6428 Clear 20 1014 46 10000 2.6 240 16:46 07.10.2019
6429 Clear 20 1013 46 10000 2.6 220 16:28 07.10.2019
6430 Clear 20 1013 46 10000 2.1 210 15:58 07.10.2019
6431 Clear 20 1013 46 10000 2.1 210 15:39 07.10.2019
6432 Clear 19 1013 52 10000 2.6 230 15:21 07.10.2019
6433 Clear 19 1013 59 10000 2.6 0 14:41 07.10.2019
6434 Clear 19 1014 59 10000 2.1 200 14:23 07.10.2019
6435 Clear 18 1014 63 10000 2.1 0 13:45 07.10.2019
6436 Clear 18 1014 68 10000 2.1 250 13:21 07.10.2019
6437 Clear 18 1014 72 10000 3.1 250 12:58 07.10.2019
6438 Clear 18 1014 72 10000 3.1 250 12:40 07.10.2019
6439 Clouds 17 1014 77 10000 2.6 250 12:21 07.10.2019
6440 Clouds 16 1014 87 10000 3.1 250 11:59 07.10.2019
6441 Clouds 16 1014 87 10000 3.1 250 11:40 07.10.2019
6442 Clouds 16 1014 93 10000 2.1 200 11:21 07.10.2019
6443 Clouds 15 1013 87 10000 1 0 10:56 07.10.2019
6444 Clouds 15 1013 87 10000 1 0 10:37 07.10.2019
6445 Clouds 14 1013 100 10000 1 0 10:19 07.10.2019
6446 Clear 13 1013 100 10000 1.5 20 09:38 07.10.2019
6447 Clear 12 1012 100 10000 1.5 360 09:20 07.10.2019
6448 Fog 12 1011 100 8000 1 130 08:44 07.10.2019
6449 Fog 11 1010 100 8000 2.1 140 08:21 07.10.2019
6450 Fog 11 1010 100 8000 2.1 140 07:55 07.10.2019
6451 Fog 12 1010 100 10000 0.5 0 07:28 07.10.2019
6452 Clear 12 1009 100 10000 0.5 0 06:58 07.10.2019
6453 Clear 12 1009 100 10000 0.5 0 06:39 07.10.2019
6454 Clear 12 1009 100 10000 2.1 30 06:20 07.10.2019
6455 Rain 12 1008 100 10000 1.5 80 05:26 07.10.2019
6456 Rain 12 1009 100 10000 2.6 340 04:50 07.10.2019
6457 Rain 13 1008 100 8000 5.1 110 03:48 07.10.2019
6458 Rain 13 1008 100 8000 5.1 110 03:48 07.10.2019
6459 Rain 13 1008 100 8000 5.1 110 03:30 07.10.2019
6460 Rain 13 1010 100 4000 4.1 30 02:39 07.10.2019
6461 Rain 13 1010 100 5000 2.6 350 02:19 07.10.2019
6462 Rain 13 1010 100 6000 3.6 60 01:23 07.10.2019
6463 Rain 13 1010 100 6000 3.1 70 00:53 07.10.2019
6464 Rain 14 1010 100 5000 3.1 100 00:26 07.10.2019
6465 Rain 14 1011 93 3500 3.1 80 23:59 06.10.2019
6466 Rain 14 1011 93 3500 3.1 80 23:40 06.10.2019
6467 Rain 15 1011 93 4000 3.6 90 23:20 06.10.2019
6468 Drizzle 15 1011 87 10000 2.1 80 22:56 06.10.2019
6469 Drizzle 15 1011 87 10000 2.1 80 22:37 06.10.2019
6470 Drizzle 15 1011 87 10000 2.1 80 22:37 06.10.2019
6471 Rain 15 1011 87 10000 1 0 22:19 06.10.2019
6472 Rain 16 1012 77 10000 0.5 0 21:55 06.10.2019
6473 Rain 16 1012 77 10000 0.5 0 21:55 06.10.2019
6474 Rain 16 1012 77 10000 0.5 0 21:36 06.10.2019
6475 Rain 16 1012 72 10000 0.5 0 21:18 06.10.2019
6476 Rain 16 1012 72 10000 0.5 0 20:54 06.10.2019
6477 Rain 16 1012 72 10000 0.5 0 20:54 06.10.2019
6478 Rain 16 1012 72 10000 0.5 0 20:36 06.10.2019
6479 Rain 16 1012 72 10000 0.5 0 20:18 06.10.2019
6480 Rain 16 1012 72 8000 1 0 19:55 06.10.2019
6481 Clouds 16 1012 72 8000 1 0 19:36 06.10.2019
6482 Clouds 17 1013 72 8000 1.5 190 19:18 06.10.2019
6483 Clouds 17 1013 68 10000 1.5 170 18:54 06.10.2019
6484 Clouds 17 1013 68 10000 1.5 170 18:54 06.10.2019
6485 Clouds 17 1013 68 10000 1.5 170 18:36 06.10.2019
6486 Clouds 18 1013 68 10000 1.5 170 18:18 06.10.2019
6487 Clouds 18 1013 63 10000 2.6 130 17:42 06.10.2019
6488 Clouds 18 1013 59 10000 2.6 150 17:20 06.10.2019
6489 Clouds 19 1013 59 10000 2.6 150 16:55 06.10.2019
6490 Clouds 19 1013 59 10000 2.6 150 16:36 06.10.2019
6491 Clouds 19 1014 59 10000 3.1 150 16:18 06.10.2019
6492 Clouds 19 1014 59 10000 2.6 100 15:42 06.10.2019
6493 Clouds 19 1014 56 10000 1.5 0 15:19 06.10.2019
6494 Clouds 19 1014 56 10000 1.5 0 15:19 06.10.2019
6495 Clouds 19 1014 56 10000 1.5 0 15:19 06.10.2019
6496 Clouds 19 1014 56 10000 1.5 0 15:19 06.10.2019
6497 Clouds 19 1014 56 10000 1.5 0 15:19 06.10.2019
6498 Clouds 19 1014 59 10000 2.1 0 14:44 06.10.2019
6499 Clouds 19 1015 59 10000 3.1 110 14:25 06.10.2019
6500 Clouds 19 1015 59 10000 1.5 0 13:58 06.10.2019
6501 Clouds 18 1015 59 10000 1.5 0 13:39 06.10.2019
6502 Clouds 18 1016 63 10000 2.1 120 13:21 06.10.2019
6503 Clouds 18 1016 68 10000 1.5 0 12:57 06.10.2019
6504 Clouds 17 1016 68 10000 1.5 0 12:39 06.10.2019
6505 Clear 17 1015 67 10000 2.1 50 12:20 06.10.2019
6506 Clear 17 1015 67 10000 1.5 60 11:57 06.10.2019
6507 Clear 17 1015 67 10000 1.5 60 11:38 06.10.2019
6508 Clouds 16 1016 67 10000 1 0 11:20 06.10.2019
6509 Clouds 16 1016 77 9000 1.5 360 10:44 06.10.2019
6510 Clouds 15 1015 82 8000 2.1 20 10:26 06.10.2019
6511 Clouds 15 1015 82 8000 2.1 20 09:58 06.10.2019
6512 Clouds 14 1015 93 8000 2.6 20 09:39 06.10.2019
6513 Clouds 13 1015 93 6000 2.6 10 09:19 06.10.2019
6514 Mist 12 1015 100 4500 3.1 20 08:43 06.10.2019
6515 Mist 11 1015 93 4000 3.1 20 08:21 06.10.2019
6516 Mist 11 1014 93 4000 4.1 360 07:56 06.10.2019
6517 Mist 11 1014 93 4000 4.1 360 07:56 06.10.2019
6518 Clouds 11 1014 93 6000 3.6 360 07:33 06.10.2019
6519 Clear 11 1014 93 6000 3.1 60 06:20 06.10.2019
6520 Clear 12 1014 93 6000 2.1 60 05:34 06.10.2019
6521 Clear 12 1013 87 10000 3.1 70 03:56 06.10.2019
6522 Clear 13 1013 82 10000 3.1 90 02:43 06.10.2019
6523 Clouds 13 1013 76 10000 2.6 40 02:22 06.10.2019
6524 Clear 13 1013 87 10000 4.1 70 01:45 06.10.2019
6525 Clear 13 1012 87 10000 3.6 360 01:27 06.10.2019
6526 Clear 13 1012 87 10000 2.6 360 00:52 06.10.2019
6527 Clear 13 1012 93 10000 2.6 10 00:26 06.10.2019
6528 Clear 14 1012 87 10000 2.6 10 23:44 05.10.2019
6529 Clear 14 1011 87 10000 2.6 30 23:22 05.10.2019
6530 Clear 14 1011 87 10000 2.6 30 22:58 05.10.2019
6531 Clear 14 1011 82 10000 3.6 10 22:40 05.10.2019
6532 Clear 14 1011 82 10000 3.6 10 22:40 05.10.2019
6533 Clear 15 1011 76 10000 4.1 340 22:20 05.10.2019
6534 Clear 15 1011 76 10000 4.1 340 22:20 05.10.2019
6535 Clear 15 1011 72 10000 1.5 340 21:56 05.10.2019
6536 Clear 15 1011 72 10000 1.5 340 21:37 05.10.2019
6537 Clear 15 1010 72 10000 2.1 20 21:18 05.10.2019
6538 Clear 16 1010 67 10000 1.5 40 20:55 05.10.2019
6539 Clear 16 1010 67 10000 1.5 40 20:55 05.10.2019
6540 Clear 16 1010 67 10000 1.5 40 20:36 05.10.2019
6541 Clear 17 1010 48 10000 3.1 300 20:18 05.10.2019
6542 Clear 18 1010 45 10000 3.1 300 19:37 05.10.2019
6543 Clear 18 1009 52 10000 1.5 160 19:19 05.10.2019
6544 Clear 19 1009 43 10000 4.1 280 18:55 05.10.2019
6545 Clear 19 1009 43 10000 4.1 280 18:37 05.10.2019
6546 Clear 19 1009 43 10000 4.1 280 18:37 05.10.2019
6547 Clear 20 1009 37 10000 4.1 280 18:19 05.10.2019
6548 Clear 21 1009 43 10000 3.1 260 17:43 05.10.2019
6549 Clear 21 1009 43 10000 4.1 250 17:23 05.10.2019
6550 Clear 21 1009 43 10000 4.1 250 16:57 05.10.2019
6551 Clear 21 1009 40 10000 4.1 260 16:39 05.10.2019
6552 Clear 21 1009 46 10000 3.6 230 16:20 05.10.2019
6553 Clear 21 1009 46 10000 3.6 230 16:20 05.10.2019
6554 Clear 21 1009 43 10000 2.6 270 15:56 05.10.2019
6555 Clear 21 1009 43 10000 2.6 270 15:38 05.10.2019
6556 Clear 21 1009 46 10000 2.1 300 15:19 05.10.2019
6557 Clear 20 1009 49 10000 1.5 220 14:43 05.10.2019
6558 Clear 20 1010 49 10000 2.1 240 14:24 05.10.2019
6559 Clear 20 1010 52 10000 2.1 250 13:58 05.10.2019
6560 Clear 19 1010 52 10000 2.1 250 13:39 05.10.2019
6561 Clear 19 1010 55 10000 2.6 250 13:18 05.10.2019
6562 Clear 18 1011 63 10000 2.1 240 12:42 05.10.2019
6563 Clear 17 1010 59 10000 1 0 12:19 05.10.2019
6564 Clear 16 1011 63 10000 2.1 250 11:41 05.10.2019
6565 Clear 16 1011 67 10000 1.5 210 11:20 05.10.2019
6566 Clear 15 1010 67 10000 0.5 0 10:57 05.10.2019
6567 Clear 15 1010 67 10000 0.5 0 10:38 05.10.2019
6568 Clear 15 1010 67 10000 0.5 0 10:38 05.10.2019
6569 Clear 14 1010 76 10000 0.5 0 10:20 05.10.2019
6570 Clear 13 1010 87 10000 0.5 0 09:41 05.10.2019
6571 Clear 11 1010 100 10000 1.5 340 09:23 05.10.2019
6572 Fog 10 1010 100 10000 1.5 20 08:43 05.10.2019
6573 Fog 9 1009 100 10000 2.1 30 08:23 05.10.2019
6574 Fog 9 1009 100 10000 2.1 30 07:59 05.10.2019
6575 Fog 9 1009 100 10000 1.5 60 07:39 05.10.2019
6576 Fog 9 1009 100 10000 1.5 10 07:20 05.10.2019
6577 Fog 9 1009 100 10000 2.1 10 06:52 05.10.2019
6578 Fog 9 1009 100 10000 2.1 10 06:52 05.10.2019
6579 Fog 9 1009 100 10000 1.5 350 06:20 05.10.2019
6580 Fog 10 1009 100 10000 2.6 20 04:46 05.10.2019
6581 Fog 10 1009 93 10000 2.1 20 03:31 05.10.2019
6582 Clear 11 1010 93 10000 3.1 10 02:25 05.10.2019
6583 Clear 11 1010 93 10000 2.6 360 01:25 05.10.2019
6584 Clear 11 1010 93 10000 2.6 360 01:25 05.10.2019
6585 Clear 11 1010 93 10000 3.1 10 00:47 05.10.2019
6586 Clear 11 1010 93 10000 3.1 10 00:47 05.10.2019
6587 Clear 11 1010 100 10000 2.6 10 00:27 05.10.2019
6588 Clear 12 1010 93 10000 2.1 20 23:55 04.10.2019
6589 Clear 12 1010 93 10000 2.1 20 23:37 04.10.2019
6590 Clear 12 1011 87 10000 2.1 30 23:18 04.10.2019
6591 Clear 12 1011 93 10000 1 0 22:41 04.10.2019
6592 Clear 12 1011 81 10000 1 30 22:23 04.10.2019
6593 Clear 13 1011 81 10000 1.5 30 21:58 04.10.2019
6594 Clear 13 1011 81 10000 1.5 30 21:40 04.10.2019
6595 Clear 13 1011 67 10000 1.5 230 21:21 04.10.2019
6596 Clear 13 1011 71 10000 2.1 220 20:58 04.10.2019
6597 Clear 13 1011 71 10000 2.1 220 20:39 04.10.2019
6598 Clear 14 1011 71 10000 3.1 210 20:21 04.10.2019
6599 Clear 14 1011 71 10000 3.1 200 19:55 04.10.2019
6600 Clear 15 1011 71 10000 3.1 200 19:37 04.10.2019
6601 Clear 15 1011 67 10000 1.5 180 19:18 04.10.2019
6602 Clear 16 1011 63 10000 2.6 160 18:39 04.10.2019
6603 Clear 16 1011 55 10000 1.5 110 18:19 04.10.2019
6604 Clear 16 1011 55 10000 1.5 110 17:58 04.10.2019
6605 Clear 17 1011 59 10000 2.1 60 17:39 04.10.2019
6606 Clear 17 1011 59 10000 3.1 140 17:20 04.10.2019
6607 Clear 17 1011 55 10000 3.6 130 16:55 04.10.2019
6608 Clear 17 1011 55 10000 3.6 130 16:55 04.10.2019
6609 Clear 17 1011 55 10000 3.6 130 16:37 04.10.2019
6610 Clouds 17 1012 52 10000 3.1 110 16:18 04.10.2019
6611 Clouds 17 1012 55 10000 3.6 130 15:55 04.10.2019
6612 Clouds 17 1012 55 10000 3.6 130 15:55 04.10.2019
6613 Clouds 17 1012 55 10000 3.6 130 15:36 04.10.2019
6614 Clouds 17 1013 63 10000 3.6 150 15:18 04.10.2019
6615 Clouds 16 1013 59 10000 3.1 160 14:42 04.10.2019
6616 Clouds 16 1013 59 10000 2.6 160 14:22 04.10.2019
6617 Clouds 16 1013 59 10000 2.6 160 13:59 04.10.2019
6618 Clouds 17 1014 55 10000 2.1 130 13:40 04.10.2019
6619 Clouds 17 1014 48 10000 1 0 13:19 04.10.2019
6620 Clear 17 1014 51 10000 3.1 110 12:45 04.10.2019
6621 Clear 17 1014 51 10000 3.1 110 12:27 04.10.2019
6622 Clear 16 1015 51 10000 2.6 130 12:27 04.10.2019
6623 Clear 16 1015 55 10000 1.5 0 11:55 04.10.2019
6624 Clear 16 1015 55 10000 1.5 0 11:37 04.10.2019
6625 Clear 15 1015 59 10000 2.6 100 11:18 04.10.2019
6626 Clear 15 1015 67 10000 2.6 20 10:39 04.10.2019
6627 Clear 14 1015 71 10000 3.6 20 10:20 04.10.2019
6628 Clear 14 1015 71 10000 3.6 20 10:20 04.10.2019
6629 Clear 13 1015 81 10000 3.6 20 09:44 04.10.2019
6630 Clear 12 1015 87 10000 3.1 20 09:26 04.10.2019
6631 Clear 12 1015 81 10000 3.6 20 09:26 04.10.2019
6632 Clear 10 1015 93 10000 3.1 20 08:55 04.10.2019
6633 Clear 10 1015 93 10000 3.1 20 08:37 04.10.2019
6634 Clear 10 1015 93 10000 3.1 20 08:37 04.10.2019
6635 Clear 9 1015 93 10000 3.1 10 08:18 04.10.2019
6636 Clear 9 1015 93 10000 3.1 20 07:42 04.10.2019
6637 Clear 9 1014 93 10000 3.1 20 07:20 04.10.2019
6638 Clear 9 1015 87 10000 3.1 20 06:41 04.10.2019
6639 Clear 9 1015 93 10000 3.1 10 06:22 04.10.2019
6640 Clear 9 1015 87 10000 3.1 10 05:23 04.10.2019
6641 Clear 9 1015 87 10000 3.1 20 04:54 04.10.2019
6642 Clear 10 1015 87 10000 2.6 30 03:42 04.10.2019
6643 Clear 11 1015 81 10000 2.6 10 02:53 04.10.2019
6644 Clear 12 1015 81 10000 2.6 360 01:54 04.10.2019
6645 Clear 12 1015 81 10000 2.6 10 01:27 04.10.2019
6646 Clear 12 1015 76 10000 2.1 360 00:44 04.10.2019
6647 Clear 12 1015 76 10000 2.6 10 23:41 03.10.2019
6648 Clear 12 1015 76 10000 2.1 10 23:22 03.10.2019
6649 Clear 12 1015 76 10000 2.1 10 23:22 03.10.2019
6650 Clear 13 1015 66 10000 2.1 60 22:58 03.10.2019
6651 Clear 13 1015 66 10000 2.1 60 22:40 03.10.2019
6652 Clear 13 1015 66 10000 2.1 60 22:39 03.10.2019
6653 Clear 13 1015 58 10000 2.1 100 22:21 03.10.2019
6654 Clear 14 1014 58 10000 2.6 110 21:59 03.10.2019
6655 Clear 14 1014 58 10000 2.6 110 21:40 03.10.2019
6656 Clear 14 1014 51 10000 3.1 140 21:20 03.10.2019
6657 Clear 15 1013 51 10000 3.1 140 20:58 03.10.2019
6658 Clear 15 1013 51 10000 3.1 140 20:40 03.10.2019
6659 Clear 15 1013 51 10000 2.1 160 20:21 03.10.2019
6660 Clear 16 1013 44 10000 2.6 150 19:57 03.10.2019
6661 Clear 16 1013 44 10000 2.6 150 19:39 03.10.2019
6662 Clear 17 1012 39 10000 3.6 160 19:20 03.10.2019
6663 Clear 17 1012 39 10000 3.6 160 19:20 03.10.2019
6664 Clear 17 1012 39 10000 3.6 160 18:56 03.10.2019
6665 Clear 19 1012 34 10000 5.1 150 18:38 03.10.2019
6666 Clear 19 1012 34 10000 5.1 150 18:38 03.10.2019
6667 Clear 18 1012 34 10000 5.1 160 18:18 03.10.2019
6668 Clear 19 1012 24 10000 2.6 170 17:42 03.10.2019
6669 Clear 20 1012 24 10000 2.6 180 17:22 03.10.2019
6670 Clear 20 1012 26 10000 2.1 0 16:57 03.10.2019
6671 Clear 20 1012 26 10000 2.1 0 16:39 03.10.2019
6672 Clear 21 1012 15 10000 2.1 320 16:20 03.10.2019
6673 Clear 22 1012 13 10000 1 0 15:44 03.10.2019
6674 Clear 21 1012 12 10000 1.5 0 15:24 03.10.2019
6675 Clear 21 1012 17 10000 2.6 10 14:58 03.10.2019
6676 Clear 21 1012 17 10000 2.6 10 14:37 03.10.2019
6677 Clear 21 1013 17 10000 3.1 350 14:18 03.10.2019
6678 Clear 21 1013 15 10000 5.1 20 13:44 03.10.2019
6679 Clear 21 1013 16 10000 5.1 40 13:25 03.10.2019
6680 Clear 21 1013 16 10000 5.1 40 13:25 03.10.2019
6681 Clear 20 1013 16 10000 5.1 40 12:58 03.10.2019
6682 Clear 20 1013 18 10000 4.1 40 12:39 03.10.2019
6683 Clear 20 1013 18 10000 4.1 40 12:39 03.10.2019
6684 Clear 20 1013 19 10000 4.6 30 12:20 03.10.2019
6685 Clear 20 1013 19 10000 4.6 30 11:58 03.10.2019
6686 Clear 19 1013 18 10000 5.7 60 11:39 03.10.2019
6687 Clear 19 1013 20 10000 5.1 40 11:21 03.10.2019
6688 Clear 19 1012 20 10000 5.7 30 10:57 03.10.2019
6689 Clear 18 1012 20 10000 5.7 30 10:38 03.10.2019
6690 Clear 18 1012 25 10000 4.1 50 10:18 03.10.2019
6691 Clear 17 1012 25 10000 4.1 50 09:56 03.10.2019
6692 Clear 17 1011 25 10000 6.7 50 09:37 03.10.2019
6693 Clear 16 1011 26 10000 3.6 90 09:19 03.10.2019
6694 Clear 15 1011 28 10000 4.6 60 08:42 03.10.2019
6695 Clear 15 1010 28 10000 6.7 50 08:23 03.10.2019
6696 Clear 15 1010 30 10000 5.1 40 07:42 03.10.2019
6697 Clear 15 1009 30 10000 7.2 40 07:20 03.10.2019
6698 Clear 15 1009 30 10000 7.7 50 06:52 03.10.2019
6699 Clear 15 1009 30 10000 6.7 70 06:26 03.10.2019
6700 Clear 15 1009 30 10000 5.1 70 05:47 03.10.2019
6701 Clear 16 1009 26 10000 7.2 30 05:25 03.10.2019
6702 Clear 17 1009 25 10000 9.3 20 04:39 03.10.2019
6703 Clear 17 1008 36 10000 10.8 20 03:30 03.10.2019
6704 Clouds 17 1008 41 10000 6.7 40 02:45 03.10.2019
6705 Thunderstorm 17 1008 55 10000 6.7 20 02:19 03.10.2019
6706 Clouds 17 1007 48 10000 2.6 30 01:37 03.10.2019
6707 Clear 16 1007 72 10000 3.6 30 00:51 03.10.2019
6708 Clear 16 1007 87 10000 3.1 20 00:26 03.10.2019
6709 Clear 16 1007 82 10000 2.6 10 23:44 02.10.2019
6710 Clear 16 1006 87 10000 4.1 10 23:22 02.10.2019
6711 Clear 17 1006 87 10000 3.6 10 22:47 02.10.2019
6712 Clear 17 1006 87 10000 3.1 10 22:23 02.10.2019
6713 Clear 18 1006 87 10000 3.1 10 21:58 02.10.2019
6714 Clear 18 1005 77 10000 2.1 360 21:39 02.10.2019
6715 Clear 18 1005 77 10000 2.6 360 21:20 02.10.2019
6716 Clear 18 1005 77 10000 2.6 350 20:57 02.10.2019
6717 Clear 18 1005 77 10000 2.6 350 20:39 02.10.2019
6718 Clear 19 1004 60 10000 1.5 290 20:20 02.10.2019
6719 Clear 20 1004 60 10000 1.5 290 19:57 02.10.2019
6720 Clear 21 1004 60 10000 3.1 290 19:39 02.10.2019
6721 Clear 21 1004 56 10000 3.1 280 19:20 02.10.2019
6722 Clear 22 1004 56 10000 3.1 280 18:56 02.10.2019
6723 Clear 23 1004 50 10000 3.1 290 18:38 02.10.2019
6724 Clear 23 1004 44 10000 2.6 300 18:19 02.10.2019
6725 Clear 24 1003 44 10000 3.1 270 17:43 02.10.2019
6726 Clear 24 1003 44 10000 2.6 300 17:21 02.10.2019
6727 Clear 24 1003 44 10000 2.6 300 17:21 02.10.2019
6728 Clear 25 1003 44 10000 2.6 300 16:59 02.10.2019
6729 Clouds 25 1003 53 10000 3.1 230 16:41 02.10.2019
6730 Clouds 25 1003 53 10000 2.1 190 16:21 02.10.2019
6731 Clear 24 1003 47 10000 3.1 270 15:57 02.10.2019
6732 Clouds 24 1003 53 10000 3.1 230 15:38 02.10.2019
6733 Clouds 24 1003 53 10000 3.1 230 15:18 02.10.2019
6734 Clouds 24 1004 53 10000 2.1 0 14:55 02.10.2019
6735 Clouds 24 1004 53 10000 2.1 160 14:36 02.10.2019
6736 Clouds 24 1004 53 10000 2.1 160 14:36 02.10.2019
6737 Clouds 23 1004 53 10000 2.1 160 14:18 02.10.2019
6738 Clouds 23 1004 56 10000 1.5 330 13:41 02.10.2019
6739 Clouds 22 1004 56 10000 1.5 330 13:22 02.10.2019
6740 Clouds 22 1004 60 10000 1.5 0 12:54 02.10.2019
6741 Clouds 21 1004 60 10000 1 0 12:36 02.10.2019
6742 Clouds 21 1005 72 10000 1.5 200 12:18 02.10.2019
6743 Clouds 21 1004 60 10000 1 0 12:18 02.10.2019
6744 Clouds 21 1004 72 10000 1.5 340 11:41 02.10.2019
6745 Clouds 20 1004 72 10000 1.5 340 11:21 02.10.2019
6746 Clouds 19 1004 82 10000 3.6 360 10:40 02.10.2019
6747 Clouds 18 1004 82 10000 3.6 360 10:19 02.10.2019
6748 Clouds 17 1004 100 10000 1.5 40 09:42 02.10.2019
6749 Clouds 17 1004 100 10000 1.5 350 09:20 02.10.2019
6750 Fog 16 1004 100 10000 1.5 30 08:57 02.10.2019
6751 Fog 16 1005 100 10000 0.5 0 08:38 02.10.2019
6752 Fog 16 1003 93 10000 2.6 10 08:20 02.10.2019
6753 Clouds 16 1004 100 10000 3.1 360 07:43 02.10.2019
6754 Clouds 16 1003 100 10000 2.1 330 07:24 02.10.2019
6755 Clear 16 1003 100 10000 2.1 20 06:58 02.10.2019
6756 Clouds 16 1003 100 10000 2.1 30 06:27 02.10.2019
6757 Rain 16 1004 100 10000 3.1 10 05:49 02.10.2019
6758 Rain 16 1004 100 10000 2.6 10 05:20 02.10.2019
6759 Thunderstorm 16 1005 100 10000 2.1 340 03:53 02.10.2019
6760 Rain 17 1006 100 10000 1.5 80 03:24 02.10.2019
6761 Thunderstorm 17 1007 100 10000 1 0 02:26 02.10.2019
6762 Thunderstorm 18 1006 100 8000 2.1 100 01:56 02.10.2019
6763 Rain 18 1007 100 10000 1 350 00:52 02.10.2019
6764 Rain 18 1007 100 10000 2.1 360 00:29 02.10.2019
6765 Thunderstorm 18 1007 100 10000 0.5 0 23:54 01.10.2019
6766 Clouds 19 1008 100 10000 1.5 10 23:36 01.10.2019
6767 Clouds 19 1008 100 10000 1.5 10 23:18 01.10.2019
6768 Rain 19 1008 100 10000 3.1 360 22:57 01.10.2019
6769 Clouds